<?xml version="1.0" encoding="utf-8"?>
<gpx xmlns:xsi="http://www.w3.org/2001/XMLSchema-instance" xmlns:xsd="http://www.w3.org/2001/XMLSchema" version="1.1" creator="Shapelink.com" xmlns="http://www.topografix.com/GPX/1/1" xmlns:gpxtpx="http://www.garmin.com/xmlschemas/TrackPointExtension/v1">
  <metadata>
    <name>Ciclismo 62.52 km, 2020-02-09</name>
    <desc></desc>
    <author><name>Per Rooth</name></author> 
    <time>2020-02-09T08:48:52Z</time>
  </metadata>
  <trk>
    <name>Ciclismo 62.52 km, 2020-02-09</name>
    <trkseg>
      <trkpt lat="56.873384875592" lon="14.792845919667">
        <ele>175.6</ele>
        <time>2020-02-09T08:48:52Z</time>
      </trkpt>
      <trkpt lat="56.873830541215" lon="14.79337875705">
        <ele>175.2</ele>
        <time>2020-02-09T08:49:06Z</time>
      </trkpt>
      <trkpt lat="56.874144611008" lon="14.794115945155">
        <ele>175.8</ele>
        <time>2020-02-09T08:49:16Z</time>
      </trkpt>
      <trkpt lat="56.874428841237" lon="14.79480619462">
        <ele>175</ele>
        <time>2020-02-09T08:49:24Z</time>
      </trkpt>
      <trkpt lat="56.87464149004" lon="14.795098052378">
        <ele>174.4</ele>
        <time>2020-02-09T08:49:28Z</time>
      </trkpt>
      <trkpt lat="56.874858413612" lon="14.795414804379">
        <ele>173.6</ele>
        <time>2020-02-09T08:49:32Z</time>
      </trkpt>
      <trkpt lat="56.874942148793" lon="14.795606414613">
        <ele>173.2</ele>
        <time>2020-02-09T08:49:34Z</time>
      </trkpt>
      <trkpt lat="56.875060836497" lon="14.795893075593">
        <ele>172.2</ele>
        <time>2020-02-09T08:49:37Z</time>
      </trkpt>
      <trkpt lat="56.875108780965" lon="14.795966501037">
        <ele>172</ele>
        <time>2020-02-09T08:49:38Z</time>
      </trkpt>
      <trkpt lat="56.875207352109" lon="14.796087703311">
        <ele>171.8</ele>
        <time>2020-02-09T08:49:40Z</time>
      </trkpt>
      <trkpt lat="56.875268288522" lon="14.796257269148">
        <ele>171</ele>
        <time>2020-02-09T08:49:42Z</time>
      </trkpt>
      <trkpt lat="56.875274407309" lon="14.796367072038">
        <ele>170</ele>
        <time>2020-02-09T08:49:43Z</time>
      </trkpt>
      <trkpt lat="56.8752651034" lon="14.796489112502">
        <ele>168.8</ele>
        <time>2020-02-09T08:49:44Z</time>
      </trkpt>
      <trkpt lat="56.875251189446" lon="14.796618780495">
        <ele>167.8</ele>
        <time>2020-02-09T08:49:45Z</time>
      </trkpt>
      <trkpt lat="56.875223780633" lon="14.796889767322">
        <ele>166.4</ele>
        <time>2020-02-09T08:49:47Z</time>
      </trkpt>
      <trkpt lat="56.875175919984" lon="14.797288661943">
        <ele>165.2</ele>
        <time>2020-02-09T08:49:50Z</time>
      </trkpt>
      <trkpt lat="56.875158485632" lon="14.797416150642">
        <ele>164.8</ele>
        <time>2020-02-09T08:49:51Z</time>
      </trkpt>
      <trkpt lat="56.875038037729" lon="14.798078991294">
        <ele>164.4</ele>
        <time>2020-02-09T08:49:56Z</time>
      </trkpt>
      <trkpt lat="56.874957571489" lon="14.798375878192">
        <ele>164.4</ele>
        <time>2020-02-09T08:49:59Z</time>
      </trkpt>
      <trkpt lat="56.874890600108" lon="14.798638986033">
        <ele>164.6</ele>
        <time>2020-02-09T08:50:02Z</time>
      </trkpt>
      <trkpt lat="56.874818683406" lon="14.799270981293">
        <ele>164.8</ele>
        <time>2020-02-09T08:50:08Z</time>
      </trkpt>
      <trkpt lat="56.87480745166" lon="14.799373659568">
        <ele>164.6</ele>
        <time>2020-02-09T08:50:09Z</time>
      </trkpt>
      <trkpt lat="56.874690021241" lon="14.800221153477">
        <ele>166.2</ele>
        <time>2020-02-09T08:50:17Z</time>
      </trkpt>
      <trkpt lat="56.874624390964" lon="14.801036377071">
        <ele>166.4</ele>
        <time>2020-02-09T08:50:25Z</time>
      </trkpt>
      <trkpt lat="56.874580218351" lon="14.801506266385">
        <ele>167.8</ele>
        <time>2020-02-09T08:50:30Z</time>
      </trkpt>
      <trkpt lat="56.874548367131" lon="14.801756382281">
        <ele>168.8</ele>
        <time>2020-02-09T08:50:33Z</time>
      </trkpt>
      <trkpt lat="56.874506876726" lon="14.80206492002">
        <ele>170.2</ele>
        <time>2020-02-09T08:50:37Z</time>
      </trkpt>
      <trkpt lat="56.87447552842" lon="14.802289722578">
        <ele>171.2</ele>
        <time>2020-02-09T08:50:40Z</time>
      </trkpt>
      <trkpt lat="56.874466224511" lon="14.802363818574">
        <ele>171.4</ele>
        <time>2020-02-09T08:50:41Z</time>
      </trkpt>
      <trkpt lat="56.874451388548" lon="14.80267512234">
        <ele>172.4</ele>
        <time>2020-02-09T08:50:45Z</time>
      </trkpt>
      <trkpt lat="56.874442252277" lon="14.802845945462">
        <ele>172.8</ele>
        <time>2020-02-09T08:50:47Z</time>
      </trkpt>
      <trkpt lat="56.874411071609" lon="14.803620349203">
        <ele>173.4</ele>
        <time>2020-02-09T08:50:56Z</time>
      </trkpt>
      <trkpt lat="56.874354493784" lon="14.804691556023">
        <ele>173.2</ele>
        <time>2020-02-09T08:51:07Z</time>
      </trkpt>
      <trkpt lat="56.874353655594" lon="14.804792474099">
        <ele>173.2</ele>
        <time>2020-02-09T08:51:08Z</time>
      </trkpt>
      <trkpt lat="56.874390535954" lon="14.804965476515">
        <ele>173</ele>
        <time>2020-02-09T08:51:10Z</time>
      </trkpt>
      <trkpt lat="56.874487011623" lon="14.805060862537">
        <ele>173</ele>
        <time>2020-02-09T08:51:12Z</time>
      </trkpt>
      <trkpt lat="56.875085227826" lon="14.80518969234">
        <ele>173.8</ele>
        <time>2020-02-09T08:51:22Z</time>
      </trkpt>
      <trkpt lat="56.875138285253" lon="14.80521316166">
        <ele>174</ele>
        <time>2020-02-09T08:51:23Z</time>
      </trkpt>
      <trkpt lat="56.875278849716" lon="14.805288179665">
        <ele>174.2</ele>
        <time>2020-02-09T08:51:26Z</time>
      </trkpt>
      <trkpt lat="56.875368787503" lon="14.8052936279">
        <ele>174.6</ele>
        <time>2020-02-09T08:51:28Z</time>
      </trkpt>
      <trkpt lat="56.875451600675" lon="14.805320198523">
        <ele>175</ele>
        <time>2020-02-09T08:51:30Z</time>
      </trkpt>
      <trkpt lat="56.875473980348" lon="14.805439221503">
        <ele>175.4</ele>
        <time>2020-02-09T08:51:32Z</time>
      </trkpt>
      <trkpt lat="56.875463335335" lon="14.80552245377">
        <ele>175.6</ele>
        <time>2020-02-09T08:51:33Z</time>
      </trkpt>
      <trkpt lat="56.875448415553" lon="14.805616163412">
        <ele>175.8</ele>
        <time>2020-02-09T08:51:34Z</time>
      </trkpt>
      <trkpt lat="56.875357639576" lon="14.806674629744">
        <ele>175</ele>
        <time>2020-02-09T08:51:44Z</time>
      </trkpt>
      <trkpt lat="56.875321765044" lon="14.806994231591">
        <ele>174.4</ele>
        <time>2020-02-09T08:51:47Z</time>
      </trkpt>
      <trkpt lat="56.875240628252" lon="14.807611390888">
        <ele>173.2</ele>
        <time>2020-02-09T08:51:52Z</time>
      </trkpt>
      <trkpt lat="56.875221936615" lon="14.807869637227">
        <ele>171.6</ele>
        <time>2020-02-09T08:51:54Z</time>
      </trkpt>
      <trkpt lat="56.875199221666" lon="14.808139199131">
        <ele>170.6</ele>
        <time>2020-02-09T08:51:56Z</time>
      </trkpt>
      <trkpt lat="56.875152450664" lon="14.8088475535">
        <ele>169.2</ele>
        <time>2020-02-09T08:52:01Z</time>
      </trkpt>
      <trkpt lat="56.875133926665" lon="14.809116780128">
        <ele>168.2</ele>
        <time>2020-02-09T08:52:03Z</time>
      </trkpt>
      <trkpt lat="56.875126047679" lon="14.809369242956">
        <ele>167</ele>
        <time>2020-02-09T08:52:05Z</time>
      </trkpt>
      <trkpt lat="56.875195030716" lon="14.809740142031">
        <ele>166</ele>
        <time>2020-02-09T08:52:08Z</time>
      </trkpt>
      <trkpt lat="56.875251273265" lon="14.809841143926">
        <ele>166</ele>
        <time>2020-02-09T08:52:09Z</time>
      </trkpt>
      <trkpt lat="56.875312712592" lon="14.809900739235">
        <ele>166</ele>
        <time>2020-02-09T08:52:10Z</time>
      </trkpt>
      <trkpt lat="56.875907492216" lon="14.810135683892">
        <ele>166</ele>
        <time>2020-02-09T08:52:18Z</time>
      </trkpt>
      <trkpt lat="56.876452399535" lon="14.810344728478">
        <ele>165</ele>
        <time>2020-02-09T08:52:26Z</time>
      </trkpt>
      <trkpt lat="56.876561028959" lon="14.810473139186">
        <ele>165</ele>
        <time>2020-02-09T08:52:28Z</time>
      </trkpt>
      <trkpt lat="56.876687930925" lon="14.810754100474">
        <ele>165.8</ele>
        <time>2020-02-09T08:52:31Z</time>
      </trkpt>
      <trkpt lat="56.876728247864" lon="14.810850408505">
        <ele>166</ele>
        <time>2020-02-09T08:52:32Z</time>
      </trkpt>
      <trkpt lat="56.87676630169" lon="14.810949985477">
        <ele>166</ele>
        <time>2020-02-09T08:52:33Z</time>
      </trkpt>
      <trkpt lat="56.876804187878" lon="14.811190126912">
        <ele>166</ele>
        <time>2020-02-09T08:52:35Z</time>
      </trkpt>
      <trkpt lat="56.876793375227" lon="14.81145516259">
        <ele>165.2</ele>
        <time>2020-02-09T08:52:37Z</time>
      </trkpt>
      <trkpt lat="56.876784574232" lon="14.81158256747">
        <ele>164.6</ele>
        <time>2020-02-09T08:52:38Z</time>
      </trkpt>
      <trkpt lat="56.876747190958" lon="14.811961177893">
        <ele>163.6</ele>
        <time>2020-02-09T08:52:41Z</time>
      </trkpt>
      <trkpt lat="56.876734701927" lon="14.812090929705">
        <ele>163.6</ele>
        <time>2020-02-09T08:52:42Z</time>
      </trkpt>
      <trkpt lat="56.876681057767" lon="14.812707669907">
        <ele>163.8</ele>
        <time>2020-02-09T08:52:47Z</time>
      </trkpt>
      <trkpt lat="56.876682901785" lon="14.812823591584">
        <ele>163.8</ele>
        <time>2020-02-09T08:52:48Z</time>
      </trkpt>
      <trkpt lat="56.876747610053" lon="14.812999360027">
        <ele>164</ele>
        <time>2020-02-09T08:52:50Z</time>
      </trkpt>
      <trkpt lat="56.876861771531" lon="14.813029031953">
        <ele>164.2</ele>
        <time>2020-02-09T08:52:52Z</time>
      </trkpt>
      <trkpt lat="56.876925473971" lon="14.813031462704">
        <ele>164.6</ele>
        <time>2020-02-09T08:52:53Z</time>
      </trkpt>
      <trkpt lat="56.877109540495" lon="14.813035737473">
        <ele>165.8</ele>
        <time>2020-02-09T08:52:56Z</time>
      </trkpt>
      <trkpt lat="56.877230575131" lon="14.81307286929">
        <ele>166.4</ele>
        <time>2020-02-09T08:52:58Z</time>
      </trkpt>
      <trkpt lat="56.877350017206" lon="14.813076473507">
        <ele>166.8</ele>
        <time>2020-02-09T08:53:00Z</time>
      </trkpt>
      <trkpt lat="56.877415479845" lon="14.813085023045">
        <ele>167</ele>
        <time>2020-02-09T08:53:01Z</time>
      </trkpt>
      <trkpt lat="56.877739775556" lon="14.8131893777">
        <ele>168</ele>
        <time>2020-02-09T08:53:06Z</time>
      </trkpt>
      <trkpt lat="56.877926524288" lon="14.813265820628">
        <ele>168.2</ele>
        <time>2020-02-09T08:53:09Z</time>
      </trkpt>
      <trkpt lat="56.878202288798" lon="14.813318794236">
        <ele>169</ele>
        <time>2020-02-09T08:53:16Z</time>
      </trkpt>
      <trkpt lat="56.878756583845" lon="14.813446869668">
        <ele>168.6</ele>
        <time>2020-02-09T08:53:27Z</time>
      </trkpt>
      <trkpt lat="56.878875355368" lon="14.813466064219">
        <ele>168.4</ele>
        <time>2020-02-09T08:53:29Z</time>
      </trkpt>
      <trkpt lat="56.87898499062" lon="14.813557678386">
        <ele>168.4</ele>
        <time>2020-02-09T08:53:31Z</time>
      </trkpt>
      <trkpt lat="56.879043244825" lon="14.813736883408">
        <ele>168.2</ele>
        <time>2020-02-09T08:53:33Z</time>
      </trkpt>
      <trkpt lat="56.879056739684" lon="14.81404516969">
        <ele>168</ele>
        <time>2020-02-09T08:53:36Z</time>
      </trkpt>
      <trkpt lat="56.879119017201" lon="14.814192020578">
        <ele>168</ele>
        <time>2020-02-09T08:53:38Z</time>
      </trkpt>
      <trkpt lat="56.879235441792" lon="14.814255136285">
        <ele>168.4</ele>
        <time>2020-02-09T08:53:40Z</time>
      </trkpt>
      <trkpt lat="56.879811697417" lon="14.814373237256">
        <ele>168.6</ele>
        <time>2020-02-09T08:53:49Z</time>
      </trkpt>
      <trkpt lat="56.87991957247" lon="14.814477005178">
        <ele>168.6</ele>
        <time>2020-02-09T08:53:51Z</time>
      </trkpt>
      <trkpt lat="56.879958632124" lon="14.814562752015">
        <ele>168.4</ele>
        <time>2020-02-09T08:53:52Z</time>
      </trkpt>
      <trkpt lat="56.879997356502" lon="14.814639697857">
        <ele>168.4</ele>
        <time>2020-02-09T08:53:53Z</time>
      </trkpt>
      <trkpt lat="56.880101543519" lon="14.814720667011">
        <ele>168.6</ele>
        <time>2020-02-09T08:53:55Z</time>
      </trkpt>
      <trkpt lat="56.880280664722" lon="14.814759978122">
        <ele>169.2</ele>
        <time>2020-02-09T08:53:58Z</time>
      </trkpt>
      <trkpt lat="56.880708979812" lon="14.81486156675">
        <ele>170.2</ele>
        <time>2020-02-09T08:54:05Z</time>
      </trkpt>
      <trkpt lat="56.881178785307" lon="14.815051416785">
        <ele>171.2</ele>
        <time>2020-02-09T08:54:13Z</time>
      </trkpt>
      <trkpt lat="56.88122044335" lon="14.815113778121">
        <ele>171.4</ele>
        <time>2020-02-09T08:54:14Z</time>
      </trkpt>
      <trkpt lat="56.881253300398" lon="14.815199860234">
        <ele>171.4</ele>
        <time>2020-02-09T08:54:15Z</time>
      </trkpt>
      <trkpt lat="56.881321445245" lon="14.815486269757">
        <ele>171.4</ele>
        <time>2020-02-09T08:54:18Z</time>
      </trkpt>
      <trkpt lat="56.881357152139" lon="14.815681651846">
        <ele>171.2</ele>
        <time>2020-02-09T08:54:20Z</time>
      </trkpt>
      <trkpt lat="56.881435606723" lon="14.815806374518">
        <ele>171.2</ele>
        <time>2020-02-09T08:54:22Z</time>
      </trkpt>
      <trkpt lat="56.881539123188" lon="14.815822467766">
        <ele>171.8</ele>
        <time>2020-02-09T08:54:24Z</time>
      </trkpt>
      <trkpt lat="56.881643310205" lon="14.815789694537">
        <ele>172.6</ele>
        <time>2020-02-09T08:54:26Z</time>
      </trkpt>
      <trkpt lat="56.881741881349" lon="14.815740325146">
        <ele>173.8</ele>
        <time>2020-02-09T08:54:28Z</time>
      </trkpt>
      <trkpt lat="56.881831986774" lon="14.815685842796">
        <ele>175</ele>
        <time>2020-02-09T08:54:30Z</time>
      </trkpt>
      <trkpt lat="56.881878003405" lon="14.815669749548">
        <ele>175.4</ele>
        <time>2020-02-09T08:54:31Z</time>
      </trkpt>
      <trkpt lat="56.881983531526" lon="14.815751389254">
        <ele>176.2</ele>
        <time>2020-02-09T08:54:34Z</time>
      </trkpt>
      <trkpt lat="56.881993505987" lon="14.815808889088">
        <ele>176.6</ele>
        <time>2020-02-09T08:54:35Z</time>
      </trkpt>
      <trkpt lat="56.881972467418" lon="14.815992871793">
        <ele>177.2</ele>
        <time>2020-02-09T08:54:38Z</time>
      </trkpt>
      <trkpt lat="56.881912620652" lon="14.816284310456">
        <ele>178.2</ele>
        <time>2020-02-09T08:54:43Z</time>
      </trkpt>
      <trkpt lat="56.88189937725" lon="14.816400986504">
        <ele>179.8</ele>
        <time>2020-02-09T08:54:45Z</time>
      </trkpt>
      <trkpt lat="56.881888899875" lon="14.816519590389">
        <ele>181</ele>
        <time>2020-02-09T08:54:47Z</time>
      </trkpt>
      <trkpt lat="56.88185579137" lon="14.816834414553">
        <ele>182.2</ele>
        <time>2020-02-09T08:54:52Z</time>
      </trkpt>
      <trkpt lat="56.881848834393" lon="14.816958215216">
        <ele>183.4</ele>
        <time>2020-02-09T08:54:54Z</time>
      </trkpt>
      <trkpt lat="56.881832405869" lon="14.817140018627">
        <ele>184.6</ele>
        <time>2020-02-09T08:54:57Z</time>
      </trkpt>
      <trkpt lat="56.881816312621" lon="14.81733255087">
        <ele>185.6</ele>
        <time>2020-02-09T08:55:00Z</time>
      </trkpt>
      <trkpt lat="56.881806924893" lon="14.817520053973">
        <ele>186.8</ele>
        <time>2020-02-09T08:55:03Z</time>
      </trkpt>
      <trkpt lat="56.881794435862" lon="14.817831106282">
        <ele>188</ele>
        <time>2020-02-09T08:55:08Z</time>
      </trkpt>
      <trkpt lat="56.881786053962" lon="14.818019279937">
        <ele>189</ele>
        <time>2020-02-09T08:55:11Z</time>
      </trkpt>
      <trkpt lat="56.881790496369" lon="14.818857972851">
        <ele>188.6</ele>
        <time>2020-02-09T08:55:21Z</time>
      </trkpt>
      <trkpt lat="56.881778091157" lon="14.81927798986">
        <ele>188</ele>
        <time>2020-02-09T08:55:25Z</time>
      </trkpt>
      <trkpt lat="56.881784964315" lon="14.819382428334">
        <ele>187.8</ele>
        <time>2020-02-09T08:55:26Z</time>
      </trkpt>
      <trkpt lat="56.881834417525" lon="14.819540510968">
        <ele>187.6</ele>
        <time>2020-02-09T08:55:28Z</time>
      </trkpt>
      <trkpt lat="56.881926450787" lon="14.819604716322">
        <ele>186.6</ele>
        <time>2020-02-09T08:55:30Z</time>
      </trkpt>
      <trkpt lat="56.882102889782" lon="14.819627850366">
        <ele>185.6</ele>
        <time>2020-02-09T08:55:33Z</time>
      </trkpt>
      <trkpt lat="56.882201293288" lon="14.81968283563">
        <ele>185.2</ele>
        <time>2020-02-09T08:55:35Z</time>
      </trkpt>
      <trkpt lat="56.882272790895" lon="14.819865644869">
        <ele>184.8</ele>
        <time>2020-02-09T08:55:37Z</time>
      </trkpt>
      <trkpt lat="56.882298188052" lon="14.820099667517">
        <ele>184.4</ele>
        <time>2020-02-09T08:55:39Z</time>
      </trkpt>
      <trkpt lat="56.882297098405" lon="14.820216511203">
        <ele>184.2</ele>
        <time>2020-02-09T08:55:40Z</time>
      </trkpt>
      <trkpt lat="56.882280334605" lon="14.820455898267">
        <ele>183.4</ele>
        <time>2020-02-09T08:55:42Z</time>
      </trkpt>
      <trkpt lat="56.882243370426" lon="14.820918495328">
        <ele>182.4</ele>
        <time>2020-02-09T08:55:46Z</time>
      </trkpt>
      <trkpt lat="56.882208334084" lon="14.821311271162">
        <ele>182.2</ele>
        <time>2020-02-09T08:55:50Z</time>
      </trkpt>
      <trkpt lat="56.882171369905" lon="14.821489721813">
        <ele>182.4</ele>
        <time>2020-02-09T08:55:52Z</time>
      </trkpt>
      <trkpt lat="56.882090819846" lon="14.821553088977">
        <ele>182.4</ele>
        <time>2020-02-09T08:55:54Z</time>
      </trkpt>
      <trkpt lat="56.881739031503" lon="14.821483016293">
        <ele>181.4</ele>
        <time>2020-02-09T08:56:02Z</time>
      </trkpt>
      <trkpt lat="56.88163283283" lon="14.821588125319">
        <ele>181.8</ele>
        <time>2020-02-09T08:56:05Z</time>
      </trkpt>
      <trkpt lat="56.881581367964" lon="14.82176489959">
        <ele>182.6</ele>
        <time>2020-02-09T08:56:07Z</time>
      </trkpt>
      <trkpt lat="56.881548427097" lon="14.822079137021">
        <ele>183.8</ele>
        <time>2020-02-09T08:56:10Z</time>
      </trkpt>
      <trkpt lat="56.881499644439" lon="14.823134753507">
        <ele>182.6</ele>
        <time>2020-02-09T08:56:20Z</time>
      </trkpt>
      <trkpt lat="56.881438288931" lon="14.824179305885">
        <ele>182.6</ele>
        <time>2020-02-09T08:56:30Z</time>
      </trkpt>
      <trkpt lat="56.881407108263" lon="14.824927558098">
        <ele>183</ele>
        <time>2020-02-09T08:56:38Z</time>
      </trkpt>
      <trkpt lat="56.881402414399" lon="14.82548478681">
        <ele>183.6</ele>
        <time>2020-02-09T08:56:44Z</time>
      </trkpt>
      <trkpt lat="56.881397971992" lon="14.825791229074">
        <ele>183.6</ele>
        <time>2020-02-09T08:56:47Z</time>
      </trkpt>
      <trkpt lat="56.881378190708" lon="14.826713824807">
        <ele>184.2</ele>
        <time>2020-02-09T08:56:56Z</time>
      </trkpt>
      <trkpt lat="56.881385147685" lon="14.826910380362">
        <ele>184.8</ele>
        <time>2020-02-09T08:56:58Z</time>
      </trkpt>
      <trkpt lat="56.881402749675" lon="14.827934648542">
        <ele>183.8</ele>
        <time>2020-02-09T08:57:08Z</time>
      </trkpt>
      <trkpt lat="56.881399145458" lon="14.82804461907">
        <ele>183.4</ele>
        <time>2020-02-09T08:57:09Z</time>
      </trkpt>
      <trkpt lat="56.881407024444" lon="14.82826087209">
        <ele>182.8</ele>
        <time>2020-02-09T08:57:11Z</time>
      </trkpt>
      <trkpt lat="56.881475420748" lon="14.828424235321">
        <ele>182.6</ele>
        <time>2020-02-09T08:57:13Z</time>
      </trkpt>
      <trkpt lat="56.881614727926" lon="14.828590867493">
        <ele>183</ele>
        <time>2020-02-09T08:57:16Z</time>
      </trkpt>
      <trkpt lat="56.881795860785" lon="14.828839474647">
        <ele>182</ele>
        <time>2020-02-09T08:57:19Z</time>
      </trkpt>
      <trkpt lat="56.881860736691" lon="14.828945086587">
        <ele>180.8</ele>
        <time>2020-02-09T08:57:20Z</time>
      </trkpt>
      <trkpt lat="56.881915554317" lon="14.829058409875">
        <ele>179.6</ele>
        <time>2020-02-09T08:57:21Z</time>
      </trkpt>
      <trkpt lat="56.881962576776" lon="14.829193358465">
        <ele>178.6</ele>
        <time>2020-02-09T08:57:22Z</time>
      </trkpt>
      <trkpt lat="56.882038432971" lon="14.829493262847">
        <ele>177.6</ele>
        <time>2020-02-09T08:57:24Z</time>
      </trkpt>
      <trkpt lat="56.882196515605" lon="14.830487523825">
        <ele>178.2</ele>
        <time>2020-02-09T08:57:32Z</time>
      </trkpt>
      <trkpt lat="56.882254518353" lon="14.830816010486">
        <ele>178.6</ele>
        <time>2020-02-09T08:57:35Z</time>
      </trkpt>
      <trkpt lat="56.882262229701" lon="14.830925394281">
        <ele>178.8</ele>
        <time>2020-02-09T08:57:36Z</time>
      </trkpt>
      <trkpt lat="56.882251752326" lon="14.831166122449">
        <ele>178.2</ele>
        <time>2020-02-09T08:57:38Z</time>
      </trkpt>
      <trkpt lat="56.882149493146" lon="14.831336694114">
        <ele>177.4</ele>
        <time>2020-02-09T08:57:40Z</time>
      </trkpt>
      <trkpt lat="56.881962995871" lon="14.831458902216">
        <ele>176.2</ele>
        <time>2020-02-09T08:57:43Z</time>
      </trkpt>
      <trkpt lat="56.881808517454" lon="14.831554036781">
        <ele>175.6</ele>
        <time>2020-02-09T08:57:46Z</time>
      </trkpt>
      <trkpt lat="56.881729476137" lon="14.831676663978">
        <ele>175.6</ele>
        <time>2020-02-09T08:57:48Z</time>
      </trkpt>
      <trkpt lat="56.881698463107" lon="14.831877075207">
        <ele>176</ele>
        <time>2020-02-09T08:57:50Z</time>
      </trkpt>
      <trkpt lat="56.881740204969" lon="14.8320570346">
        <ele>176.4</ele>
        <time>2020-02-09T08:57:52Z</time>
      </trkpt>
      <trkpt lat="56.881881272346" lon="14.832456767411">
        <ele>176.2</ele>
        <time>2020-02-09T08:57:56Z</time>
      </trkpt>
      <trkpt lat="56.881953440505" lon="14.832665225264">
        <ele>176.4</ele>
        <time>2020-02-09T08:57:58Z</time>
      </trkpt>
      <trkpt lat="56.882086125982" lon="14.832926153811">
        <ele>177.4</ele>
        <time>2020-02-09T08:58:01Z</time>
      </trkpt>
      <trkpt lat="56.882224846427" lon="14.833133605836">
        <ele>178.4</ele>
        <time>2020-02-09T08:58:04Z</time>
      </trkpt>
      <trkpt lat="56.882359878836" lon="14.83332353969">
        <ele>179.6</ele>
        <time>2020-02-09T08:58:07Z</time>
      </trkpt>
      <trkpt lat="56.88249616853" lon="14.833520011426">
        <ele>180.6</ele>
        <time>2020-02-09T08:58:10Z</time>
      </trkpt>
      <trkpt lat="56.882539670591" lon="14.833580696382">
        <ele>180.8</ele>
        <time>2020-02-09T08:58:11Z</time>
      </trkpt>
      <trkpt lat="56.882689203687" lon="14.833846067336">
        <ele>182</ele>
        <time>2020-02-09T08:58:15Z</time>
      </trkpt>
      <trkpt lat="56.8828339591" lon="14.834117640896">
        <ele>183</ele>
        <time>2020-02-09T08:58:19Z</time>
      </trkpt>
      <trkpt lat="56.882871761469" lon="14.834175895101">
        <ele>183</ele>
        <time>2020-02-09T08:58:20Z</time>
      </trkpt>
      <trkpt lat="56.883131935645" lon="14.834611250987">
        <ele>183.2</ele>
        <time>2020-02-09T08:58:26Z</time>
      </trkpt>
      <trkpt lat="56.883241067983" lon="14.834727088845">
        <ele>183.4</ele>
        <time>2020-02-09T08:58:28Z</time>
      </trkpt>
      <trkpt lat="56.883785388569" lon="14.835030262168">
        <ele>182.6</ele>
        <time>2020-02-09T08:58:37Z</time>
      </trkpt>
      <trkpt lat="56.883965264143" lon="14.835243246247">
        <ele>182</ele>
        <time>2020-02-09T08:58:40Z</time>
      </trkpt>
      <trkpt lat="56.884314537916" lon="14.835682541626">
        <ele>183.2</ele>
        <time>2020-02-09T08:58:47Z</time>
      </trkpt>
      <trkpt lat="56.884385197333" lon="14.835777257096">
        <ele>184.6</ele>
        <time>2020-02-09T08:58:49Z</time>
      </trkpt>
      <trkpt lat="56.884445044099" lon="14.835849173798">
        <ele>186</ele>
        <time>2020-02-09T08:58:51Z</time>
      </trkpt>
      <trkpt lat="56.884499274992" lon="14.835917402464">
        <ele>187.2</ele>
        <time>2020-02-09T08:58:53Z</time>
      </trkpt>
      <trkpt lat="56.884560379043" lon="14.835993258659">
        <ele>188.4</ele>
        <time>2020-02-09T08:58:55Z</time>
      </trkpt>
      <trkpt lat="56.88499397473" lon="14.83663271381">
        <ele>187.8</ele>
        <time>2020-02-09T08:59:06Z</time>
      </trkpt>
      <trkpt lat="56.885206707352" lon="14.836993303148">
        <ele>187.4</ele>
        <time>2020-02-09T08:59:11Z</time>
      </trkpt>
      <trkpt lat="56.885324473047" lon="14.837172759627">
        <ele>187.6</ele>
        <time>2020-02-09T08:59:14Z</time>
      </trkpt>
      <trkpt lat="56.885487501002" lon="14.837353808667">
        <ele>188.6</ele>
        <time>2020-02-09T08:59:18Z</time>
      </trkpt>
      <trkpt lat="56.885530332511" lon="14.83739127576">
        <ele>189.2</ele>
        <time>2020-02-09T08:59:19Z</time>
      </trkpt>
      <trkpt lat="56.885579701902" lon="14.837431173604">
        <ele>189.8</ele>
        <time>2020-02-09T08:59:20Z</time>
      </trkpt>
      <trkpt lat="56.885623958334" lon="14.837472999285">
        <ele>190.4</ele>
        <time>2020-02-09T08:59:21Z</time>
      </trkpt>
      <trkpt lat="56.885669974965" lon="14.837516585165">
        <ele>190.8</ele>
        <time>2020-02-09T08:59:22Z</time>
      </trkpt>
      <trkpt lat="56.885857142792" lon="14.837681373319">
        <ele>191.8</ele>
        <time>2020-02-09T08:59:27Z</time>
      </trkpt>
      <trkpt lat="56.885953534642" lon="14.837778435721">
        <ele>193.4</ele>
        <time>2020-02-09T08:59:30Z</time>
      </trkpt>
      <trkpt lat="56.88605596146" lon="14.83788916062">
        <ele>194.8</ele>
        <time>2020-02-09T08:59:33Z</time>
      </trkpt>
      <trkpt lat="56.886224605288" lon="14.838081609044">
        <ele>195.6</ele>
        <time>2020-02-09T08:59:37Z</time>
      </trkpt>
      <trkpt lat="56.886680999743" lon="14.838753585967">
        <ele>195</ele>
        <time>2020-02-09T08:59:48Z</time>
      </trkpt>
      <trkpt lat="56.887078217984" lon="14.839244681488">
        <ele>194</ele>
        <time>2020-02-09T08:59:55Z</time>
      </trkpt>
      <trkpt lat="56.887142926252" lon="14.839404691959">
        <ele>193.8</ele>
        <time>2020-02-09T08:59:57Z</time>
      </trkpt>
      <trkpt lat="56.887294890099" lon="14.839833509963">
        <ele>194</ele>
        <time>2020-02-09T09:00:02Z</time>
      </trkpt>
      <trkpt lat="56.887346606422" lon="14.840052109915">
        <ele>193.6</ele>
        <time>2020-02-09T09:00:04Z</time>
      </trkpt>
      <trkpt lat="56.887460181167" lon="14.840481347014">
        <ele>192.6</ele>
        <time>2020-02-09T09:00:08Z</time>
      </trkpt>
      <trkpt lat="56.887520614666" lon="14.840641441304">
        <ele>192.4</ele>
        <time>2020-02-09T09:00:10Z</time>
      </trkpt>
      <trkpt lat="56.887567469487" lon="14.840771193116">
        <ele>193.8</ele>
        <time>2020-02-09T09:00:13Z</time>
      </trkpt>
      <trkpt lat="56.887573252998" lon="14.840798685748">
        <ele>194.6</ele>
        <time>2020-02-09T09:00:15Z</time>
      </trkpt>
      <trkpt lat="56.887623879674" lon="14.840775803161">
        <ele>195</ele>
        <time>2020-02-09T09:02:03Z</time>
      </trkpt>
      <trkpt lat="56.887653803057" lon="14.840820227231">
        <ele>195.4</ele>
        <time>2020-02-09T09:02:08Z</time>
      </trkpt>
      <trkpt lat="56.887691102512" lon="14.840833386814">
        <ele>195.4</ele>
        <time>2020-02-09T09:02:10Z</time>
      </trkpt>
      <trkpt lat="56.887988576143" lon="14.840807822019">
        <ele>196</ele>
        <time>2020-02-09T09:02:19Z</time>
      </trkpt>
      <trkpt lat="56.888185550793" lon="14.840808744028">
        <ele>197.2</ele>
        <time>2020-02-09T09:02:24Z</time>
      </trkpt>
      <trkpt lat="56.888336005898" lon="14.840794075703">
        <ele>198.2</ele>
        <time>2020-02-09T09:02:30Z</time>
      </trkpt>
      <trkpt lat="56.888427033332" lon="14.840743700484">
        <ele>199.4</ele>
        <time>2020-02-09T09:02:34Z</time>
      </trkpt>
      <trkpt lat="56.888585367423" lon="14.840590898447">
        <ele>198.8</ele>
        <time>2020-02-09T09:02:40Z</time>
      </trkpt>
      <trkpt lat="56.888629875312" lon="14.840561561797">
        <ele>197.6</ele>
        <time>2020-02-09T09:02:41Z</time>
      </trkpt>
      <trkpt lat="56.888683351834" lon="14.840518814107">
        <ele>196.2</ele>
        <time>2020-02-09T09:02:42Z</time>
      </trkpt>
      <trkpt lat="56.888738672374" lon="14.840461398092">
        <ele>195.2</ele>
        <time>2020-02-09T09:02:43Z</time>
      </trkpt>
      <trkpt lat="56.888807655411" lon="14.840429965967">
        <ele>194.6</ele>
        <time>2020-02-09T09:02:44Z</time>
      </trkpt>
      <trkpt lat="56.888868508005" lon="14.840418231307">
        <ele>194</ele>
        <time>2020-02-09T09:02:45Z</time>
      </trkpt>
      <trkpt lat="56.889002031672" lon="14.840460811359">
        <ele>193.4</ele>
        <time>2020-02-09T09:02:47Z</time>
      </trkpt>
      <trkpt lat="56.889160281944" lon="14.840577152131">
        <ele>193.2</ele>
        <time>2020-02-09T09:02:49Z</time>
      </trkpt>
      <trkpt lat="56.889459264317" lon="14.840719225336">
        <ele>193.6</ele>
        <time>2020-02-09T09:02:53Z</time>
      </trkpt>
      <trkpt lat="56.889542748041" lon="14.84079851811">
        <ele>194</ele>
        <time>2020-02-09T09:02:55Z</time>
      </trkpt>
      <trkpt lat="56.889646683601" lon="14.840894155589">
        <ele>195.2</ele>
        <time>2020-02-09T09:02:58Z</time>
      </trkpt>
      <trkpt lat="56.889702842331" lon="14.840955092002">
        <ele>196.4</ele>
        <time>2020-02-09T09:03:00Z</time>
      </trkpt>
      <trkpt lat="56.890043063652" lon="14.841198250921">
        <ele>194.8</ele>
        <time>2020-02-09T09:03:05Z</time>
      </trkpt>
      <trkpt lat="56.890126715014" lon="14.841254242013">
        <ele>193.6</ele>
        <time>2020-02-09T09:03:06Z</time>
      </trkpt>
      <trkpt lat="56.890272727712" lon="14.841325069068">
        <ele>191.8</ele>
        <time>2020-02-09T09:03:08Z</time>
      </trkpt>
      <trkpt lat="56.890434079287" lon="14.841429926637">
        <ele>190.8</ele>
        <time>2020-02-09T09:03:10Z</time>
      </trkpt>
      <trkpt lat="56.890663743347" lon="14.841644754734">
        <ele>191</ele>
        <time>2020-02-09T09:03:14Z</time>
      </trkpt>
      <trkpt lat="56.890717052231" lon="14.841726310621">
        <ele>192.2</ele>
        <time>2020-02-09T09:03:16Z</time>
      </trkpt>
      <trkpt lat="56.890767511269" lon="14.841810716354">
        <ele>193.4</ele>
        <time>2020-02-09T09:03:18Z</time>
      </trkpt>
      <trkpt lat="56.890847977509" lon="14.841952286645">
        <ele>194.4</ele>
        <time>2020-02-09T09:03:21Z</time>
      </trkpt>
      <trkpt lat="56.890961216978" lon="14.842257471624">
        <ele>193.2</ele>
        <time>2020-02-09T09:03:25Z</time>
      </trkpt>
      <trkpt lat="56.891001701555" lon="14.842495936679">
        <ele>191.6</ele>
        <time>2020-02-09T09:03:27Z</time>
      </trkpt>
      <trkpt lat="56.891036067345" lon="14.8426014648">
        <ele>190.4</ele>
        <time>2020-02-09T09:03:28Z</time>
      </trkpt>
      <trkpt lat="56.891075294637" lon="14.842698611021">
        <ele>189.2</ele>
        <time>2020-02-09T09:03:29Z</time>
      </trkpt>
      <trkpt lat="56.891144529131" lon="14.842879408604">
        <ele>187.8</ele>
        <time>2020-02-09T09:03:31Z</time>
      </trkpt>
      <trkpt lat="56.891178894921" lon="14.842981667784">
        <ele>187.4</ele>
        <time>2020-02-09T09:03:32Z</time>
      </trkpt>
      <trkpt lat="56.891251565994" lon="14.843839555249">
        <ele>189.4</ele>
        <time>2020-02-09T09:03:39Z</time>
      </trkpt>
      <trkpt lat="56.891270592907" lon="14.84406410635">
        <ele>191</ele>
        <time>2020-02-09T09:03:41Z</time>
      </trkpt>
      <trkpt lat="56.89129464896" lon="14.844282287207">
        <ele>192.2</ele>
        <time>2020-02-09T09:03:43Z</time>
      </trkpt>
      <trkpt lat="56.891323734153" lon="14.84456199121">
        <ele>192.8</ele>
        <time>2020-02-09T09:03:46Z</time>
      </trkpt>
      <trkpt lat="56.891473015792" lon="14.844964070953">
        <ele>191.2</ele>
        <time>2020-02-09T09:03:50Z</time>
      </trkpt>
      <trkpt lat="56.891550632186" lon="14.845110251289">
        <ele>190</ele>
        <time>2020-02-09T09:03:52Z</time>
      </trkpt>
      <trkpt lat="56.891678791437" lon="14.845195579031">
        <ele>189</ele>
        <time>2020-02-09T09:03:54Z</time>
      </trkpt>
      <trkpt lat="56.89175481527" lon="14.845240338377">
        <ele>188.8</ele>
        <time>2020-02-09T09:03:55Z</time>
      </trkpt>
      <trkpt lat="56.891823295393" lon="14.845262131317">
        <ele>188.6</ele>
        <time>2020-02-09T09:03:56Z</time>
      </trkpt>
      <trkpt lat="56.892115404608" lon="14.845241511843">
        <ele>189.8</ele>
        <time>2020-02-09T09:04:01Z</time>
      </trkpt>
      <trkpt lat="56.892237864167" lon="14.845319463513">
        <ele>190.4</ele>
        <time>2020-02-09T09:04:03Z</time>
      </trkpt>
      <trkpt lat="56.892332244361" lon="14.845477210871">
        <ele>190.6</ele>
        <time>2020-02-09T09:04:05Z</time>
      </trkpt>
      <trkpt lat="56.892424612899" lon="14.845780635651">
        <ele>190.8</ele>
        <time>2020-02-09T09:04:08Z</time>
      </trkpt>
      <trkpt lat="56.892517065256" lon="14.846283465832">
        <ele>191.6</ele>
        <time>2020-02-09T09:04:13Z</time>
      </trkpt>
      <trkpt lat="56.892529135192" lon="14.846371894877">
        <ele>192</ele>
        <time>2020-02-09T09:04:14Z</time>
      </trkpt>
      <trkpt lat="56.892535505436" lon="14.846507011105">
        <ele>192.4</ele>
        <time>2020-02-09T09:04:16Z</time>
      </trkpt>
      <trkpt lat="56.892582444076" lon="14.846652604708">
        <ele>192.8</ele>
        <time>2020-02-09T09:04:18Z</time>
      </trkpt>
      <trkpt lat="56.892674393519" lon="14.846753941879">
        <ele>192.8</ele>
        <time>2020-02-09T09:04:20Z</time>
      </trkpt>
      <trkpt lat="56.892836415646" lon="14.84681923688">
        <ele>193</ele>
        <time>2020-02-09T09:04:23Z</time>
      </trkpt>
      <trkpt lat="56.893077059995" lon="14.846847064788">
        <ele>194</ele>
        <time>2020-02-09T09:04:28Z</time>
      </trkpt>
      <trkpt lat="56.893267329125" lon="14.846867432805">
        <ele>193.4</ele>
        <time>2020-02-09T09:04:32Z</time>
      </trkpt>
      <trkpt lat="56.893383669897" lon="14.846887465546">
        <ele>193</ele>
        <time>2020-02-09T09:04:34Z</time>
      </trkpt>
      <trkpt lat="56.893482157222" lon="14.846902301509">
        <ele>192.6</ele>
        <time>2020-02-09T09:04:36Z</time>
      </trkpt>
      <trkpt lat="56.893663122443" lon="14.84698184574">
        <ele>192.6</ele>
        <time>2020-02-09T09:04:40Z</time>
      </trkpt>
      <trkpt lat="56.893834616117" lon="14.847266243607">
        <ele>194.2</ele>
        <time>2020-02-09T09:04:45Z</time>
      </trkpt>
      <trkpt lat="56.893879207825" lon="14.847369424796">
        <ele>195.2</ele>
        <time>2020-02-09T09:04:47Z</time>
      </trkpt>
      <trkpt lat="56.894138292354" lon="14.8480245541">
        <ele>196.4</ele>
        <time>2020-02-09T09:04:56Z</time>
      </trkpt>
      <trkpt lat="56.89417299342" lon="14.848129914583">
        <ele>197.8</ele>
        <time>2020-02-09T09:04:58Z</time>
      </trkpt>
      <trkpt lat="56.894207443029" lon="14.848238879283">
        <ele>199.2</ele>
        <time>2020-02-09T09:05:00Z</time>
      </trkpt>
      <trkpt lat="56.894264104673" lon="14.848400649953">
        <ele>200.6</ele>
        <time>2020-02-09T09:05:03Z</time>
      </trkpt>
      <trkpt lat="56.894354210098" lon="14.84876132311">
        <ele>201</ele>
        <time>2020-02-09T09:05:08Z</time>
      </trkpt>
      <trkpt lat="56.894331662787" lon="14.849101544431">
        <ele>200.4</ele>
        <time>2020-02-09T09:05:11Z</time>
      </trkpt>
      <trkpt lat="56.894277934808" lon="14.849385271746">
        <ele>198.8</ele>
        <time>2020-02-09T09:05:13Z</time>
      </trkpt>
      <trkpt lat="56.894262260655" lon="14.84949473936">
        <ele>198</ele>
        <time>2020-02-09T09:05:14Z</time>
      </trkpt>
      <trkpt lat="56.894256309506" lon="14.849616612186">
        <ele>197.4</ele>
        <time>2020-02-09T09:05:15Z</time>
      </trkpt>
      <trkpt lat="56.894257147696" lon="14.849738987926">
        <ele>196.6</ele>
        <time>2020-02-09T09:05:16Z</time>
      </trkpt>
      <trkpt lat="56.894265361958" lon="14.849868823557">
        <ele>195.6</ele>
        <time>2020-02-09T09:05:17Z</time>
      </trkpt>
      <trkpt lat="56.894305511259" lon="14.849968232891">
        <ele>194.4</ele>
        <time>2020-02-09T09:05:18Z</time>
      </trkpt>
      <trkpt lat="56.894420930022" lon="14.850147186456">
        <ele>192.6</ele>
        <time>2020-02-09T09:05:20Z</time>
      </trkpt>
      <trkpt lat="56.89458370652" lon="14.850385064778">
        <ele>191.6</ele>
        <time>2020-02-09T09:05:23Z</time>
      </trkpt>
      <trkpt lat="56.894622682355" lon="14.850541135756">
        <ele>191.4</ele>
        <time>2020-02-09T09:05:25Z</time>
      </trkpt>
      <trkpt lat="56.894708764468" lon="14.850768452884">
        <ele>192.6</ele>
        <time>2020-02-09T09:05:28Z</time>
      </trkpt>
      <trkpt lat="56.894748243217" lon="14.850793011851">
        <ele>193</ele>
        <time>2020-02-09T09:05:29Z</time>
      </trkpt>
      <trkpt lat="56.8950212417" lon="14.850738361863">
        <ele>193.2</ele>
        <time>2020-02-09T09:05:34Z</time>
      </trkpt>
      <trkpt lat="56.89538669254" lon="14.850857468662">
        <ele>193.2</ele>
        <time>2020-02-09T09:05:41Z</time>
      </trkpt>
      <trkpt lat="56.89580243478" lon="14.850917818342">
        <ele>192</ele>
        <time>2020-02-09T09:05:48Z</time>
      </trkpt>
      <trkpt lat="56.89592313414" lon="14.851038098607">
        <ele>191.8</ele>
        <time>2020-02-09T09:05:50Z</time>
      </trkpt>
      <trkpt lat="56.896062776594" lon="14.851286035209">
        <ele>191.8</ele>
        <time>2020-02-09T09:05:53Z</time>
      </trkpt>
      <trkpt lat="56.896240724331" lon="14.85191543208">
        <ele>192.6</ele>
        <time>2020-02-09T09:06:00Z</time>
      </trkpt>
      <trkpt lat="56.896332087041" lon="14.852231178253">
        <ele>191.2</ele>
        <time>2020-02-09T09:06:03Z</time>
      </trkpt>
      <trkpt lat="56.89637324217" lon="14.852404683583">
        <ele>190.6</ele>
        <time>2020-02-09T09:06:05Z</time>
      </trkpt>
      <trkpt lat="56.896393107273" lon="14.852591767591">
        <ele>190.8</ele>
        <time>2020-02-09T09:06:07Z</time>
      </trkpt>
      <trkpt lat="56.896400483345" lon="14.852855126889">
        <ele>192.4</ele>
        <time>2020-02-09T09:06:10Z</time>
      </trkpt>
      <trkpt lat="56.896471561857" lon="14.853854836102">
        <ele>192.6</ele>
        <time>2020-02-09T09:06:21Z</time>
      </trkpt>
      <trkpt lat="56.896526714759" lon="14.854560340625">
        <ele>191.6</ele>
        <time>2020-02-09T09:06:28Z</time>
      </trkpt>
      <trkpt lat="56.896598966737" lon="14.854677771044">
        <ele>191.6</ele>
        <time>2020-02-09T09:06:30Z</time>
      </trkpt>
      <trkpt lat="56.897138844916" lon="14.854576769149">
        <ele>193.2</ele>
        <time>2020-02-09T09:06:39Z</time>
      </trkpt>
      <trkpt lat="56.897292149867" lon="14.854524130817">
        <ele>193.2</ele>
        <time>2020-02-09T09:06:42Z</time>
      </trkpt>
      <trkpt lat="56.897374208668" lon="14.854574506036">
        <ele>192.4</ele>
        <time>2020-02-09T09:06:44Z</time>
      </trkpt>
      <trkpt lat="56.89741595053" lon="14.854721189286">
        <ele>192</ele>
        <time>2020-02-09T09:06:46Z</time>
      </trkpt>
      <trkpt lat="56.897461464247" lon="14.8550318225">
        <ele>191.8</ele>
        <time>2020-02-09T09:06:49Z</time>
      </trkpt>
      <trkpt lat="56.897495075666" lon="14.855418731004">
        <ele>191.2</ele>
        <time>2020-02-09T09:06:52Z</time>
      </trkpt>
      <trkpt lat="56.89750479867" lon="14.856106214442">
        <ele>190.8</ele>
        <time>2020-02-09T09:06:58Z</time>
      </trkpt>
      <trkpt lat="56.897543103953" lon="14.856365969523">
        <ele>190.8</ele>
        <time>2020-02-09T09:07:01Z</time>
      </trkpt>
      <trkpt lat="56.897728930676" lon="14.856941386958">
        <ele>190.2</ele>
        <time>2020-02-09T09:07:07Z</time>
      </trkpt>
      <trkpt lat="56.897766565407" lon="14.857516133841">
        <ele>191</ele>
        <time>2020-02-09T09:07:13Z</time>
      </trkpt>
      <trkpt lat="56.897762709733" lon="14.857704391315">
        <ele>191.4</ele>
        <time>2020-02-09T09:07:15Z</time>
      </trkpt>
      <trkpt lat="56.897757848231" lon="14.857983676223">
        <ele>192.2</ele>
        <time>2020-02-09T09:07:18Z</time>
      </trkpt>
      <trkpt lat="56.897776204592" lon="14.858297746016">
        <ele>193.4</ele>
        <time>2020-02-09T09:07:22Z</time>
      </trkpt>
      <trkpt lat="56.897814677513" lon="14.858616593492">
        <ele>194.8</ele>
        <time>2020-02-09T09:07:26Z</time>
      </trkpt>
      <trkpt lat="56.897800260645" lon="14.858757074136">
        <ele>195.6</ele>
        <time>2020-02-09T09:07:28Z</time>
      </trkpt>
      <trkpt lat="56.897782910112" lon="14.858804599509">
        <ele>195.8</ele>
        <time>2020-02-09T09:07:29Z</time>
      </trkpt>
      <trkpt lat="56.89763807088" lon="14.858944912515">
        <ele>196.8</ele>
        <time>2020-02-09T09:07:35Z</time>
      </trkpt>
      <trkpt lat="56.897143287323" lon="14.859372640872">
        <ele>197.8</ele>
        <time>2020-02-09T09:07:48Z</time>
      </trkpt>
      <trkpt lat="56.897090816629" lon="14.859379430211">
        <ele>197.8</ele>
        <time>2020-02-09T09:07:49Z</time>
      </trkpt>
      <trkpt lat="56.896974811133" lon="14.859392505975">
        <ele>198</ele>
        <time>2020-02-09T09:07:51Z</time>
      </trkpt>
      <trkpt lat="56.896590501018" lon="14.859387225378">
        <ele>198.4</ele>
        <time>2020-02-09T09:07:59Z</time>
      </trkpt>
      <trkpt lat="56.896402327363" lon="14.859574057929">
        <ele>199.2</ele>
        <time>2020-02-09T09:08:05Z</time>
      </trkpt>
      <trkpt lat="56.89631456887" lon="14.859735074228">
        <ele>200.2</ele>
        <time>2020-02-09T09:08:09Z</time>
      </trkpt>
      <trkpt lat="56.896121533713" lon="14.860105805665">
        <ele>201.4</ele>
        <time>2020-02-09T09:08:14Z</time>
      </trkpt>
      <trkpt lat="56.895991698082" lon="14.860445524072">
        <ele>202.6</ele>
        <time>2020-02-09T09:08:19Z</time>
      </trkpt>
      <trkpt lat="56.895950375315" lon="14.860589357476">
        <ele>203</ele>
        <time>2020-02-09T09:08:21Z</time>
      </trkpt>
      <trkpt lat="56.895898910449" lon="14.860818434803">
        <ele>203.2</ele>
        <time>2020-02-09T09:08:24Z</time>
      </trkpt>
      <trkpt lat="56.895802686237" lon="14.861101743023">
        <ele>203.6</ele>
        <time>2020-02-09T09:08:28Z</time>
      </trkpt>
      <trkpt lat="56.895572854539" lon="14.861568279577">
        <ele>204.4</ele>
        <time>2020-02-09T09:08:37Z</time>
      </trkpt>
      <trkpt lat="56.895251492493" lon="14.8616786692">
        <ele>204.8</ele>
        <time>2020-02-09T09:08:44Z</time>
      </trkpt>
      <trkpt lat="56.895205559681" lon="14.861698534303">
        <ele>205</ele>
        <time>2020-02-09T09:08:45Z</time>
      </trkpt>
      <trkpt lat="56.895109000193" lon="14.86171974051">
        <ele>205.2</ele>
        <time>2020-02-09T09:08:47Z</time>
      </trkpt>
      <trkpt lat="56.894983690788" lon="14.861723177089">
        <ele>205.2</ele>
        <time>2020-02-09T09:08:50Z</time>
      </trkpt>
      <trkpt lat="56.894539030993" lon="14.862241849061">
        <ele>204.8</ele>
        <time>2020-02-09T09:09:03Z</time>
      </trkpt>
      <trkpt lat="56.894492176172" lon="14.862405212292">
        <ele>206</ele>
        <time>2020-02-09T09:09:06Z</time>
      </trkpt>
      <trkpt lat="56.894464432083" lon="14.862495401536">
        <ele>207.2</ele>
        <time>2020-02-09T09:09:08Z</time>
      </trkpt>
      <trkpt lat="56.89440014291" lon="14.862642168605">
        <ele>208.4</ele>
        <time>2020-02-09T09:09:11Z</time>
      </trkpt>
      <trkpt lat="56.894287238717" lon="14.862941402435">
        <ele>209.4</ele>
        <time>2020-02-09T09:09:16Z</time>
      </trkpt>
      <trkpt lat="56.894084732013" lon="14.863188668485">
        <ele>209.8</ele>
        <time>2020-02-09T09:09:23Z</time>
      </trkpt>
      <trkpt lat="56.893895720168" lon="14.863225632664">
        <ele>210</ele>
        <time>2020-02-09T09:09:28Z</time>
      </trkpt>
      <trkpt lat="56.893765213985" lon="14.863237032048">
        <ele>209.8</ele>
        <time>2020-02-09T09:09:31Z</time>
      </trkpt>
      <trkpt lat="56.893506380913" lon="14.86328547943">
        <ele>210.4</ele>
        <time>2020-02-09T09:09:41Z</time>
      </trkpt>
      <trkpt lat="56.892932807496" lon="14.863252706201">
        <ele>209.8</ele>
        <time>2020-02-09T09:09:54Z</time>
      </trkpt>
      <trkpt lat="56.892826525004" lon="14.863239127523">
        <ele>209.8</ele>
        <time>2020-02-09T09:09:56Z</time>
      </trkpt>
      <trkpt lat="56.892730216973" lon="14.863287491086">
        <ele>209.8</ele>
        <time>2020-02-09T09:09:58Z</time>
      </trkpt>
      <trkpt lat="56.892547910648" lon="14.863602734345">
        <ele>210</ele>
        <time>2020-02-09T09:10:03Z</time>
      </trkpt>
      <trkpt lat="56.892503821854" lon="14.863745813378">
        <ele>210.2</ele>
        <time>2020-02-09T09:10:05Z</time>
      </trkpt>
      <trkpt lat="56.892487560968" lon="14.863817143347">
        <ele>210.4</ele>
        <time>2020-02-09T09:10:06Z</time>
      </trkpt>
      <trkpt lat="56.892424361442" lon="14.864102463223">
        <ele>211.6</ele>
        <time>2020-02-09T09:10:10Z</time>
      </trkpt>
      <trkpt lat="56.892349678713" lon="14.864460873267">
        <ele>211.8</ele>
        <time>2020-02-09T09:10:15Z</time>
      </trkpt>
      <trkpt lat="56.892192853364" lon="14.864944425078">
        <ele>211.8</ele>
        <time>2020-02-09T09:10:21Z</time>
      </trkpt>
      <trkpt lat="56.89212529525" lon="14.865053557416">
        <ele>211.6</ele>
        <time>2020-02-09T09:10:23Z</time>
      </trkpt>
      <trkpt lat="56.892032004703" lon="14.865223877624">
        <ele>211.4</ele>
        <time>2020-02-09T09:10:26Z</time>
      </trkpt>
      <trkpt lat="56.891953633938" lon="14.865563763669">
        <ele>211.8</ele>
        <time>2020-02-09T09:10:30Z</time>
      </trkpt>
      <trkpt lat="56.891857158269" lon="14.865865512069">
        <ele>212.6</ele>
        <time>2020-02-09T09:10:34Z</time>
      </trkpt>
      <trkpt lat="56.891782140264" lon="14.866057709036">
        <ele>212.8</ele>
        <time>2020-02-09T09:10:37Z</time>
      </trkpt>
      <trkpt lat="56.891769399776" lon="14.866203637915">
        <ele>213.4</ele>
        <time>2020-02-09T09:10:39Z</time>
      </trkpt>
      <trkpt lat="56.891787169404" lon="14.866378065254">
        <ele>213.8</ele>
        <time>2020-02-09T09:10:41Z</time>
      </trkpt>
      <trkpt lat="56.892029071038" lon="14.867287249947">
        <ele>213</ele>
        <time>2020-02-09T09:10:52Z</time>
      </trkpt>
      <trkpt lat="56.892048684684" lon="14.867350114197">
        <ele>212.6</ele>
        <time>2020-02-09T09:10:53Z</time>
      </trkpt>
      <trkpt lat="56.892131665494" lon="14.867613557314">
        <ele>212.6</ele>
        <time>2020-02-09T09:10:57Z</time>
      </trkpt>
      <trkpt lat="56.892187488948" lon="14.86786702597">
        <ele>212.4</ele>
        <time>2020-02-09T09:11:00Z</time>
      </trkpt>
      <trkpt lat="56.892238618538" lon="14.868122254825">
        <ele>212.2</ele>
        <time>2020-02-09T09:11:03Z</time>
      </trkpt>
      <trkpt lat="56.892252364854" lon="14.868290982472">
        <ele>212.2</ele>
        <time>2020-02-09T09:11:05Z</time>
      </trkpt>
      <trkpt lat="56.892286311549" lon="14.868461135042">
        <ele>212.2</ele>
        <time>2020-02-09T09:11:07Z</time>
      </trkpt>
      <trkpt lat="56.892340961537" lon="14.868614607631">
        <ele>212</ele>
        <time>2020-02-09T09:11:09Z</time>
      </trkpt>
      <trkpt lat="56.892461241802" lon="14.86883429723">
        <ele>211.6</ele>
        <time>2020-02-09T09:11:12Z</time>
      </trkpt>
      <trkpt lat="56.892510611193" lon="14.869033534993">
        <ele>211.2</ele>
        <time>2020-02-09T09:11:14Z</time>
      </trkpt>
      <trkpt lat="56.892543300603" lon="14.869266216537">
        <ele>210.6</ele>
        <time>2020-02-09T09:11:16Z</time>
      </trkpt>
      <trkpt lat="56.892575235642" lon="14.869507028524">
        <ele>210.6</ele>
        <time>2020-02-09T09:11:18Z</time>
      </trkpt>
      <trkpt lat="56.89262150373" lon="14.869786397251">
        <ele>210.4</ele>
        <time>2020-02-09T09:11:21Z</time>
      </trkpt>
      <trkpt lat="56.892697695201" lon="14.870096024637">
        <ele>210.4</ele>
        <time>2020-02-09T09:11:25Z</time>
      </trkpt>
      <trkpt lat="56.892867344857" lon="14.870284282111">
        <ele>210.4</ele>
        <time>2020-02-09T09:11:29Z</time>
      </trkpt>
      <trkpt lat="56.89311938859" lon="14.870268607958">
        <ele>210.2</ele>
        <time>2020-02-09T09:11:34Z</time>
      </trkpt>
      <trkpt lat="56.893190299464" lon="14.870179005447">
        <ele>210.2</ele>
        <time>2020-02-09T09:11:36Z</time>
      </trkpt>
      <trkpt lat="56.893278812328" lon="14.870099880311">
        <ele>210.4</ele>
        <time>2020-02-09T09:11:38Z</time>
      </trkpt>
      <trkpt lat="56.893376126187" lon="14.870039027717">
        <ele>210.8</ele>
        <time>2020-02-09T09:11:40Z</time>
      </trkpt>
      <trkpt lat="56.893463381766" lon="14.870051181472">
        <ele>211.2</ele>
        <time>2020-02-09T09:11:42Z</time>
      </trkpt>
      <trkpt lat="56.893523647627" lon="14.870153440652">
        <ele>211.4</ele>
        <time>2020-02-09T09:11:44Z</time>
      </trkpt>
      <trkpt lat="56.893571675914" lon="14.870361898505">
        <ele>211.2</ele>
        <time>2020-02-09T09:11:46Z</time>
      </trkpt>
      <trkpt lat="56.893699751346" lon="14.870892640413">
        <ele>210.2</ele>
        <time>2020-02-09T09:11:52Z</time>
      </trkpt>
      <trkpt lat="56.893746689986" lon="14.871130351097">
        <ele>209.6</ele>
        <time>2020-02-09T09:11:55Z</time>
      </trkpt>
      <trkpt lat="56.893873843409" lon="14.87152404894">
        <ele>208.2</ele>
        <time>2020-02-09T09:11:59Z</time>
      </trkpt>
      <trkpt lat="56.89397098963" lon="14.871801070735">
        <ele>207</ele>
        <time>2020-02-09T09:12:02Z</time>
      </trkpt>
      <trkpt lat="56.894054892449" lon="14.872128970663">
        <ele>206</ele>
        <time>2020-02-09T09:12:05Z</time>
      </trkpt>
      <trkpt lat="56.89410929098" lon="14.872467180328">
        <ele>205</ele>
        <time>2020-02-09T09:12:08Z</time>
      </trkpt>
      <trkpt lat="56.894157906" lon="14.872655353983">
        <ele>204.8</ele>
        <time>2020-02-09T09:12:10Z</time>
      </trkpt>
      <trkpt lat="56.894259578447" lon="14.873120046519">
        <ele>204</ele>
        <time>2020-02-09T09:12:14Z</time>
      </trkpt>
      <trkpt lat="56.894296291169" lon="14.873205122804">
        <ele>203.8</ele>
        <time>2020-02-09T09:12:15Z</time>
      </trkpt>
      <trkpt lat="56.894397209245" lon="14.873364211266">
        <ele>203.4</ele>
        <time>2020-02-09T09:12:17Z</time>
      </trkpt>
      <trkpt lat="56.894587562194" lon="14.873660259974">
        <ele>202.8</ele>
        <time>2020-02-09T09:12:20Z</time>
      </trkpt>
      <trkpt lat="56.894894088277" lon="14.874079271155">
        <ele>201.6</ele>
        <time>2020-02-09T09:12:24Z</time>
      </trkpt>
      <trkpt lat="56.895148227485" lon="14.874408931282">
        <ele>200.4</ele>
        <time>2020-02-09T09:12:28Z</time>
      </trkpt>
      <trkpt lat="56.895387446911" lon="14.874746638033">
        <ele>199.2</ele>
        <time>2020-02-09T09:12:32Z</time>
      </trkpt>
      <trkpt lat="56.895706964939" lon="14.87516933725">
        <ele>198.2</ele>
        <time>2020-02-09T09:12:37Z</time>
      </trkpt>
      <trkpt lat="56.895775947976" lon="14.875235721898">
        <ele>198</ele>
        <time>2020-02-09T09:12:38Z</time>
      </trkpt>
      <trkpt lat="56.895921290122" lon="14.875332449024">
        <ele>197.8</ele>
        <time>2020-02-09T09:12:40Z</time>
      </trkpt>
      <trkpt lat="56.896295122862" lon="14.875488939097">
        <ele>197</ele>
        <time>2020-02-09T09:12:45Z</time>
      </trkpt>
      <trkpt lat="56.896378941862" lon="14.875467062338">
        <ele>196.8</ele>
        <time>2020-02-09T09:12:47Z</time>
      </trkpt>
      <trkpt lat="56.896507017294" lon="14.875445772312">
        <ele>196.6</ele>
        <time>2020-02-09T09:12:49Z</time>
      </trkpt>
      <trkpt lat="56.89663140469" lon="14.875347787901">
        <ele>196.6</ele>
        <time>2020-02-09T09:12:51Z</time>
      </trkpt>
      <trkpt lat="56.897046811654" lon="14.874788547533">
        <ele>196</ele>
        <time>2020-02-09T09:12:58Z</time>
      </trkpt>
      <trkpt lat="56.897156530725" lon="14.874644378853">
        <ele>196.2</ele>
        <time>2020-02-09T09:13:00Z</time>
      </trkpt>
      <trkpt lat="56.897652655386" lon="14.874164431259">
        <ele>196.6</ele>
        <time>2020-02-09T09:13:08Z</time>
      </trkpt>
      <trkpt lat="56.898146433115" lon="14.873680041258">
        <ele>196.8</ele>
        <time>2020-02-09T09:13:17Z</time>
      </trkpt>
      <trkpt lat="56.898396884287" lon="14.873431015009">
        <ele>197.2</ele>
        <time>2020-02-09T09:13:22Z</time>
      </trkpt>
      <trkpt lat="56.898734926314" lon="14.87316606315">
        <ele>198.2</ele>
        <time>2020-02-09T09:13:29Z</time>
      </trkpt>
      <trkpt lat="56.899073471255" lon="14.872793655333">
        <ele>198.6</ele>
        <time>2020-02-09T09:13:35Z</time>
      </trkpt>
      <trkpt lat="56.899404304848" lon="14.872415799281">
        <ele>198.4</ele>
        <time>2020-02-09T09:13:42Z</time>
      </trkpt>
      <trkpt lat="56.899519220697" lon="14.872364166777">
        <ele>198.6</ele>
        <time>2020-02-09T09:13:44Z</time>
      </trkpt>
      <trkpt lat="56.89976204434" lon="14.872296524844">
        <ele>199.2</ele>
        <time>2020-02-09T09:13:49Z</time>
      </trkpt>
      <trkpt lat="56.899918869689" lon="14.872219830459">
        <ele>199.4</ele>
        <time>2020-02-09T09:13:52Z</time>
      </trkpt>
      <trkpt lat="56.899990702572" lon="14.87221387931">
        <ele>199.4</ele>
        <time>2020-02-09T09:13:53Z</time>
      </trkpt>
      <trkpt lat="56.900144426618" lon="14.872198959528">
        <ele>199.2</ele>
        <time>2020-02-09T09:13:55Z</time>
      </trkpt>
      <trkpt lat="56.900561761419" lon="14.872064849128">
        <ele>199</ele>
        <time>2020-02-09T09:14:02Z</time>
      </trkpt>
      <trkpt lat="56.900638455804" lon="14.872160821883">
        <ele>199</ele>
        <time>2020-02-09T09:14:04Z</time>
      </trkpt>
      <trkpt lat="56.900724789374" lon="14.872573043725">
        <ele>197.8</ele>
        <time>2020-02-09T09:14:08Z</time>
      </trkpt>
      <trkpt lat="56.900780864285" lon="14.87278803946">
        <ele>196.4</ele>
        <time>2020-02-09T09:14:10Z</time>
      </trkpt>
      <trkpt lat="56.900894606668" lon="14.87302021809">
        <ele>195.4</ele>
        <time>2020-02-09T09:14:12Z</time>
      </trkpt>
      <trkpt lat="56.901012204725" lon="14.873213504704">
        <ele>194.4</ele>
        <time>2020-02-09T09:14:14Z</time>
      </trkpt>
      <trkpt lat="56.901126869117" lon="14.873375443012">
        <ele>193.4</ele>
        <time>2020-02-09T09:14:16Z</time>
      </trkpt>
      <trkpt lat="56.901369357484" lon="14.873671743177">
        <ele>192.4</ele>
        <time>2020-02-09T09:14:20Z</time>
      </trkpt>
      <trkpt lat="56.901437753788" lon="14.873790430881">
        <ele>192.4</ele>
        <time>2020-02-09T09:14:21Z</time>
      </trkpt>
      <trkpt lat="56.901545209746" lon="14.874026716642">
        <ele>191.6</ele>
        <time>2020-02-09T09:14:23Z</time>
      </trkpt>
      <trkpt lat="56.901594914413" lon="14.874169879494">
        <ele>191</ele>
        <time>2020-02-09T09:14:24Z</time>
      </trkpt>
      <trkpt lat="56.901667920762" lon="14.874440698683">
        <ele>189.4</ele>
        <time>2020-02-09T09:14:26Z</time>
      </trkpt>
      <trkpt lat="56.901701951276" lon="14.874726940568">
        <ele>188.8</ele>
        <time>2020-02-09T09:14:28Z</time>
      </trkpt>
      <trkpt lat="56.901740675654" lon="14.875554234098">
        <ele>188.4</ele>
        <time>2020-02-09T09:14:34Z</time>
      </trkpt>
      <trkpt lat="56.901881575393" lon="14.876503484273">
        <ele>188.8</ele>
        <time>2020-02-09T09:14:42Z</time>
      </trkpt>
      <trkpt lat="56.902067485935" lon="14.877549880669">
        <ele>188</ele>
        <time>2020-02-09T09:14:51Z</time>
      </trkpt>
      <trkpt lat="56.902108389607" lon="14.877948188557">
        <ele>187.4</ele>
        <time>2020-02-09T09:14:54Z</time>
      </trkpt>
      <trkpt lat="56.902106377951" lon="14.878091099952">
        <ele>187.2</ele>
        <time>2020-02-09T09:14:55Z</time>
      </trkpt>
      <trkpt lat="56.902077628034" lon="14.878516732834">
        <ele>187</ele>
        <time>2020-02-09T09:14:58Z</time>
      </trkpt>
      <trkpt lat="56.902003448219" lon="14.879039176661">
        <ele>186.2</ele>
        <time>2020-02-09T09:15:02Z</time>
      </trkpt>
      <trkpt lat="56.901892220406" lon="14.879689109187">
        <ele>185</ele>
        <time>2020-02-09T09:15:07Z</time>
      </trkpt>
      <trkpt lat="56.90177872948" lon="14.880034694924">
        <ele>184</ele>
        <time>2020-02-09T09:15:10Z</time>
      </trkpt>
      <trkpt lat="56.901609331281" lon="14.880442977273">
        <ele>183.8</ele>
        <time>2020-02-09T09:15:14Z</time>
      </trkpt>
      <trkpt lat="56.901568679066" lon="14.880663169786">
        <ele>183.8</ele>
        <time>2020-02-09T09:15:16Z</time>
      </trkpt>
      <trkpt lat="56.90157924026" lon="14.881333302691">
        <ele>182.4</ele>
        <time>2020-02-09T09:15:21Z</time>
      </trkpt>
      <trkpt lat="56.90159013673" lon="14.881628932304">
        <ele>180.4</ele>
        <time>2020-02-09T09:15:23Z</time>
      </trkpt>
      <trkpt lat="56.901598937725" lon="14.881927914677">
        <ele>179.4</ele>
        <time>2020-02-09T09:15:25Z</time>
      </trkpt>
      <trkpt lat="56.901634812257" lon="14.882241733013">
        <ele>177.8</ele>
        <time>2020-02-09T09:15:27Z</time>
      </trkpt>
      <trkpt lat="56.901650570229" lon="14.882697373097">
        <ele>176.6</ele>
        <time>2020-02-09T09:15:30Z</time>
      </trkpt>
      <trkpt lat="56.90165467736" lon="14.88284883403">
        <ele>176.6</ele>
        <time>2020-02-09T09:15:31Z</time>
      </trkpt>
      <trkpt lat="56.901653671532" lon="14.883115294631">
        <ele>176.6</ele>
        <time>2020-02-09T09:15:33Z</time>
      </trkpt>
      <trkpt lat="56.901579072622" lon="14.8835386644">
        <ele>178.2</ele>
        <time>2020-02-09T09:15:37Z</time>
      </trkpt>
      <trkpt lat="56.901541270253" lon="14.883729184987">
        <ele>179.4</ele>
        <time>2020-02-09T09:15:39Z</time>
      </trkpt>
      <trkpt lat="56.901532133982" lon="14.883820212421">
        <ele>180</ele>
        <time>2020-02-09T09:15:40Z</time>
      </trkpt>
      <trkpt lat="56.901542695176" lon="14.884020791288">
        <ele>180.4</ele>
        <time>2020-02-09T09:15:42Z</time>
      </trkpt>
      <trkpt lat="56.901596506974" lon="14.884166384891">
        <ele>181</ele>
        <time>2020-02-09T09:15:44Z</time>
      </trkpt>
      <trkpt lat="56.901704046751" lon="14.884274762858">
        <ele>181.6</ele>
        <time>2020-02-09T09:15:46Z</time>
      </trkpt>
      <trkpt lat="56.902251049545" lon="14.884419015357">
        <ele>181.4</ele>
        <time>2020-02-09T09:15:55Z</time>
      </trkpt>
      <trkpt lat="56.902576015808" lon="14.884512892637">
        <ele>180.6</ele>
        <time>2020-02-09T09:16:00Z</time>
      </trkpt>
      <trkpt lat="56.903140033859" lon="14.884782370722">
        <ele>180.4</ele>
        <time>2020-02-09T09:16:09Z</time>
      </trkpt>
      <trkpt lat="56.903700447693" lon="14.884979010096">
        <ele>180.4</ele>
        <time>2020-02-09T09:16:18Z</time>
      </trkpt>
      <trkpt lat="56.904128343688" lon="14.88500130595">
        <ele>181.2</ele>
        <time>2020-02-09T09:16:25Z</time>
      </trkpt>
      <trkpt lat="56.904238984768" lon="14.885072719738">
        <ele>181.4</ele>
        <time>2020-02-09T09:16:27Z</time>
      </trkpt>
      <trkpt lat="56.904565375954" lon="14.885652160485">
        <ele>179.2</ele>
        <time>2020-02-09T09:16:33Z</time>
      </trkpt>
      <trkpt lat="56.904767631201" lon="14.885807728549">
        <ele>178.6</ele>
        <time>2020-02-09T09:16:36Z</time>
      </trkpt>
      <trkpt lat="56.905257972351" lon="14.885958183654">
        <ele>178.2</ele>
        <time>2020-02-09T09:16:43Z</time>
      </trkpt>
      <trkpt lat="56.905329889053" lon="14.885973019617">
        <ele>178</ele>
        <time>2020-02-09T09:16:44Z</time>
      </trkpt>
      <trkpt lat="56.905618645508" lon="14.886037811704">
        <ele>177.2</ele>
        <time>2020-02-09T09:16:48Z</time>
      </trkpt>
      <trkpt lat="56.905834647071" lon="14.886226907368">
        <ele>177.2</ele>
        <time>2020-02-09T09:16:52Z</time>
      </trkpt>
      <trkpt lat="56.905877813856" lon="14.886310307273">
        <ele>177</ele>
        <time>2020-02-09T09:16:53Z</time>
      </trkpt>
      <trkpt lat="56.905912766379" lon="14.886403933096">
        <ele>177.2</ele>
        <time>2020-02-09T09:16:54Z</time>
      </trkpt>
      <trkpt lat="56.906024916201" lon="14.886834343661">
        <ele>177.2</ele>
        <time>2020-02-09T09:16:59Z</time>
      </trkpt>
      <trkpt lat="56.906113177608" lon="14.886947834587">
        <ele>177.2</ele>
        <time>2020-02-09T09:17:01Z</time>
      </trkpt>
      <trkpt lat="56.906229183104" lon="14.88699871272">
        <ele>177.2</ele>
        <time>2020-02-09T09:17:03Z</time>
      </trkpt>
      <trkpt lat="56.906445855219" lon="14.886866111062">
        <ele>178</ele>
        <time>2020-02-09T09:17:07Z</time>
      </trkpt>
      <trkpt lat="56.906573008642" lon="14.886796792749">
        <ele>179.4</ele>
        <time>2020-02-09T09:17:10Z</time>
      </trkpt>
      <trkpt lat="56.906747855076" lon="14.886703753659">
        <ele>180.6</ele>
        <time>2020-02-09T09:17:14Z</time>
      </trkpt>
      <trkpt lat="56.907027391441" lon="14.886621191944">
        <ele>181.4</ele>
        <time>2020-02-09T09:17:19Z</time>
      </trkpt>
      <trkpt lat="56.907153036122" lon="14.886586909973">
        <ele>181.4</ele>
        <time>2020-02-09T09:17:21Z</time>
      </trkpt>
      <trkpt lat="56.90751446365" lon="14.886555645486">
        <ele>179.4</ele>
        <time>2020-02-09T09:17:26Z</time>
      </trkpt>
      <trkpt lat="56.907722250951" lon="14.88653016451">
        <ele>178.4</ele>
        <time>2020-02-09T09:17:29Z</time>
      </trkpt>
      <trkpt lat="56.908154421715" lon="14.886504851172">
        <ele>177.4</ele>
        <time>2020-02-09T09:17:35Z</time>
      </trkpt>
      <trkpt lat="56.90855046649" lon="14.886437795972">
        <ele>178.2</ele>
        <time>2020-02-09T09:17:42Z</time>
      </trkpt>
      <trkpt lat="56.908665549977" lon="14.886388761857">
        <ele>178</ele>
        <time>2020-02-09T09:17:44Z</time>
      </trkpt>
      <trkpt lat="56.909034856491" lon="14.88626613466">
        <ele>176.8</ele>
        <time>2020-02-09T09:17:50Z</time>
      </trkpt>
      <trkpt lat="56.909159579163" lon="14.886186674248">
        <ele>176.2</ele>
        <time>2020-02-09T09:17:52Z</time>
      </trkpt>
      <trkpt lat="56.909350351207" lon="14.886031022365">
        <ele>175.6</ele>
        <time>2020-02-09T09:17:55Z</time>
      </trkpt>
      <trkpt lat="56.909633910884" lon="14.885738494055">
        <ele>175.4</ele>
        <time>2020-02-09T09:18:00Z</time>
      </trkpt>
      <trkpt lat="56.909759639384" lon="14.885723490454">
        <ele>175.4</ele>
        <time>2020-02-09T09:18:02Z</time>
      </trkpt>
      <trkpt lat="56.909814959924" lon="14.8857682498">
        <ele>175</ele>
        <time>2020-02-09T09:18:03Z</time>
      </trkpt>
      <trkpt lat="56.909864832229" lon="14.885832287516">
        <ele>174.8</ele>
        <time>2020-02-09T09:18:04Z</time>
      </trkpt>
      <trkpt lat="56.910226427395" lon="14.886618845012">
        <ele>174.4</ele>
        <time>2020-02-09T09:18:14Z</time>
      </trkpt>
      <trkpt lat="56.910399932725" lon="14.886839288982">
        <ele>174.2</ele>
        <time>2020-02-09T09:18:17Z</time>
      </trkpt>
      <trkpt lat="56.910752307801" lon="14.88717557081">
        <ele>175.2</ele>
        <time>2020-02-09T09:18:25Z</time>
      </trkpt>
      <trkpt lat="56.910892453169" lon="14.887386375595">
        <ele>175.4</ele>
        <time>2020-02-09T09:18:28Z</time>
      </trkpt>
      <trkpt lat="56.910983480603" lon="14.887628863962">
        <ele>175.6</ele>
        <time>2020-02-09T09:18:30Z</time>
      </trkpt>
      <trkpt lat="56.91100217224" lon="14.887888451405">
        <ele>175.6</ele>
        <time>2020-02-09T09:18:32Z</time>
      </trkpt>
      <trkpt lat="56.911019103678" lon="14.888162707173">
        <ele>175.6</ele>
        <time>2020-02-09T09:18:34Z</time>
      </trkpt>
      <trkpt lat="56.911062941015" lon="14.888400250219">
        <ele>176.2</ele>
        <time>2020-02-09T09:18:36Z</time>
      </trkpt>
      <trkpt lat="56.911080543005" lon="14.888527655099">
        <ele>176.4</ele>
        <time>2020-02-09T09:18:37Z</time>
      </trkpt>
      <trkpt lat="56.911211049188" lon="14.889171636476">
        <ele>176.8</ele>
        <time>2020-02-09T09:18:44Z</time>
      </trkpt>
      <trkpt lat="56.911301322251" lon="14.889312452396">
        <ele>176.8</ele>
        <time>2020-02-09T09:18:46Z</time>
      </trkpt>
      <trkpt lat="56.911445407112" lon="14.889394846473">
        <ele>176.6</ele>
        <time>2020-02-09T09:18:48Z</time>
      </trkpt>
      <trkpt lat="56.911694181904" lon="14.889408257513">
        <ele>176.4</ele>
        <time>2020-02-09T09:18:52Z</time>
      </trkpt>
      <trkpt lat="56.911963324713" lon="14.889635574641">
        <ele>175.8</ele>
        <time>2020-02-09T09:18:56Z</time>
      </trkpt>
      <trkpt lat="56.912173626584" lon="14.889881164311">
        <ele>175.4</ele>
        <time>2020-02-09T09:18:59Z</time>
      </trkpt>
      <trkpt lat="56.912246632933" lon="14.889931120435">
        <ele>175</ele>
        <time>2020-02-09T09:19:00Z</time>
      </trkpt>
      <trkpt lat="56.912317543807" lon="14.88995584704">
        <ele>174.8</ele>
        <time>2020-02-09T09:19:01Z</time>
      </trkpt>
      <trkpt lat="56.912785253827" lon="14.889990129011">
        <ele>174.4</ele>
        <time>2020-02-09T09:19:08Z</time>
      </trkpt>
      <trkpt lat="56.91290486354" lon="14.889928019132">
        <ele>174.4</ele>
        <time>2020-02-09T09:19:10Z</time>
      </trkpt>
      <trkpt lat="56.913003937598" lon="14.889818970613">
        <ele>174.6</ele>
        <time>2020-02-09T09:19:12Z</time>
      </trkpt>
      <trkpt lat="56.913110974461" lon="14.889653428088">
        <ele>175</ele>
        <time>2020-02-09T09:19:15Z</time>
      </trkpt>
      <trkpt lat="56.91349914025" lon="14.889439522">
        <ele>175.6</ele>
        <time>2020-02-09T09:19:21Z</time>
      </trkpt>
      <trkpt lat="56.913597376118" lon="14.889383195632">
        <ele>175.6</ele>
        <time>2020-02-09T09:19:23Z</time>
      </trkpt>
      <trkpt lat="56.913687565362" lon="14.889323265047">
        <ele>176</ele>
        <time>2020-02-09T09:19:25Z</time>
      </trkpt>
      <trkpt lat="56.913729307224" lon="14.88929116237">
        <ele>176.2</ele>
        <time>2020-02-09T09:19:26Z</time>
      </trkpt>
      <trkpt lat="56.913906752047" lon="14.889180605109">
        <ele>177.2</ele>
        <time>2020-02-09T09:19:30Z</time>
      </trkpt>
      <trkpt lat="56.914060559912" lon="14.889036268791">
        <ele>178.2</ele>
        <time>2020-02-09T09:19:34Z</time>
      </trkpt>
      <trkpt lat="56.914245296988" lon="14.888910959386">
        <ele>179.4</ele>
        <time>2020-02-09T09:19:38Z</time>
      </trkpt>
      <trkpt lat="56.914653495518" lon="14.888617928162">
        <ele>180.2</ele>
        <time>2020-02-09T09:19:47Z</time>
      </trkpt>
      <trkpt lat="56.914755084146" lon="14.888532348963">
        <ele>180.4</ele>
        <time>2020-02-09T09:19:49Z</time>
      </trkpt>
      <trkpt lat="56.914897324989" lon="14.888410979051">
        <ele>181</ele>
        <time>2020-02-09T09:19:52Z</time>
      </trkpt>
      <trkpt lat="56.915029339914" lon="14.888313078459">
        <ele>181.2</ele>
        <time>2020-02-09T09:19:55Z</time>
      </trkpt>
      <trkpt lat="56.915118104235" lon="14.888286507836">
        <ele>181.6</ele>
        <time>2020-02-09T09:19:57Z</time>
      </trkpt>
      <trkpt lat="56.915212987343" lon="14.888261194498">
        <ele>182</ele>
        <time>2020-02-09T09:19:59Z</time>
      </trkpt>
      <trkpt lat="56.915301332569" lon="14.88823169021">
        <ele>182.8</ele>
        <time>2020-02-09T09:20:01Z</time>
      </trkpt>
      <trkpt lat="56.915346091915" lon="14.888203610845">
        <ele>183</ele>
        <time>2020-02-09T09:20:02Z</time>
      </trkpt>
      <trkpt lat="56.915419852635" lon="14.888102776588">
        <ele>183</ele>
        <time>2020-02-09T09:20:04Z</time>
      </trkpt>
      <trkpt lat="56.915449692199" lon="14.887945280687">
        <ele>183.2</ele>
        <time>2020-02-09T09:20:06Z</time>
      </trkpt>
      <trkpt lat="56.915609367394" lon="14.887466674197">
        <ele>182.6</ele>
        <time>2020-02-09T09:20:12Z</time>
      </trkpt>
      <trkpt lat="56.915696371516" lon="14.887353518547">
        <ele>182.4</ele>
        <time>2020-02-09T09:20:14Z</time>
      </trkpt>
      <trkpt lat="56.915975488786" lon="14.887459801039">
        <ele>183.6</ele>
        <time>2020-02-09T09:20:21Z</time>
      </trkpt>
      <trkpt lat="56.915988648369" lon="14.887575219802">
        <ele>183.8</ele>
        <time>2020-02-09T09:20:23Z</time>
      </trkpt>
      <trkpt lat="56.915989067464" lon="14.887821312386">
        <ele>184</ele>
        <time>2020-02-09T09:20:26Z</time>
      </trkpt>
      <trkpt lat="56.915994012785" lon="14.888124737166">
        <ele>183.8</ele>
        <time>2020-02-09T09:20:29Z</time>
      </trkpt>
      <trkpt lat="56.9159927555" lon="14.888336547779">
        <ele>183.8</ele>
        <time>2020-02-09T09:20:31Z</time>
      </trkpt>
      <trkpt lat="56.916021421598" lon="14.888614659221">
        <ele>183.2</ele>
        <time>2020-02-09T09:20:34Z</time>
      </trkpt>
      <trkpt lat="56.916081938916" lon="14.88879076294">
        <ele>183</ele>
        <time>2020-02-09T09:20:36Z</time>
      </trkpt>
      <trkpt lat="56.916187047942" lon="14.888917078173">
        <ele>183</ele>
        <time>2020-02-09T09:20:38Z</time>
      </trkpt>
      <trkpt lat="56.916312524985" lon="14.888969884143">
        <ele>183.2</ele>
        <time>2020-02-09T09:20:40Z</time>
      </trkpt>
      <trkpt lat="56.916493657844" lon="14.888911378481">
        <ele>183.4</ele>
        <time>2020-02-09T09:20:43Z</time>
      </trkpt>
      <trkpt lat="56.916865646566" lon="14.888680540955">
        <ele>183.8</ele>
        <time>2020-02-09T09:20:51Z</time>
      </trkpt>
      <trkpt lat="56.916934545784" lon="14.88864240331">
        <ele>184</ele>
        <time>2020-02-09T09:20:53Z</time>
      </trkpt>
      <trkpt lat="56.917236713279" lon="14.888436962941">
        <ele>182.6</ele>
        <time>2020-02-09T09:20:58Z</time>
      </trkpt>
      <trkpt lat="56.917404602736" lon="14.888275946642">
        <ele>181.2</ele>
        <time>2020-02-09T09:21:01Z</time>
      </trkpt>
      <trkpt lat="56.91751490854" lon="14.888280891963">
        <ele>180</ele>
        <time>2020-02-09T09:21:03Z</time>
      </trkpt>
      <trkpt lat="56.917586489966" lon="14.888331602458">
        <ele>179</ele>
        <time>2020-02-09T09:21:04Z</time>
      </trkpt>
      <trkpt lat="56.917669219319" lon="14.888423384263">
        <ele>178</ele>
        <time>2020-02-09T09:21:05Z</time>
      </trkpt>
      <trkpt lat="56.917759157106" lon="14.888662771327">
        <ele>176.6</ele>
        <time>2020-02-09T09:21:07Z</time>
      </trkpt>
      <trkpt lat="56.91783090617" lon="14.888871732094">
        <ele>175</ele>
        <time>2020-02-09T09:21:09Z</time>
      </trkpt>
      <trkpt lat="56.918032155589" lon="14.889405826762">
        <ele>174.6</ele>
        <time>2020-02-09T09:21:15Z</time>
      </trkpt>
      <trkpt lat="56.918468098208" lon="14.890122227755">
        <ele>176.2</ele>
        <time>2020-02-09T09:21:24Z</time>
      </trkpt>
      <trkpt lat="56.918589719577" lon="14.890239658174">
        <ele>177.4</ele>
        <time>2020-02-09T09:21:27Z</time>
      </trkpt>
      <trkpt lat="56.918711424765" lon="14.890294391981">
        <ele>178.6</ele>
        <time>2020-02-09T09:21:30Z</time>
      </trkpt>
      <trkpt lat="56.918755345921" lon="14.890293553791">
        <ele>178.8</ele>
        <time>2020-02-09T09:21:31Z</time>
      </trkpt>
      <trkpt lat="56.918848887925" lon="14.890283914606">
        <ele>179.2</ele>
        <time>2020-02-09T09:21:33Z</time>
      </trkpt>
      <trkpt lat="56.919055669398" lon="14.89020730404">
        <ele>179.6</ele>
        <time>2020-02-09T09:21:38Z</time>
      </trkpt>
      <trkpt lat="56.919249542745" lon="14.890163550522">
        <ele>179.6</ele>
        <time>2020-02-09T09:21:42Z</time>
      </trkpt>
      <trkpt lat="56.919372672856" lon="14.890139829745">
        <ele>180.8</ele>
        <time>2020-02-09T09:21:45Z</time>
      </trkpt>
      <trkpt lat="56.919477278968" lon="14.890129687646">
        <ele>181.2</ele>
        <time>2020-02-09T09:21:47Z</time>
      </trkpt>
      <trkpt lat="56.919650951936" lon="14.890101943557">
        <ele>182</ele>
        <time>2020-02-09T09:21:51Z</time>
      </trkpt>
      <trkpt lat="56.91969587892" lon="14.890100937729">
        <ele>182.2</ele>
        <time>2020-02-09T09:21:52Z</time>
      </trkpt>
      <trkpt lat="56.919792689865" lon="14.890119377909">
        <ele>182.6</ele>
        <time>2020-02-09T09:21:54Z</time>
      </trkpt>
      <trkpt lat="56.919953370888" lon="14.890189618231">
        <ele>183</ele>
        <time>2020-02-09T09:21:57Z</time>
      </trkpt>
      <trkpt lat="56.920305410688" lon="14.890338229318">
        <ele>183</ele>
        <time>2020-02-09T09:22:05Z</time>
      </trkpt>
      <trkpt lat="56.920624928716" lon="14.890293134696">
        <ele>184.2</ele>
        <time>2020-02-09T09:22:13Z</time>
      </trkpt>
      <trkpt lat="56.920824669393" lon="14.890209650972">
        <ele>185.4</ele>
        <time>2020-02-09T09:22:18Z</time>
      </trkpt>
      <trkpt lat="56.921012843048" lon="14.890125831972">
        <ele>186.6</ele>
        <time>2020-02-09T09:22:22Z</time>
      </trkpt>
      <trkpt lat="56.921165728904" lon="14.890008904467">
        <ele>187.6</ele>
        <time>2020-02-09T09:22:27Z</time>
      </trkpt>
      <trkpt lat="56.921379132078" lon="14.889878565922">
        <ele>188.8</ele>
        <time>2020-02-09T09:22:32Z</time>
      </trkpt>
      <trkpt lat="56.92163880334" lon="14.88966918606">
        <ele>190</ele>
        <time>2020-02-09T09:22:38Z</time>
      </trkpt>
      <trkpt lat="56.921707954015" lon="14.889600873575">
        <ele>191.2</ele>
        <time>2020-02-09T09:22:40Z</time>
      </trkpt>
      <trkpt lat="56.921790431911" lon="14.889501631879">
        <ele>192.6</ele>
        <time>2020-02-09T09:22:43Z</time>
      </trkpt>
      <trkpt lat="56.921891517625" lon="14.88934229196">
        <ele>193.6</ele>
        <time>2020-02-09T09:22:47Z</time>
      </trkpt>
      <trkpt lat="56.92201598884" lon="14.88917465396">
        <ele>194.8</ele>
        <time>2020-02-09T09:22:51Z</time>
      </trkpt>
      <trkpt lat="56.922137861666" lon="14.888925460073">
        <ele>196</ele>
        <time>2020-02-09T09:22:56Z</time>
      </trkpt>
      <trkpt lat="56.922199049536" lon="14.888449368153">
        <ele>194.8</ele>
        <time>2020-02-09T09:23:01Z</time>
      </trkpt>
      <trkpt lat="56.922263003433" lon="14.888257925557">
        <ele>193.8</ele>
        <time>2020-02-09T09:23:03Z</time>
      </trkpt>
      <trkpt lat="56.92242837832" lon="14.887951315655">
        <ele>192.8</ele>
        <time>2020-02-09T09:23:08Z</time>
      </trkpt>
      <trkpt lat="56.922464336671" lon="14.887919380616">
        <ele>192.8</ele>
        <time>2020-02-09T09:23:09Z</time>
      </trkpt>
      <trkpt lat="56.922583275832" lon="14.887883506084">
        <ele>192.6</ele>
        <time>2020-02-09T09:23:11Z</time>
      </trkpt>
      <trkpt lat="56.922707327952" lon="14.887912423639">
        <ele>191.6</ele>
        <time>2020-02-09T09:23:13Z</time>
      </trkpt>
      <trkpt lat="56.922823668724" lon="14.887848385923">
        <ele>190.4</ele>
        <time>2020-02-09T09:23:15Z</time>
      </trkpt>
      <trkpt lat="56.922886113879" lon="14.8878050515">
        <ele>189.6</ele>
        <time>2020-02-09T09:23:16Z</time>
      </trkpt>
      <trkpt lat="56.922952749984" lon="14.887771188624">
        <ele>188.6</ele>
        <time>2020-02-09T09:23:17Z</time>
      </trkpt>
      <trkpt lat="56.92301343494" lon="14.88773967268">
        <ele>187.4</ele>
        <time>2020-02-09T09:23:18Z</time>
      </trkpt>
      <trkpt lat="56.923135223947" lon="14.887671946928">
        <ele>186.2</ele>
        <time>2020-02-09T09:23:20Z</time>
      </trkpt>
      <trkpt lat="56.923352734252" lon="14.887547224256">
        <ele>185</ele>
        <time>2020-02-09T09:23:24Z</time>
      </trkpt>
      <trkpt lat="56.9234023551" lon="14.887528951714">
        <ele>184.6</ele>
        <time>2020-02-09T09:23:25Z</time>
      </trkpt>
      <trkpt lat="56.923540153536" lon="14.887436918452">
        <ele>184</ele>
        <time>2020-02-09T09:23:28Z</time>
      </trkpt>
      <trkpt lat="56.923941981822" lon="14.886756811086">
        <ele>186</ele>
        <time>2020-02-09T09:23:43Z</time>
      </trkpt>
      <trkpt lat="56.924154630625" lon="14.886475179246">
        <ele>185.4</ele>
        <time>2020-02-09T09:23:50Z</time>
      </trkpt>
      <trkpt lat="56.924696436641" lon="14.886638793934">
        <ele>186.8</ele>
        <time>2020-02-09T09:24:04Z</time>
      </trkpt>
      <trkpt lat="56.924764246212" lon="14.88669947889">
        <ele>187.2</ele>
        <time>2020-02-09T09:24:06Z</time>
      </trkpt>
      <trkpt lat="56.92489684787" lon="14.88680089988">
        <ele>188.4</ele>
        <time>2020-02-09T09:24:10Z</time>
      </trkpt>
      <trkpt lat="56.925062306576" lon="14.886927801846">
        <ele>189.6</ele>
        <time>2020-02-09T09:24:16Z</time>
      </trkpt>
      <trkpt lat="56.92514830487" lon="14.887022517316">
        <ele>190.6</ele>
        <time>2020-02-09T09:24:19Z</time>
      </trkpt>
      <trkpt lat="56.925196752252" lon="14.88713114674">
        <ele>191.2</ele>
        <time>2020-02-09T09:24:22Z</time>
      </trkpt>
      <trkpt lat="56.925250983145" lon="14.887175403172">
        <ele>191.8</ele>
        <time>2020-02-09T09:24:24Z</time>
      </trkpt>
      <trkpt lat="56.925339831285" lon="14.88727196266">
        <ele>193</ele>
        <time>2020-02-09T09:24:27Z</time>
      </trkpt>
      <trkpt lat="56.925449298899" lon="14.88740020573">
        <ele>193.8</ele>
        <time>2020-02-09T09:24:31Z</time>
      </trkpt>
      <trkpt lat="56.925467990536" lon="14.887445300352">
        <ele>194.2</ele>
        <time>2020-02-09T09:24:32Z</time>
      </trkpt>
      <trkpt lat="56.925858503257" lon="14.888039996157">
        <ele>194.4</ele>
        <time>2020-02-09T09:24:46Z</time>
      </trkpt>
      <trkpt lat="56.925937293117" lon="14.88806237583">
        <ele>195.2</ele>
        <time>2020-02-09T09:24:49Z</time>
      </trkpt>
      <trkpt lat="56.92597308383" lon="14.888080229277">
        <ele>195.6</ele>
        <time>2020-02-09T09:24:50Z</time>
      </trkpt>
      <trkpt lat="56.926168801195" lon="14.888221129016">
        <ele>196.2</ele>
        <time>2020-02-09T09:24:55Z</time>
      </trkpt>
      <trkpt lat="56.926310287667" lon="14.888245017431">
        <ele>197.6</ele>
        <time>2020-02-09T09:25:00Z</time>
      </trkpt>
      <trkpt lat="56.926435094158" lon="14.888218530627">
        <ele>198.6</ele>
        <time>2020-02-09T09:25:04Z</time>
      </trkpt>
      <trkpt lat="56.926629721876" lon="14.888188774882">
        <ele>200</ele>
        <time>2020-02-09T09:25:10Z</time>
      </trkpt>
      <trkpt lat="56.926768693778" lon="14.888249962752">
        <ele>201</ele>
        <time>2020-02-09T09:25:14Z</time>
      </trkpt>
      <trkpt lat="56.926959046727" lon="14.88830377455">
        <ele>202</ele>
        <time>2020-02-09T09:25:19Z</time>
      </trkpt>
      <trkpt lat="56.927245037155" lon="14.888229846192">
        <ele>203</ele>
        <time>2020-02-09T09:25:27Z</time>
      </trkpt>
      <trkpt lat="56.92748098764" lon="14.888124737166">
        <ele>204</ele>
        <time>2020-02-09T09:25:34Z</time>
      </trkpt>
      <trkpt lat="56.927639321731" lon="14.888054496844">
        <ele>205.2</ele>
        <time>2020-02-09T09:25:40Z</time>
      </trkpt>
      <trkpt lat="56.927734456296" lon="14.888091377204">
        <ele>206.4</ele>
        <time>2020-02-09T09:25:43Z</time>
      </trkpt>
      <trkpt lat="56.928135446392" lon="14.888118115465">
        <ele>207.6</ele>
        <time>2020-02-09T09:25:54Z</time>
      </trkpt>
      <trkpt lat="56.928235610097" lon="14.887962966496">
        <ele>208.6</ele>
        <time>2020-02-09T09:25:58Z</time>
      </trkpt>
      <trkpt lat="56.928426968874" lon="14.887679406819">
        <ele>209.4</ele>
        <time>2020-02-09T09:26:05Z</time>
      </trkpt>
      <trkpt lat="56.928557139781" lon="14.8876374135">
        <ele>209.4</ele>
        <time>2020-02-09T09:26:08Z</time>
      </trkpt>
      <trkpt lat="56.928675995123" lon="14.88764830997">
        <ele>209.4</ele>
        <time>2020-02-09T09:26:11Z</time>
      </trkpt>
      <trkpt lat="56.928754701164" lon="14.887635653301">
        <ele>209.4</ele>
        <time>2020-02-09T09:26:13Z</time>
      </trkpt>
      <trkpt lat="56.928866431891" lon="14.887588882299">
        <ele>209.8</ele>
        <time>2020-02-09T09:26:16Z</time>
      </trkpt>
      <trkpt lat="56.92938367894" lon="14.887253187204">
        <ele>210.8</ele>
        <time>2020-02-09T09:26:29Z</time>
      </trkpt>
      <trkpt lat="56.929481076618" lon="14.887236842499">
        <ele>210.8</ele>
        <time>2020-02-09T09:26:31Z</time>
      </trkpt>
      <trkpt lat="56.929750051789" lon="14.887257042878">
        <ele>211.4</ele>
        <time>2020-02-09T09:26:38Z</time>
      </trkpt>
      <trkpt lat="56.930181049087" lon="14.887625427383">
        <ele>209.8</ele>
        <time>2020-02-09T09:26:48Z</time>
      </trkpt>
      <trkpt lat="56.930282637715" lon="14.887736236101">
        <ele>209.4</ele>
        <time>2020-02-09T09:26:50Z</time>
      </trkpt>
      <trkpt lat="56.930416496658" lon="14.887922062824">
        <ele>208.6</ele>
        <time>2020-02-09T09:26:53Z</time>
      </trkpt>
      <trkpt lat="56.930598886802" lon="14.888320203074">
        <ele>207.8</ele>
        <time>2020-02-09T09:26:58Z</time>
      </trkpt>
      <trkpt lat="56.930688908408" lon="14.888429335412">
        <ele>208</ele>
        <time>2020-02-09T09:27:00Z</time>
      </trkpt>
      <trkpt lat="56.930763674956" lon="14.888417433114">
        <ele>208.4</ele>
        <time>2020-02-09T09:27:02Z</time>
      </trkpt>
      <trkpt lat="56.930918572468" lon="14.888236132617">
        <ele>208.6</ele>
        <time>2020-02-09T09:27:06Z</time>
      </trkpt>
      <trkpt lat="56.931020328734" lon="14.888233701866">
        <ele>208.6</ele>
        <time>2020-02-09T09:27:08Z</time>
      </trkpt>
      <trkpt lat="56.931130550719" lon="14.888305115654">
        <ele>208.6</ele>
        <time>2020-02-09T09:27:10Z</time>
      </trkpt>
      <trkpt lat="56.93122350599" lon="14.888402010418">
        <ele>208.6</ele>
        <time>2020-02-09T09:27:12Z</time>
      </trkpt>
      <trkpt lat="56.9314825067" lon="14.888756061874">
        <ele>209.6</ele>
        <time>2020-02-09T09:27:18Z</time>
      </trkpt>
      <trkpt lat="56.93160404425" lon="14.888916575259">
        <ele>210.6</ele>
        <time>2020-02-09T09:27:21Z</time>
      </trkpt>
      <trkpt lat="56.931643774456" lon="14.888981534984">
        <ele>210.8</ele>
        <time>2020-02-09T09:27:22Z</time>
      </trkpt>
      <trkpt lat="56.932061779809" lon="14.889609926027">
        <ele>210.6</ele>
        <time>2020-02-09T09:27:32Z</time>
      </trkpt>
      <trkpt lat="56.932476432402" lon="14.890260445286">
        <ele>209.8</ele>
        <time>2020-02-09T09:27:41Z</time>
      </trkpt>
      <trkpt lat="56.932664941333" lon="14.890566552274">
        <ele>209.6</ele>
        <time>2020-02-09T09:27:45Z</time>
      </trkpt>
      <trkpt lat="56.932847499115" lon="14.890900906265">
        <ele>208.6</ele>
        <time>2020-02-09T09:27:49Z</time>
      </trkpt>
      <trkpt lat="56.933167939152" lon="14.891705652484">
        <ele>207.6</ele>
        <time>2020-02-09T09:27:57Z</time>
      </trkpt>
      <trkpt lat="56.933237089827" lon="14.891893993777">
        <ele>207.4</ele>
        <time>2020-02-09T09:27:59Z</time>
      </trkpt>
      <trkpt lat="56.933425179663" lon="14.892381736538">
        <ele>206.4</ele>
        <time>2020-02-09T09:28:04Z</time>
      </trkpt>
      <trkpt lat="56.933764478975" lon="14.893209365344">
        <ele>206.8</ele>
        <time>2020-02-09T09:28:13Z</time>
      </trkpt>
      <trkpt lat="56.933998669261" lon="14.893596357667">
        <ele>206</ele>
        <time>2020-02-09T09:28:18Z</time>
      </trkpt>
      <trkpt lat="56.934076872388" lon="14.893781597657">
        <ele>205.6</ele>
        <time>2020-02-09T09:28:20Z</time>
      </trkpt>
      <trkpt lat="56.934110902902" lon="14.894032384105">
        <ele>205</ele>
        <time>2020-02-09T09:28:22Z</time>
      </trkpt>
      <trkpt lat="56.934101515174" lon="14.894294569937">
        <ele>204</ele>
        <time>2020-02-09T09:28:24Z</time>
      </trkpt>
      <trkpt lat="56.934083242632" lon="14.894414012012">
        <ele>203.4</ele>
        <time>2020-02-09T09:28:25Z</time>
      </trkpt>
      <trkpt lat="56.934024317875" lon="14.894665888107">
        <ele>202</ele>
        <time>2020-02-09T09:28:27Z</time>
      </trkpt>
      <trkpt lat="56.93397109281" lon="14.894907286827">
        <ele>201.6</ele>
        <time>2020-02-09T09:28:29Z</time>
      </trkpt>
      <trkpt lat="56.933773782884" lon="14.895740615325">
        <ele>201</ele>
        <time>2020-02-09T09:28:36Z</time>
      </trkpt>
      <trkpt lat="56.933642773787" lon="14.896231878484">
        <ele>201</ele>
        <time>2020-02-09T09:28:41Z</time>
      </trkpt>
      <trkpt lat="56.933300792267" lon="14.896998989972">
        <ele>201.4</ele>
        <time>2020-02-09T09:28:50Z</time>
      </trkpt>
      <trkpt lat="56.933024105748" lon="14.897557140693">
        <ele>200.2</ele>
        <time>2020-02-09T09:28:56Z</time>
      </trkpt>
      <trkpt lat="56.932961576774" lon="14.897804406743">
        <ele>200.4</ele>
        <time>2020-02-09T09:28:58Z</time>
      </trkpt>
      <trkpt lat="56.932917404161" lon="14.898071621715">
        <ele>200.4</ele>
        <time>2020-02-09T09:29:00Z</time>
      </trkpt>
      <trkpt lat="56.932902819655" lon="14.898404969878">
        <ele>201.2</ele>
        <time>2020-02-09T09:29:03Z</time>
      </trkpt>
      <trkpt lat="56.932896030316" lon="14.898701772957">
        <ele>202.4</ele>
        <time>2020-02-09T09:29:06Z</time>
      </trkpt>
      <trkpt lat="56.932936179617" lon="14.899506938271">
        <ele>203.4</ele>
        <time>2020-02-09T09:29:14Z</time>
      </trkpt>
      <trkpt lat="56.932903154931" lon="14.899663428344">
        <ele>203</ele>
        <time>2020-02-09T09:29:16Z</time>
      </trkpt>
      <trkpt lat="56.932657313804" lon="14.899835257294">
        <ele>202</ele>
        <time>2020-02-09T09:29:21Z</time>
      </trkpt>
      <trkpt lat="56.932451202883" lon="14.900025777881">
        <ele>202</ele>
        <time>2020-02-09T09:29:25Z</time>
      </trkpt>
      <trkpt lat="56.932282810512" lon="14.900111524718">
        <ele>201.2</ele>
        <time>2020-02-09T09:29:28Z</time>
      </trkpt>
      <trkpt lat="56.931876120724" lon="14.900300285106">
        <ele>201.4</ele>
        <time>2020-02-09T09:29:37Z</time>
      </trkpt>
      <trkpt lat="56.93186891229" lon="14.90037119598">
        <ele>202.6</ele>
        <time>2020-02-09T09:29:40Z</time>
      </trkpt>
      <trkpt lat="56.932156998193" lon="14.900612929976">
        <ele>203.4</ele>
        <time>2020-02-09T09:29:53Z</time>
      </trkpt>
      <trkpt lat="56.932203433919" lon="14.900812754472">
        <ele>203</ele>
        <time>2020-02-09T09:29:57Z</time>
      </trkpt>
      <trkpt lat="56.932440054956" lon="14.900924569018">
        <ele>203.8</ele>
        <time>2020-02-09T09:30:04Z</time>
      </trkpt>
      <trkpt lat="56.932706599376" lon="14.90087578636">
        <ele>204.8</ele>
        <time>2020-02-09T09:30:11Z</time>
      </trkpt>
      <trkpt lat="56.932975993642" lon="14.900846533529">
        <ele>206</ele>
        <time>2020-02-09T09:30:19Z</time>
      </trkpt>
      <trkpt lat="56.93307758227" lon="14.900856759447">
        <ele>207.2</ele>
        <time>2020-02-09T09:30:23Z</time>
      </trkpt>
      <trkpt lat="56.933451582648" lon="14.900728348739">
        <ele>206.4</ele>
        <time>2020-02-09T09:30:34Z</time>
      </trkpt>
      <trkpt lat="56.933573287836" lon="14.900691049284">
        <ele>206</ele>
        <time>2020-02-09T09:30:37Z</time>
      </trkpt>
      <trkpt lat="56.93381016033" lon="14.900665819765">
        <ele>205.2</ele>
        <time>2020-02-09T09:30:42Z</time>
      </trkpt>
      <trkpt lat="56.933859026807" lon="14.90065031325">
        <ele>204.6</ele>
        <time>2020-02-09T09:30:43Z</time>
      </trkpt>
      <trkpt lat="56.933956927399" lon="14.900637824219">
        <ele>203</ele>
        <time>2020-02-09T09:30:45Z</time>
      </trkpt>
      <trkpt lat="56.934092965636" lon="14.90064444592">
        <ele>201.6</ele>
        <time>2020-02-09T09:30:47Z</time>
      </trkpt>
      <trkpt lat="56.934290527019" lon="14.900711333482">
        <ele>200.4</ele>
        <time>2020-02-09T09:30:50Z</time>
      </trkpt>
      <trkpt lat="56.934420530288" lon="14.900782411994">
        <ele>199.2</ele>
        <time>2020-02-09T09:30:52Z</time>
      </trkpt>
      <trkpt lat="56.934454812259" lon="14.90080705478">
        <ele>198.6</ele>
        <time>2020-02-09T09:30:53Z</time>
      </trkpt>
      <trkpt lat="56.93447149224" lon="14.900841001475">
        <ele>198.2</ele>
        <time>2020-02-09T09:30:54Z</time>
      </trkpt>
      <trkpt lat="56.934466714557" lon="14.901088602801">
        <ele>198</ele>
        <time>2020-02-09T09:30:57Z</time>
      </trkpt>
      <trkpt lat="56.934425475609" lon="14.901359673447">
        <ele>196.8</ele>
        <time>2020-02-09T09:31:00Z</time>
      </trkpt>
      <trkpt lat="56.934390020172" lon="14.901483977024">
        <ele>195.8</ele>
        <time>2020-02-09T09:31:02Z</time>
      </trkpt>
      <trkpt lat="56.934292454856" lon="14.901795699885">
        <ele>194.8</ele>
        <time>2020-02-09T09:31:07Z</time>
      </trkpt>
      <trkpt lat="56.934130935643" lon="14.902402297988">
        <ele>194.6</ele>
        <time>2020-02-09T09:31:18Z</time>
      </trkpt>
      <trkpt lat="56.934059354217" lon="14.902557279319">
        <ele>193.6</ele>
        <time>2020-02-09T09:31:22Z</time>
      </trkpt>
      <trkpt lat="56.934007721713" lon="14.902652497703">
        <ele>193.6</ele>
        <time>2020-02-09T09:31:26Z</time>
      </trkpt>
      <trkpt lat="56.933845951043" lon="14.902966399858">
        <ele>194.8</ele>
        <time>2020-02-09T09:31:35Z</time>
      </trkpt>
      <trkpt lat="56.933822397904" lon="14.903079723146">
        <ele>196.2</ele>
        <time>2020-02-09T09:31:38Z</time>
      </trkpt>
      <trkpt lat="56.933826756492" lon="14.903167230182">
        <ele>197.2</ele>
        <time>2020-02-09T09:31:40Z</time>
      </trkpt>
      <trkpt lat="56.934025826617" lon="14.90349513011">
        <ele>198.4</ele>
        <time>2020-02-09T09:31:53Z</time>
      </trkpt>
      <trkpt lat="56.934026664807" lon="14.903563358776">
        <ele>198.2</ele>
        <time>2020-02-09T09:31:55Z</time>
      </trkpt>
      <trkpt lat="56.934518933794" lon="14.903963175406">
        <ele>198</ele>
        <time>2020-02-09T09:32:09Z</time>
      </trkpt>
      <trkpt lat="56.934643237371" lon="14.904116312719">
        <ele>197.2</ele>
        <time>2020-02-09T09:32:19Z</time>
      </trkpt>
      <trkpt lat="56.934703084137" lon="14.904194683484">
        <ele>196</ele>
        <time>2020-02-09T09:32:25Z</time>
      </trkpt>
      <trkpt lat="56.934744239266" lon="14.904226534704">
        <ele>195</ele>
        <time>2020-02-09T09:32:29Z</time>
      </trkpt>
      <trkpt lat="56.934809618086" lon="14.904314209378">
        <ele>194.2</ele>
        <time>2020-02-09T09:32:37Z</time>
      </trkpt>
      <trkpt lat="56.934819676366" lon="14.904318400328">
        <ele>194</ele>
        <time>2020-02-09T09:32:38Z</time>
      </trkpt>
      <trkpt lat="56.934826633343" lon="14.904323345649">
        <ele>193.8</ele>
        <time>2020-02-09T09:32:39Z</time>
      </trkpt>
      <trkpt lat="56.934847671912" lon="14.904339857992">
        <ele>193.6</ele>
        <time>2020-02-09T09:32:42Z</time>
      </trkpt>
      <trkpt lat="56.934899974968" lon="14.904414708359">
        <ele>193.6</ele>
        <time>2020-02-09T09:32:46Z</time>
      </trkpt>
      <trkpt lat="56.934937274423" lon="14.904443206819">
        <ele>193.4</ele>
        <time>2020-02-09T09:32:48Z</time>
      </trkpt>
      <trkpt lat="56.935016231921" lon="14.904420072775">
        <ele>193</ele>
        <time>2020-02-09T09:32:52Z</time>
      </trkpt>
      <trkpt lat="56.935056465041" lon="14.904394591799">
        <ele>192.8</ele>
        <time>2020-02-09T09:32:54Z</time>
      </trkpt>
      <trkpt lat="56.935248829646" lon="14.904133914709">
        <ele>191.6</ele>
        <time>2020-02-09T09:33:01Z</time>
      </trkpt>
      <trkpt lat="56.935621069825" lon="14.903890504333">
        <ele>190.4</ele>
        <time>2020-02-09T09:33:12Z</time>
      </trkpt>
      <trkpt lat="56.93618810536" lon="14.903749017861">
        <ele>189</ele>
        <time>2020-02-09T09:33:24Z</time>
      </trkpt>
      <trkpt lat="56.936497648927" lon="14.903642567731">
        <ele>188</ele>
        <time>2020-02-09T09:33:37Z</time>
      </trkpt>
      <trkpt lat="56.936592532035" lon="14.903761171616">
        <ele>188</ele>
        <time>2020-02-09T09:33:51Z</time>
      </trkpt>
      <trkpt lat="56.936626562549" lon="14.903785479126">
        <ele>188.4</ele>
        <time>2020-02-09T09:33:54Z</time>
      </trkpt>
      <trkpt lat="56.936660341606" lon="14.903829065006">
        <ele>188.8</ele>
        <time>2020-02-09T09:33:56Z</time>
      </trkpt>
      <trkpt lat="56.93670526859" lon="14.903862089692">
        <ele>189.4</ele>
        <time>2020-02-09T09:33:58Z</time>
      </trkpt>
      <trkpt lat="56.936725720426" lon="14.903877763845">
        <ele>189.6</ele>
        <time>2020-02-09T09:33:59Z</time>
      </trkpt>
      <trkpt lat="56.936778358758" lon="14.903924870123">
        <ele>190.4</ele>
        <time>2020-02-09T09:34:02Z</time>
      </trkpt>
      <trkpt lat="56.936874080056" lon="14.90397625117">
        <ele>191.6</ele>
        <time>2020-02-09T09:34:05Z</time>
      </trkpt>
      <trkpt lat="56.936968627888" lon="14.90401480791">
        <ele>191.8</ele>
        <time>2020-02-09T09:34:07Z</time>
      </trkpt>
      <trkpt lat="56.937174571171" lon="14.904132741243">
        <ele>192.6</ele>
        <time>2020-02-09T09:34:13Z</time>
      </trkpt>
      <trkpt lat="56.937352518908" lon="14.904248327644">
        <ele>193.8</ele>
        <time>2020-02-09T09:34:19Z</time>
      </trkpt>
      <trkpt lat="56.937485288204" lon="14.904286046194">
        <ele>194.8</ele>
        <time>2020-02-09T09:34:25Z</time>
      </trkpt>
      <trkpt lat="56.937495514122" lon="14.904274982086">
        <ele>194.8</ele>
        <time>2020-02-09T09:34:26Z</time>
      </trkpt>
      <trkpt lat="56.937559970933" lon="14.904306833306">
        <ele>195.2</ele>
        <time>2020-02-09T09:34:30Z</time>
      </trkpt>
      <trkpt lat="56.93765661424" lon="14.904333487748">
        <ele>195.4</ele>
        <time>2020-02-09T09:34:32Z</time>
      </trkpt>
      <trkpt lat="56.938072524118" lon="14.904411187961">
        <ele>195.6</ele>
        <time>2020-02-09T09:34:42Z</time>
      </trkpt>
      <trkpt lat="56.938346779886" lon="14.904633811225">
        <ele>196</ele>
        <time>2020-02-09T09:34:52Z</time>
      </trkpt>
      <trkpt lat="56.938366225894" lon="14.904662309685">
        <ele>196.2</ele>
        <time>2020-02-09T09:34:53Z</time>
      </trkpt>
      <trkpt lat="56.938415427647" lon="14.904877724515">
        <ele>196.4</ele>
        <time>2020-02-09T09:34:58Z</time>
      </trkpt>
      <trkpt lat="56.938658083652" lon="14.905209563936">
        <ele>196.2</ele>
        <time>2020-02-09T09:35:10Z</time>
      </trkpt>
      <trkpt lat="56.938656323453" lon="14.905388936596">
        <ele>196</ele>
        <time>2020-02-09T09:35:14Z</time>
      </trkpt>
      <trkpt lat="56.938805269816" lon="14.90557803226">
        <ele>197</ele>
        <time>2020-02-09T09:35:19Z</time>
      </trkpt>
      <trkpt lat="56.93913099045" lon="14.905739719111">
        <ele>198</ele>
        <time>2020-02-09T09:35:27Z</time>
      </trkpt>
      <trkpt lat="56.939271638732" lon="14.905841894472">
        <ele>199.2</ele>
        <time>2020-02-09T09:35:31Z</time>
      </trkpt>
      <trkpt lat="56.939347662565" lon="14.905995199423">
        <ele>200.4</ele>
        <time>2020-02-09T09:35:36Z</time>
      </trkpt>
      <trkpt lat="56.93951320509" lon="14.906092429463">
        <ele>201.4</ele>
        <time>2020-02-09T09:35:42Z</time>
      </trkpt>
      <trkpt lat="56.939531058537" lon="14.90610106282">
        <ele>201.6</ele>
        <time>2020-02-09T09:35:43Z</time>
      </trkpt>
      <trkpt lat="56.939925175475" lon="14.906275322521">
        <ele>202.6</ele>
        <time>2020-02-09T09:35:58Z</time>
      </trkpt>
      <trkpt lat="56.940207142591" lon="14.906333073812">
        <ele>203.8</ele>
        <time>2020-02-09T09:36:07Z</time>
      </trkpt>
      <trkpt lat="56.940584328091" lon="14.906397111528">
        <ele>204.8</ele>
        <time>2020-02-09T09:36:19Z</time>
      </trkpt>
      <trkpt lat="56.940749032426" lon="14.90644723529">
        <ele>205.8</ele>
        <time>2020-02-09T09:36:26Z</time>
      </trkpt>
      <trkpt lat="56.941200733017" lon="14.906632726737">
        <ele>207</ele>
        <time>2020-02-09T09:36:44Z</time>
      </trkpt>
      <trkpt lat="56.941528968221" lon="14.906722496886">
        <ele>208.4</ele>
        <time>2020-02-09T09:36:54Z</time>
      </trkpt>
      <trkpt lat="56.941620079474" lon="14.906732722804">
        <ele>209.4</ele>
        <time>2020-02-09T09:36:57Z</time>
      </trkpt>
      <trkpt lat="56.942170015933" lon="14.906796006149">
        <ele>210.4</ele>
        <time>2020-02-09T09:37:12Z</time>
      </trkpt>
      <trkpt lat="56.942484504821" lon="14.906825845713">
        <ele>210.4</ele>
        <time>2020-02-09T09:37:21Z</time>
      </trkpt>
      <trkpt lat="56.942806285962" lon="14.906876304751">
        <ele>210.6</ele>
        <time>2020-02-09T09:37:38Z</time>
      </trkpt>
      <trkpt lat="56.942899408871" lon="14.906895499302">
        <ele>210.6</ele>
        <time>2020-02-09T09:37:41Z</time>
      </trkpt>
      <trkpt lat="56.94321046118" lon="14.907051989375">
        <ele>209.4</ele>
        <time>2020-02-09T09:37:54Z</time>
      </trkpt>
      <trkpt lat="56.943217334338" lon="14.907047295511">
        <ele>209.4</ele>
        <time>2020-02-09T09:37:55Z</time>
      </trkpt>
      <trkpt lat="56.943239881649" lon="14.907026340761">
        <ele>210.6</ele>
        <time>2020-02-09T09:38:01Z</time>
      </trkpt>
      <trkpt lat="56.94324985611" lon="14.907010163694">
        <ele>212</ele>
        <time>2020-02-09T09:38:04Z</time>
      </trkpt>
      <trkpt lat="56.94324650335" lon="14.907003961088">
        <ele>213</ele>
        <time>2020-02-09T09:38:11Z</time>
      </trkpt>
      <trkpt lat="56.943273828344" lon="14.906922153744">
        <ele>213</ele>
        <time>2020-02-09T09:38:15Z</time>
      </trkpt>
      <trkpt lat="56.943308445591" lon="14.906912263102">
        <ele>213</ele>
        <time>2020-02-09T09:38:17Z</time>
      </trkpt>
      <trkpt lat="56.943331328178" lon="14.906954172602">
        <ele>213</ele>
        <time>2020-02-09T09:38:19Z</time>
      </trkpt>
      <trkpt lat="56.943309786695" lon="14.907004715459">
        <ele>212.8</ele>
        <time>2020-02-09T09:38:22Z</time>
      </trkpt>
      <trkpt lat="56.94328757466" lon="14.906980156492">
        <ele>212.8</ele>
        <time>2020-02-09T09:38:24Z</time>
      </trkpt>
      <trkpt lat="56.943187997688" lon="14.906121849932">
        <ele>211.8</ele>
        <time>2020-02-09T09:38:42Z</time>
      </trkpt>
      <trkpt lat="56.943160672694" lon="14.905768888123">
        <ele>210.8</ele>
        <time>2020-02-09T09:38:46Z</time>
      </trkpt>
      <trkpt lat="56.943125552533" lon="14.905319702102">
        <ele>209.4</ele>
        <time>2020-02-09T09:38:50Z</time>
      </trkpt>
      <trkpt lat="56.943110465113" lon="14.905087104377">
        <ele>208.2</ele>
        <time>2020-02-09T09:38:52Z</time>
      </trkpt>
      <trkpt lat="56.943089426544" lon="14.904675636906">
        <ele>206.8</ele>
        <time>2020-02-09T09:38:56Z</time>
      </trkpt>
      <trkpt lat="56.943095042417" lon="14.904485786871">
        <ele>205.6</ele>
        <time>2020-02-09T09:38:59Z</time>
      </trkpt>
      <trkpt lat="56.943485974233" lon="14.904544292533">
        <ele>207</ele>
        <time>2020-02-09T09:39:16Z</time>
      </trkpt>
      <trkpt lat="56.943581108798" lon="14.904605983317">
        <ele>208.2</ele>
        <time>2020-02-09T09:39:20Z</time>
      </trkpt>
      <trkpt lat="56.943688983851" lon="14.904683012978">
        <ele>209.2</ele>
        <time>2020-02-09T09:39:24Z</time>
      </trkpt>
      <trkpt lat="56.94391621716" lon="14.9047364895">
        <ele>210.2</ele>
        <time>2020-02-09T09:39:31Z</time>
      </trkpt>
      <trkpt lat="56.944150575084" lon="14.904818213025">
        <ele>211.4</ele>
        <time>2020-02-09T09:39:39Z</time>
      </trkpt>
      <trkpt lat="56.944295749592" lon="14.904841598526">
        <ele>212.6</ele>
        <time>2020-02-09T09:39:44Z</time>
      </trkpt>
      <trkpt lat="56.944447126706" lon="14.904886860786">
        <ele>213.6</ele>
        <time>2020-02-09T09:39:50Z</time>
      </trkpt>
      <trkpt lat="56.944622224597" lon="14.904904378957">
        <ele>214.8</ele>
        <time>2020-02-09T09:39:57Z</time>
      </trkpt>
      <trkpt lat="56.944805201474" lon="14.904947629561">
        <ele>216</ele>
        <time>2020-02-09T09:40:04Z</time>
      </trkpt>
      <trkpt lat="56.944922296617" lon="14.904936397815">
        <ele>217</ele>
        <time>2020-02-09T09:40:08Z</time>
      </trkpt>
      <trkpt lat="56.945072248808" lon="14.904936733091">
        <ele>218.2</ele>
        <time>2020-02-09T09:40:15Z</time>
      </trkpt>
      <trkpt lat="56.945177525472" lon="14.904997334228">
        <ele>219.4</ele>
        <time>2020-02-09T09:40:19Z</time>
      </trkpt>
      <trkpt lat="56.945371650276" lon="14.905051313664">
        <ele>220.4</ele>
        <time>2020-02-09T09:40:25Z</time>
      </trkpt>
      <trkpt lat="56.9456646815" lon="14.905135635578">
        <ele>221.4</ele>
        <time>2020-02-09T09:40:35Z</time>
      </trkpt>
      <trkpt lat="56.945744477188" lon="14.905130690257">
        <ele>222.6</ele>
        <time>2020-02-09T09:40:40Z</time>
      </trkpt>
      <trkpt lat="56.945843802703" lon="14.905049888741">
        <ele>223</ele>
        <time>2020-02-09T09:40:45Z</time>
      </trkpt>
      <trkpt lat="56.945935584508" lon="14.904974451641">
        <ele>223.6</ele>
        <time>2020-02-09T09:40:49Z</time>
      </trkpt>
      <trkpt lat="56.946134235538" lon="14.904720480071">
        <ele>224.4</ele>
        <time>2020-02-09T09:40:58Z</time>
      </trkpt>
      <trkpt lat="56.946207996258" lon="14.904648898645">
        <ele>224.8</ele>
        <time>2020-02-09T09:41:01Z</time>
      </trkpt>
      <trkpt lat="56.946430451884" lon="14.904480925369">
        <ele>225.8</ele>
        <time>2020-02-09T09:41:09Z</time>
      </trkpt>
      <trkpt lat="56.946635976072" lon="14.904327788056">
        <ele>227</ele>
        <time>2020-02-09T09:41:17Z</time>
      </trkpt>
      <trkpt lat="56.946699762331" lon="14.904235084242">
        <ele>228</ele>
        <time>2020-02-09T09:41:22Z</time>
      </trkpt>
      <trkpt lat="56.94675013755" lon="14.904108098457">
        <ele>228.8</ele>
        <time>2020-02-09T09:41:26Z</time>
      </trkpt>
      <trkpt lat="56.946792717602" lon="14.904017825394">
        <ele>229</ele>
        <time>2020-02-09T09:41:28Z</time>
      </trkpt>
      <trkpt lat="56.946884667045" lon="14.903903580097">
        <ele>230</ele>
        <time>2020-02-09T09:41:31Z</time>
      </trkpt>
      <trkpt lat="56.947079043306" lon="14.903683136127">
        <ele>231.2</ele>
        <time>2020-02-09T09:41:39Z</time>
      </trkpt>
      <trkpt lat="56.947148361619" lon="14.903658912436">
        <ele>231.8</ele>
        <time>2020-02-09T09:41:41Z</time>
      </trkpt>
      <trkpt lat="56.947174932242" lon="14.903626139207">
        <ele>232.4</ele>
        <time>2020-02-09T09:41:43Z</time>
      </trkpt>
      <trkpt lat="56.947238886139" lon="14.903583894431">
        <ele>233.6</ele>
        <time>2020-02-09T09:41:47Z</time>
      </trkpt>
      <trkpt lat="56.947325303528" lon="14.90355715617">
        <ele>234.6</ele>
        <time>2020-02-09T09:41:50Z</time>
      </trkpt>
      <trkpt lat="56.947465784172" lon="14.903576518359">
        <ele>235.6</ele>
        <time>2020-02-09T09:41:54Z</time>
      </trkpt>
      <trkpt lat="56.947570222646" lon="14.903664360671">
        <ele>236.8</ele>
        <time>2020-02-09T09:41:59Z</time>
      </trkpt>
      <trkpt lat="56.947711876756" lon="14.90376335091">
        <ele>237.8</ele>
        <time>2020-02-09T09:42:04Z</time>
      </trkpt>
      <trkpt lat="56.947815728497" lon="14.903817078889">
        <ele>239</ele>
        <time>2020-02-09T09:42:08Z</time>
      </trkpt>
      <trkpt lat="56.947940283531" lon="14.903812468844">
        <ele>240.2</ele>
        <time>2020-02-09T09:42:13Z</time>
      </trkpt>
      <trkpt lat="56.948015552993" lon="14.903770559344">
        <ele>241.2</ele>
        <time>2020-02-09T09:42:18Z</time>
      </trkpt>
      <trkpt lat="56.948188890685" lon="14.903737199382">
        <ele>242.2</ele>
        <time>2020-02-09T09:42:25Z</time>
      </trkpt>
      <trkpt lat="56.948454680734" lon="14.9039234452">
        <ele>243.4</ele>
        <time>2020-02-09T09:42:35Z</time>
      </trkpt>
      <trkpt lat="56.948533386775" lon="14.904025872018">
        <ele>244.6</ele>
        <time>2020-02-09T09:42:39Z</time>
      </trkpt>
      <trkpt lat="56.948569177488" lon="14.904070379907">
        <ele>245</ele>
        <time>2020-02-09T09:42:41Z</time>
      </trkpt>
      <trkpt lat="56.94864109419" lon="14.904121341859">
        <ele>245.6</ele>
        <time>2020-02-09T09:42:44Z</time>
      </trkpt>
      <trkpt lat="56.948938232545" lon="14.904197617149">
        <ele>246.8</ele>
        <time>2020-02-09T09:42:54Z</time>
      </trkpt>
      <trkpt lat="56.949382389426" lon="14.904124359343">
        <ele>247.2</ele>
        <time>2020-02-09T09:43:07Z</time>
      </trkpt>
      <trkpt lat="56.949471572842" lon="14.904111618855">
        <ele>247</ele>
        <time>2020-02-09T09:43:09Z</time>
      </trkpt>
      <trkpt lat="56.949765442256" lon="14.904090496467">
        <ele>247.6</ele>
        <time>2020-02-09T09:43:22Z</time>
      </trkpt>
      <trkpt lat="56.950106501767" lon="14.904643618048">
        <ele>245.6</ele>
        <time>2020-02-09T09:43:35Z</time>
      </trkpt>
      <trkpt lat="56.950258381795" lon="14.904867582416">
        <ele>244.2</ele>
        <time>2020-02-09T09:43:38Z</time>
      </trkpt>
      <trkpt lat="56.950395509679" lon="14.905040501013">
        <ele>242.8</ele>
        <time>2020-02-09T09:43:40Z</time>
      </trkpt>
      <trkpt lat="56.950549736639" lon="14.9052310216">
        <ele>240.4</ele>
        <time>2020-02-09T09:43:42Z</time>
      </trkpt>
      <trkpt lat="56.950625173739" lon="14.905326407622">
        <ele>238.8</ele>
        <time>2020-02-09T09:43:43Z</time>
      </trkpt>
      <trkpt lat="56.95069968883" lon="14.905427912431">
        <ele>237.2</ele>
        <time>2020-02-09T09:43:44Z</time>
      </trkpt>
      <trkpt lat="56.950846958813" lon="14.905598903191">
        <ele>235.4</ele>
        <time>2020-02-09T09:43:46Z</time>
      </trkpt>
      <trkpt lat="56.950913678737" lon="14.905687499874">
        <ele>234.8</ele>
        <time>2020-02-09T09:43:47Z</time>
      </trkpt>
      <trkpt lat="56.950981153032" lon="14.905788753226">
        <ele>234</ele>
        <time>2020-02-09T09:43:48Z</time>
      </trkpt>
      <trkpt lat="56.95104167035" lon="14.905896209184">
        <ele>233.6</ele>
        <time>2020-02-09T09:43:49Z</time>
      </trkpt>
      <trkpt lat="56.95113973858" lon="14.906147498546">
        <ele>233</ele>
        <time>2020-02-09T09:43:51Z</time>
      </trkpt>
      <trkpt lat="56.951252223678" lon="14.90645058805">
        <ele>230.8</ele>
        <time>2020-02-09T09:43:53Z</time>
      </trkpt>
      <trkpt lat="56.951323386009" lon="14.906582100061">
        <ele>229.4</ele>
        <time>2020-02-09T09:43:54Z</time>
      </trkpt>
      <trkpt lat="56.951393542512" lon="14.90670707419">
        <ele>228</ele>
        <time>2020-02-09T09:43:55Z</time>
      </trkpt>
      <trkpt lat="56.951517846089" lon="14.906988873668">
        <ele>226.6</ele>
        <time>2020-02-09T09:43:57Z</time>
      </trkpt>
      <trkpt lat="56.951632007567" lon="14.907253071156">
        <ele>225.4</ele>
        <time>2020-02-09T09:43:59Z</time>
      </trkpt>
      <trkpt lat="56.951727058313" lon="14.907500253387">
        <ele>224</ele>
        <time>2020-02-09T09:44:01Z</time>
      </trkpt>
      <trkpt lat="56.951955045993" lon="14.9081814504">
        <ele>223.4</ele>
        <time>2020-02-09T09:44:06Z</time>
      </trkpt>
      <trkpt lat="56.951984382643" lon="14.908440870205">
        <ele>224.4</ele>
        <time>2020-02-09T09:44:08Z</time>
      </trkpt>
      <trkpt lat="56.951983376815" lon="14.909007738102">
        <ele>225</ele>
        <time>2020-02-09T09:44:13Z</time>
      </trkpt>
      <trkpt lat="56.952002990461" lon="14.909212172643">
        <ele>224.6</ele>
        <time>2020-02-09T09:44:15Z</time>
      </trkpt>
      <trkpt lat="56.952093179705" lon="14.9097656295">
        <ele>225.2</ele>
        <time>2020-02-09T09:44:22Z</time>
      </trkpt>
      <trkpt lat="56.952090916592" lon="14.909834528718">
        <ele>225.8</ele>
        <time>2020-02-09T09:44:24Z</time>
      </trkpt>
      <trkpt lat="56.952011204723" lon="14.90993997302">
        <ele>226</ele>
        <time>2020-02-09T09:44:27Z</time>
      </trkpt>
      <trkpt lat="56.951755221497" lon="14.910020942174">
        <ele>224.4</ele>
        <time>2020-02-09T09:44:32Z</time>
      </trkpt>
      <trkpt lat="56.951710126875" lon="14.910056062335">
        <ele>223.8</ele>
        <time>2020-02-09T09:44:33Z</time>
      </trkpt>
      <trkpt lat="56.951675509628" lon="14.910108533029">
        <ele>223.6</ele>
        <time>2020-02-09T09:44:34Z</time>
      </trkpt>
      <trkpt lat="56.951594624293" lon="14.910418663329">
        <ele>223.6</ele>
        <time>2020-02-09T09:44:38Z</time>
      </trkpt>
      <trkpt lat="56.951522707591" lon="14.911071697158">
        <ele>223.6</ele>
        <time>2020-02-09T09:44:45Z</time>
      </trkpt>
      <trkpt lat="56.951494628226" lon="14.911438405283">
        <ele>222.8</ele>
        <time>2020-02-09T09:44:49Z</time>
      </trkpt>
      <trkpt lat="56.951418185298" lon="14.91246795406">
        <ele>223</ele>
        <time>2020-02-09T09:44:59Z</time>
      </trkpt>
      <trkpt lat="56.951393877788" lon="14.912832818167">
        <ele>221.4</ele>
        <time>2020-02-09T09:45:02Z</time>
      </trkpt>
      <trkpt lat="56.951392536684" lon="14.912951841147">
        <ele>221</ele>
        <time>2020-02-09T09:45:03Z</time>
      </trkpt>
      <trkpt lat="56.951411479778" lon="14.91344947455">
        <ele>220.2</ele>
        <time>2020-02-09T09:45:07Z</time>
      </trkpt>
      <trkpt lat="56.95145070707" lon="14.913826408593">
        <ele>219.2</ele>
        <time>2020-02-09T09:45:10Z</time>
      </trkpt>
      <trkpt lat="56.95155212806" lon="14.914588155665">
        <ele>218.2</ele>
        <time>2020-02-09T09:45:16Z</time>
      </trkpt>
      <trkpt lat="56.951647262625" lon="14.915051423278">
        <ele>217</ele>
        <time>2020-02-09T09:45:20Z</time>
      </trkpt>
      <trkpt lat="56.951870304984" lon="14.915988519698">
        <ele>217.2</ele>
        <time>2020-02-09T09:45:29Z</time>
      </trkpt>
      <trkpt lat="56.951924619696" lon="14.916251376082">
        <ele>218</ele>
        <time>2020-02-09T09:45:32Z</time>
      </trkpt>
      <trkpt lat="56.951971306879" lon="14.916471400957">
        <ele>219.6</ele>
        <time>2020-02-09T09:45:35Z</time>
      </trkpt>
      <trkpt lat="56.952026375962" lon="14.916691342013">
        <ele>220.8</ele>
        <time>2020-02-09T09:45:38Z</time>
      </trkpt>
      <trkpt lat="56.952037859165" lon="14.916772562624">
        <ele>221.2</ele>
        <time>2020-02-09T09:45:39Z</time>
      </trkpt>
      <trkpt lat="56.95205420387" lon="14.916933998018">
        <ele>222</ele>
        <time>2020-02-09T09:45:41Z</time>
      </trkpt>
      <trkpt lat="56.952073817516" lon="14.917167350114">
        <ele>223.2</ele>
        <time>2020-02-09T09:45:44Z</time>
      </trkpt>
      <trkpt lat="56.952101729243" lon="14.91738058565">
        <ele>224.6</ele>
        <time>2020-02-09T09:45:47Z</time>
      </trkpt>
      <trkpt lat="56.952117822491" lon="14.917578147033">
        <ele>226</ele>
        <time>2020-02-09T09:45:50Z</time>
      </trkpt>
      <trkpt lat="56.952151517729" lon="14.917787694533">
        <ele>227</ele>
        <time>2020-02-09T09:45:53Z</time>
      </trkpt>
      <trkpt lat="56.952168952081" lon="14.917861790529">
        <ele>227.2</ele>
        <time>2020-02-09T09:45:54Z</time>
      </trkpt>
      <trkpt lat="56.952200551844" lon="14.918054909505">
        <ele>227.4</ele>
        <time>2020-02-09T09:45:56Z</time>
      </trkpt>
      <trkpt lat="56.952234833815" lon="14.918276359303">
        <ele>227</ele>
        <time>2020-02-09T09:45:58Z</time>
      </trkpt>
      <trkpt lat="56.952249669778" lon="14.918500658947">
        <ele>225.8</ele>
        <time>2020-02-09T09:46:00Z</time>
      </trkpt>
      <trkpt lat="56.952260901524" lon="14.918615155701">
        <ele>225.2</ele>
        <time>2020-02-09T09:46:01Z</time>
      </trkpt>
      <trkpt lat="56.952276994772" lon="14.918732250844">
        <ele>224.6</ele>
        <time>2020-02-09T09:46:02Z</time>
      </trkpt>
      <trkpt lat="56.952305493232" lon="14.918842472829">
        <ele>224</ele>
        <time>2020-02-09T09:46:03Z</time>
      </trkpt>
      <trkpt lat="56.952421917823" lon="14.919115303674">
        <ele>223.6</ele>
        <time>2020-02-09T09:46:06Z</time>
      </trkpt>
      <trkpt lat="56.952520991881" lon="14.9192455584">
        <ele>223.6</ele>
        <time>2020-02-09T09:46:08Z</time>
      </trkpt>
      <trkpt lat="56.953000771837" lon="14.919769091874">
        <ele>224.4</ele>
        <time>2020-02-09T09:46:17Z</time>
      </trkpt>
      <trkpt lat="56.953147371268" lon="14.919918122056">
        <ele>224.6</ele>
        <time>2020-02-09T09:46:20Z</time>
      </trkpt>
      <trkpt lat="56.953380304269" lon="14.920125741719">
        <ele>225.8</ele>
        <time>2020-02-09T09:46:25Z</time>
      </trkpt>
      <trkpt lat="56.953567220639" lon="14.920297319212">
        <ele>226.8</ele>
        <time>2020-02-09T09:46:29Z</time>
      </trkpt>
      <trkpt lat="56.953835189982" lon="14.920627985167">
        <ele>227.8</ele>
        <time>2020-02-09T09:46:35Z</time>
      </trkpt>
      <trkpt lat="56.954020513791" lon="14.920860918168">
        <ele>228.2</ele>
        <time>2020-02-09T09:46:39Z</time>
      </trkpt>
      <trkpt lat="56.954101231488" lon="14.920998465147">
        <ele>228.6</ele>
        <time>2020-02-09T09:46:41Z</time>
      </trkpt>
      <trkpt lat="56.954306588038" lon="14.921362742521">
        <ele>228.6</ele>
        <time>2020-02-09T09:46:46Z</time>
      </trkpt>
      <trkpt lat="56.954511525493" lon="14.921952660643">
        <ele>228.4</ele>
        <time>2020-02-09T09:46:52Z</time>
      </trkpt>
      <trkpt lat="56.954698860958" lon="14.922488683148">
        <ele>228.6</ele>
        <time>2020-02-09T09:46:58Z</time>
      </trkpt>
      <trkpt lat="56.954934057072" lon="14.923235929533">
        <ele>229</ele>
        <time>2020-02-09T09:47:07Z</time>
      </trkpt>
      <trkpt lat="56.955016534968" lon="14.923458636616">
        <ele>230</ele>
        <time>2020-02-09T09:47:10Z</time>
      </trkpt>
      <trkpt lat="56.955146622056" lon="14.923836241211">
        <ele>231</ele>
        <time>2020-02-09T09:47:15Z</time>
      </trkpt>
      <trkpt lat="56.955227842667" lon="14.924042938865">
        <ele>232.2</ele>
        <time>2020-02-09T09:47:18Z</time>
      </trkpt>
      <trkpt lat="56.955379974152" lon="14.924525484848">
        <ele>233.2</ele>
        <time>2020-02-09T09:47:24Z</time>
      </trkpt>
      <trkpt lat="56.955641070337" lon="14.925342217184">
        <ele>232</ele>
        <time>2020-02-09T09:47:32Z</time>
      </trkpt>
      <trkpt lat="56.955713070858" lon="14.925565343362">
        <ele>230.8</ele>
        <time>2020-02-09T09:47:34Z</time>
      </trkpt>
      <trkpt lat="56.955808875975" lon="14.925907576339">
        <ele>229.8</ele>
        <time>2020-02-09T09:47:37Z</time>
      </trkpt>
      <trkpt lat="56.955931167896" lon="14.92624695947">
        <ele>228.4</ele>
        <time>2020-02-09T09:47:40Z</time>
      </trkpt>
      <trkpt lat="56.956051951075" lon="14.926617774726">
        <ele>227.2</ele>
        <time>2020-02-09T09:47:43Z</time>
      </trkpt>
      <trkpt lat="56.956087825607" lon="14.926752220402">
        <ele>226.8</ele>
        <time>2020-02-09T09:47:44Z</time>
      </trkpt>
      <trkpt lat="56.956147253278" lon="14.927028320188">
        <ele>225.8</ele>
        <time>2020-02-09T09:47:46Z</time>
      </trkpt>
      <trkpt lat="56.956193772823" lon="14.927290925115">
        <ele>224.6</ele>
        <time>2020-02-09T09:47:48Z</time>
      </trkpt>
      <trkpt lat="56.956236185237" lon="14.927545986332">
        <ele>223.6</ele>
        <time>2020-02-09T09:47:50Z</time>
      </trkpt>
      <trkpt lat="56.956301983152" lon="14.927886291472">
        <ele>222.6</ele>
        <time>2020-02-09T09:47:53Z</time>
      </trkpt>
      <trkpt lat="56.956340958987" lon="14.928078656077">
        <ele>222.4</ele>
        <time>2020-02-09T09:47:55Z</time>
      </trkpt>
      <trkpt lat="56.956378928994" lon="14.928252077588">
        <ele>222.6</ele>
        <time>2020-02-09T09:47:57Z</time>
      </trkpt>
      <trkpt lat="56.956410780214" lon="14.928421727244">
        <ele>223.4</ele>
        <time>2020-02-09T09:47:59Z</time>
      </trkpt>
      <trkpt lat="56.956427963109" lon="14.928507893176">
        <ele>223.6</ele>
        <time>2020-02-09T09:48:00Z</time>
      </trkpt>
      <trkpt lat="56.956519158181" lon="14.928927323452">
        <ele>224.6</ele>
        <time>2020-02-09T09:48:05Z</time>
      </trkpt>
      <trkpt lat="56.956539190922" lon="14.929089094122">
        <ele>225</ele>
        <time>2020-02-09T09:48:07Z</time>
      </trkpt>
      <trkpt lat="56.956748151689" lon="14.929973468391">
        <ele>223.6</ele>
        <time>2020-02-09T09:48:16Z</time>
      </trkpt>
      <trkpt lat="56.956836413096" lon="14.930389713545">
        <ele>222.4</ele>
        <time>2020-02-09T09:48:20Z</time>
      </trkpt>
      <trkpt lat="56.956880837166" lon="14.930591465878">
        <ele>222.2</ele>
        <time>2020-02-09T09:48:22Z</time>
      </trkpt>
      <trkpt lat="56.956994160454" lon="14.930971585043">
        <ele>222.4</ele>
        <time>2020-02-09T09:48:26Z</time>
      </trkpt>
      <trkpt lat="56.957078482368" lon="14.931337035883">
        <ele>223.8</ele>
        <time>2020-02-09T09:48:30Z</time>
      </trkpt>
      <trkpt lat="56.957104382439" lon="14.931431416077">
        <ele>223.8</ele>
        <time>2020-02-09T09:48:31Z</time>
      </trkpt>
      <trkpt lat="56.957243186703" lon="14.93196676803">
        <ele>224.6</ele>
        <time>2020-02-09T09:48:37Z</time>
      </trkpt>
      <trkpt lat="56.957259028494" lon="14.932053855971">
        <ele>224.8</ele>
        <time>2020-02-09T09:48:38Z</time>
      </trkpt>
      <trkpt lat="56.957339159458" lon="14.932359124769">
        <ele>226</ele>
        <time>2020-02-09T09:48:42Z</time>
      </trkpt>
      <trkpt lat="56.957382996795" lon="14.932580239291">
        <ele>227.4</ele>
        <time>2020-02-09T09:48:45Z</time>
      </trkpt>
      <trkpt lat="56.957437395326" lon="14.93277226862">
        <ele>228.6</ele>
        <time>2020-02-09T09:48:48Z</time>
      </trkpt>
      <trkpt lat="56.957519118851" lon="14.933029760588">
        <ele>229.8</ele>
        <time>2020-02-09T09:48:52Z</time>
      </trkpt>
      <trkpt lat="56.957588856259" lon="14.9332936228">
        <ele>231</ele>
        <time>2020-02-09T09:48:56Z</time>
      </trkpt>
      <trkpt lat="56.957641913686" lon="14.933625797497">
        <ele>232.2</ele>
        <time>2020-02-09T09:49:01Z</time>
      </trkpt>
      <trkpt lat="56.957685499566" lon="14.933968617207">
        <ele>233.2</ele>
        <time>2020-02-09T09:49:06Z</time>
      </trkpt>
      <trkpt lat="56.957770156756" lon="14.934328619812">
        <ele>234.4</ele>
        <time>2020-02-09T09:49:11Z</time>
      </trkpt>
      <trkpt lat="56.957850622996" lon="14.934675462834">
        <ele>235.6</ele>
        <time>2020-02-09T09:49:16Z</time>
      </trkpt>
      <trkpt lat="56.957908793382" lon="14.934954999199">
        <ele>236.8</ele>
        <time>2020-02-09T09:49:20Z</time>
      </trkpt>
      <trkpt lat="56.957953804185" lon="14.935155578066">
        <ele>238</ele>
        <time>2020-02-09T09:49:23Z</time>
      </trkpt>
      <trkpt lat="56.958014656779" lon="14.935411142197">
        <ele>239</ele>
        <time>2020-02-09T09:49:27Z</time>
      </trkpt>
      <trkpt lat="56.958104426928" lon="14.935732504243">
        <ele>240.2</ele>
        <time>2020-02-09T09:49:32Z</time>
      </trkpt>
      <trkpt lat="56.958144743867" lon="14.935805175316">
        <ele>241</ele>
        <time>2020-02-09T09:49:34Z</time>
      </trkpt>
      <trkpt lat="56.958170308662" lon="14.935797799244">
        <ele>241.4</ele>
        <time>2020-02-09T09:49:35Z</time>
      </trkpt>
      <trkpt lat="56.958335683549" lon="14.935610212322">
        <ele>242.4</ele>
        <time>2020-02-09T09:49:41Z</time>
      </trkpt>
      <trkpt lat="56.958469961587" lon="14.935519436345">
        <ele>242.6</ele>
        <time>2020-02-09T09:49:44Z</time>
      </trkpt>
      <trkpt lat="56.958562246306" lon="14.935491776075">
        <ele>242.6</ele>
        <time>2020-02-09T09:49:46Z</time>
      </trkpt>
      <trkpt lat="56.959127605461" lon="14.935376022036">
        <ele>241.8</ele>
        <time>2020-02-09T09:49:57Z</time>
      </trkpt>
      <trkpt lat="56.95937579352" lon="14.935330759776">
        <ele>241.2</ele>
        <time>2020-02-09T09:50:01Z</time>
      </trkpt>
      <trkpt lat="56.959966549832" lon="14.935257166694">
        <ele>241.4</ele>
        <time>2020-02-09T09:50:11Z</time>
      </trkpt>
      <trkpt lat="56.960536183756" lon="14.935206540018">
        <ele>240.6</ele>
        <time>2020-02-09T09:50:21Z</time>
      </trkpt>
      <trkpt lat="56.960670880889" lon="14.935186004363">
        <ele>240.8</ele>
        <time>2020-02-09T09:50:23Z</time>
      </trkpt>
      <trkpt lat="56.960996182428" lon="14.935070166505">
        <ele>240</ele>
        <time>2020-02-09T09:50:29Z</time>
      </trkpt>
      <trkpt lat="56.961546537982" lon="14.934949299507">
        <ele>239.2</ele>
        <time>2020-02-09T09:50:39Z</time>
      </trkpt>
      <trkpt lat="56.961631111353" lon="14.934925914006">
        <ele>239.2</ele>
        <time>2020-02-09T09:50:41Z</time>
      </trkpt>
      <trkpt lat="56.961665225686" lon="14.93492054959">
        <ele>239</ele>
        <time>2020-02-09T09:50:42Z</time>
      </trkpt>
      <trkpt lat="56.96183085203" lon="14.934874113864">
        <ele>238.2</ele>
        <time>2020-02-09T09:50:44Z</time>
      </trkpt>
      <trkpt lat="56.961890028244" lon="14.934874700597">
        <ele>238</ele>
        <time>2020-02-09T09:50:45Z</time>
      </trkpt>
      <trkpt lat="56.962456812322" lon="14.934768669562">
        <ele>237.6</ele>
        <time>2020-02-09T09:50:54Z</time>
      </trkpt>
      <trkpt lat="56.9625793557" lon="14.934729526089">
        <ele>237.4</ele>
        <time>2020-02-09T09:50:56Z</time>
      </trkpt>
      <trkpt lat="56.962827795216" lon="14.934642186691">
        <ele>236.8</ele>
        <time>2020-02-09T09:51:00Z</time>
      </trkpt>
      <trkpt lat="56.963036420707" lon="14.934567839238">
        <ele>236.6</ele>
        <time>2020-02-09T09:51:03Z</time>
      </trkpt>
      <trkpt lat="56.963529108789" lon="14.934536574751">
        <ele>235.4</ele>
        <time>2020-02-09T09:51:12Z</time>
      </trkpt>
      <trkpt lat="56.963730106751" lon="14.934559038243">
        <ele>234.8</ele>
        <time>2020-02-09T09:51:15Z</time>
      </trkpt>
      <trkpt lat="56.964043003078" lon="14.934559457338">
        <ele>234.4</ele>
        <time>2020-02-09T09:51:19Z</time>
      </trkpt>
      <trkpt lat="56.964276187536" lon="14.934565324668">
        <ele>233.2</ele>
        <time>2020-02-09T09:51:22Z</time>
      </trkpt>
      <trkpt lat="56.964480119163" lon="14.934592984938">
        <ele>232.2</ele>
        <time>2020-02-09T09:51:25Z</time>
      </trkpt>
      <trkpt lat="56.964747837049" lon="14.934691975177">
        <ele>231.4</ele>
        <time>2020-02-09T09:51:29Z</time>
      </trkpt>
      <trkpt lat="56.964869542237" lon="14.934651658238">
        <ele>230.8</ele>
        <time>2020-02-09T09:51:31Z</time>
      </trkpt>
      <trkpt lat="56.965008346501" lon="14.934534227819">
        <ele>230.2</ele>
        <time>2020-02-09T09:51:33Z</time>
      </trkpt>
      <trkpt lat="56.965071965122" lon="14.934460970013">
        <ele>229.4</ele>
        <time>2020-02-09T09:51:34Z</time>
      </trkpt>
      <trkpt lat="56.965177828519" lon="14.934323339215">
        <ele>228.4</ele>
        <time>2020-02-09T09:51:36Z</time>
      </trkpt>
      <trkpt lat="56.965305065761" lon="14.934139021234">
        <ele>228.2</ele>
        <time>2020-02-09T09:51:39Z</time>
      </trkpt>
      <trkpt lat="56.965303892295" lon="14.934063751772">
        <ele>228.6</ele>
        <time>2020-02-09T09:51:41Z</time>
      </trkpt>
      <trkpt lat="56.965300707173" lon="14.933917487617">
        <ele>229.4</ele>
        <time>2020-02-09T09:51:43Z</time>
      </trkpt>
      <trkpt lat="56.965296851499" lon="14.933625965135">
        <ele>229.6</ele>
        <time>2020-02-09T09:51:47Z</time>
      </trkpt>
      <trkpt lat="56.965273214541" lon="14.933441730973">
        <ele>228.8</ele>
        <time>2020-02-09T09:51:49Z</time>
      </trkpt>
      <trkpt lat="56.965268017763" lon="14.933351374091">
        <ele>228.4</ele>
        <time>2020-02-09T09:51:50Z</time>
      </trkpt>
      <trkpt lat="56.965261815157" lon="14.933091032277">
        <ele>227.4</ele>
        <time>2020-02-09T09:51:53Z</time>
      </trkpt>
      <trkpt lat="56.965265335555" lon="14.932839994372">
        <ele>226.2</ele>
        <time>2020-02-09T09:51:56Z</time>
      </trkpt>
      <trkpt lat="56.965252595067" lon="14.932753493164">
        <ele>226.2</ele>
        <time>2020-02-09T09:51:57Z</time>
      </trkpt>
      <trkpt lat="56.965253014162" lon="14.932567917898">
        <ele>225.2</ele>
        <time>2020-02-09T09:51:59Z</time>
      </trkpt>
      <trkpt lat="56.965285116839" lon="14.932315538889">
        <ele>223.8</ele>
        <time>2020-02-09T09:52:03Z</time>
      </trkpt>
      <trkpt lat="56.965329876185" lon="14.932222080704">
        <ele>223</ele>
        <time>2020-02-09T09:52:05Z</time>
      </trkpt>
      <trkpt lat="56.965358207007" lon="14.932179500652">
        <ele>222.8</ele>
        <time>2020-02-09T09:52:06Z</time>
      </trkpt>
      <trkpt lat="56.965381927784" lon="14.932111188167">
        <ele>222.6</ele>
        <time>2020-02-09T09:52:07Z</time>
      </trkpt>
      <trkpt lat="56.965375389902" lon="14.931967019487">
        <ele>221.8</ele>
        <time>2020-02-09T09:52:09Z</time>
      </trkpt>
      <trkpt lat="56.965380921956" lon="14.931922092503">
        <ele>221.6</ele>
        <time>2020-02-09T09:52:10Z</time>
      </trkpt>
      <trkpt lat="56.965398523946" lon="14.931803740075">
        <ele>221.8</ele>
        <time>2020-02-09T09:52:12Z</time>
      </trkpt>
      <trkpt lat="56.965407660217" lon="14.931635934437">
        <ele>223</ele>
        <time>2020-02-09T09:52:15Z</time>
      </trkpt>
      <trkpt lat="56.965399529774" lon="14.9312484392">
        <ele>224.2</ele>
        <time>2020-02-09T09:52:22Z</time>
      </trkpt>
      <trkpt lat="56.965391147874" lon="14.931206194424">
        <ele>224.8</ele>
        <time>2020-02-09T09:52:23Z</time>
      </trkpt>
      <trkpt lat="56.965400284145" lon="14.93116042925">
        <ele>225.2</ele>
        <time>2020-02-09T09:52:24Z</time>
      </trkpt>
      <trkpt lat="56.965432973555" lon="14.930949959741">
        <ele>226</ele>
        <time>2020-02-09T09:52:30Z</time>
      </trkpt>
      <trkpt lat="56.965488797009" lon="14.930909642802">
        <ele>226.2</ele>
        <time>2020-02-09T09:52:32Z</time>
      </trkpt>
      <trkpt lat="56.965612849129" lon="14.930766731407">
        <ele>227.4</ele>
        <time>2020-02-09T09:52:38Z</time>
      </trkpt>
      <trkpt lat="56.965845614492" lon="14.930582497245">
        <ele>228.6</ele>
        <time>2020-02-09T09:52:47Z</time>
      </trkpt>
      <trkpt lat="56.9662087184" lon="14.930263482131">
        <ele>229.6</ele>
        <time>2020-02-09T09:53:04Z</time>
      </trkpt>
      <trkpt lat="56.966706184165" lon="14.929891158133">
        <ele>229.4</ele>
        <time>2020-02-09T09:53:26Z</time>
      </trkpt>
      <trkpt lat="56.966828308448" lon="14.929894929988">
        <ele>229.2</ele>
        <time>2020-02-09T09:53:31Z</time>
      </trkpt>
      <trkpt lat="56.966890083051" lon="14.929832820109">
        <ele>228.6</ele>
        <time>2020-02-09T09:53:35Z</time>
      </trkpt>
      <trkpt lat="56.967006591461" lon="14.929702146288">
        <ele>227.4</ele>
        <time>2020-02-09T09:53:42Z</time>
      </trkpt>
      <trkpt lat="56.967072976109" lon="14.929609610112">
        <ele>226.2</ele>
        <time>2020-02-09T09:53:45Z</time>
      </trkpt>
      <trkpt lat="56.967314710105" lon="14.929117424944">
        <ele>227</ele>
        <time>2020-02-09T09:53:57Z</time>
      </trkpt>
      <trkpt lat="56.967337844149" lon="14.92888641978">
        <ele>227.4</ele>
        <time>2020-02-09T09:54:01Z</time>
      </trkpt>
      <trkpt lat="56.967355613777" lon="14.928845851384">
        <ele>227.4</ele>
        <time>2020-02-09T09:54:02Z</time>
      </trkpt>
      <trkpt lat="56.967500117733" lon="14.928936794999">
        <ele>228.2</ele>
        <time>2020-02-09T09:54:07Z</time>
      </trkpt>
      <trkpt lat="56.967568094942" lon="14.929223875074">
        <ele>228.2</ele>
        <time>2020-02-09T09:54:11Z</time>
      </trkpt>
      <trkpt lat="56.967801949952" lon="14.929832484833">
        <ele>226</ele>
        <time>2020-02-09T09:54:18Z</time>
      </trkpt>
      <trkpt lat="56.967899682906" lon="14.930026022904">
        <ele>224.4</ele>
        <time>2020-02-09T09:54:20Z</time>
      </trkpt>
      <trkpt lat="56.967964055898" lon="14.930116295967">
        <ele>223.6</ele>
        <time>2020-02-09T09:54:21Z</time>
      </trkpt>
      <trkpt lat="56.968033374211" lon="14.930206066116">
        <ele>222.8</ele>
        <time>2020-02-09T09:54:22Z</time>
      </trkpt>
      <trkpt lat="56.968191456845" lon="14.930391473744">
        <ele>221.2</ele>
        <time>2020-02-09T09:54:24Z</time>
      </trkpt>
      <trkpt lat="56.968275778759" lon="14.930486943585">
        <ele>220.2</ele>
        <time>2020-02-09T09:54:25Z</time>
      </trkpt>
      <trkpt lat="56.968362950519" lon="14.930578976847">
        <ele>218.6</ele>
        <time>2020-02-09T09:54:26Z</time>
      </trkpt>
      <trkpt lat="56.96845171484" lon="14.930673776136">
        <ele>217.2</ele>
        <time>2020-02-09T09:54:27Z</time>
      </trkpt>
      <trkpt lat="56.968631590414" lon="14.930850550407">
        <ele>215.6</ele>
        <time>2020-02-09T09:54:29Z</time>
      </trkpt>
      <trkpt lat="56.968720187097" lon="14.930930681371">
        <ele>215.2</ele>
        <time>2020-02-09T09:54:30Z</time>
      </trkpt>
      <trkpt lat="56.968897212825" lon="14.931042915012">
        <ele>214.4</ele>
        <time>2020-02-09T09:54:32Z</time>
      </trkpt>
      <trkpt lat="56.969459889772" lon="14.931280625696">
        <ele>214.2</ele>
        <time>2020-02-09T09:54:39Z</time>
      </trkpt>
      <trkpt lat="56.969657115879" lon="14.931464021668">
        <ele>213.2</ele>
        <time>2020-02-09T09:54:42Z</time>
      </trkpt>
      <trkpt lat="56.969763901285" lon="14.931624115958">
        <ele>212.2</ele>
        <time>2020-02-09T09:54:44Z</time>
      </trkpt>
      <trkpt lat="56.969806732794" lon="14.931681615792">
        <ele>211.4</ele>
        <time>2020-02-09T09:54:45Z</time>
      </trkpt>
      <trkpt lat="56.969848642294" lon="14.931717490324">
        <ele>210.8</ele>
        <time>2020-02-09T09:54:46Z</time>
      </trkpt>
      <trkpt lat="56.969901951178" lon="14.931721513636">
        <ele>210.4</ele>
        <time>2020-02-09T09:54:47Z</time>
      </trkpt>
      <trkpt lat="56.969995074087" lon="14.93166501963">
        <ele>209.6</ele>
        <time>2020-02-09T09:54:49Z</time>
      </trkpt>
      <trkpt lat="56.970089202824" lon="14.931583044648">
        <ele>209</ele>
        <time>2020-02-09T09:54:51Z</time>
      </trkpt>
      <trkpt lat="56.970333116114" lon="14.931401492694">
        <ele>210.6</ele>
        <time>2020-02-09T09:54:56Z</time>
      </trkpt>
      <trkpt lat="56.970377456365" lon="14.93136075666">
        <ele>210.8</ele>
        <time>2020-02-09T09:54:57Z</time>
      </trkpt>
      <trkpt lat="56.970556326111" lon="14.931153220816">
        <ele>212</ele>
        <time>2020-02-09T09:55:02Z</time>
      </trkpt>
      <trkpt lat="56.970838460865" lon="14.930781818827">
        <ele>213</ele>
        <time>2020-02-09T09:55:11Z</time>
      </trkpt>
      <trkpt lat="56.971036525162" lon="14.930572271327">
        <ele>214.2</ele>
        <time>2020-02-09T09:55:16Z</time>
      </trkpt>
      <trkpt lat="56.971189327199" lon="14.930333890091">
        <ele>215.4</ele>
        <time>2020-02-09T09:55:21Z</time>
      </trkpt>
      <trkpt lat="56.971295609691" lon="14.930039517763">
        <ele>216.6</ele>
        <time>2020-02-09T09:55:27Z</time>
      </trkpt>
      <trkpt lat="56.971329472567" lon="14.929943545008">
        <ele>217.8</ele>
        <time>2020-02-09T09:55:29Z</time>
      </trkpt>
      <trkpt lat="56.971388816419" lon="14.929807255314">
        <ele>219</ele>
        <time>2020-02-09T09:55:32Z</time>
      </trkpt>
      <trkpt lat="56.971494595997" lon="14.929439038447">
        <ele>220</ele>
        <time>2020-02-09T09:55:39Z</time>
      </trkpt>
      <trkpt lat="56.971571709477" lon="14.929286487867">
        <ele>221.2</ele>
        <time>2020-02-09T09:55:44Z</time>
      </trkpt>
      <trkpt lat="56.971632142976" lon="14.929220689952">
        <ele>221.6</ele>
        <time>2020-02-09T09:55:46Z</time>
      </trkpt>
      <trkpt lat="56.971701461289" lon="14.929162938661">
        <ele>221.8</ele>
        <time>2020-02-09T09:55:48Z</time>
      </trkpt>
      <trkpt lat="56.971776479294" lon="14.929148689431">
        <ele>222.4</ele>
        <time>2020-02-09T09:55:51Z</time>
      </trkpt>
      <trkpt lat="56.971874463705" lon="14.929162100471">
        <ele>223.6</ele>
        <time>2020-02-09T09:55:55Z</time>
      </trkpt>
      <trkpt lat="56.972073450011" lon="14.929195795709">
        <ele>224.8</ele>
        <time>2020-02-09T09:56:02Z</time>
      </trkpt>
      <trkpt lat="56.972402523405" lon="14.929146845413">
        <ele>225.8</ele>
        <time>2020-02-09T09:56:15Z</time>
      </trkpt>
      <trkpt lat="56.972646101419" lon="14.929063110232">
        <ele>226.2</ele>
        <time>2020-02-09T09:56:25Z</time>
      </trkpt>
      <trkpt lat="56.972699494122" lon="14.929129662518">
        <ele>226</ele>
        <time>2020-02-09T09:56:28Z</time>
      </trkpt>
      <trkpt lat="56.972763531838" lon="14.929451527478">
        <ele>226.6</ele>
        <time>2020-02-09T09:56:38Z</time>
      </trkpt>
      <trkpt lat="56.97286981433" lon="14.929597791633">
        <ele>224.6</ele>
        <time>2020-02-09T09:56:42Z</time>
      </trkpt>
      <trkpt lat="56.972938713548" lon="14.929622518238">
        <ele>223.4</ele>
        <time>2020-02-09T09:56:44Z</time>
      </trkpt>
      <trkpt lat="56.973005265834" lon="14.929647161024">
        <ele>222</ele>
        <time>2020-02-09T09:56:46Z</time>
      </trkpt>
      <trkpt lat="56.973038122882" lon="14.929657806037">
        <ele>221.4</ele>
        <time>2020-02-09T09:56:47Z</time>
      </trkpt>
      <trkpt lat="56.973062346573" lon="14.929654118001">
        <ele>221</ele>
        <time>2020-02-09T09:56:48Z</time>
      </trkpt>
      <trkpt lat="56.973188494168" lon="14.929583626222">
        <ele>219.8</ele>
        <time>2020-02-09T09:56:52Z</time>
      </trkpt>
      <trkpt lat="56.973325454414" lon="14.929497795566">
        <ele>218.8</ele>
        <time>2020-02-09T09:56:58Z</time>
      </trkpt>
      <trkpt lat="56.973394102175" lon="14.929463178319">
        <ele>218.2</ele>
        <time>2020-02-09T09:57:00Z</time>
      </trkpt>
      <trkpt lat="56.973485297247" lon="14.929444738139">
        <ele>217.8</ele>
        <time>2020-02-09T09:57:02Z</time>
      </trkpt>
      <trkpt lat="56.973705154484" lon="14.929454125867">
        <ele>216.4</ele>
        <time>2020-02-09T09:57:08Z</time>
      </trkpt>
      <trkpt lat="56.97375159021" lon="14.92949159296">
        <ele>215.2</ele>
        <time>2020-02-09T09:57:10Z</time>
      </trkpt>
      <trkpt lat="56.973831637355" lon="14.9295720592">
        <ele>214</ele>
        <time>2020-02-09T09:57:12Z</time>
      </trkpt>
      <trkpt lat="56.973926352825" lon="14.929640120228">
        <ele>212.6</ele>
        <time>2020-02-09T09:57:15Z</time>
      </trkpt>
      <trkpt lat="56.974001957563" lon="14.929686639773">
        <ele>211</ele>
        <time>2020-02-09T09:57:17Z</time>
      </trkpt>
      <trkpt lat="56.974124333303" lon="14.929755455172">
        <ele>209.8</ele>
        <time>2020-02-09T09:57:19Z</time>
      </trkpt>
      <trkpt lat="56.974251319088" lon="14.929804824563">
        <ele>208.2</ele>
        <time>2020-02-09T09:57:22Z</time>
      </trkpt>
      <trkpt lat="56.974359780874" lon="14.929964667396">
        <ele>207.2</ele>
        <time>2020-02-09T09:57:25Z</time>
      </trkpt>
      <trkpt lat="56.974371347896" lon="14.930044211627">
        <ele>207</ele>
        <time>2020-02-09T09:57:26Z</time>
      </trkpt>
      <trkpt lat="56.974599587033" lon="14.930908636974">
        <ele>206.8</ele>
        <time>2020-02-09T09:57:39Z</time>
      </trkpt>
      <trkpt lat="56.974795891131" lon="14.930934620864">
        <ele>208.6</ele>
        <time>2020-02-09T09:57:45Z</time>
      </trkpt>
      <trkpt lat="56.975155390822" lon="14.931057750975">
        <ele>207.6</ele>
        <time>2020-02-09T09:58:17Z</time>
      </trkpt>
      <trkpt lat="56.975177016124" lon="14.931078957182">
        <ele>207.4</ele>
        <time>2020-02-09T09:58:18Z</time>
      </trkpt>
      <trkpt lat="56.975233593949" lon="14.931088764005">
        <ele>207.2</ele>
        <time>2020-02-09T09:58:20Z</time>
      </trkpt>
      <trkpt lat="56.975548166656" lon="14.93099782039">
        <ele>207.6</ele>
        <time>2020-02-09T09:58:30Z</time>
      </trkpt>
      <trkpt lat="56.975636008968" lon="14.930893381916">
        <ele>206.4</ele>
        <time>2020-02-09T09:58:33Z</time>
      </trkpt>
      <trkpt lat="56.975719157416" lon="14.930725660097">
        <ele>205.4</ele>
        <time>2020-02-09T09:58:37Z</time>
      </trkpt>
      <trkpt lat="56.976247971487" lon="14.930489290517">
        <ele>205.6</ele>
        <time>2020-02-09T09:58:50Z</time>
      </trkpt>
      <trkpt lat="56.976776701739" lon="14.930749464693">
        <ele>205.4</ele>
        <time>2020-02-09T09:59:06Z</time>
      </trkpt>
      <trkpt lat="56.977149863927" lon="14.931211391202">
        <ele>205</ele>
        <time>2020-02-09T09:59:36Z</time>
      </trkpt>
      <trkpt lat="56.977290260752" lon="14.93123921911">
        <ele>205.2</ele>
        <time>2020-02-09T09:59:41Z</time>
      </trkpt>
      <trkpt lat="56.977314149167" lon="14.931205188596">
        <ele>205.2</ele>
        <time>2020-02-09T09:59:43Z</time>
      </trkpt>
      <trkpt lat="56.977412552673" lon="14.930909475164">
        <ele>206.4</ele>
        <time>2020-02-09T09:59:59Z</time>
      </trkpt>
      <trkpt lat="56.977436105812" lon="14.930769497434">
        <ele>206.8</ele>
        <time>2020-02-09T10:00:06Z</time>
      </trkpt>
      <trkpt lat="56.977462592616" lon="14.930716523826">
        <ele>207.4</ele>
        <time>2020-02-09T10:00:11Z</time>
      </trkpt>
      <trkpt lat="56.977463849901" lon="14.930664053132">
        <ele>207.4</ele>
        <time>2020-02-09T10:00:13Z</time>
      </trkpt>
      <trkpt lat="56.977475584561" lon="14.930593058439">
        <ele>207.6</ele>
        <time>2020-02-09T10:00:16Z</time>
      </trkpt>
      <trkpt lat="56.977490420524" lon="14.930501192815">
        <ele>208</ele>
        <time>2020-02-09T10:00:19Z</time>
      </trkpt>
      <trkpt lat="56.977510704722" lon="14.930398849816">
        <ele>208.2</ele>
        <time>2020-02-09T10:00:24Z</time>
      </trkpt>
      <trkpt lat="56.977527300884" lon="14.930328190399">
        <ele>208.6</ele>
        <time>2020-02-09T10:00:27Z</time>
      </trkpt>
      <trkpt lat="56.977634421566" lon="14.930236660051">
        <ele>208.8</ele>
        <time>2020-02-09T10:00:37Z</time>
      </trkpt>
      <trkpt lat="56.977679097093" lon="14.930175639819">
        <ele>208.6</ele>
        <time>2020-02-09T10:00:40Z</time>
      </trkpt>
      <trkpt lat="56.977727293018" lon="14.930127276256">
        <ele>207.8</ele>
        <time>2020-02-09T10:00:42Z</time>
      </trkpt>
      <trkpt lat="56.977749588872" lon="14.930105399497">
        <ele>207</ele>
        <time>2020-02-09T10:00:43Z</time>
      </trkpt>
      <trkpt lat="56.977851261319" lon="14.930072793906">
        <ele>206.2</ele>
        <time>2020-02-09T10:00:50Z</time>
      </trkpt>
      <trkpt lat="56.97789643976" lon="14.930093329561">
        <ele>206.2</ele>
        <time>2020-02-09T10:00:54Z</time>
      </trkpt>
      <trkpt lat="56.977941618201" lon="14.930082768367">
        <ele>206.6</ele>
        <time>2020-02-09T10:00:56Z</time>
      </trkpt>
      <trkpt lat="56.978013115808" lon="14.930056030106">
        <ele>207.4</ele>
        <time>2020-02-09T10:01:00Z</time>
      </trkpt>
      <trkpt lat="56.978118811567" lon="14.929909598313">
        <ele>208</ele>
        <time>2020-02-09T10:01:10Z</time>
      </trkpt>
      <trkpt lat="56.978136832652" lon="14.929896606368">
        <ele>208</ele>
        <time>2020-02-09T10:01:13Z</time>
      </trkpt>
      <trkpt lat="56.9781696897" lon="14.929872801772">
        <ele>207.6</ele>
        <time>2020-02-09T10:01:15Z</time>
      </trkpt>
      <trkpt lat="56.97823423033" lon="14.929752018593">
        <ele>206.8</ele>
        <time>2020-02-09T10:01:19Z</time>
      </trkpt>
      <trkpt lat="56.978265159541" lon="14.929619333116">
        <ele>206.6</ele>
        <time>2020-02-09T10:01:22Z</time>
      </trkpt>
      <trkpt lat="56.978375632983" lon="14.928902680666">
        <ele>205.8</ele>
        <time>2020-02-09T10:01:38Z</time>
      </trkpt>
      <trkpt lat="56.978396252457" lon="14.92877494051">
        <ele>205.8</ele>
        <time>2020-02-09T10:02:22Z</time>
      </trkpt>
      <trkpt lat="56.97841025023" lon="14.92871291445">
        <ele>205.8</ele>
        <time>2020-02-09T10:03:21Z</time>
      </trkpt>
      <trkpt lat="56.978429612419" lon="14.928628760174">
        <ele>206.2</ele>
        <time>2020-02-09T10:03:24Z</time>
      </trkpt>
      <trkpt lat="56.978502115854" lon="14.928331957095">
        <ele>205.8</ele>
        <time>2020-02-09T10:03:34Z</time>
      </trkpt>
      <trkpt lat="56.978610912916" lon="14.928260375669">
        <ele>206.2</ele>
        <time>2020-02-09T10:03:39Z</time>
      </trkpt>
      <trkpt lat="56.97872540967" lon="14.928108495641">
        <ele>206.2</ele>
        <time>2020-02-09T10:03:45Z</time>
      </trkpt>
      <trkpt lat="56.978871925282" lon="14.927683365673">
        <ele>206.8</ele>
        <time>2020-02-09T10:03:55Z</time>
      </trkpt>
      <trkpt lat="56.978916181714" lon="14.927530982731">
        <ele>206.6</ele>
        <time>2020-02-09T10:03:58Z</time>
      </trkpt>
      <trkpt lat="56.978932191143" lon="14.927435429071">
        <ele>206.4</ele>
        <time>2020-02-09T10:04:01Z</time>
      </trkpt>
      <trkpt lat="56.978956666291" lon="14.927305174345">
        <ele>206</ele>
        <time>2020-02-09T10:04:04Z</time>
      </trkpt>
      <trkpt lat="56.978987008769" lon="14.927219930422">
        <ele>205.8</ele>
        <time>2020-02-09T10:04:07Z</time>
      </trkpt>
      <trkpt lat="56.979023050939" lon="14.927176344542">
        <ele>205.8</ele>
        <time>2020-02-09T10:04:09Z</time>
      </trkpt>
      <trkpt lat="56.979461591947" lon="14.927339456316">
        <ele>206</ele>
        <time>2020-02-09T10:04:24Z</time>
      </trkpt>
      <trkpt lat="56.979604084247" lon="14.927439117107">
        <ele>206.8</ele>
        <time>2020-02-09T10:04:29Z</time>
      </trkpt>
      <trkpt lat="56.979772560437" lon="14.927180032578">
        <ele>207.8</ele>
        <time>2020-02-09T10:04:38Z</time>
      </trkpt>
      <trkpt lat="56.979810195168" lon="14.927118341794">
        <ele>208</ele>
        <time>2020-02-09T10:04:40Z</time>
      </trkpt>
      <trkpt lat="56.979827378063" lon="14.927031840586">
        <ele>208.2</ele>
        <time>2020-02-09T10:04:42Z</time>
      </trkpt>
      <trkpt lat="56.979821259276" lon="14.92689571853">
        <ele>209</ele>
        <time>2020-02-09T10:04:45Z</time>
      </trkpt>
      <trkpt lat="56.979802316182" lon="14.926702599554">
        <ele>210.2</ele>
        <time>2020-02-09T10:04:49Z</time>
      </trkpt>
      <trkpt lat="56.979719670648" lon="14.926438485885">
        <ele>211.4</ele>
        <time>2020-02-09T10:04:56Z</time>
      </trkpt>
      <trkpt lat="56.979695279319" lon="14.926299262526">
        <ele>212.8</ele>
        <time>2020-02-09T10:05:00Z</time>
      </trkpt>
      <trkpt lat="56.979659488606" lon="14.926205552884">
        <ele>213</ele>
        <time>2020-02-09T10:05:03Z</time>
      </trkpt>
      <trkpt lat="56.97965831514" lon="14.926058953453">
        <ele>212.8</ele>
        <time>2020-02-09T10:05:05Z</time>
      </trkpt>
      <trkpt lat="56.979614477803" lon="14.925750667171">
        <ele>211.6</ele>
        <time>2020-02-09T10:05:09Z</time>
      </trkpt>
      <trkpt lat="56.979542896377" lon="14.925348000695">
        <ele>211.8</ele>
        <time>2020-02-09T10:05:18Z</time>
      </trkpt>
      <trkpt lat="56.97936411045" lon="14.924960924553">
        <ele>212.8</ele>
        <time>2020-02-09T10:05:26Z</time>
      </trkpt>
      <trkpt lat="56.979242740538" lon="14.924715083426">
        <ele>213.8</ele>
        <time>2020-02-09T10:05:31Z</time>
      </trkpt>
      <trkpt lat="56.97916462123" lon="14.924585918347">
        <ele>213.6</ele>
        <time>2020-02-09T10:05:34Z</time>
      </trkpt>
      <trkpt lat="56.978887683254" lon="14.923826602026">
        <ele>215</ele>
        <time>2020-02-09T10:05:50Z</time>
      </trkpt>
      <trkpt lat="56.978839319691" lon="14.923692659264">
        <ele>216</ele>
        <time>2020-02-09T10:05:53Z</time>
      </trkpt>
      <trkpt lat="56.978355851699" lon="14.923296195394">
        <ele>216.8</ele>
        <time>2020-02-09T10:06:12Z</time>
      </trkpt>
      <trkpt lat="56.978264656627" lon="14.923249340573">
        <ele>216.8</ele>
        <time>2020-02-09T10:06:16Z</time>
      </trkpt>
      <trkpt lat="56.978163487094" lon="14.923125372272">
        <ele>217</ele>
        <time>2020-02-09T10:06:20Z</time>
      </trkpt>
      <trkpt lat="56.978125852363" lon="14.922969888027">
        <ele>218.2</ele>
        <time>2020-02-09T10:06:23Z</time>
      </trkpt>
      <trkpt lat="56.978028789961" lon="14.92288414119">
        <ele>219.4</ele>
        <time>2020-02-09T10:06:26Z</time>
      </trkpt>
      <trkpt lat="56.977917310691" lon="14.92276260364">
        <ele>220.6</ele>
        <time>2020-02-09T10:06:30Z</time>
      </trkpt>
      <trkpt lat="56.977852686242" lon="14.922671995301">
        <ele>221.8</ele>
        <time>2020-02-09T10:06:33Z</time>
      </trkpt>
      <trkpt lat="56.977776243314" lon="14.922505363129">
        <ele>223</ele>
        <time>2020-02-09T10:06:38Z</time>
      </trkpt>
      <trkpt lat="56.977743218628" lon="14.922441828327">
        <ele>224.4</ele>
        <time>2020-02-09T10:06:41Z</time>
      </trkpt>
      <trkpt lat="56.977730226683" lon="14.922422969052">
        <ele>224.8</ele>
        <time>2020-02-09T10:06:42Z</time>
      </trkpt>
      <trkpt lat="56.977650933909" lon="14.922304784262">
        <ele>225.6</ele>
        <time>2020-02-09T10:06:46Z</time>
      </trkpt>
      <trkpt lat="56.977535766603" lon="14.922165896179">
        <ele>226.8</ele>
        <time>2020-02-09T10:06:51Z</time>
      </trkpt>
      <trkpt lat="56.977410457198" lon="14.922001359482">
        <ele>228</ele>
        <time>2020-02-09T10:06:58Z</time>
      </trkpt>
      <trkpt lat="56.977364775843" lon="14.921923826907">
        <ele>228.4</ele>
        <time>2020-02-09T10:07:01Z</time>
      </trkpt>
      <trkpt lat="56.977313730072" lon="14.921840007907">
        <ele>228.8</ele>
        <time>2020-02-09T10:07:04Z</time>
      </trkpt>
      <trkpt lat="56.977314568262" lon="14.921789381231">
        <ele>229</ele>
        <time>2020-02-09T10:07:05Z</time>
      </trkpt>
      <trkpt lat="56.977248770347" lon="14.921638758488">
        <ele>230</ele>
        <time>2020-02-09T10:07:11Z</time>
      </trkpt>
      <trkpt lat="56.97672884109" lon="14.921221004592">
        <ele>230.2</ele>
        <time>2020-02-09T10:07:28Z</time>
      </trkpt>
      <trkpt lat="56.976560113443" lon="14.920832754984">
        <ele>231.2</ele>
        <time>2020-02-09T10:07:37Z</time>
      </trkpt>
      <trkpt lat="56.976518203943" lon="14.920693866901">
        <ele>232.6</ele>
        <time>2020-02-09T10:07:40Z</time>
      </trkpt>
      <trkpt lat="56.976379064403" lon="14.920139488035">
        <ele>233.8</ele>
        <time>2020-02-09T10:07:52Z</time>
      </trkpt>
      <trkpt lat="56.976314691411" lon="14.919840589481">
        <ele>234.8</ele>
        <time>2020-02-09T10:07:59Z</time>
      </trkpt>
      <trkpt lat="56.976295664498" lon="14.919800943094">
        <ele>235</ele>
        <time>2020-02-09T10:08:00Z</time>
      </trkpt>
      <trkpt lat="56.976115369829" lon="14.919503218006">
        <ele>236.2</ele>
        <time>2020-02-09T10:08:09Z</time>
      </trkpt>
      <trkpt lat="56.975902721026" lon="14.919180095761">
        <ele>237.4</ele>
        <time>2020-02-09T10:08:18Z</time>
      </trkpt>
      <trkpt lat="56.975819237302" lon="14.91899661597">
        <ele>238.6</ele>
        <time>2020-02-09T10:08:22Z</time>
      </trkpt>
      <trkpt lat="56.975778249811" lon="14.918642732152">
        <ele>239.8</ele>
        <time>2020-02-09T10:08:29Z</time>
      </trkpt>
      <trkpt lat="56.975768023893" lon="14.918497641463">
        <ele>241</ele>
        <time>2020-02-09T10:08:32Z</time>
      </trkpt>
      <trkpt lat="56.975715804656" lon="14.918166724051">
        <ele>242.2</ele>
        <time>2020-02-09T10:08:39Z</time>
      </trkpt>
      <trkpt lat="56.975695269001" lon="14.91802850652">
        <ele>243.4</ele>
        <time>2020-02-09T10:08:42Z</time>
      </trkpt>
      <trkpt lat="56.975666938179" lon="14.917798423365">
        <ele>244.4</ele>
        <time>2020-02-09T10:08:47Z</time>
      </trkpt>
      <trkpt lat="56.975647911266" lon="14.917615781764">
        <ele>245.4</ele>
        <time>2020-02-09T10:08:51Z</time>
      </trkpt>
      <trkpt lat="56.97563248857" lon="14.917199285153">
        <ele>246.6</ele>
        <time>2020-02-09T10:09:00Z</time>
      </trkpt>
      <trkpt lat="56.975633578217" lon="14.916474837536">
        <ele>247.6</ele>
        <time>2020-02-09T10:09:13Z</time>
      </trkpt>
      <trkpt lat="56.975703986177" lon="14.915613848768">
        <ele>246.4</ele>
        <time>2020-02-09T10:09:27Z</time>
      </trkpt>
      <trkpt lat="56.975686300368" lon="14.915364487243">
        <ele>245.2</ele>
        <time>2020-02-09T10:09:29Z</time>
      </trkpt>
      <trkpt lat="56.975665764713" lon="14.915092494588">
        <ele>243.8</ele>
        <time>2020-02-09T10:09:31Z</time>
      </trkpt>
      <trkpt lat="56.975634667864" lon="14.914773563293">
        <ele>242.4</ele>
        <time>2020-02-09T10:09:33Z</time>
      </trkpt>
      <trkpt lat="56.975584376464" lon="14.914427307004">
        <ele>240</ele>
        <time>2020-02-09T10:09:35Z</time>
      </trkpt>
      <trkpt lat="56.975572222709" lon="14.914252209113">
        <ele>238.4</ele>
        <time>2020-02-09T10:09:36Z</time>
      </trkpt>
      <trkpt lat="56.975563086438" lon="14.914086163674">
        <ele>237.2</ele>
        <time>2020-02-09T10:09:37Z</time>
      </trkpt>
      <trkpt lat="56.97554531681" lon="14.913757844651">
        <ele>236</ele>
        <time>2020-02-09T10:09:39Z</time>
      </trkpt>
      <trkpt lat="56.975533665969" lon="14.913170273461">
        <ele>234.8</ele>
        <time>2020-02-09T10:09:43Z</time>
      </trkpt>
      <trkpt lat="56.97551346559" lon="14.912481532738">
        <ele>233.6</ele>
        <time>2020-02-09T10:09:48Z</time>
      </trkpt>
      <trkpt lat="56.975484799492" lon="14.912078530986">
        <ele>232.4</ele>
        <time>2020-02-09T10:09:51Z</time>
      </trkpt>
      <trkpt lat="56.975425371821" lon="14.911248555248">
        <ele>233.6</ele>
        <time>2020-02-09T10:09:58Z</time>
      </trkpt>
      <trkpt lat="56.975297966941" lon="14.91018137174">
        <ele>234.2</ele>
        <time>2020-02-09T10:10:08Z</time>
      </trkpt>
      <trkpt lat="56.975274497621" lon="14.909833271433">
        <ele>233.6</ele>
        <time>2020-02-09T10:10:11Z</time>
      </trkpt>
      <trkpt lat="56.975294111267" lon="14.909045875747">
        <ele>233.6</ele>
        <time>2020-02-09T10:10:18Z</time>
      </trkpt>
      <trkpt lat="56.975339876441" lon="14.908826689062">
        <ele>233.4</ele>
        <time>2020-02-09T10:10:20Z</time>
      </trkpt>
      <trkpt lat="56.975391425126" lon="14.908598617563">
        <ele>232.6</ele>
        <time>2020-02-09T10:10:22Z</time>
      </trkpt>
      <trkpt lat="56.975414642989" lon="14.908478756393">
        <ele>232</ele>
        <time>2020-02-09T10:10:23Z</time>
      </trkpt>
      <trkpt lat="56.975436938843" lon="14.908366774209">
        <ele>231</ele>
        <time>2020-02-09T10:10:24Z</time>
      </trkpt>
      <trkpt lat="56.975427551115" lon="14.90823844732">
        <ele>230.4</ele>
        <time>2020-02-09T10:10:25Z</time>
      </trkpt>
      <trkpt lat="56.975398046827" lon="14.908117580322">
        <ele>229.8</ele>
        <time>2020-02-09T10:10:26Z</time>
      </trkpt>
      <trkpt lat="56.975342893925" lon="14.908010962554">
        <ele>229</ele>
        <time>2020-02-09T10:10:27Z</time>
      </trkpt>
      <trkpt lat="56.975269384662" lon="14.907907865184">
        <ele>228</ele>
        <time>2020-02-09T10:10:28Z</time>
      </trkpt>
      <trkpt lat="56.975193947562" lon="14.907798313751">
        <ele>226.6</ele>
        <time>2020-02-09T10:10:29Z</time>
      </trkpt>
      <trkpt lat="56.975117336996" lon="14.907677865848">
        <ele>225.4</ele>
        <time>2020-02-09T10:10:30Z</time>
      </trkpt>
      <trkpt lat="56.975046845217" lon="14.907564123465">
        <ele>224.2</ele>
        <time>2020-02-09T10:10:31Z</time>
      </trkpt>
      <trkpt lat="56.974979454741" lon="14.907449542892">
        <ele>223.2</ele>
        <time>2020-02-09T10:10:32Z</time>
      </trkpt>
      <trkpt lat="56.974902089804" lon="14.907329262627">
        <ele>221.8</ele>
        <time>2020-02-09T10:10:33Z</time>
      </trkpt>
      <trkpt lat="56.974828245265" lon="14.907211329294">
        <ele>220.2</ele>
        <time>2020-02-09T10:10:34Z</time>
      </trkpt>
      <trkpt lat="56.974753646355" lon="14.907103454241">
        <ele>218.8</ele>
        <time>2020-02-09T10:10:35Z</time>
      </trkpt>
      <trkpt lat="56.974568741641" lon="14.906910502903">
        <ele>217.8</ele>
        <time>2020-02-09T10:10:37Z</time>
      </trkpt>
      <trkpt lat="56.974311165854" lon="14.906660722283">
        <ele>216.6</ele>
        <time>2020-02-09T10:10:40Z</time>
      </trkpt>
      <trkpt lat="56.974067336383" lon="14.906451258602">
        <ele>215</ele>
        <time>2020-02-09T10:10:43Z</time>
      </trkpt>
      <trkpt lat="56.973883940411" lon="14.906270544838">
        <ele>213.8</ele>
        <time>2020-02-09T10:10:46Z</time>
      </trkpt>
      <trkpt lat="56.973399634229" lon="14.905830914183">
        <ele>214.4</ele>
        <time>2020-02-09T10:10:52Z</time>
      </trkpt>
      <trkpt lat="56.972839388033" lon="14.905445179145">
        <ele>214.4</ele>
        <time>2020-02-09T10:10:58Z</time>
      </trkpt>
      <trkpt lat="56.97251274539" lon="14.905227417383">
        <ele>215</ele>
        <time>2020-02-09T10:11:02Z</time>
      </trkpt>
      <trkpt lat="56.972041850248" lon="14.904924579336">
        <ele>215.6</ele>
        <time>2020-02-09T10:11:09Z</time>
      </trkpt>
      <trkpt lat="56.971939842525" lon="14.904854255195">
        <ele>216.2</ele>
        <time>2020-02-09T10:11:12Z</time>
      </trkpt>
      <trkpt lat="56.971809084885" lon="14.904744955219">
        <ele>217.4</ele>
        <time>2020-02-09T10:11:16Z</time>
      </trkpt>
      <trkpt lat="56.971708753542" lon="14.90465602326">
        <ele>217.6</ele>
        <time>2020-02-09T10:11:18Z</time>
      </trkpt>
      <trkpt lat="56.971433408127" lon="14.904388305374">
        <ele>218.4</ele>
        <time>2020-02-09T10:11:24Z</time>
      </trkpt>
      <trkpt lat="56.971191841769" lon="14.904107679362">
        <ele>219.4</ele>
        <time>2020-02-09T10:11:29Z</time>
      </trkpt>
      <trkpt lat="56.970789175293" lon="14.903687410896">
        <ele>220.4</ele>
        <time>2020-02-09T10:11:36Z</time>
      </trkpt>
      <trkpt lat="56.970502933408" lon="14.902838911159">
        <ele>219.2</ele>
        <time>2020-02-09T10:11:47Z</time>
      </trkpt>
      <trkpt lat="56.970209902184" lon="14.901895444495">
        <ele>219.6</ele>
        <time>2020-02-09T10:11:58Z</time>
      </trkpt>
      <trkpt lat="56.970089957195" lon="14.901447515759">
        <ele>219</ele>
        <time>2020-02-09T10:12:03Z</time>
      </trkpt>
      <trkpt lat="56.970054753215" lon="14.901266718176">
        <ele>218.8</ele>
        <time>2020-02-09T10:12:05Z</time>
      </trkpt>
      <trkpt lat="56.970073109576" lon="14.901085920593">
        <ele>219.2</ele>
        <time>2020-02-09T10:12:07Z</time>
      </trkpt>
      <trkpt lat="56.970122814243" lon="14.900841169113">
        <ele>220.2</ele>
        <time>2020-02-09T10:12:10Z</time>
      </trkpt>
      <trkpt lat="56.970135973826" lon="14.900763133624">
        <ele>220.4</ele>
        <time>2020-02-09T10:12:11Z</time>
      </trkpt>
      <trkpt lat="56.97015491692" lon="14.900534726849">
        <ele>221.8</ele>
        <time>2020-02-09T10:12:14Z</time>
      </trkpt>
      <trkpt lat="56.97016246063" lon="14.900389300884">
        <ele>223.2</ele>
        <time>2020-02-09T10:12:16Z</time>
      </trkpt>
      <trkpt lat="56.970174111471" lon="14.900177238814">
        <ele>224.4</ele>
        <time>2020-02-09T10:12:19Z</time>
      </trkpt>
      <trkpt lat="56.970200430637" lon="14.899848416877">
        <ele>225.6</ele>
        <time>2020-02-09T10:12:23Z</time>
      </trkpt>
      <trkpt lat="56.970213422582" lon="14.899599977361">
        <ele>226.8</ele>
        <time>2020-02-09T10:12:26Z</time>
      </trkpt>
      <trkpt lat="56.970221804482" lon="14.899449773713">
        <ele>227.8</ele>
        <time>2020-02-09T10:12:28Z</time>
      </trkpt>
      <trkpt lat="56.970232365676" lon="14.899230587028">
        <ele>229</ele>
        <time>2020-02-09T10:12:31Z</time>
      </trkpt>
      <trkpt lat="56.970268407846" lon="14.898782658292">
        <ele>230</ele>
        <time>2020-02-09T10:12:37Z</time>
      </trkpt>
      <trkpt lat="56.970376366718" lon="14.897910689235">
        <ele>230</ele>
        <time>2020-02-09T10:12:48Z</time>
      </trkpt>
      <trkpt lat="56.970408217938" lon="14.897606426265">
        <ele>230.4</ele>
        <time>2020-02-09T10:12:52Z</time>
      </trkpt>
      <trkpt lat="56.970462365012" lon="14.897227899661">
        <ele>231</ele>
        <time>2020-02-09T10:12:57Z</time>
      </trkpt>
      <trkpt lat="56.970478374441" lon="14.896816348371">
        <ele>232.2</ele>
        <time>2020-02-09T10:13:02Z</time>
      </trkpt>
      <trkpt lat="56.970524810167" lon="14.896073628212">
        <ele>231</ele>
        <time>2020-02-09T10:13:09Z</time>
      </trkpt>
      <trkpt lat="56.970547608935" lon="14.895697364721">
        <ele>230</ele>
        <time>2020-02-09T10:13:12Z</time>
      </trkpt>
      <trkpt lat="56.970590105168" lon="14.895186236459">
        <ele>228.8</ele>
        <time>2020-02-09T10:13:16Z</time>
      </trkpt>
      <trkpt lat="56.970637546722" lon="14.894534795191">
        <ele>227.8</ele>
        <time>2020-02-09T10:13:21Z</time>
      </trkpt>
      <trkpt lat="56.97069471128" lon="14.893727953497">
        <ele>226.6</ele>
        <time>2020-02-09T10:13:27Z</time>
      </trkpt>
      <trkpt lat="56.970692531986" lon="14.893311289248">
        <ele>225.6</ele>
        <time>2020-02-09T10:13:30Z</time>
      </trkpt>
      <trkpt lat="56.970672666883" lon="14.893044744828">
        <ele>224.4</ele>
        <time>2020-02-09T10:13:32Z</time>
      </trkpt>
      <trkpt lat="56.970620280008" lon="14.892667726966">
        <ele>223.2</ele>
        <time>2020-02-09T10:13:35Z</time>
      </trkpt>
      <trkpt lat="56.970520535398" lon="14.89164479989">
        <ele>222.4</ele>
        <time>2020-02-09T10:13:43Z</time>
      </trkpt>
      <trkpt lat="56.970487929807" lon="14.891273649358">
        <ele>221.8</ele>
        <time>2020-02-09T10:13:46Z</time>
      </trkpt>
      <trkpt lat="56.970391537957" lon="14.890474519012">
        <ele>223.2</ele>
        <time>2020-02-09T10:13:53Z</time>
      </trkpt>
      <trkpt lat="56.970350047552" lon="14.890067829224">
        <ele>224.4</ele>
        <time>2020-02-09T10:13:56Z</time>
      </trkpt>
      <trkpt lat="56.970305372025" lon="14.889672455001">
        <ele>223</ele>
        <time>2020-02-09T10:13:59Z</time>
      </trkpt>
      <trkpt lat="56.970273688443" lon="14.889429631358">
        <ele>221.8</ele>
        <time>2020-02-09T10:14:01Z</time>
      </trkpt>
      <trkpt lat="56.970175536394" lon="14.888511310394">
        <ele>222.8</ele>
        <time>2020-02-09T10:14:09Z</time>
      </trkpt>
      <trkpt lat="56.970117114551" lon="14.887978724468">
        <ele>224.4</ele>
        <time>2020-02-09T10:14:14Z</time>
      </trkpt>
      <trkpt lat="56.970064560038" lon="14.887444043067">
        <ele>225.2</ele>
        <time>2020-02-09T10:14:19Z</time>
      </trkpt>
      <trkpt lat="56.969960875935" lon="14.886403262544">
        <ele>224.6</ele>
        <time>2020-02-09T10:14:29Z</time>
      </trkpt>
      <trkpt lat="56.969882588989" lon="14.885612514098">
        <ele>225.4</ele>
        <time>2020-02-09T10:14:37Z</time>
      </trkpt>
      <trkpt lat="56.969854258167" lon="14.885229377449">
        <ele>224.4</ele>
        <time>2020-02-09T10:14:41Z</time>
      </trkpt>
      <trkpt lat="56.969877559849" lon="14.885055704481">
        <ele>224.2</ele>
        <time>2020-02-09T10:14:43Z</time>
      </trkpt>
      <trkpt lat="56.969945201782" lon="14.884947242695">
        <ele>224</ele>
        <time>2020-02-09T10:14:45Z</time>
      </trkpt>
      <trkpt lat="56.970260193584" lon="14.884793099554">
        <ele>223</ele>
        <time>2020-02-09T10:14:51Z</time>
      </trkpt>
      <trkpt lat="56.970788504741" lon="14.884544576219">
        <ele>222.2</ele>
        <time>2020-02-09T10:15:00Z</time>
      </trkpt>
      <trkpt lat="56.970975924025" lon="14.884420691737">
        <ele>221.8</ele>
        <time>2020-02-09T10:15:03Z</time>
      </trkpt>
      <trkpt lat="56.971262668824" lon="14.88414383758">
        <ele>220.8</ele>
        <time>2020-02-09T10:15:08Z</time>
      </trkpt>
      <trkpt lat="56.971368280764" lon="14.884018276718">
        <ele>220.6</ele>
        <time>2020-02-09T10:15:10Z</time>
      </trkpt>
      <trkpt lat="56.971655779934" lon="14.883716612137">
        <ele>222</ele>
        <time>2020-02-09T10:15:16Z</time>
      </trkpt>
      <trkpt lat="56.971759464037" lon="14.883667661841">
        <ele>222.8</ele>
        <time>2020-02-09T10:15:18Z</time>
      </trkpt>
      <trkpt lat="56.97181118036" lon="14.883657268285">
        <ele>223</ele>
        <time>2020-02-09T10:15:19Z</time>
      </trkpt>
      <trkpt lat="56.971865075977" lon="14.883654166982">
        <ele>223.2</ele>
        <time>2020-02-09T10:15:20Z</time>
      </trkpt>
      <trkpt lat="56.972399003007" lon="14.88380604701">
        <ele>223.4</ele>
        <time>2020-02-09T10:15:30Z</time>
      </trkpt>
      <trkpt lat="56.972456754298" lon="14.88382951633">
        <ele>223.6</ele>
        <time>2020-02-09T10:15:31Z</time>
      </trkpt>
      <trkpt lat="56.972704187986" lon="14.883953736088">
        <ele>223.2</ele>
        <time>2020-02-09T10:15:35Z</time>
      </trkpt>
      <trkpt lat="56.972824132975" lon="14.883970248431">
        <ele>223</ele>
        <time>2020-02-09T10:15:37Z</time>
      </trkpt>
      <trkpt lat="56.97313132961" lon="14.883853740021">
        <ele>224.2</ele>
        <time>2020-02-09T10:15:43Z</time>
      </trkpt>
      <trkpt lat="56.973299889619" lon="14.883731112824">
        <ele>225.6</ele>
        <time>2020-02-09T10:15:46Z</time>
      </trkpt>
      <trkpt lat="56.973595267775" lon="14.883461299463">
        <ele>226.6</ele>
        <time>2020-02-09T10:15:51Z</time>
      </trkpt>
      <trkpt lat="56.973819232143" lon="14.883145469471">
        <ele>226.6</ele>
        <time>2020-02-09T10:15:56Z</time>
      </trkpt>
      <trkpt lat="56.974302532497" lon="14.882692679233">
        <ele>226.8</ele>
        <time>2020-02-09T10:16:05Z</time>
      </trkpt>
      <trkpt lat="56.974823216125" lon="14.882411969402">
        <ele>226.8</ele>
        <time>2020-02-09T10:16:14Z</time>
      </trkpt>
      <trkpt lat="56.975328728514" lon="14.88215648909">
        <ele>227.2</ele>
        <time>2020-02-09T10:16:22Z</time>
      </trkpt>
      <trkpt lat="56.975789649195" lon="14.882116423608">
        <ele>227.8</ele>
        <time>2020-02-09T10:16:29Z</time>
      </trkpt>
      <trkpt lat="56.975924262509" lon="14.882097312876">
        <ele>228.2</ele>
        <time>2020-02-09T10:16:31Z</time>
      </trkpt>
      <trkpt lat="56.976150154714" lon="14.882006955994">
        <ele>229</ele>
        <time>2020-02-09T10:16:35Z</time>
      </trkpt>
      <trkpt lat="56.976357439101" lon="14.881853818681">
        <ele>230</ele>
        <time>2020-02-09T10:16:39Z</time>
      </trkpt>
      <trkpt lat="56.976627252462" lon="14.881644941733">
        <ele>231.2</ele>
        <time>2020-02-09T10:16:44Z</time>
      </trkpt>
      <trkpt lat="56.977193617445" lon="14.881476214086">
        <ele>231.4</ele>
        <time>2020-02-09T10:16:53Z</time>
      </trkpt>
      <trkpt lat="56.977531743291" lon="14.881462132494">
        <ele>230</ele>
        <time>2020-02-09T10:16:57Z</time>
      </trkpt>
      <trkpt lat="56.977714301073" lon="14.881445033418">
        <ele>228.4</ele>
        <time>2020-02-09T10:16:59Z</time>
      </trkpt>
      <trkpt lat="56.977808513629" lon="14.881424497763">
        <ele>227.2</ele>
        <time>2020-02-09T10:17:00Z</time>
      </trkpt>
      <trkpt lat="56.977994172714" lon="14.88136104678">
        <ele>225.6</ele>
        <time>2020-02-09T10:17:02Z</time>
      </trkpt>
      <trkpt lat="56.978184358025" lon="14.881277982151">
        <ele>224.6</ele>
        <time>2020-02-09T10:17:04Z</time>
      </trkpt>
      <trkpt lat="56.978379907752" lon="14.881173376039">
        <ele>223.6</ele>
        <time>2020-02-09T10:17:06Z</time>
      </trkpt>
      <trkpt lat="56.978584090836" lon="14.881056113258">
        <ele>222.6</ele>
        <time>2020-02-09T10:17:08Z</time>
      </trkpt>
      <trkpt lat="56.978905452882" lon="14.880890319276">
        <ele>221.2</ele>
        <time>2020-02-09T10:17:11Z</time>
      </trkpt>
      <trkpt lat="56.979008047338" lon="14.880867269051">
        <ele>220.8</ele>
        <time>2020-02-09T10:17:12Z</time>
      </trkpt>
      <trkpt lat="56.979218181571" lon="14.880928121645">
        <ele>220.2</ele>
        <time>2020-02-09T10:17:14Z</time>
      </trkpt>
      <trkpt lat="56.979317339448" lon="14.881010767179">
        <ele>220</ele>
        <time>2020-02-09T10:17:15Z</time>
      </trkpt>
      <trkpt lat="56.979401242267" lon="14.881111098522">
        <ele>219.8</ele>
        <time>2020-02-09T10:17:16Z</time>
      </trkpt>
      <trkpt lat="56.97951749922" lon="14.881345540265">
        <ele>219.2</ele>
        <time>2020-02-09T10:17:18Z</time>
      </trkpt>
      <trkpt lat="56.979552535562" lon="14.881479734484">
        <ele>219</ele>
        <time>2020-02-09T10:17:19Z</time>
      </trkpt>
      <trkpt lat="56.979694105853" lon="14.881979798638">
        <ele>220.6</ele>
        <time>2020-02-09T10:17:23Z</time>
      </trkpt>
      <trkpt lat="56.979797873775" lon="14.882455303825">
        <ele>221.6</ele>
        <time>2020-02-09T10:17:27Z</time>
      </trkpt>
      <trkpt lat="56.979922931723" lon="14.883530114862">
        <ele>220.8</ele>
        <time>2020-02-09T10:17:36Z</time>
      </trkpt>
      <trkpt lat="56.979948077423" lon="14.883762628768">
        <ele>220.6</ele>
        <time>2020-02-09T10:17:38Z</time>
      </trkpt>
      <trkpt lat="56.980005996352" lon="14.884065466815">
        <ele>220.6</ele>
        <time>2020-02-09T10:17:41Z</time>
      </trkpt>
      <trkpt lat="56.980055701019" lon="14.884265961863">
        <ele>221.2</ele>
        <time>2020-02-09T10:17:43Z</time>
      </trkpt>
      <trkpt lat="56.980132143947" lon="14.884436449709">
        <ele>221.8</ele>
        <time>2020-02-09T10:17:45Z</time>
      </trkpt>
      <trkpt lat="56.980228703435" lon="14.884561340019">
        <ele>222.6</ele>
        <time>2020-02-09T10:17:47Z</time>
      </trkpt>
      <trkpt lat="56.980280922672" lon="14.884604087709">
        <ele>223</ele>
        <time>2020-02-09T10:17:48Z</time>
      </trkpt>
      <trkpt lat="56.980549646386" lon="14.884787064586">
        <ele>224</ele>
        <time>2020-02-09T10:17:53Z</time>
      </trkpt>
      <trkpt lat="56.980919455814" lon="14.885135667807">
        <ele>225.4</ele>
        <time>2020-02-09T10:18:00Z</time>
      </trkpt>
      <trkpt lat="56.981229669933" lon="14.885449318505">
        <ele>226.2</ele>
        <time>2020-02-09T10:18:07Z</time>
      </trkpt>
      <trkpt lat="56.981274680736" lon="14.885469099789">
        <ele>226.6</ele>
        <time>2020-02-09T10:18:08Z</time>
      </trkpt>
      <trkpt lat="56.98141264681" lon="14.885494748403">
        <ele>227.8</ele>
        <time>2020-02-09T10:18:11Z</time>
      </trkpt>
      <trkpt lat="56.981556480214" lon="14.885476056766">
        <ele>228.8</ele>
        <time>2020-02-09T10:18:14Z</time>
      </trkpt>
      <trkpt lat="56.981755298882" lon="14.885381928029">
        <ele>229.8</ele>
        <time>2020-02-09T10:18:18Z</time>
      </trkpt>
      <trkpt lat="56.981973563558" lon="14.885254774606">
        <ele>231</ele>
        <time>2020-02-09T10:18:22Z</time>
      </trkpt>
      <trkpt lat="56.982239018331" lon="14.885113707229">
        <ele>232</ele>
        <time>2020-02-09T10:18:27Z</time>
      </trkpt>
      <trkpt lat="56.982592399235" lon="14.884908183041">
        <ele>233</ele>
        <time>2020-02-09T10:18:34Z</time>
      </trkpt>
      <trkpt lat="56.982691305655" lon="14.88484456442">
        <ele>233.2</ele>
        <time>2020-02-09T10:18:36Z</time>
      </trkpt>
      <trkpt lat="56.982835306697" lon="14.88475320171">
        <ele>234.2</ele>
        <time>2020-02-09T10:18:39Z</time>
      </trkpt>
      <trkpt lat="56.983178880778" lon="14.884603333338">
        <ele>235.2</ele>
        <time>2020-02-09T10:18:46Z</time>
      </trkpt>
      <trkpt lat="56.983398821834" lon="14.884498894864">
        <ele>236.2</ele>
        <time>2020-02-09T10:18:51Z</time>
      </trkpt>
      <trkpt lat="56.98353242932" lon="14.884417674253">
        <ele>237.4</ele>
        <time>2020-02-09T10:18:54Z</time>
      </trkpt>
      <trkpt lat="56.983742898829" lon="14.884266380958">
        <ele>238.6</ele>
        <time>2020-02-09T10:18:59Z</time>
      </trkpt>
      <trkpt lat="56.983917661444" lon="14.88416814509">
        <ele>239.8</ele>
        <time>2020-02-09T10:19:03Z</time>
      </trkpt>
      <trkpt lat="56.984093513706" lon="14.884101341347">
        <ele>241</ele>
        <time>2020-02-09T10:19:07Z</time>
      </trkpt>
      <trkpt lat="56.984266767579" lon="14.884053899793">
        <ele>242.2</ele>
        <time>2020-02-09T10:19:11Z</time>
      </trkpt>
      <trkpt lat="56.984456617614" lon="14.884010733008">
        <ele>243.4</ele>
        <time>2020-02-09T10:19:15Z</time>
      </trkpt>
      <trkpt lat="56.984631464048" lon="14.883975780485">
        <ele>244.4</ele>
        <time>2020-02-09T10:19:19Z</time>
      </trkpt>
      <trkpt lat="56.984673541186" lon="14.883961782712">
        <ele>244.8</ele>
        <time>2020-02-09T10:19:20Z</time>
      </trkpt>
      <trkpt lat="56.984792396528" lon="14.883913922063">
        <ele>245.6</ele>
        <time>2020-02-09T10:19:23Z</time>
      </trkpt>
      <trkpt lat="56.984919047037" lon="14.883874359495">
        <ele>246.8</ele>
        <time>2020-02-09T10:19:26Z</time>
      </trkpt>
      <trkpt lat="56.985117027515" lon="14.883798335662">
        <ele>247.8</ele>
        <time>2020-02-09T10:19:30Z</time>
      </trkpt>
      <trkpt lat="56.985315678545" lon="14.883770591573">
        <ele>248.8</ele>
        <time>2020-02-09T10:19:34Z</time>
      </trkpt>
      <trkpt lat="56.98546278089" lon="14.883751061746">
        <ele>249.4</ele>
        <time>2020-02-09T10:19:37Z</time>
      </trkpt>
      <trkpt lat="56.985562106405" lon="14.883745110597">
        <ele>249.6</ele>
        <time>2020-02-09T10:19:39Z</time>
      </trkpt>
      <trkpt lat="56.985702335592" lon="14.883733543575">
        <ele>250</ele>
        <time>2020-02-09T10:19:42Z</time>
      </trkpt>
      <trkpt lat="56.986153365631" lon="14.883736393421">
        <ele>248.6</ele>
        <time>2020-02-09T10:19:50Z</time>
      </trkpt>
      <trkpt lat="56.986209691999" lon="14.883755001239">
        <ele>248.4</ele>
        <time>2020-02-09T10:19:51Z</time>
      </trkpt>
      <trkpt lat="56.986462573922" lon="14.883903193231">
        <ele>247.6</ele>
        <time>2020-02-09T10:19:55Z</time>
      </trkpt>
      <trkpt lat="56.986987699957" lon="14.884237966317">
        <ele>246.8</ele>
        <time>2020-02-09T10:20:04Z</time>
      </trkpt>
      <trkpt lat="56.987165815332" lon="14.884318851652">
        <ele>246.4</ele>
        <time>2020-02-09T10:20:07Z</time>
      </trkpt>
      <trkpt lat="56.987652384627" lon="14.884375932391">
        <ele>245.2</ele>
        <time>2020-02-09T10:20:15Z</time>
      </trkpt>
      <trkpt lat="56.987812898012" lon="14.884347098655">
        <ele>244.4</ele>
        <time>2020-02-09T10:20:19Z</time>
      </trkpt>
      <trkpt lat="56.987836367332" lon="14.884296136703">
        <ele>244.2</ele>
        <time>2020-02-09T10:20:20Z</time>
      </trkpt>
      <trkpt lat="56.987849778372" lon="14.884227740399">
        <ele>244.2</ele>
        <time>2020-02-09T10:20:21Z</time>
      </trkpt>
      <trkpt lat="56.987873080054" lon="14.883610078188">
        <ele>243.2</ele>
        <time>2020-02-09T10:20:28Z</time>
      </trkpt>
      <trkpt lat="56.987899231582" lon="14.883272539075">
        <ele>242</ele>
        <time>2020-02-09T10:20:31Z</time>
      </trkpt>
      <trkpt lat="56.987912391165" lon="14.883036337133">
        <ele>240.6</ele>
        <time>2020-02-09T10:20:33Z</time>
      </trkpt>
      <trkpt lat="56.987925550748" lon="14.88280021901">
        <ele>238.8</ele>
        <time>2020-02-09T10:20:35Z</time>
      </trkpt>
      <trkpt lat="56.987936531037" lon="14.882568124199">
        <ele>237.2</ele>
        <time>2020-02-09T10:20:37Z</time>
      </trkpt>
      <trkpt lat="56.987951953733" lon="14.882330245877">
        <ele>235.6</ele>
        <time>2020-02-09T10:20:39Z</time>
      </trkpt>
      <trkpt lat="56.987967795524" lon="14.882095217401">
        <ele>234.2</ele>
        <time>2020-02-09T10:20:41Z</time>
      </trkpt>
      <trkpt lat="56.987979446365" lon="14.881858428726">
        <ele>233</ele>
        <time>2020-02-09T10:20:43Z</time>
      </trkpt>
      <trkpt lat="56.987996461622" lon="14.881511501885">
        <ele>231.6</ele>
        <time>2020-02-09T10:20:46Z</time>
      </trkpt>
      <trkpt lat="56.988008280101" lon="14.881284268576">
        <ele>231</ele>
        <time>2020-02-09T10:20:48Z</time>
      </trkpt>
      <trkpt lat="56.988006938997" lon="14.881187625269">
        <ele>230.6</ele>
        <time>2020-02-09T10:20:49Z</time>
      </trkpt>
      <trkpt lat="56.988017164915" lon="14.881032224843">
        <ele>229.2</ele>
        <time>2020-02-09T10:20:51Z</time>
      </trkpt>
      <trkpt lat="56.988035521276" lon="14.880862239911">
        <ele>227.2</ele>
        <time>2020-02-09T10:20:53Z</time>
      </trkpt>
      <trkpt lat="56.988039963683" lon="14.880772553581">
        <ele>226.2</ele>
        <time>2020-02-09T10:20:54Z</time>
      </trkpt>
      <trkpt lat="56.988039628407" lon="14.880687728753">
        <ele>225</ele>
        <time>2020-02-09T10:20:55Z</time>
      </trkpt>
      <trkpt lat="56.988046417746" lon="14.880523527332">
        <ele>223</ele>
        <time>2020-02-09T10:20:57Z</time>
      </trkpt>
      <trkpt lat="56.988050021963" lon="14.880439959789">
        <ele>222</ele>
        <time>2020-02-09T10:20:58Z</time>
      </trkpt>
      <trkpt lat="56.988052033619" lon="14.880303334819">
        <ele>220.6</ele>
        <time>2020-02-09T10:21:00Z</time>
      </trkpt>
      <trkpt lat="56.988051865981" lon="14.880186155857">
        <ele>219.6</ele>
        <time>2020-02-09T10:21:03Z</time>
      </trkpt>
      <trkpt lat="56.988053542361" lon="14.880149275497">
        <ele>219.4</ele>
        <time>2020-02-09T10:21:05Z</time>
      </trkpt>
      <trkpt lat="56.987924796377" lon="14.880142905253">
        <ele>218.6</ele>
        <time>2020-02-09T10:21:09Z</time>
      </trkpt>
      <trkpt lat="56.987763109526" lon="14.880127482557">
        <ele>218</ele>
        <time>2020-02-09T10:21:13Z</time>
      </trkpt>
      <trkpt lat="56.987572421301" lon="14.880085405419">
        <ele>217.4</ele>
        <time>2020-02-09T10:21:17Z</time>
      </trkpt>
      <trkpt lat="56.987030950561" lon="14.880116166992">
        <ele>217.4</ele>
        <time>2020-02-09T10:21:25Z</time>
      </trkpt>
      <trkpt lat="56.986683101711" lon="14.880133349887">
        <ele>216.8</ele>
        <time>2020-02-09T10:21:31Z</time>
      </trkpt>
      <trkpt lat="56.986578495599" lon="14.88014986223">
        <ele>216.2</ele>
        <time>2020-02-09T10:21:33Z</time>
      </trkpt>
      <trkpt lat="56.986201896832" lon="14.880165871659">
        <ele>215.4</ele>
        <time>2020-02-09T10:21:40Z</time>
      </trkpt>
      <trkpt lat="56.985880702424" lon="14.880164195279">
        <ele>215.2</ele>
        <time>2020-02-09T10:21:45Z</time>
      </trkpt>
      <trkpt lat="56.985740808513" lon="14.880142569977">
        <ele>215</ele>
        <time>2020-02-09T10:21:47Z</time>
      </trkpt>
      <trkpt lat="56.98530771574" lon="14.880135780638">
        <ele>214.6</ele>
        <time>2020-02-09T10:21:54Z</time>
      </trkpt>
      <trkpt lat="56.985198918678" lon="14.880157992673">
        <ele>214.2</ele>
        <time>2020-02-09T10:21:56Z</time>
      </trkpt>
      <trkpt lat="56.98508308082" lon="14.880212139747">
        <ele>214</ele>
        <time>2020-02-09T10:21:58Z</time>
      </trkpt>
      <trkpt lat="56.984746044621" lon="14.880198225793">
        <ele>214.2</ele>
        <time>2020-02-09T10:22:03Z</time>
      </trkpt>
      <trkpt lat="56.984496766915" lon="14.880222952398">
        <ele>215.2</ele>
        <time>2020-02-09T10:22:07Z</time>
      </trkpt>
      <trkpt lat="56.983927132991" lon="14.880166290754">
        <ele>215</ele>
        <time>2020-02-09T10:22:16Z</time>
      </trkpt>
      <trkpt lat="56.9833497039" lon="14.880233094497">
        <ele>215.6</ele>
        <time>2020-02-09T10:22:26Z</time>
      </trkpt>
      <trkpt lat="56.982872187057" lon="14.880231250479">
        <ele>216.2</ele>
        <time>2020-02-09T10:22:33Z</time>
      </trkpt>
      <trkpt lat="56.982334069077" lon="14.880224712597">
        <ele>216</ele>
        <time>2020-02-09T10:22:41Z</time>
      </trkpt>
      <trkpt lat="56.98217707609" lon="14.880203087295">
        <ele>216</ele>
        <time>2020-02-09T10:22:43Z</time>
      </trkpt>
      <trkpt lat="56.981620182654" lon="14.880240722026">
        <ele>216.8</ele>
        <time>2020-02-09T10:22:52Z</time>
      </trkpt>
      <trkpt lat="56.981406108928" lon="14.880262431147">
        <ele>217.4</ele>
        <time>2020-02-09T10:22:55Z</time>
      </trkpt>
      <trkpt lat="56.980822728688" lon="14.880306352303">
        <ele>218</ele>
        <time>2020-02-09T10:23:04Z</time>
      </trkpt>
      <trkpt lat="56.98070772902" lon="14.880309202149">
        <ele>218.6</ele>
        <time>2020-02-09T10:23:06Z</time>
      </trkpt>
      <trkpt lat="56.980406651172" lon="14.880325379216">
        <ele>219.8</ele>
        <time>2020-02-09T10:23:11Z</time>
      </trkpt>
      <trkpt lat="56.97984104056" lon="14.880368713639">
        <ele>220.2</ele>
        <time>2020-02-09T10:23:21Z</time>
      </trkpt>
      <trkpt lat="56.979296300879" lon="14.880399559031">
        <ele>220.6</ele>
        <time>2020-02-09T10:23:31Z</time>
      </trkpt>
      <trkpt lat="56.978709400241" lon="14.880414311175">
        <ele>220.8</ele>
        <time>2020-02-09T10:23:42Z</time>
      </trkpt>
      <trkpt lat="56.978656594271" lon="14.880407018922">
        <ele>220.8</ele>
        <time>2020-02-09T10:23:43Z</time>
      </trkpt>
      <trkpt lat="56.978257112917" lon="14.880351363106">
        <ele>221.6</ele>
        <time>2020-02-09T10:23:51Z</time>
      </trkpt>
      <trkpt lat="56.978150578968" lon="14.880341472464">
        <ele>222</ele>
        <time>2020-02-09T10:23:53Z</time>
      </trkpt>
      <trkpt lat="56.977621597259" lon="14.880215157231">
        <ele>223</ele>
        <time>2020-02-09T10:24:03Z</time>
      </trkpt>
      <trkpt lat="56.977560074113" lon="14.880214486679">
        <ele>223.2</ele>
        <time>2020-02-09T10:24:04Z</time>
      </trkpt>
      <trkpt lat="56.977054310267" lon="14.880268549934">
        <ele>223</ele>
        <time>2020-02-09T10:24:12Z</time>
      </trkpt>
      <trkpt lat="56.976476462081" lon="14.88047591814">
        <ele>222.6</ele>
        <time>2020-02-09T10:24:22Z</time>
      </trkpt>
      <trkpt lat="56.975909594184" lon="14.880680855595">
        <ele>223.2</ele>
        <time>2020-02-09T10:24:32Z</time>
      </trkpt>
      <trkpt lat="56.975363764856" lon="14.880749922451">
        <ele>223.2</ele>
        <time>2020-02-09T10:24:41Z</time>
      </trkpt>
      <trkpt lat="56.974969564099" lon="14.88070725858">
        <ele>222.2</ele>
        <time>2020-02-09T10:24:48Z</time>
      </trkpt>
      <trkpt lat="56.974646693311" lon="14.880626624702">
        <ele>221.8</ele>
        <time>2020-02-09T10:24:54Z</time>
      </trkpt>
      <trkpt lat="56.974093152635" lon="14.880495950881">
        <ele>222.6</ele>
        <time>2020-02-09T10:25:04Z</time>
      </trkpt>
      <trkpt lat="56.973871619018" lon="14.88046585986">
        <ele>222.8</ele>
        <time>2020-02-09T10:25:08Z</time>
      </trkpt>
      <trkpt lat="56.973328723355" lon="14.880343819396">
        <ele>222.4</ele>
        <time>2020-02-09T10:25:16Z</time>
      </trkpt>
      <trkpt lat="56.972785576235" lon="14.880083477582">
        <ele>222.8</ele>
        <time>2020-02-09T10:25:25Z</time>
      </trkpt>
      <trkpt lat="56.972275118525" lon="14.879760355337">
        <ele>222</ele>
        <time>2020-02-09T10:25:34Z</time>
      </trkpt>
      <trkpt lat="56.972210074981" lon="14.879712243231">
        <ele>221.8</ele>
        <time>2020-02-09T10:25:35Z</time>
      </trkpt>
      <trkpt lat="56.972012262141" lon="14.879574780071">
        <ele>220.4</ele>
        <time>2020-02-09T10:25:38Z</time>
      </trkpt>
      <trkpt lat="56.971875637171" lon="14.879497834229">
        <ele>219</ele>
        <time>2020-02-09T10:25:40Z</time>
      </trkpt>
      <trkpt lat="56.971531727814" lon="14.879264985047">
        <ele>218</ele>
        <time>2020-02-09T10:25:45Z</time>
      </trkpt>
      <trkpt lat="56.971150519002" lon="14.879056778651">
        <ele>217.2</ele>
        <time>2020-02-09T10:25:51Z</time>
      </trkpt>
      <trkpt lat="56.971050271478" lon="14.878976312411">
        <ele>216.6</ele>
        <time>2020-02-09T10:25:53Z</time>
      </trkpt>
      <trkpt lat="56.970580885078" lon="14.87865536946">
        <ele>217.4</ele>
        <time>2020-02-09T10:26:02Z</time>
      </trkpt>
      <trkpt lat="56.970240999033" lon="14.878545398932">
        <ele>217.8</ele>
        <time>2020-02-09T10:26:07Z</time>
      </trkpt>
      <trkpt lat="56.969927348335" lon="14.878339790925">
        <ele>219</ele>
        <time>2020-02-09T10:26:12Z</time>
      </trkpt>
      <trkpt lat="56.969694163877" lon="14.878178606988">
        <ele>219.2</ele>
        <time>2020-02-09T10:26:16Z</time>
      </trkpt>
      <trkpt lat="56.969488388232" lon="14.878033097204">
        <ele>217.8</ele>
        <time>2020-02-09T10:26:20Z</time>
      </trkpt>
      <trkpt lat="56.969090750896" lon="14.877724475646">
        <ele>219</ele>
        <time>2020-02-09T10:26:27Z</time>
      </trkpt>
      <trkpt lat="56.968782213157" lon="14.877561280053">
        <ele>218.8</ele>
        <time>2020-02-09T10:26:32Z</time>
      </trkpt>
      <trkpt lat="56.968223475703" lon="14.877256011255">
        <ele>219.6</ele>
        <time>2020-02-09T10:26:41Z</time>
      </trkpt>
      <trkpt lat="56.967782587763" lon="14.877010337766">
        <ele>217.6</ele>
        <time>2020-02-09T10:26:48Z</time>
      </trkpt>
      <trkpt lat="56.967492490204" lon="14.876839598463">
        <ele>216.4</ele>
        <time>2020-02-09T10:26:52Z</time>
      </trkpt>
      <trkpt lat="56.966931573456" lon="14.876510357431">
        <ele>216</ele>
        <time>2020-02-09T10:27:00Z</time>
      </trkpt>
      <trkpt lat="56.966796373409" lon="14.876415390504">
        <ele>214.6</ele>
        <time>2020-02-09T10:27:02Z</time>
      </trkpt>
      <trkpt lat="56.966667878882" lon="14.876340540137">
        <ele>213.6</ele>
        <time>2020-02-09T10:27:04Z</time>
      </trkpt>
      <trkpt lat="56.966258842162" lon="14.876157227984">
        <ele>215</ele>
        <time>2020-02-09T10:27:10Z</time>
      </trkpt>
      <trkpt lat="56.965719383078" lon="14.875947009932">
        <ele>215</ele>
        <time>2020-02-09T10:27:17Z</time>
      </trkpt>
      <trkpt lat="56.965458370712" lon="14.875846343313">
        <ele>213.4</ele>
        <time>2020-02-09T10:27:20Z</time>
      </trkpt>
      <trkpt lat="56.965216552897" lon="14.875707790506">
        <ele>212.2</ele>
        <time>2020-02-09T10:27:23Z</time>
      </trkpt>
      <trkpt lat="56.965137427761" lon="14.87566554573">
        <ele>211.8</ele>
        <time>2020-02-09T10:27:24Z</time>
      </trkpt>
      <trkpt lat="56.964909607719" lon="14.875526992923">
        <ele>211</ele>
        <time>2020-02-09T10:27:27Z</time>
      </trkpt>
      <trkpt lat="56.964383559675" lon="14.875232704414">
        <ele>211</ele>
        <time>2020-02-09T10:27:34Z</time>
      </trkpt>
      <trkpt lat="56.964160601135" lon="14.875117872384">
        <ele>209.8</ele>
        <time>2020-02-09T10:27:37Z</time>
      </trkpt>
      <trkpt lat="56.96360781483" lon="14.874802293849">
        <ele>209.8</ele>
        <time>2020-02-09T10:27:45Z</time>
      </trkpt>
      <trkpt lat="56.96316273594" lon="14.874569025572">
        <ele>209.8</ele>
        <time>2020-02-09T10:27:53Z</time>
      </trkpt>
      <trkpt lat="56.962851264536" lon="14.874506245141">
        <ele>210.2</ele>
        <time>2020-02-09T10:27:58Z</time>
      </trkpt>
      <trkpt lat="56.962595448948" lon="14.874508927349">
        <ele>210.8</ele>
        <time>2020-02-09T10:28:02Z</time>
      </trkpt>
      <trkpt lat="56.962213569584" lon="14.874535246515">
        <ele>212</ele>
        <time>2020-02-09T10:28:08Z</time>
      </trkpt>
      <trkpt lat="56.96197669709" lon="14.874594171272">
        <ele>212.2</ele>
        <time>2020-02-09T10:28:12Z</time>
      </trkpt>
      <trkpt lat="56.961442686241" lon="14.874768095697">
        <ele>211.8</ele>
        <time>2020-02-09T10:28:21Z</time>
      </trkpt>
      <trkpt lat="56.961370769539" lon="14.874784440402">
        <ele>211.8</ele>
        <time>2020-02-09T10:28:22Z</time>
      </trkpt>
      <trkpt lat="56.961038343385" lon="14.874785865325">
        <ele>211.8</ele>
        <time>2020-02-09T10:28:27Z</time>
      </trkpt>
      <trkpt lat="56.960576333057" lon="14.874697520099">
        <ele>211.8</ele>
        <time>2020-02-09T10:28:34Z</time>
      </trkpt>
      <trkpt lat="56.960004519839" lon="14.874443967624">
        <ele>211.8</ele>
        <time>2020-02-09T10:28:41Z</time>
      </trkpt>
      <trkpt lat="56.959705453647" lon="14.874228552794">
        <ele>213</ele>
        <time>2020-02-09T10:28:45Z</time>
      </trkpt>
      <trkpt lat="56.959408231473" lon="14.873975503233">
        <ele>214</ele>
        <time>2020-02-09T10:28:50Z</time>
      </trkpt>
      <trkpt lat="56.959029369593" lon="14.873659337965">
        <ele>213</ele>
        <time>2020-02-09T10:28:57Z</time>
      </trkpt>
      <trkpt lat="56.958765339743" lon="14.873454484329">
        <ele>214.6</ele>
        <time>2020-02-09T10:29:02Z</time>
      </trkpt>
      <trkpt lat="56.958578339554" lon="14.873317188807">
        <ele>215.8</ele>
        <time>2020-02-09T10:29:05Z</time>
      </trkpt>
      <trkpt lat="56.958238621147" lon="14.873019631357">
        <ele>217</ele>
        <time>2020-02-09T10:29:10Z</time>
      </trkpt>
      <trkpt lat="56.957676530933" lon="14.872710171609">
        <ele>217.8</ele>
        <time>2020-02-09T10:29:19Z</time>
      </trkpt>
      <trkpt lat="56.957458685352" lon="14.87254244979">
        <ele>218</ele>
        <time>2020-02-09T10:29:23Z</time>
      </trkpt>
      <trkpt lat="56.95723757083" lon="14.872211700016">
        <ele>219</ele>
        <time>2020-02-09T10:29:29Z</time>
      </trkpt>
      <trkpt lat="56.95684445972" lon="14.871869047944">
        <ele>220.2</ele>
        <time>2020-02-09T10:29:36Z</time>
      </trkpt>
      <trkpt lat="56.956341880996" lon="14.871454395351">
        <ele>220.8</ele>
        <time>2020-02-09T10:29:45Z</time>
      </trkpt>
      <trkpt lat="56.955789597605" lon="14.871263623307">
        <ele>220</ele>
        <time>2020-02-09T10:29:53Z</time>
      </trkpt>
      <trkpt lat="56.955469492844" lon="14.8712005076">
        <ele>219.2</ele>
        <time>2020-02-09T10:29:58Z</time>
      </trkpt>
      <trkpt lat="56.954911761218" lon="14.871205369102">
        <ele>218.2</ele>
        <time>2020-02-09T10:30:08Z</time>
      </trkpt>
      <trkpt lat="56.95472048626" lon="14.871238645245">
        <ele>216.8</ele>
        <time>2020-02-09T10:30:11Z</time>
      </trkpt>
      <trkpt lat="56.954470370364" lon="14.87125666633">
        <ele>216.2</ele>
        <time>2020-02-09T10:30:15Z</time>
      </trkpt>
      <trkpt lat="56.953965528527" lon="14.871044688079">
        <ele>215.8</ele>
        <time>2020-02-09T10:30:22Z</time>
      </trkpt>
      <trkpt lat="56.953698481193" lon="14.870823154462">
        <ele>214.6</ele>
        <time>2020-02-09T10:30:26Z</time>
      </trkpt>
      <trkpt lat="56.953560934214" lon="14.870716369056">
        <ele>214.8</ele>
        <time>2020-02-09T10:30:28Z</time>
      </trkpt>
      <trkpt lat="56.95306925196" lon="14.870275564935">
        <ele>215.4</ele>
        <time>2020-02-09T10:30:35Z</time>
      </trkpt>
      <trkpt lat="56.952988618082" lon="14.870214460884">
        <ele>215.6</ele>
        <time>2020-02-09T10:30:36Z</time>
      </trkpt>
      <trkpt lat="56.952462989133" lon="14.86977977555">
        <ele>216.6</ele>
        <time>2020-02-09T10:30:44Z</time>
      </trkpt>
      <trkpt lat="56.952293255658" lon="14.869655555792">
        <ele>216.8</ele>
        <time>2020-02-09T10:30:47Z</time>
      </trkpt>
      <trkpt lat="56.95206258577" lon="14.869366883156">
        <ele>217.8</ele>
        <time>2020-02-09T10:30:52Z</time>
      </trkpt>
      <trkpt lat="56.951572663715" lon="14.86880663696">
        <ele>217.8</ele>
        <time>2020-02-09T10:31:02Z</time>
      </trkpt>
      <trkpt lat="56.951383400413" lon="14.868542104196">
        <ele>218.8</ele>
        <time>2020-02-09T10:31:06Z</time>
      </trkpt>
      <trkpt lat="56.951177373311" lon="14.868261562003">
        <ele>217.8</ele>
        <time>2020-02-09T10:31:10Z</time>
      </trkpt>
      <trkpt lat="56.951067318964" lon="14.868120494626">
        <ele>216.6</ele>
        <time>2020-02-09T10:31:12Z</time>
      </trkpt>
      <trkpt lat="56.950606482102" lon="14.867551950349">
        <ele>215.2</ele>
        <time>2020-02-09T10:31:20Z</time>
      </trkpt>
      <trkpt lat="56.950297022354" lon="14.867153558642">
        <ele>214.2</ele>
        <time>2020-02-09T10:31:25Z</time>
      </trkpt>
      <trkpt lat="56.950170371845" lon="14.866995476008">
        <ele>213.2</ele>
        <time>2020-02-09T10:31:27Z</time>
      </trkpt>
      <trkpt lat="56.949995357773" lon="14.866773355658">
        <ele>212.2</ele>
        <time>2020-02-09T10:31:30Z</time>
      </trkpt>
      <trkpt lat="56.94966703875" lon="14.866292318417">
        <ele>212.8</ele>
        <time>2020-02-09T10:31:36Z</time>
      </trkpt>
      <trkpt lat="56.94927476583" lon="14.865483716524">
        <ele>212.2</ele>
        <time>2020-02-09T10:31:45Z</time>
      </trkpt>
      <trkpt lat="56.949126825295" lon="14.864964793095">
        <ele>213.2</ele>
        <time>2020-02-09T10:31:50Z</time>
      </trkpt>
      <trkpt lat="56.949020291346" lon="14.864292480896">
        <ele>214.4</ele>
        <time>2020-02-09T10:31:56Z</time>
      </trkpt>
      <trkpt lat="56.948962037141" lon="14.863839606839">
        <ele>215</ele>
        <time>2020-02-09T10:32:00Z</time>
      </trkpt>
      <trkpt lat="56.948934544509" lon="14.863609356046">
        <ele>215</ele>
        <time>2020-02-09T10:32:02Z</time>
      </trkpt>
      <trkpt lat="56.948904621126" lon="14.863393186845">
        <ele>214.6</ele>
        <time>2020-02-09T10:32:04Z</time>
      </trkpt>
      <trkpt lat="56.948892467371" lon="14.863172239961">
        <ele>214.6</ele>
        <time>2020-02-09T10:32:07Z</time>
      </trkpt>
      <trkpt lat="56.948885091299" lon="14.862914915631">
        <ele>215.4</ele>
        <time>2020-02-09T10:32:10Z</time>
      </trkpt>
      <trkpt lat="56.948881989996" lon="14.862672343445">
        <ele>216.4</ele>
        <time>2020-02-09T10:32:13Z</time>
      </trkpt>
      <trkpt lat="56.94882633418" lon="14.862208656737">
        <ele>216.8</ele>
        <time>2020-02-09T10:32:19Z</time>
      </trkpt>
      <trkpt lat="56.948771265097" lon="14.861586719757">
        <ele>216.4</ele>
        <time>2020-02-09T10:32:24Z</time>
      </trkpt>
      <trkpt lat="56.948619217431" lon="14.860833103128">
        <ele>217.6</ele>
        <time>2020-02-09T10:32:31Z</time>
      </trkpt>
      <trkpt lat="56.948442610798" lon="14.860354915733">
        <ele>218.8</ele>
        <time>2020-02-09T10:32:36Z</time>
      </trkpt>
      <trkpt lat="56.948409250836" lon="14.860276461149">
        <ele>219</ele>
        <time>2020-02-09T10:32:37Z</time>
      </trkpt>
      <trkpt lat="56.948108592083" lon="14.859710347623">
        <ele>219.4</ele>
        <time>2020-02-09T10:32:44Z</time>
      </trkpt>
      <trkpt lat="56.947623196254" lon="14.859123614623">
        <ele>219.8</ele>
        <time>2020-02-09T10:32:53Z</time>
      </trkpt>
      <trkpt lat="56.947572988673" lon="14.85906854554">
        <ele>220</ele>
        <time>2020-02-09T10:32:54Z</time>
      </trkpt>
      <trkpt lat="56.947294290498" lon="14.858747602589">
        <ele>220.2</ele>
        <time>2020-02-09T10:33:00Z</time>
      </trkpt>
      <trkpt lat="56.947135285855" lon="14.858484830024">
        <ele>219.8</ele>
        <time>2020-02-09T10:33:04Z</time>
      </trkpt>
      <trkpt lat="56.947042498222" lon="14.858381900292">
        <ele>219.8</ele>
        <time>2020-02-09T10:33:06Z</time>
      </trkpt>
      <trkpt lat="56.946888355081" lon="14.858189954782">
        <ele>219.2</ele>
        <time>2020-02-09T10:33:11Z</time>
      </trkpt>
      <trkpt lat="56.946696661028" lon="14.858022987334">
        <ele>219.4</ele>
        <time>2020-02-09T10:33:16Z</time>
      </trkpt>
      <trkpt lat="56.94663111457" lon="14.857873035143">
        <ele>219.8</ele>
        <time>2020-02-09T10:33:18Z</time>
      </trkpt>
      <trkpt lat="56.946156447573" lon="14.857772033248">
        <ele>218.4</ele>
        <time>2020-02-09T10:33:26Z</time>
      </trkpt>
      <trkpt lat="56.946103306327" lon="14.857791898351">
        <ele>217.8</ele>
        <time>2020-02-09T10:33:27Z</time>
      </trkpt>
      <trkpt lat="56.945989228668" lon="14.857831293281">
        <ele>217.2</ele>
        <time>2020-02-09T10:33:29Z</time>
      </trkpt>
      <trkpt lat="56.9458239376" lon="14.85791016696">
        <ele>217.2</ele>
        <time>2020-02-09T10:33:32Z</time>
      </trkpt>
      <trkpt lat="56.94542831192" lon="14.857953585202">
        <ele>217.8</ele>
        <time>2020-02-09T10:33:39Z</time>
      </trkpt>
      <trkpt lat="56.945306522913" lon="14.857988453906">
        <ele>217.8</ele>
        <time>2020-02-09T10:33:41Z</time>
      </trkpt>
      <trkpt lat="56.944857839806" lon="14.857956937962">
        <ele>216.2</ele>
        <time>2020-02-09T10:33:48Z</time>
      </trkpt>
      <trkpt lat="56.944574783043" lon="14.857901533603">
        <ele>215</ele>
        <time>2020-02-09T10:33:52Z</time>
      </trkpt>
      <trkpt lat="56.944425920499" lon="14.857943443103">
        <ele>214.4</ele>
        <time>2020-02-09T10:33:54Z</time>
      </trkpt>
      <trkpt lat="56.943968101121" lon="14.858246113512">
        <ele>214.2</ele>
        <time>2020-02-09T10:34:00Z</time>
      </trkpt>
      <trkpt lat="56.943406765278" lon="14.858356251678">
        <ele>214</ele>
        <time>2020-02-09T10:34:05Z</time>
      </trkpt>
      <trkpt lat="56.942868898755" lon="14.858561943504">
        <ele>214.4</ele>
        <time>2020-02-09T10:34:11Z</time>
      </trkpt>
      <trkpt lat="56.942507303589" lon="14.858825805716">
        <ele>213.8</ele>
        <time>2020-02-09T10:34:16Z</time>
      </trkpt>
      <trkpt lat="56.942190886864" lon="14.8591724811">
        <ele>212.6</ele>
        <time>2020-02-09T10:34:21Z</time>
      </trkpt>
      <trkpt lat="56.941940854787" lon="14.85947925864">
        <ele>211.4</ele>
        <time>2020-02-09T10:34:25Z</time>
      </trkpt>
      <trkpt lat="56.941787885112" lon="14.859618565818">
        <ele>210.2</ele>
        <time>2020-02-09T10:34:27Z</time>
      </trkpt>
      <trkpt lat="56.941579091983" lon="14.859868262619">
        <ele>209</ele>
        <time>2020-02-09T10:34:30Z</time>
      </trkpt>
      <trkpt lat="56.941423188643" lon="14.860027015805">
        <ele>207.8</ele>
        <time>2020-02-09T10:34:32Z</time>
      </trkpt>
      <trkpt lat="56.941183633941" lon="14.860297751175">
        <ele>206.6</ele>
        <time>2020-02-09T10:34:35Z</time>
      </trkpt>
      <trkpt lat="56.940879035695" lon="14.860688515353">
        <ele>205.8</ele>
        <time>2020-02-09T10:34:40Z</time>
      </trkpt>
      <trkpt lat="56.940811226124" lon="14.860784069013">
        <ele>205.4</ele>
        <time>2020-02-09T10:34:41Z</time>
      </trkpt>
      <trkpt lat="56.940575024182" lon="14.861077184056">
        <ele>204.2</ele>
        <time>2020-02-09T10:34:45Z</time>
      </trkpt>
      <trkpt lat="56.940521296203" lon="14.861147759654">
        <ele>204</ele>
        <time>2020-02-09T10:34:46Z</time>
      </trkpt>
      <trkpt lat="56.940296242188" lon="14.861393852238">
        <ele>203.6</ele>
        <time>2020-02-09T10:34:49Z</time>
      </trkpt>
      <trkpt lat="56.939952919564" lon="14.861637933166">
        <ele>202.8</ele>
        <time>2020-02-09T10:34:51Z</time>
      </trkpt>
      <trkpt lat="56.93965318282" lon="14.861930712933">
        <ele>201.8</ele>
        <time>2020-02-09T10:34:54Z</time>
      </trkpt>
      <trkpt lat="56.939301059201" lon="14.862253332264">
        <ele>201.4</ele>
        <time>2020-02-09T10:34:58Z</time>
      </trkpt>
      <trkpt lat="56.93888791535" lon="14.862458353538">
        <ele>200.6</ele>
        <time>2020-02-09T10:35:03Z</time>
      </trkpt>
      <trkpt lat="56.938724300662" lon="14.862496407364">
        <ele>199.2</ele>
        <time>2020-02-09T10:35:05Z</time>
      </trkpt>
      <trkpt lat="56.938488266358" lon="14.862486432903">
        <ele>198</ele>
        <time>2020-02-09T10:35:08Z</time>
      </trkpt>
      <trkpt lat="56.937863060437" lon="14.862365649724">
        <ele>197.6</ele>
        <time>2020-02-09T10:35:14Z</time>
      </trkpt>
      <trkpt lat="56.937703971975" lon="14.862259451051">
        <ele>197</ele>
        <time>2020-02-09T10:35:16Z</time>
      </trkpt>
      <trkpt lat="56.93746215416" lon="14.86209022049">
        <ele>196</ele>
        <time>2020-02-09T10:35:19Z</time>
      </trkpt>
      <trkpt lat="56.937141295028" lon="14.861748406608">
        <ele>197.2</ele>
        <time>2020-02-09T10:35:24Z</time>
      </trkpt>
      <trkpt lat="56.937082202633" lon="14.861663330323">
        <ele>197.4</ele>
        <time>2020-02-09T10:35:25Z</time>
      </trkpt>
      <trkpt lat="56.93694163817" lon="14.861476162496">
        <ele>198</ele>
        <time>2020-02-09T10:35:27Z</time>
      </trkpt>
      <trkpt lat="56.936892268779" lon="14.861374741506">
        <ele>198.6</ele>
        <time>2020-02-09T10:35:28Z</time>
      </trkpt>
      <trkpt lat="56.936739802018" lon="14.861049691424">
        <ele>199.6</ele>
        <time>2020-02-09T10:35:31Z</time>
      </trkpt>
      <trkpt lat="56.936329088918" lon="14.86050939415">
        <ele>200.8</ele>
        <time>2020-02-09T10:35:37Z</time>
      </trkpt>
      <trkpt lat="56.935864815477" lon="14.859855019217">
        <ele>200.4</ele>
        <time>2020-02-09T10:35:44Z</time>
      </trkpt>
      <trkpt lat="56.93573883552" lon="14.859702636275">
        <ele>200.4</ele>
        <time>2020-02-09T10:35:46Z</time>
      </trkpt>
      <trkpt lat="56.935237849357" lon="14.859070473377">
        <ele>201.6</ele>
        <time>2020-02-09T10:35:54Z</time>
      </trkpt>
      <trkpt lat="56.935180349523" lon="14.858983217798">
        <ele>201.8</ele>
        <time>2020-02-09T10:35:55Z</time>
      </trkpt>
      <trkpt lat="56.934736276461" lon="14.858231445187">
        <ele>202.4</ele>
        <time>2020-02-09T10:36:03Z</time>
      </trkpt>
      <trkpt lat="56.934613649264" lon="14.857771614153">
        <ele>201.8</ele>
        <time>2020-02-09T10:36:07Z</time>
      </trkpt>
      <trkpt lat="56.934543325123" lon="14.857426866606">
        <ele>201.4</ele>
        <time>2020-02-09T10:36:10Z</time>
      </trkpt>
      <trkpt lat="56.93421165334" lon="14.856586329674">
        <ele>202.6</ele>
        <time>2020-02-09T10:36:19Z</time>
      </trkpt>
      <trkpt lat="56.93416136194" lon="14.856499912285">
        <ele>203</ele>
        <time>2020-02-09T10:36:20Z</time>
      </trkpt>
      <trkpt lat="56.933822062628" lon="14.85592449485">
        <ele>203.6</ele>
        <time>2020-02-09T10:36:27Z</time>
      </trkpt>
      <trkpt lat="56.933291069263" lon="14.855442032686">
        <ele>202.4</ele>
        <time>2020-02-09T10:36:36Z</time>
      </trkpt>
      <trkpt lat="56.932817911008" lon="14.855088567963">
        <ele>201.8</ele>
        <time>2020-02-09T10:36:43Z</time>
      </trkpt>
      <trkpt lat="56.932760830269" lon="14.855037522192">
        <ele>201.8</ele>
        <time>2020-02-09T10:36:44Z</time>
      </trkpt>
      <trkpt lat="56.932642729298" lon="14.854943896369">
        <ele>201.4</ele>
        <time>2020-02-09T10:36:46Z</time>
      </trkpt>
      <trkpt lat="56.932126823353" lon="14.8546630189">
        <ele>201.8</ele>
        <time>2020-02-09T10:36:54Z</time>
      </trkpt>
      <trkpt lat="56.931584262966" lon="14.854395217195">
        <ele>202.2</ele>
        <time>2020-02-09T10:37:02Z</time>
      </trkpt>
      <trkpt lat="56.931150415822" lon="14.854315924421">
        <ele>202.8</ele>
        <time>2020-02-09T10:37:08Z</time>
      </trkpt>
      <trkpt lat="56.931001888554" lon="14.854322462303">
        <ele>203</ele>
        <time>2020-02-09T10:37:10Z</time>
      </trkpt>
      <trkpt lat="56.930663762708" lon="14.85437049059">
        <ele>202.8</ele>
        <time>2020-02-09T10:37:15Z</time>
      </trkpt>
      <trkpt lat="56.930255061264" lon="14.85448113167">
        <ele>203.2</ele>
        <time>2020-02-09T10:37:21Z</time>
      </trkpt>
      <trkpt lat="56.929762037906" lon="14.85461859483">
        <ele>201.8</ele>
        <time>2020-02-09T10:37:28Z</time>
      </trkpt>
      <trkpt lat="56.929435395263" lon="14.854692020274">
        <ele>200.8</ele>
        <time>2020-02-09T10:37:32Z</time>
      </trkpt>
      <trkpt lat="56.929210089791" lon="14.854754968343">
        <ele>199.6</ele>
        <time>2020-02-09T10:37:35Z</time>
      </trkpt>
      <trkpt lat="56.928917812938" lon="14.8548390388">
        <ele>198.6</ele>
        <time>2020-02-09T10:37:40Z</time>
      </trkpt>
      <trkpt lat="56.928348681928" lon="14.855001731479">
        <ele>198.8</ele>
        <time>2020-02-09T10:37:48Z</time>
      </trkpt>
      <trkpt lat="56.927809641939" lon="14.855178170474">
        <ele>199</ele>
        <time>2020-02-09T10:37:55Z</time>
      </trkpt>
      <trkpt lat="56.927675866815" lon="14.855223097458">
        <ele>199.4</ele>
        <time>2020-02-09T10:37:57Z</time>
      </trkpt>
      <trkpt lat="56.927141688328" lon="14.855425939438">
        <ele>199.6</ele>
        <time>2020-02-09T10:38:05Z</time>
      </trkpt>
      <trkpt lat="56.926857709556" lon="14.855506992411">
        <ele>199.6</ele>
        <time>2020-02-09T10:38:09Z</time>
      </trkpt>
      <trkpt lat="56.926371726994" lon="14.855613191084">
        <ele>198.6</ele>
        <time>2020-02-09T10:38:16Z</time>
      </trkpt>
      <trkpt lat="56.925903849336" lon="14.855767334225">
        <ele>197.6</ele>
        <time>2020-02-09T10:38:22Z</time>
      </trkpt>
      <trkpt lat="56.925381992242" lon="14.856028933324">
        <ele>198.8</ele>
        <time>2020-02-09T10:38:30Z</time>
      </trkpt>
      <trkpt lat="56.925214018966" lon="14.856064221123">
        <ele>199.6</ele>
        <time>2020-02-09T10:38:33Z</time>
      </trkpt>
      <trkpt lat="56.925161464453" lon="14.85599741738">
        <ele>200</ele>
        <time>2020-02-09T10:38:35Z</time>
      </trkpt>
      <trkpt lat="56.924751505724" lon="14.855403392127">
        <ele>200.2</ele>
        <time>2020-02-09T10:38:49Z</time>
      </trkpt>
      <trkpt lat="56.924661148842" lon="14.855402134842">
        <ele>201.2</ele>
        <time>2020-02-09T10:38:51Z</time>
      </trkpt>
      <trkpt lat="56.924359987175" lon="14.855473297173">
        <ele>202.2</ele>
        <time>2020-02-09T10:38:57Z</time>
      </trkpt>
      <trkpt lat="56.923795298572" lon="14.855620567156">
        <ele>201.2</ele>
        <time>2020-02-09T10:39:07Z</time>
      </trkpt>
      <trkpt lat="56.923249469244" lon="14.855827013353">
        <ele>202.2</ele>
        <time>2020-02-09T10:39:16Z</time>
      </trkpt>
      <trkpt lat="56.922684445365" lon="14.855991969145">
        <ele>202.2</ele>
        <time>2020-02-09T10:39:26Z</time>
      </trkpt>
      <trkpt lat="56.922144734824" lon="14.856164887742">
        <ele>201.8</ele>
        <time>2020-02-09T10:39:35Z</time>
      </trkpt>
      <trkpt lat="56.921631343449" lon="14.856300339246">
        <ele>202.2</ele>
        <time>2020-02-09T10:39:43Z</time>
      </trkpt>
      <trkpt lat="56.921333115447" lon="14.856392372508">
        <ele>201</ele>
        <time>2020-02-09T10:39:48Z</time>
      </trkpt>
      <trkpt lat="56.92103949749" lon="14.856400502951">
        <ele>200</ele>
        <time>2020-02-09T10:39:53Z</time>
      </trkpt>
      <trkpt lat="56.920547731417" lon="14.856219621549">
        <ele>198.6</ele>
        <time>2020-02-09T10:40:00Z</time>
      </trkpt>
      <trkpt lat="56.920069544022" lon="14.856093725411">
        <ele>197.6</ele>
        <time>2020-02-09T10:40:07Z</time>
      </trkpt>
      <trkpt lat="56.919929985387" lon="14.856094563601">
        <ele>197.4</ele>
        <time>2020-02-09T10:40:09Z</time>
      </trkpt>
      <trkpt lat="56.919335121944" lon="14.856242671774">
        <ele>197.4</ele>
        <time>2020-02-09T10:40:18Z</time>
      </trkpt>
      <trkpt lat="56.91908400022" lon="14.856373597052">
        <ele>196.4</ele>
        <time>2020-02-09T10:40:22Z</time>
      </trkpt>
      <trkpt lat="56.918778815241" lon="14.856587922235">
        <ele>197.4</ele>
        <time>2020-02-09T10:40:27Z</time>
      </trkpt>
      <trkpt lat="56.918305656986" lon="14.857142133463">
        <ele>197.8</ele>
        <time>2020-02-09T10:40:36Z</time>
      </trkpt>
      <trkpt lat="56.918255533224" lon="14.857324020693">
        <ele>198.4</ele>
        <time>2020-02-09T10:40:38Z</time>
      </trkpt>
      <trkpt lat="56.918243966202" lon="14.85742234038">
        <ele>198.6</ele>
        <time>2020-02-09T10:40:39Z</time>
      </trkpt>
      <trkpt lat="56.91824078108" lon="14.857525856845">
        <ele>198.8</ele>
        <time>2020-02-09T10:40:40Z</time>
      </trkpt>
      <trkpt lat="56.91823239918" lon="14.8578146133">
        <ele>199.8</ele>
        <time>2020-02-09T10:40:43Z</time>
      </trkpt>
      <trkpt lat="56.918218904321" lon="14.857902287974">
        <ele>200.4</ele>
        <time>2020-02-09T10:40:44Z</time>
      </trkpt>
      <trkpt lat="56.91819468063" lon="14.857972528296">
        <ele>201</ele>
        <time>2020-02-09T10:40:45Z</time>
      </trkpt>
      <trkpt lat="56.918148077266" lon="14.858026843008">
        <ele>201.4</ele>
        <time>2020-02-09T10:40:46Z</time>
      </trkpt>
      <trkpt lat="56.917961077077" lon="14.858113930949">
        <ele>201.6</ele>
        <time>2020-02-09T10:40:49Z</time>
      </trkpt>
      <trkpt lat="56.91781833332" lon="14.85808534867">
        <ele>201</ele>
        <time>2020-02-09T10:40:51Z</time>
      </trkpt>
      <trkpt lat="56.917616664806" lon="14.857978395626">
        <ele>199.8</ele>
        <time>2020-02-09T10:40:54Z</time>
      </trkpt>
      <trkpt lat="56.917500407853" lon="14.857901449784">
        <ele>198.6</ele>
        <time>2020-02-09T10:40:56Z</time>
      </trkpt>
      <trkpt lat="56.9173841509" lon="14.857824923037">
        <ele>196.8</ele>
        <time>2020-02-09T10:40:58Z</time>
      </trkpt>
      <trkpt lat="56.917327489256" lon="14.857767087927">
        <ele>196.4</ele>
        <time>2020-02-09T10:40:59Z</time>
      </trkpt>
      <trkpt lat="56.916816528632" lon="14.857251936353">
        <ele>196.4</ele>
        <time>2020-02-09T10:41:08Z</time>
      </trkpt>
      <trkpt lat="56.91635066263" lon="14.856848515506">
        <ele>197.2</ele>
        <time>2020-02-09T10:41:16Z</time>
      </trkpt>
      <trkpt lat="56.916114963602" lon="14.856541486509">
        <ele>197.4</ele>
        <time>2020-02-09T10:41:21Z</time>
      </trkpt>
      <trkpt lat="56.915807850786" lon="14.856025496745">
        <ele>198</ele>
        <time>2020-02-09T10:41:28Z</time>
      </trkpt>
      <trkpt lat="56.915647085944" lon="14.855721988146">
        <ele>199</ele>
        <time>2020-02-09T10:41:32Z</time>
      </trkpt>
      <trkpt lat="56.915450781846" lon="14.855348406863">
        <ele>200.2</ele>
        <time>2020-02-09T10:41:37Z</time>
      </trkpt>
      <trkpt lat="56.915302589854" lon="14.854996450882">
        <ele>201.2</ele>
        <time>2020-02-09T10:41:42Z</time>
      </trkpt>
      <trkpt lat="56.915248358961" lon="14.854852198383">
        <ele>202.2</ele>
        <time>2020-02-09T10:41:44Z</time>
      </trkpt>
      <trkpt lat="56.914973432641" lon="14.854149124611">
        <ele>201.6</ele>
        <time>2020-02-09T10:41:52Z</time>
      </trkpt>
      <trkpt lat="56.914907383269" lon="14.853932284858">
        <ele>201.2</ele>
        <time>2020-02-09T10:41:54Z</time>
      </trkpt>
      <trkpt lat="56.914821971708" lon="14.853578317221">
        <ele>200.2</ele>
        <time>2020-02-09T10:41:57Z</time>
      </trkpt>
      <trkpt lat="56.914725496039" lon="14.853110523382">
        <ele>199.2</ele>
        <time>2020-02-09T10:42:01Z</time>
      </trkpt>
      <trkpt lat="56.914499520015" lon="14.852323211515">
        <ele>199</ele>
        <time>2020-02-09T10:42:08Z</time>
      </trkpt>
      <trkpt lat="56.914455431221" lon="14.852079884958">
        <ele>199</ele>
        <time>2020-02-09T10:42:10Z</time>
      </trkpt>
      <trkpt lat="56.914454509212" lon="14.851824991379">
        <ele>198.8</ele>
        <time>2020-02-09T10:42:12Z</time>
      </trkpt>
      <trkpt lat="56.91450245368" lon="14.851570181619">
        <ele>198.6</ele>
        <time>2020-02-09T10:42:14Z</time>
      </trkpt>
      <trkpt lat="56.914590295992" lon="14.851219399104">
        <ele>198.2</ele>
        <time>2020-02-09T10:42:17Z</time>
      </trkpt>
      <trkpt lat="56.914622231031" lon="14.850991243786">
        <ele>198.6</ele>
        <time>2020-02-09T10:42:19Z</time>
      </trkpt>
      <trkpt lat="56.91463237313" lon="14.850762837011">
        <ele>199.2</ele>
        <time>2020-02-09T10:42:21Z</time>
      </trkpt>
      <trkpt lat="56.914611669837" lon="14.850534346417">
        <ele>200</ele>
        <time>2020-02-09T10:42:23Z</time>
      </trkpt>
      <trkpt lat="56.914589373983" lon="14.850421945138">
        <ele>200.2</ele>
        <time>2020-02-09T10:42:24Z</time>
      </trkpt>
      <trkpt lat="56.914563809188" lon="14.850314992094">
        <ele>200.4</ele>
        <time>2020-02-09T10:42:25Z</time>
      </trkpt>
      <trkpt lat="56.914497508359" lon="14.850112653028">
        <ele>200</ele>
        <time>2020-02-09T10:42:27Z</time>
      </trkpt>
      <trkpt lat="56.914418969956" lon="14.849933028911">
        <ele>199.2</ele>
        <time>2020-02-09T10:42:29Z</time>
      </trkpt>
      <trkpt lat="56.914143121627" lon="14.84906307151">
        <ele>200.2</ele>
        <time>2020-02-09T10:42:38Z</time>
      </trkpt>
      <trkpt lat="56.914023595733" lon="14.848012903259">
        <ele>201</ele>
        <time>2020-02-09T10:42:48Z</time>
      </trkpt>
      <trkpt lat="56.914026194122" lon="14.847896897763">
        <ele>201.2</ele>
        <time>2020-02-09T10:42:49Z</time>
      </trkpt>
      <trkpt lat="56.914057123333" lon="14.846889141926">
        <ele>201</ele>
        <time>2020-02-09T10:42:57Z</time>
      </trkpt>
      <trkpt lat="56.914103223783" lon="14.846319424183">
        <ele>200.2</ele>
        <time>2020-02-09T10:43:01Z</time>
      </trkpt>
      <trkpt lat="56.914142702532" lon="14.845917595897">
        <ele>199.2</ele>
        <time>2020-02-09T10:43:04Z</time>
      </trkpt>
      <trkpt lat="56.914149408052" lon="14.845792873225">
        <ele>199</ele>
        <time>2020-02-09T10:43:05Z</time>
      </trkpt>
      <trkpt lat="56.914142786351" lon="14.845549043754">
        <ele>199.2</ele>
        <time>2020-02-09T10:43:07Z</time>
      </trkpt>
      <trkpt lat="56.914098110824" lon="14.845239751644">
        <ele>200.4</ele>
        <time>2020-02-09T10:43:10Z</time>
      </trkpt>
      <trkpt lat="56.914092662589" lon="14.845158028119">
        <ele>200.6</ele>
        <time>2020-02-09T10:43:11Z</time>
      </trkpt>
      <trkpt lat="56.914183857661" lon="14.844601721416">
        <ele>201</ele>
        <time>2020-02-09T10:43:17Z</time>
      </trkpt>
      <trkpt lat="56.914223168772" lon="14.844424695688">
        <ele>201</ele>
        <time>2020-02-09T10:43:19Z</time>
      </trkpt>
      <trkpt lat="56.914334731861" lon="14.843928487208">
        <ele>201.4</ele>
        <time>2020-02-09T10:43:24Z</time>
      </trkpt>
      <trkpt lat="56.914379742664" lon="14.843665547005">
        <ele>202.4</ele>
        <time>2020-02-09T10:43:27Z</time>
      </trkpt>
      <trkpt lat="56.914402625251" lon="14.843573681381">
        <ele>202.6</ele>
        <time>2020-02-09T10:43:28Z</time>
      </trkpt>
      <trkpt lat="56.914445121484" lon="14.843374024523">
        <ele>202.8</ele>
        <time>2020-02-09T10:43:30Z</time>
      </trkpt>
      <trkpt lat="56.914492898314" lon="14.843108402112">
        <ele>204</ele>
        <time>2020-02-09T10:43:33Z</time>
      </trkpt>
      <trkpt lat="56.914518966023" lon="14.842954175152">
        <ele>204.2</ele>
        <time>2020-02-09T10:43:35Z</time>
      </trkpt>
      <trkpt lat="56.914554924374" lon="14.842680673755">
        <ele>203.8</ele>
        <time>2020-02-09T10:43:38Z</time>
      </trkpt>
      <trkpt lat="56.914612424208" lon="14.842399880105">
        <ele>203.6</ele>
        <time>2020-02-09T10:43:41Z</time>
      </trkpt>
      <trkpt lat="56.914705547117" lon="14.84203568655">
        <ele>204.4</ele>
        <time>2020-02-09T10:43:45Z</time>
      </trkpt>
      <trkpt lat="56.914943090163" lon="14.841003120289">
        <ele>204.6</ele>
        <time>2020-02-09T10:43:54Z</time>
      </trkpt>
      <trkpt lat="56.914968235863" lon="14.840882504748">
        <ele>204.4</ele>
        <time>2020-02-09T10:43:55Z</time>
      </trkpt>
      <trkpt lat="56.915188009281" lon="14.839939121903">
        <ele>204.4</ele>
        <time>2020-02-09T10:44:04Z</time>
      </trkpt>
      <trkpt lat="56.915306864623" lon="14.839279969287">
        <ele>203.8</ele>
        <time>2020-02-09T10:44:12Z</time>
      </trkpt>
      <trkpt lat="56.915430832924" lon="14.838768002835">
        <ele>203</ele>
        <time>2020-02-09T10:44:17Z</time>
      </trkpt>
      <trkpt lat="56.915616324371" lon="14.837835600279">
        <ele>202.4</ele>
        <time>2020-02-09T10:44:25Z</time>
      </trkpt>
      <trkpt lat="56.915827464432" lon="14.837000176306">
        <ele>201.8</ele>
        <time>2020-02-09T10:44:32Z</time>
      </trkpt>
      <trkpt lat="56.915925113567" lon="14.836203141435">
        <ele>202.2</ele>
        <time>2020-02-09T10:44:39Z</time>
      </trkpt>
      <trkpt lat="56.915941961186" lon="14.83600407131">
        <ele>202.6</ele>
        <time>2020-02-09T10:44:41Z</time>
      </trkpt>
      <trkpt lat="56.915958305891" lon="14.835915055532">
        <ele>203</ele>
        <time>2020-02-09T10:44:42Z</time>
      </trkpt>
      <trkpt lat="56.915987139627" lon="14.835695952666">
        <ele>203.2</ele>
        <time>2020-02-09T10:44:44Z</time>
      </trkpt>
      <trkpt lat="56.916005915083" lon="14.835422032174">
        <ele>203.4</ele>
        <time>2020-02-09T10:44:47Z</time>
      </trkpt>
      <trkpt lat="56.91600449016" lon="14.835243246247">
        <ele>203.4</ele>
        <time>2020-02-09T10:44:49Z</time>
      </trkpt>
      <trkpt lat="56.915979093003" lon="14.835026071218">
        <ele>203.6</ele>
        <time>2020-02-09T10:44:51Z</time>
      </trkpt>
      <trkpt lat="56.915917653676" lon="14.834444283539">
        <ele>203.6</ele>
        <time>2020-02-09T10:44:56Z</time>
      </trkpt>
      <trkpt lat="56.915830314278" lon="14.833993588776">
        <ele>204</ele>
        <time>2020-02-09T10:45:00Z</time>
      </trkpt>
      <trkpt lat="56.915806425863" lon="14.833887557741">
        <ele>204.2</ele>
        <time>2020-02-09T10:45:01Z</time>
      </trkpt>
      <trkpt lat="56.915754458083" lon="14.833673819291">
        <ele>204.6</ele>
        <time>2020-02-09T10:45:03Z</time>
      </trkpt>
      <trkpt lat="56.915721768673" lon="14.83347944303">
        <ele>205</ele>
        <time>2020-02-09T10:45:05Z</time>
      </trkpt>
      <trkpt lat="56.915534097932" lon="14.83246355675">
        <ele>205.4</ele>
        <time>2020-02-09T10:45:14Z</time>
      </trkpt>
      <trkpt lat="56.915515154838" lon="14.831950416832">
        <ele>205</ele>
        <time>2020-02-09T10:45:18Z</time>
      </trkpt>
      <trkpt lat="56.915501157065" lon="14.831706419723">
        <ele>204.6</ele>
        <time>2020-02-09T10:45:20Z</time>
      </trkpt>
      <trkpt lat="56.915517585589" lon="14.831040813044">
        <ele>205.2</ele>
        <time>2020-02-09T10:45:26Z</time>
      </trkpt>
      <trkpt lat="56.915544910583" lon="14.830787512026">
        <ele>205.8</ele>
        <time>2020-02-09T10:45:28Z</time>
      </trkpt>
      <trkpt lat="56.91561137905" lon="14.830183512312">
        <ele>205.2</ele>
        <time>2020-02-09T10:45:33Z</time>
      </trkpt>
      <trkpt lat="56.915667789237" lon="14.82951648071">
        <ele>204.8</ele>
        <time>2020-02-09T10:45:39Z</time>
      </trkpt>
      <trkpt lat="56.915724450881" lon="14.829314057825">
        <ele>204.8</ele>
        <time>2020-02-09T10:45:41Z</time>
      </trkpt>
      <trkpt lat="56.915791757538" lon="14.829144994902">
        <ele>204.6</ele>
        <time>2020-02-09T10:45:43Z</time>
      </trkpt>
      <trkpt lat="56.915954031122" lon="14.828763702271">
        <ele>205.4</ele>
        <time>2020-02-09T10:45:48Z</time>
      </trkpt>
      <trkpt lat="56.916076406862" lon="14.828627831672">
        <ele>205.4</ele>
        <time>2020-02-09T10:45:51Z</time>
      </trkpt>
      <trkpt lat="56.916475972035" lon="14.827849991352">
        <ele>204.4</ele>
        <time>2020-02-09T10:46:00Z</time>
      </trkpt>
      <trkpt lat="56.916819629935" lon="14.827028565152">
        <ele>204.2</ele>
        <time>2020-02-09T10:46:07Z</time>
      </trkpt>
      <trkpt lat="56.91716538331" lon="14.826213593015">
        <ele>204.6</ele>
        <time>2020-02-09T10:46:14Z</time>
      </trkpt>
      <trkpt lat="56.91737493081" lon="14.825764909908">
        <ele>204</ele>
        <time>2020-02-09T10:46:18Z</time>
      </trkpt>
      <trkpt lat="56.917736274519" lon="14.824872321377">
        <ele>204.4</ele>
        <time>2020-02-09T10:46:27Z</time>
      </trkpt>
      <trkpt lat="56.917859572268" lon="14.824565795294">
        <ele>205</ele>
        <time>2020-02-09T10:46:30Z</time>
      </trkpt>
      <trkpt lat="56.918226867126" lon="14.823722659973">
        <ele>205.8</ele>
        <time>2020-02-09T10:46:39Z</time>
      </trkpt>
      <trkpt lat="56.918289312281" lon="14.823560554027">
        <ele>206</ele>
        <time>2020-02-09T10:46:41Z</time>
      </trkpt>
      <trkpt lat="56.918610087594" lon="14.822725046235">
        <ele>206</ele>
        <time>2020-02-09T10:46:50Z</time>
      </trkpt>
      <trkpt lat="56.918943100481" lon="14.821900937827">
        <ele>206</ele>
        <time>2020-02-09T10:46:58Z</time>
      </trkpt>
      <trkpt lat="56.919295727014" lon="14.821069704804">
        <ele>206</ele>
        <time>2020-02-09T10:47:07Z</time>
      </trkpt>
      <trkpt lat="56.919568138764" lon="14.82039864989">
        <ele>206.2</ele>
        <time>2020-02-09T10:47:14Z</time>
      </trkpt>
      <trkpt lat="56.919712391263" lon="14.820002018382">
        <ele>206.2</ele>
        <time>2020-02-09T10:47:18Z</time>
      </trkpt>
      <trkpt lat="56.919816494461" lon="14.819693480643">
        <ele>206</ele>
        <time>2020-02-09T10:47:21Z</time>
      </trkpt>
      <trkpt lat="56.919949682852" lon="14.819143460365">
        <ele>206</ele>
        <time>2020-02-09T10:47:26Z</time>
      </trkpt>
      <trkpt lat="56.920084463804" lon="14.818210638714">
        <ele>207.2</ele>
        <time>2020-02-09T10:47:35Z</time>
      </trkpt>
      <trkpt lat="56.920200636938" lon="14.817188130733">
        <ele>207.6</ele>
        <time>2020-02-09T10:47:45Z</time>
      </trkpt>
      <trkpt lat="56.920250173967" lon="14.816816393468">
        <ele>208.4</ele>
        <time>2020-02-09T10:47:49Z</time>
      </trkpt>
      <trkpt lat="56.920312116208" lon="14.816266205552">
        <ele>209.4</ele>
        <time>2020-02-09T10:47:58Z</time>
      </trkpt>
      <trkpt lat="56.920464582969" lon="14.816239467291">
        <ele>210.6</ele>
        <time>2020-02-09T10:48:03Z</time>
      </trkpt>
      <trkpt lat="56.921009909383" lon="14.81650190458">
        <ele>209.8</ele>
        <time>2020-02-09T10:48:16Z</time>
      </trkpt>
      <trkpt lat="56.921191880432" lon="14.816571055255">
        <ele>209.6</ele>
        <time>2020-02-09T10:48:20Z</time>
      </trkpt>
      <trkpt lat="56.921443672708" lon="14.816652611142">
        <ele>209.2</ele>
        <time>2020-02-09T10:48:25Z</time>
      </trkpt>
      <trkpt lat="56.921990424045" lon="14.816509615928">
        <ele>208.6</ele>
        <time>2020-02-09T10:48:35Z</time>
      </trkpt>
      <trkpt lat="56.922512951691" lon="14.816198647438">
        <ele>208.6</ele>
        <time>2020-02-09T10:48:44Z</time>
      </trkpt>
      <trkpt lat="56.922698024043" lon="14.816108290556">
        <ele>208.4</ele>
        <time>2020-02-09T10:48:47Z</time>
      </trkpt>
      <trkpt lat="56.923056937001" lon="14.816055736043">
        <ele>208.2</ele>
        <time>2020-02-09T10:48:53Z</time>
      </trkpt>
      <trkpt lat="56.923644089096" lon="14.816292021804">
        <ele>207.4</ele>
        <time>2020-02-09T10:49:02Z</time>
      </trkpt>
      <trkpt lat="56.923891774241" lon="14.816489750825">
        <ele>207.4</ele>
        <time>2020-02-09T10:49:06Z</time>
      </trkpt>
      <trkpt lat="56.924223948938" lon="14.816908342911">
        <ele>208.8</ele>
        <time>2020-02-09T10:49:13Z</time>
      </trkpt>
      <trkpt lat="56.924422851425" lon="14.817089056675">
        <ele>209.8</ele>
        <time>2020-02-09T10:49:17Z</time>
      </trkpt>
      <trkpt lat="56.924469790065" lon="14.81711462147">
        <ele>210</ele>
        <time>2020-02-09T10:49:18Z</time>
      </trkpt>
      <trkpt lat="56.924561320413" lon="14.817142030283">
        <ele>210.2</ele>
        <time>2020-02-09T10:49:20Z</time>
      </trkpt>
      <trkpt lat="56.925153836924" lon="14.817328862834">
        <ele>210.4</ele>
        <time>2020-02-09T10:49:31Z</time>
      </trkpt>
      <trkpt lat="56.925429182339" lon="14.817381584985">
        <ele>208.6</ele>
        <time>2020-02-09T10:49:34Z</time>
      </trkpt>
      <trkpt lat="56.925576033227" lon="14.817376723483">
        <ele>207.6</ele>
        <time>2020-02-09T10:49:36Z</time>
      </trkpt>
      <trkpt lat="56.925772169687" lon="14.817310171197">
        <ele>206.4</ele>
        <time>2020-02-09T10:49:39Z</time>
      </trkpt>
      <trkpt lat="56.925887672269" lon="14.81723280626">
        <ele>206.2</ele>
        <time>2020-02-09T10:49:41Z</time>
      </trkpt>
      <trkpt lat="56.926090849525" lon="14.817050416116">
        <ele>206.6</ele>
        <time>2020-02-09T10:49:44Z</time>
      </trkpt>
      <trkpt lat="56.926210794514" lon="14.816945726185">
        <ele>207.2</ele>
        <time>2020-02-09T10:49:46Z</time>
      </trkpt>
      <trkpt lat="56.926741033508" lon="14.816689742959">
        <ele>206</ele>
        <time>2020-02-09T10:49:54Z</time>
      </trkpt>
      <trkpt lat="56.927066418866" lon="14.816410290413">
        <ele>205.4</ele>
        <time>2020-02-09T10:49:59Z</time>
      </trkpt>
      <trkpt lat="56.927542594605" lon="14.815846188543">
        <ele>205.4</ele>
        <time>2020-02-09T10:50:07Z</time>
      </trkpt>
      <trkpt lat="56.927752058286" lon="14.815569082929">
        <ele>206.6</ele>
        <time>2020-02-09T10:50:11Z</time>
      </trkpt>
      <trkpt lat="56.927850126516" lon="14.815459950591">
        <ele>207.4</ele>
        <time>2020-02-09T10:50:13Z</time>
      </trkpt>
      <trkpt lat="56.927898490079" lon="14.815422734955">
        <ele>208</ele>
        <time>2020-02-09T10:50:14Z</time>
      </trkpt>
      <trkpt lat="56.927997815594" lon="14.815355093022">
        <ele>209.2</ele>
        <time>2020-02-09T10:50:16Z</time>
      </trkpt>
      <trkpt lat="56.928176350064" lon="14.815267921262">
        <ele>210.4</ele>
        <time>2020-02-09T10:50:19Z</time>
      </trkpt>
      <trkpt lat="56.928566946604" lon="14.815103887479">
        <ele>209</ele>
        <time>2020-02-09T10:50:25Z</time>
      </trkpt>
      <trkpt lat="56.92913389832" lon="14.814799624509">
        <ele>208.4</ele>
        <time>2020-02-09T10:50:34Z</time>
      </trkpt>
      <trkpt lat="56.929237247147" lon="14.814675907665">
        <ele>208.4</ele>
        <time>2020-02-09T10:50:36Z</time>
      </trkpt>
      <trkpt lat="56.929320563233" lon="14.814498714299">
        <ele>208.4</ele>
        <time>2020-02-09T10:50:38Z</time>
      </trkpt>
      <trkpt lat="56.929470934519" lon="14.814017677058">
        <ele>207.8</ele>
        <time>2020-02-09T10:50:42Z</time>
      </trkpt>
      <trkpt lat="56.929602949444" lon="14.813644431051">
        <ele>206.6</ele>
        <time>2020-02-09T10:50:45Z</time>
      </trkpt>
      <trkpt lat="56.929690540299" lon="14.81339808701">
        <ele>205.4</ele>
        <time>2020-02-09T10:50:47Z</time>
      </trkpt>
      <trkpt lat="56.929737646577" lon="14.813275459813">
        <ele>205</ele>
        <time>2020-02-09T10:50:48Z</time>
      </trkpt>
      <trkpt lat="56.930132936981" lon="14.81247021068">
        <ele>205.4</ele>
        <time>2020-02-09T10:50:56Z</time>
      </trkpt>
      <trkpt lat="56.930343909404" lon="14.812010295827">
        <ele>205.8</ele>
        <time>2020-02-09T10:51:01Z</time>
      </trkpt>
      <trkpt lat="56.930533256525" lon="14.811840310895">
        <ele>205.8</ele>
        <time>2020-02-09T10:51:04Z</time>
      </trkpt>
      <trkpt lat="56.930653452971" lon="14.811774177704">
        <ele>205.6</ele>
        <time>2020-02-09T10:51:06Z</time>
      </trkpt>
      <trkpt lat="56.930777169815" lon="14.811646940462">
        <ele>205.6</ele>
        <time>2020-02-09T10:51:08Z</time>
      </trkpt>
      <trkpt lat="56.931019406725" lon="14.811345275881">
        <ele>205.2</ele>
        <time>2020-02-09T10:51:12Z</time>
      </trkpt>
      <trkpt lat="56.931134322574" lon="14.811225666168">
        <ele>204.8</ele>
        <time>2020-02-09T10:51:14Z</time>
      </trkpt>
      <trkpt lat="56.93160404425" lon="14.810719986141">
        <ele>206.2</ele>
        <time>2020-02-09T10:51:22Z</time>
      </trkpt>
      <trkpt lat="56.932018529205" lon="14.810171139329">
        <ele>205.6</ele>
        <time>2020-02-09T10:51:29Z</time>
      </trkpt>
      <trkpt lat="56.932110059553" lon="14.809965447503">
        <ele>205.6</ele>
        <time>2020-02-09T10:51:31Z</time>
      </trkpt>
      <trkpt lat="56.932464278647" lon="14.809153073755">
        <ele>206.4</ele>
        <time>2020-02-09T10:51:39Z</time>
      </trkpt>
      <trkpt lat="56.932513061305" lon="14.809056765724">
        <ele>206.6</ele>
        <time>2020-02-09T10:51:40Z</time>
      </trkpt>
      <trkpt lat="56.932780946829" lon="14.808618057078">
        <ele>206.6</ele>
        <time>2020-02-09T10:51:45Z</time>
      </trkpt>
      <trkpt lat="56.932964007525" lon="14.808442875368">
        <ele>205.8</ele>
        <time>2020-02-09T10:51:48Z</time>
      </trkpt>
      <trkpt lat="56.933517045287" lon="14.808235255705">
        <ele>205.8</ele>
        <time>2020-02-09T10:51:56Z</time>
      </trkpt>
      <trkpt lat="56.933951982078" lon="14.808089913559">
        <ele>205.2</ele>
        <time>2020-02-09T10:52:02Z</time>
      </trkpt>
      <trkpt lat="56.934087936496" lon="14.807969717113">
        <ele>204.8</ele>
        <time>2020-02-09T10:52:04Z</time>
      </trkpt>
      <trkpt lat="56.934210563693" lon="14.807804509864">
        <ele>204.6</ele>
        <time>2020-02-09T10:52:06Z</time>
      </trkpt>
      <trkpt lat="56.9342988251" lon="14.807634860208">
        <ele>205</ele>
        <time>2020-02-09T10:52:08Z</time>
      </trkpt>
      <trkpt lat="56.934526980418" lon="14.807059778049">
        <ele>206.2</ele>
        <time>2020-02-09T10:52:14Z</time>
      </trkpt>
      <trkpt lat="56.934890671059" lon="14.806400373976">
        <ele>207.2</ele>
        <time>2020-02-09T10:52:22Z</time>
      </trkpt>
      <trkpt lat="56.934934843672" lon="14.806323847229">
        <ele>207.4</ele>
        <time>2020-02-09T10:52:23Z</time>
      </trkpt>
      <trkpt lat="56.935192251821" lon="14.805902824392">
        <ele>208.4</ele>
        <time>2020-02-09T10:52:29Z</time>
      </trkpt>
      <trkpt lat="56.935662727868" lon="14.805524800702">
        <ele>207.4</ele>
        <time>2020-02-09T10:52:36Z</time>
      </trkpt>
      <trkpt lat="56.93594335388" lon="14.805381973126">
        <ele>206.4</ele>
        <time>2020-02-09T10:52:40Z</time>
      </trkpt>
      <trkpt lat="56.936435958143" lon="14.80497763027">
        <ele>206.4</ele>
        <time>2020-02-09T10:52:48Z</time>
      </trkpt>
      <trkpt lat="56.936907942932" lon="14.804376312764">
        <ele>205.8</ele>
        <time>2020-02-09T10:52:56Z</time>
      </trkpt>
      <trkpt lat="56.937072144353" lon="14.804144888505">
        <ele>205.6</ele>
        <time>2020-02-09T10:52:59Z</time>
      </trkpt>
      <trkpt lat="56.937520156908" lon="14.803460254913">
        <ele>205.4</ele>
        <time>2020-02-09T10:53:07Z</time>
      </trkpt>
      <trkpt lat="56.937690309478" lon="14.803162529825">
        <ele>205.6</ele>
        <time>2020-02-09T10:53:10Z</time>
      </trkpt>
      <trkpt lat="56.937755688298" lon="14.802932111394">
        <ele>205.6</ele>
        <time>2020-02-09T10:53:12Z</time>
      </trkpt>
      <trkpt lat="56.937798687445" lon="14.802704710447">
        <ele>205.8</ele>
        <time>2020-02-09T10:53:14Z</time>
      </trkpt>
      <trkpt lat="56.93787286726" lon="14.802508490168">
        <ele>206.2</ele>
        <time>2020-02-09T10:53:16Z</time>
      </trkpt>
      <trkpt lat="56.937972276594" lon="14.802373625397">
        <ele>206.8</ele>
        <time>2020-02-09T10:53:18Z</time>
      </trkpt>
      <trkpt lat="56.938086270434" lon="14.802257368444">
        <ele>207</ele>
        <time>2020-02-09T10:53:20Z</time>
      </trkpt>
      <trkpt lat="56.938339487633" lon="14.802110014642">
        <ele>206.8</ele>
        <time>2020-02-09T10:53:24Z</time>
      </trkpt>
      <trkpt lat="56.938856315587" lon="14.802093167023">
        <ele>205.6</ele>
        <time>2020-02-09T10:53:31Z</time>
      </trkpt>
      <trkpt lat="56.939007944158" lon="14.802050586971">
        <ele>205.4</ele>
        <time>2020-02-09T10:53:33Z</time>
      </trkpt>
      <trkpt lat="56.939083716534" lon="14.802013455154">
        <ele>205.2</ele>
        <time>2020-02-09T10:53:34Z</time>
      </trkpt>
      <trkpt lat="56.939380435794" lon="14.801810194079">
        <ele>204.2</ele>
        <time>2020-02-09T10:53:38Z</time>
      </trkpt>
      <trkpt lat="56.939908495494" lon="14.80133988567">
        <ele>203.4</ele>
        <time>2020-02-09T10:53:46Z</time>
      </trkpt>
      <trkpt lat="56.939965157138" lon="14.801273249565">
        <ele>203.4</ele>
        <time>2020-02-09T10:53:47Z</time>
      </trkpt>
      <trkpt lat="56.940194150646" lon="14.800858596972">
        <ele>203.6</ele>
        <time>2020-02-09T10:53:52Z</time>
      </trkpt>
      <trkpt lat="56.940298505301" lon="14.800554334002">
        <ele>203.8</ele>
        <time>2020-02-09T10:53:55Z</time>
      </trkpt>
      <trkpt lat="56.94036396794" lon="14.800372530591">
        <ele>204</ele>
        <time>2020-02-09T10:53:57Z</time>
      </trkpt>
      <trkpt lat="56.940617352777" lon="14.800409410951">
        <ele>205.2</ele>
        <time>2020-02-09T10:54:03Z</time>
      </trkpt>
      <trkpt lat="56.940947096723" lon="14.800542180247">
        <ele>204</ele>
        <time>2020-02-09T10:54:08Z</time>
      </trkpt>
      <trkpt lat="56.941154129653" lon="14.800755164326">
        <ele>203.6</ele>
        <time>2020-02-09T10:54:12Z</time>
      </trkpt>
      <trkpt lat="56.941288156234" lon="14.800970160061">
        <ele>204.2</ele>
        <time>2020-02-09T10:54:15Z</time>
      </trkpt>
      <trkpt lat="56.941423859195" lon="14.801259587068">
        <ele>205</ele>
        <time>2020-02-09T10:54:19Z</time>
      </trkpt>
      <trkpt lat="56.941457219157" lon="14.801318344187">
        <ele>205.2</ele>
        <time>2020-02-09T10:54:20Z</time>
      </trkpt>
      <trkpt lat="56.941573811386" lon="14.801537614691">
        <ele>206.2</ele>
        <time>2020-02-09T10:54:23Z</time>
      </trkpt>
      <trkpt lat="56.941960049338" lon="14.802235994599">
        <ele>206</ele>
        <time>2020-02-09T10:54:32Z</time>
      </trkpt>
      <trkpt lat="56.94199927663" lon="14.802285196352">
        <ele>206.4</ele>
        <time>2020-02-09T10:54:33Z</time>
      </trkpt>
      <trkpt lat="56.94209231572" lon="14.802372284293">
        <ele>207</ele>
        <time>2020-02-09T10:54:35Z</time>
      </trkpt>
      <trkpt lat="56.942137829437" lon="14.802402375314">
        <ele>207.2</ele>
        <time>2020-02-09T10:54:36Z</time>
      </trkpt>
      <trkpt lat="56.942190635407" lon="14.802410673395">
        <ele>207.4</ele>
        <time>2020-02-09T10:54:37Z</time>
      </trkpt>
      <trkpt lat="56.942352741353" lon="14.802357196873">
        <ele>207</ele>
        <time>2020-02-09T10:54:40Z</time>
      </trkpt>
      <trkpt lat="56.942464639718" lon="14.802258458091">
        <ele>206.2</ele>
        <time>2020-02-09T10:54:42Z</time>
      </trkpt>
      <trkpt lat="56.942841741399" lon="14.801811199907">
        <ele>205</ele>
        <time>2020-02-09T10:54:49Z</time>
      </trkpt>
      <trkpt lat="56.942938468525" lon="14.801668875245">
        <ele>204.8</ele>
        <time>2020-02-09T10:54:51Z</time>
      </trkpt>
      <trkpt lat="56.943329148884" lon="14.800974099554">
        <ele>204.6</ele>
        <time>2020-02-09T10:54:59Z</time>
      </trkpt>
      <trkpt lat="56.943575744382" lon="14.800313522015">
        <ele>205.8</ele>
        <time>2020-02-09T10:55:06Z</time>
      </trkpt>
      <trkpt lat="56.943646655256" lon="14.800109171293">
        <ele>206</ele>
        <time>2020-02-09T10:55:08Z</time>
      </trkpt>
      <trkpt lat="56.943901632654" lon="14.799470554332">
        <ele>205.4</ele>
        <time>2020-02-09T10:55:15Z</time>
      </trkpt>
      <trkpt lat="56.944113694724" lon="14.799050369685">
        <ele>206</ele>
        <time>2020-02-09T10:55:20Z</time>
      </trkpt>
      <trkpt lat="56.944562042555" lon="14.798477299182">
        <ele>206.8</ele>
        <time>2020-02-09T10:55:29Z</time>
      </trkpt>
      <trkpt lat="56.944605376978" lon="14.798408902878">
        <ele>207</ele>
        <time>2020-02-09T10:55:30Z</time>
      </trkpt>
      <trkpt lat="56.944708139072" lon="14.798291807735">
        <ele>207</ele>
        <time>2020-02-09T10:55:32Z</time>
      </trkpt>
      <trkpt lat="56.944753904246" lon="14.798234810815">
        <ele>207.2</ele>
        <time>2020-02-09T10:55:33Z</time>
      </trkpt>
      <trkpt lat="56.944847278612" lon="14.798126684305">
        <ele>207.6</ele>
        <time>2020-02-09T10:55:35Z</time>
      </trkpt>
      <trkpt lat="56.944995135328" lon="14.797976145381">
        <ele>208</ele>
        <time>2020-02-09T10:55:38Z</time>
      </trkpt>
      <trkpt lat="56.945094544662" lon="14.797873299468">
        <ele>208.4</ele>
        <time>2020-02-09T10:55:40Z</time>
      </trkpt>
      <trkpt lat="56.945560662121" lon="14.79760574922">
        <ele>209</ele>
        <time>2020-02-09T10:55:48Z</time>
      </trkpt>
      <trkpt lat="56.946116549729" lon="14.797433668813">
        <ele>209.8</ele>
        <time>2020-02-09T10:55:57Z</time>
      </trkpt>
      <trkpt lat="56.946222832221" lon="14.797401063222">
        <ele>210.2</ele>
        <time>2020-02-09T10:55:59Z</time>
      </trkpt>
      <trkpt lat="56.94644252182" lon="14.797324201199">
        <ele>211.4</ele>
        <time>2020-02-09T10:56:04Z</time>
      </trkpt>
      <trkpt lat="56.946583673016" lon="14.797285644459">
        <ele>212.6</ele>
        <time>2020-02-09T10:56:07Z</time>
      </trkpt>
      <trkpt lat="56.946735469225" lon="14.797263683881">
        <ele>213.8</ele>
        <time>2020-02-09T10:56:10Z</time>
      </trkpt>
      <trkpt lat="56.94687921881" lon="14.797240046923">
        <ele>215.4</ele>
        <time>2020-02-09T10:56:13Z</time>
      </trkpt>
      <trkpt lat="56.946972425538" lon="14.797224456589">
        <ele>216.4</ele>
        <time>2020-02-09T10:56:15Z</time>
      </trkpt>
      <trkpt lat="56.947101758255" lon="14.797203501839">
        <ele>217.8</ele>
        <time>2020-02-09T10:56:18Z</time>
      </trkpt>
      <trkpt lat="56.947229330773" lon="14.797177517949">
        <ele>218.6</ele>
        <time>2020-02-09T10:56:21Z</time>
      </trkpt>
      <trkpt lat="56.947307450081" lon="14.797161424701">
        <ele>219</ele>
        <time>2020-02-09T10:56:23Z</time>
      </trkpt>
      <trkpt lat="56.94765202999" lon="14.797082551022">
        <ele>220</ele>
        <time>2020-02-09T10:56:31Z</time>
      </trkpt>
      <trkpt lat="56.947946821413" lon="14.797099650098">
        <ele>221</ele>
        <time>2020-02-09T10:56:38Z</time>
      </trkpt>
      <trkpt lat="56.948236583696" lon="14.797109037826">
        <ele>221.4</ele>
        <time>2020-02-09T10:56:44Z</time>
      </trkpt>
      <trkpt lat="56.948343369102" lon="14.797120856305">
        <ele>221.4</ele>
        <time>2020-02-09T10:56:46Z</time>
      </trkpt>
      <trkpt lat="56.948574625723" lon="14.797179864881">
        <ele>221.2</ele>
        <time>2020-02-09T10:56:50Z</time>
      </trkpt>
      <trkpt lat="56.948794147684" lon="14.797334510936">
        <ele>221</ele>
        <time>2020-02-09T10:56:55Z</time>
      </trkpt>
      <trkpt lat="56.949359003925" lon="14.797746481321">
        <ele>221.6</ele>
        <time>2020-02-09T10:57:06Z</time>
      </trkpt>
      <trkpt lat="56.949549608331" lon="14.797801634223">
        <ele>219.6</ele>
        <time>2020-02-09T10:57:09Z</time>
      </trkpt>
      <trkpt lat="56.94976845974" lon="14.797848656682">
        <ele>218.6</ele>
        <time>2020-02-09T10:57:12Z</time>
      </trkpt>
      <trkpt lat="56.949842388098" lon="14.797878077151">
        <ele>218.6</ele>
        <time>2020-02-09T10:57:13Z</time>
      </trkpt>
      <trkpt lat="56.950457200463" lon="14.79802065327">
        <ele>218.4</ele>
        <time>2020-02-09T10:57:21Z</time>
      </trkpt>
      <trkpt lat="56.950712345499" lon="14.798067424272">
        <ele>217</ele>
        <time>2020-02-09T10:57:23Z</time>
      </trkpt>
      <trkpt lat="56.950937902428" lon="14.798109333772">
        <ele>215.8</ele>
        <time>2020-02-09T10:57:25Z</time>
      </trkpt>
      <trkpt lat="56.951264712709" lon="14.798202456681">
        <ele>215</ele>
        <time>2020-02-09T10:57:30Z</time>
      </trkpt>
      <trkpt lat="56.951850356062" lon="14.798355174899">
        <ele>214.4</ele>
        <time>2020-02-09T10:57:37Z</time>
      </trkpt>
      <trkpt lat="56.952421917823" lon="14.798450309464">
        <ele>214.8</ele>
        <time>2020-02-09T10:57:44Z</time>
      </trkpt>
      <trkpt lat="56.952671614624" lon="14.798471348033">
        <ele>215</ele>
        <time>2020-02-09T10:57:48Z</time>
      </trkpt>
      <trkpt lat="56.953055170368" lon="14.798608308279">
        <ele>213.2</ele>
        <time>2020-02-09T10:57:53Z</time>
      </trkpt>
      <trkpt lat="56.95340871891" lon="14.798674944384">
        <ele>212</ele>
        <time>2020-02-09T10:57:58Z</time>
      </trkpt>
      <trkpt lat="56.953582894792" lon="14.79869791079">
        <ele>211.6</ele>
        <time>2020-02-09T10:58:00Z</time>
      </trkpt>
      <trkpt lat="56.953812055938" lon="14.798768905483">
        <ele>210.8</ele>
        <time>2020-02-09T10:58:03Z</time>
      </trkpt>
      <trkpt lat="56.953939712275" lon="14.798817101408">
        <ele>209.8</ele>
        <time>2020-02-09T10:58:05Z</time>
      </trkpt>
      <trkpt lat="56.954080192919" lon="14.798869823559">
        <ele>208.4</ele>
        <time>2020-02-09T10:58:07Z</time>
      </trkpt>
      <trkpt lat="56.954227798178" lon="14.798954480749">
        <ele>207.2</ele>
        <time>2020-02-09T10:58:09Z</time>
      </trkpt>
      <trkpt lat="56.954427706493" lon="14.799037545378">
        <ele>205.8</ele>
        <time>2020-02-09T10:58:11Z</time>
      </trkpt>
      <trkpt lat="56.954604648402" lon="14.799063696906">
        <ele>204.8</ele>
        <time>2020-02-09T10:58:13Z</time>
      </trkpt>
      <trkpt lat="56.954718726061" lon="14.799052716617">
        <ele>204.4</ele>
        <time>2020-02-09T10:58:14Z</time>
      </trkpt>
      <trkpt lat="56.955006560507" lon="14.798980799915">
        <ele>202.8</ele>
        <time>2020-02-09T10:58:17Z</time>
      </trkpt>
      <trkpt lat="56.955316020255" lon="14.79893092761">
        <ele>202.2</ele>
        <time>2020-02-09T10:58:21Z</time>
      </trkpt>
      <trkpt lat="56.955607710375" lon="14.798757841375">
        <ele>204.2</ele>
        <time>2020-02-09T10:58:26Z</time>
      </trkpt>
      <trkpt lat="56.955816671142" lon="14.798459613373">
        <ele>205.2</ele>
        <time>2020-02-09T10:58:32Z</time>
      </trkpt>
      <trkpt lat="56.955935107389" lon="14.798354001433">
        <ele>204.8</ele>
        <time>2020-02-09T10:58:37Z</time>
      </trkpt>
      <trkpt lat="56.956026973013" lon="14.798317037254">
        <ele>204.6</ele>
        <time>2020-02-09T10:58:40Z</time>
      </trkpt>
      <trkpt lat="56.956067122314" lon="14.798160966276">
        <ele>204.4</ele>
        <time>2020-02-09T10:58:44Z</time>
      </trkpt>
      <trkpt lat="56.956114731506" lon="14.798053677956">
        <ele>204.2</ele>
        <time>2020-02-09T10:58:46Z</time>
      </trkpt>
      <trkpt lat="56.956242136386" lon="14.797838933678">
        <ele>204.6</ele>
        <time>2020-02-09T10:58:53Z</time>
      </trkpt>
      <trkpt lat="56.956432740792" lon="14.797882100463">
        <ele>204.2</ele>
        <time>2020-02-09T10:59:02Z</time>
      </trkpt>
      <trkpt lat="56.956497365241" lon="14.797904815412">
        <ele>204</ele>
        <time>2020-02-09T10:59:05Z</time>
      </trkpt>
      <trkpt lat="56.956569281943" lon="14.797919483737">
        <ele>204.2</ele>
        <time>2020-02-09T10:59:08Z</time>
      </trkpt>
      <trkpt lat="56.956764664032" lon="14.797979079046">
        <ele>204.2</ele>
        <time>2020-02-09T10:59:17Z</time>
      </trkpt>
      <trkpt lat="56.957256513924" lon="14.797491336285">
        <ele>203.4</ele>
        <time>2020-02-09T10:59:38Z</time>
      </trkpt>
      <trkpt lat="56.957348714824" lon="14.797366613613">
        <ele>203.8</ele>
        <time>2020-02-09T10:59:42Z</time>
      </trkpt>
      <trkpt lat="56.957428929607" lon="14.797372564762">
        <ele>204.2</ele>
        <time>2020-02-09T10:59:46Z</time>
      </trkpt>
      <trkpt lat="56.957929664313" lon="14.797850165424">
        <ele>204</ele>
        <time>2020-02-09T11:00:01Z</time>
      </trkpt>
      <trkpt lat="56.958341047965" lon="14.798243863267">
        <ele>205.4</ele>
        <time>2020-02-09T11:00:16Z</time>
      </trkpt>
      <trkpt lat="56.958352279711" lon="14.798268506053">
        <ele>205.4</ele>
        <time>2020-02-09T11:00:17Z</time>
      </trkpt>
      <trkpt lat="56.958406091509" lon="14.798303877671">
        <ele>205.6</ele>
        <time>2020-02-09T11:00:19Z</time>
      </trkpt>
      <trkpt lat="56.958671294825" lon="14.798410998353">
        <ele>205.6</ele>
        <time>2020-02-09T11:00:29Z</time>
      </trkpt>
      <trkpt lat="56.95876223844" lon="14.798468330549">
        <ele>206</ele>
        <time>2020-02-09T11:00:37Z</time>
      </trkpt>
      <trkpt lat="56.95881923536" lon="14.798509234221">
        <ele>206</ele>
        <time>2020-02-09T11:00:39Z</time>
      </trkpt>
      <trkpt lat="56.958923003282" lon="14.798623982432">
        <ele>205.8</ele>
        <time>2020-02-09T11:00:43Z</time>
      </trkpt>
      <trkpt lat="56.95908326521" lon="14.798519208682">
        <ele>206.4</ele>
        <time>2020-02-09T11:00:50Z</time>
      </trkpt>
      <trkpt lat="56.959519543105" lon="14.798095922732">
        <ele>205.6</ele>
        <time>2020-02-09T11:01:07Z</time>
      </trkpt>
      <trkpt lat="56.959919611192" lon="14.797444146188">
        <ele>205.6</ele>
        <time>2020-02-09T11:01:23Z</time>
      </trkpt>
      <trkpt lat="56.959976943388" lon="14.797162849624">
        <ele>206.4</ele>
        <time>2020-02-09T11:01:28Z</time>
      </trkpt>
      <trkpt lat="56.960217001004" lon="14.796350559695">
        <ele>206.2</ele>
        <time>2020-02-09T11:01:42Z</time>
      </trkpt>
      <trkpt lat="56.960341891314" lon="14.796240002434">
        <ele>206.8</ele>
        <time>2020-02-09T11:01:47Z</time>
      </trkpt>
      <trkpt lat="56.960479605931" lon="14.796262549745">
        <ele>206.4</ele>
        <time>2020-02-09T11:01:51Z</time>
      </trkpt>
      <trkpt lat="56.960988973994" lon="14.796473522168">
        <ele>206.2</ele>
        <time>2020-02-09T11:02:10Z</time>
      </trkpt>
      <trkpt lat="56.961084527654" lon="14.796393894118">
        <ele>207.2</ele>
        <time>2020-02-09T11:02:15Z</time>
      </trkpt>
      <trkpt lat="56.961109086621" lon="14.796377297956">
        <ele>207.6</ele>
        <time>2020-02-09T11:02:16Z</time>
      </trkpt>
      <trkpt lat="56.961248729075" lon="14.796267578885">
        <ele>208</ele>
        <time>2020-02-09T11:02:23Z</time>
      </trkpt>
      <trkpt lat="56.961311677144" lon="14.796244612479">
        <ele>208</ele>
        <time>2020-02-09T11:02:26Z</time>
      </trkpt>
      <trkpt lat="56.961551567122" lon="14.795932051428">
        <ele>207</ele>
        <time>2020-02-09T11:02:39Z</time>
      </trkpt>
      <trkpt lat="56.961604456911" lon="14.795752343492">
        <ele>206.8</ele>
        <time>2020-02-09T11:02:43Z</time>
      </trkpt>
      <trkpt lat="56.961540083919" lon="14.79547339386">
        <ele>207</ele>
        <time>2020-02-09T11:02:51Z</time>
      </trkpt>
      <trkpt lat="56.961489457243" lon="14.795429388885">
        <ele>207</ele>
        <time>2020-02-09T11:02:54Z</time>
      </trkpt>
      <trkpt lat="56.96131704156" lon="14.795192684029">
        <ele>207.2</ele>
        <time>2020-02-09T11:03:03Z</time>
      </trkpt>
      <trkpt lat="56.961054436633" lon="14.795144907199">
        <ele>207.2</ele>
        <time>2020-02-09T11:03:13Z</time>
      </trkpt>
      <trkpt lat="56.960995428057" lon="14.795125880286">
        <ele>206.4</ele>
        <time>2020-02-09T11:03:15Z</time>
      </trkpt>
      <trkpt lat="56.960882188588" lon="14.795048515349">
        <ele>205.2</ele>
        <time>2020-02-09T11:03:19Z</time>
      </trkpt>
      <trkpt lat="56.960637772384" lon="14.794715167186">
        <ele>205.4</ele>
        <time>2020-02-09T11:03:28Z</time>
      </trkpt>
      <trkpt lat="56.960525287286" lon="14.794604777563">
        <ele>206.4</ele>
        <time>2020-02-09T11:03:33Z</time>
      </trkpt>
      <trkpt lat="56.960440546277" lon="14.794523976047">
        <ele>207.4</ele>
        <time>2020-02-09T11:03:37Z</time>
      </trkpt>
      <trkpt lat="56.960422106097" lon="14.794496148139">
        <ele>207.6</ele>
        <time>2020-02-09T11:03:38Z</time>
      </trkpt>
      <trkpt lat="56.960133433461" lon="14.79420688877">
        <ele>206.4</ele>
        <time>2020-02-09T11:03:50Z</time>
      </trkpt>
      <trkpt lat="56.960072497048" lon="14.79417168479">
        <ele>206.6</ele>
        <time>2020-02-09T11:03:54Z</time>
      </trkpt>
      <trkpt lat="56.959950875679" lon="14.794215941222">
        <ele>206.6</ele>
        <time>2020-02-09T11:04:00Z</time>
      </trkpt>
      <trkpt lat="56.959914833509" lon="14.794306046647">
        <ele>206.8</ele>
        <time>2020-02-09T11:04:03Z</time>
      </trkpt>
      <trkpt lat="56.959891950922" lon="14.794383579222">
        <ele>207.6</ele>
        <time>2020-02-09T11:04:05Z</time>
      </trkpt>
      <trkpt lat="56.959873175466" lon="14.794405455981">
        <ele>208.2</ele>
        <time>2020-02-09T11:04:06Z</time>
      </trkpt>
      <trkpt lat="56.959847778309" lon="14.794428673844">
        <ele>208.8</ele>
        <time>2020-02-09T11:04:07Z</time>
      </trkpt>
      <trkpt lat="56.959796229624" lon="14.794470248068">
        <ele>209.8</ele>
        <time>2020-02-09T11:04:09Z</time>
      </trkpt>
      <trkpt lat="56.959702603801" lon="14.794502602202">
        <ele>208.2</ele>
        <time>2020-02-09T11:04:12Z</time>
      </trkpt>
      <trkpt lat="56.959643679044" lon="14.794497321605">
        <ele>206.6</ele>
        <time>2020-02-09T11:04:14Z</time>
      </trkpt>
      <trkpt lat="56.959465815126" lon="14.794518863088">
        <ele>207.6</ele>
        <time>2020-02-09T11:04:24Z</time>
      </trkpt>
      <trkpt lat="56.959306726664" lon="14.794474606656">
        <ele>206.8</ele>
        <time>2020-02-09T11:04:49Z</time>
      </trkpt>
      <trkpt lat="56.959256854359" lon="14.794449041861">
        <ele>206.6</ele>
        <time>2020-02-09T11:04:51Z</time>
      </trkpt>
      <trkpt lat="56.958848488191" lon="14.794523054038">
        <ele>205.6</ele>
        <time>2020-02-09T11:05:02Z</time>
      </trkpt>
      <trkpt lat="56.958487647396" lon="14.794544846978">
        <ele>205.4</ele>
        <time>2020-02-09T11:05:16Z</time>
      </trkpt>
      <trkpt lat="56.958402990206" lon="14.794572255791">
        <ele>205.2</ele>
        <time>2020-02-09T11:05:19Z</time>
      </trkpt>
      <trkpt lat="56.958098308141" lon="14.794920859012">
        <ele>206.8</ele>
        <time>2020-02-09T11:05:31Z</time>
      </trkpt>
      <trkpt lat="56.95806318798" lon="14.794974503172">
        <ele>207.2</ele>
        <time>2020-02-09T11:06:07Z</time>
      </trkpt>
      <trkpt lat="56.958062768885" lon="14.795062177846">
        <ele>207.2</ele>
        <time>2020-02-09T11:06:10Z</time>
      </trkpt>
      <trkpt lat="56.958060086677" lon="14.795136860575">
        <ele>207.4</ele>
        <time>2020-02-09T11:06:12Z</time>
      </trkpt>
      <trkpt lat="56.958071066966" lon="14.795263427265">
        <ele>207.6</ele>
        <time>2020-02-09T11:06:15Z</time>
      </trkpt>
      <trkpt lat="56.958125130221" lon="14.795531312789">
        <ele>207.8</ele>
        <time>2020-02-09T11:06:21Z</time>
      </trkpt>
      <trkpt lat="56.958132673931" lon="14.795594428496">
        <ele>208</ele>
        <time>2020-02-09T11:06:23Z</time>
      </trkpt>
      <trkpt lat="56.958139044175" lon="14.795671793433">
        <ele>207.8</ele>
        <time>2020-02-09T11:06:25Z</time>
      </trkpt>
      <trkpt lat="56.958106857679" lon="14.79577430407">
        <ele>207.4</ele>
        <time>2020-02-09T11:06:28Z</time>
      </trkpt>
      <trkpt lat="56.958096212666" lon="14.795831468628">
        <ele>206.8</ele>
        <time>2020-02-09T11:06:30Z</time>
      </trkpt>
      <trkpt lat="56.958096296485" lon="14.795867007884">
        <ele>206.6</ele>
        <time>2020-02-09T11:06:31Z</time>
      </trkpt>
      <trkpt lat="56.958127812429" lon="14.796223406272">
        <ele>206.8</ele>
        <time>2020-02-09T11:06:39Z</time>
      </trkpt>
      <trkpt lat="56.958121274547" lon="14.79637780087">
        <ele>206.8</ele>
        <time>2020-02-09T11:06:42Z</time>
      </trkpt>
      <trkpt lat="56.95825094254" lon="14.796698911459">
        <ele>207.6</ele>
        <time>2020-02-09T11:06:51Z</time>
      </trkpt>
      <trkpt lat="56.958327720744" lon="14.796835871705">
        <ele>207.8</ele>
        <time>2020-02-09T11:06:54Z</time>
      </trkpt>
      <trkpt lat="56.95854095628" lon="14.79705673477">
        <ele>208.2</ele>
        <time>2020-02-09T11:07:03Z</time>
      </trkpt>
      <trkpt lat="56.958592588784" lon="14.797047766137">
        <ele>208.8</ele>
        <time>2020-02-09T11:07:07Z</time>
      </trkpt>
      <trkpt lat="56.958603736711" lon="14.79706595486">
        <ele>209</ele>
        <time>2020-02-09T11:07:08Z</time>
      </trkpt>
      <trkpt lat="56.958654279568" lon="14.797104679238">
        <ele>209.2</ele>
        <time>2020-02-09T11:07:10Z</time>
      </trkpt>
      <trkpt lat="56.95883432278" lon="14.797169806601">
        <ele>208.6</ele>
        <time>2020-02-09T11:07:30Z</time>
      </trkpt>
      <trkpt lat="56.959146548555" lon="14.797385556707">
        <ele>207.8</ele>
        <time>2020-02-09T11:07:42Z</time>
      </trkpt>
      <trkpt lat="56.959161887432" lon="14.79740709819">
        <ele>207.8</ele>
        <time>2020-02-09T11:07:43Z</time>
      </trkpt>
      <trkpt lat="56.959206814416" lon="14.797441631618">
        <ele>207.6</ele>
        <time>2020-02-09T11:07:45Z</time>
      </trkpt>
      <trkpt lat="56.959225170777" lon="14.797485133679">
        <ele>207.6</ele>
        <time>2020-02-09T11:07:47Z</time>
      </trkpt>
      <trkpt lat="56.959266745001" lon="14.797568365946">
        <ele>207.6</ele>
        <time>2020-02-09T11:07:50Z</time>
      </trkpt>
      <trkpt lat="56.959279653127" lon="14.797643886865">
        <ele>207.6</ele>
        <time>2020-02-09T11:07:52Z</time>
      </trkpt>
      <trkpt lat="56.959305301741" lon="14.797796940359">
        <ele>208.2</ele>
        <time>2020-02-09T11:07:56Z</time>
      </trkpt>
      <trkpt lat="56.959333800201" lon="14.797897355521">
        <ele>209.2</ele>
        <time>2020-02-09T11:07:59Z</time>
      </trkpt>
      <trkpt lat="56.95934897144" lon="14.798087457013">
        <ele>209.4</ele>
        <time>2020-02-09T11:08:03Z</time>
      </trkpt>
      <trkpt lat="56.959294321452" lon="14.798203797785">
        <ele>209.2</ele>
        <time>2020-02-09T11:08:09Z</time>
      </trkpt>
      <trkpt lat="56.959246209346" lon="14.798296501599">
        <ele>209.2</ele>
        <time>2020-02-09T11:08:13Z</time>
      </trkpt>
      <trkpt lat="56.95910841091" lon="14.798560028535">
        <ele>209</ele>
        <time>2020-02-09T11:08:21Z</time>
      </trkpt>
      <trkpt lat="56.958974719605" lon="14.798566398779">
        <ele>208</ele>
        <time>2020-02-09T11:08:25Z</time>
      </trkpt>
      <trkpt lat="56.958944544765" lon="14.798563884209">
        <ele>207.8</ele>
        <time>2020-02-09T11:08:26Z</time>
      </trkpt>
      <trkpt lat="56.958879333583" lon="14.798554831757">
        <ele>207.8</ele>
        <time>2020-02-09T11:08:28Z</time>
      </trkpt>
      <trkpt lat="56.958820660283" lon="14.798525914202">
        <ele>208.2</ele>
        <time>2020-02-09T11:08:30Z</time>
      </trkpt>
      <trkpt lat="56.958732231238" lon="14.798500014131">
        <ele>208.4</ele>
        <time>2020-02-09T11:08:35Z</time>
      </trkpt>
      <trkpt lat="56.958611112783" lon="14.798475874259">
        <ele>207.6</ele>
        <time>2020-02-09T11:08:39Z</time>
      </trkpt>
      <trkpt lat="56.958552523302" lon="14.79844729198">
        <ele>207.6</ele>
        <time>2020-02-09T11:08:41Z</time>
      </trkpt>
      <trkpt lat="56.958171817404" lon="14.798112686532">
        <ele>207</ele>
        <time>2020-02-09T11:08:53Z</time>
      </trkpt>
      <trkpt lat="56.957710645266" lon="14.797554871087">
        <ele>207.6</ele>
        <time>2020-02-09T11:09:07Z</time>
      </trkpt>
      <trkpt lat="56.957460194094" lon="14.797424448723">
        <ele>207.6</ele>
        <time>2020-02-09T11:09:19Z</time>
      </trkpt>
      <trkpt lat="56.957421050621" lon="14.797455880848">
        <ele>208</ele>
        <time>2020-02-09T11:09:21Z</time>
      </trkpt>
      <trkpt lat="56.957239331029" lon="14.797605665401">
        <ele>207.8</ele>
        <time>2020-02-09T11:09:29Z</time>
      </trkpt>
      <trkpt lat="56.957140089333" lon="14.797718485775">
        <ele>207.8</ele>
        <time>2020-02-09T11:09:33Z</time>
      </trkpt>
      <trkpt lat="56.957086026078" lon="14.797792078857">
        <ele>208.8</ele>
        <time>2020-02-09T11:09:37Z</time>
      </trkpt>
      <trkpt lat="56.956993908997" lon="14.797823846258">
        <ele>209.2</ele>
        <time>2020-02-09T11:09:42Z</time>
      </trkpt>
      <trkpt lat="56.956947305633" lon="14.797862989731">
        <ele>209.4</ele>
        <time>2020-02-09T11:09:44Z</time>
      </trkpt>
      <trkpt lat="56.956808836645" lon="14.798006236402">
        <ele>208</ele>
        <time>2020-02-09T11:10:02Z</time>
      </trkpt>
      <trkpt lat="56.956778661805" lon="14.798001961633">
        <ele>207.4</ele>
        <time>2020-02-09T11:10:04Z</time>
      </trkpt>
      <trkpt lat="56.956698363203" lon="14.797951754052">
        <ele>207.4</ele>
        <time>2020-02-09T11:10:08Z</time>
      </trkpt>
      <trkpt lat="56.956685538896" lon="14.797940773763">
        <ele>207.6</ele>
        <time>2020-02-09T11:10:09Z</time>
      </trkpt>
      <trkpt lat="56.956486384952" lon="14.79790246848">
        <ele>207.6</ele>
        <time>2020-02-09T11:10:21Z</time>
      </trkpt>
      <trkpt lat="56.95635328038" lon="14.797900205367">
        <ele>207.4</ele>
        <time>2020-02-09T11:10:25Z</time>
      </trkpt>
      <trkpt lat="56.956164017078" lon="14.798040015459">
        <ele>207.8</ele>
        <time>2020-02-09T11:10:31Z</time>
      </trkpt>
      <trkpt lat="56.956097297154" lon="14.798208659287">
        <ele>207.8</ele>
        <time>2020-02-09T11:10:35Z</time>
      </trkpt>
      <trkpt lat="56.956033175619" lon="14.798225087811">
        <ele>208.4</ele>
        <time>2020-02-09T11:10:38Z</time>
      </trkpt>
      <trkpt lat="56.955977435984" lon="14.798296836875">
        <ele>208.8</ele>
        <time>2020-02-09T11:10:41Z</time>
      </trkpt>
      <trkpt lat="56.955912979173" lon="14.798317204892">
        <ele>209</ele>
        <time>2020-02-09T11:10:43Z</time>
      </trkpt>
      <trkpt lat="56.955967210066" lon="14.797733740833">
        <ele>208</ele>
        <time>2020-02-09T11:10:53Z</time>
      </trkpt>
      <trkpt lat="56.955819185712" lon="14.796750963058">
        <ele>208</ele>
        <time>2020-02-09T11:11:06Z</time>
      </trkpt>
      <trkpt lat="56.955654062282" lon="14.796286019065">
        <ele>209</ele>
        <time>2020-02-09T11:11:13Z</time>
      </trkpt>
      <trkpt lat="56.955375531745" lon="14.795828534963">
        <ele>209.2</ele>
        <time>2020-02-09T11:11:22Z</time>
      </trkpt>
      <trkpt lat="56.955106472755" lon="14.795099812577">
        <ele>209.6</ele>
        <time>2020-02-09T11:11:34Z</time>
      </trkpt>
      <trkpt lat="56.954700034424" lon="14.794726650389">
        <ele>208.6</ele>
        <time>2020-02-09T11:11:46Z</time>
      </trkpt>
      <trkpt lat="56.954165017747" lon="14.794620032621">
        <ele>208.2</ele>
        <time>2020-02-09T11:12:03Z</time>
      </trkpt>
      <trkpt lat="56.954083042765" lon="14.794597652948">
        <ele>207.8</ele>
        <time>2020-02-09T11:12:05Z</time>
      </trkpt>
      <trkpt lat="56.953875506921" lon="14.794531938852">
        <ele>207.8</ele>
        <time>2020-02-09T11:12:12Z</time>
      </trkpt>
      <trkpt lat="56.953825718435" lon="14.794527831721">
        <ele>208</ele>
        <time>2020-02-09T11:12:14Z</time>
      </trkpt>
      <trkpt lat="56.953285085885" lon="14.794685746717">
        <ele>208</ele>
        <time>2020-02-09T11:12:28Z</time>
      </trkpt>
      <trkpt lat="56.953002364398" lon="14.794689518572">
        <ele>208.6</ele>
        <time>2020-02-09T11:12:35Z</time>
      </trkpt>
      <trkpt lat="56.952873702233" lon="14.794596814758">
        <ele>209</ele>
        <time>2020-02-09T11:12:38Z</time>
      </trkpt>
      <trkpt lat="56.952617719007" lon="14.794603017364">
        <ele>208</ele>
        <time>2020-02-09T11:12:44Z</time>
      </trkpt>
      <trkpt lat="56.952570193634" lon="14.79457653056">
        <ele>207.8</ele>
        <time>2020-02-09T11:12:45Z</time>
      </trkpt>
      <trkpt lat="56.952043139762" lon="14.794658756999">
        <ele>208.6</ele>
        <time>2020-02-09T11:13:07Z</time>
      </trkpt>
      <trkpt lat="56.951914896692" lon="14.794759423618">
        <ele>208.6</ele>
        <time>2020-02-09T11:13:13Z</time>
      </trkpt>
      <trkpt lat="56.951806686363" lon="14.794868975051">
        <ele>208.2</ele>
        <time>2020-02-09T11:13:16Z</time>
      </trkpt>
      <trkpt lat="56.951685735546" lon="14.794953883698">
        <ele>208.2</ele>
        <time>2020-02-09T11:13:21Z</time>
      </trkpt>
      <trkpt lat="56.951612310102" lon="14.794967378557">
        <ele>208.8</ele>
        <time>2020-02-09T11:13:24Z</time>
      </trkpt>
      <trkpt lat="56.951553888259" lon="14.794976598647">
        <ele>209.2</ele>
        <time>2020-02-09T11:13:26Z</time>
      </trkpt>
      <trkpt lat="56.951266053813" lon="14.794959080476">
        <ele>209.8</ele>
        <time>2020-02-09T11:13:37Z</time>
      </trkpt>
      <trkpt lat="56.95123696862" lon="14.794930833473">
        <ele>210</ele>
        <time>2020-02-09T11:13:38Z</time>
      </trkpt>
      <trkpt lat="56.951148204299" lon="14.794919098813">
        <ele>210</ele>
        <time>2020-02-09T11:13:42Z</time>
      </trkpt>
      <trkpt lat="56.950928011786" lon="14.794721202154">
        <ele>209</ele>
        <time>2020-02-09T11:13:51Z</time>
      </trkpt>
      <trkpt lat="56.95061419345" lon="14.794559682941">
        <ele>210</ele>
        <time>2020-02-09T11:14:04Z</time>
      </trkpt>
      <trkpt lat="56.950274055948" lon="14.79447091862">
        <ele>209</ele>
        <time>2020-02-09T11:14:17Z</time>
      </trkpt>
      <trkpt lat="56.949730405914" lon="14.794670324021">
        <ele>208</ele>
        <time>2020-02-09T11:14:34Z</time>
      </trkpt>
      <trkpt lat="56.949676594116" lon="14.794623636838">
        <ele>207.8</ele>
        <time>2020-02-09T11:14:36Z</time>
      </trkpt>
      <trkpt lat="56.949662931619" lon="14.79463604205">
        <ele>207.8</ele>
        <time>2020-02-09T11:14:37Z</time>
      </trkpt>
      <trkpt lat="56.949611634391" lon="14.794709048399">
        <ele>208</ele>
        <time>2020-02-09T11:14:39Z</time>
      </trkpt>
      <trkpt lat="56.949464867322" lon="14.794816169081">
        <ele>207.8</ele>
        <time>2020-02-09T11:14:43Z</time>
      </trkpt>
      <trkpt lat="56.949364619798" lon="14.794828909569">
        <ele>208</ele>
        <time>2020-02-09T11:14:46Z</time>
      </trkpt>
      <trkpt lat="56.948823903429" lon="14.795031332454">
        <ele>208</ele>
        <time>2020-02-09T11:15:02Z</time>
      </trkpt>
      <trkpt lat="56.948697420558" lon="14.795093777609">
        <ele>209</ele>
        <time>2020-02-09T11:15:06Z</time>
      </trkpt>
      <trkpt lat="56.948124433874" lon="14.79520014392">
        <ele>208.4</ele>
        <time>2020-02-09T11:15:21Z</time>
      </trkpt>
      <trkpt lat="56.94810046164" lon="14.795196204427">
        <ele>208.4</ele>
        <time>2020-02-09T11:15:22Z</time>
      </trkpt>
      <trkpt lat="56.948048326222" lon="14.795160162257">
        <ele>208.6</ele>
        <time>2020-02-09T11:15:24Z</time>
      </trkpt>
      <trkpt lat="56.948009350387" lon="14.795145745389">
        <ele>208.4</ele>
        <time>2020-02-09T11:15:26Z</time>
      </trkpt>
      <trkpt lat="56.947471232407" lon="14.795347413903">
        <ele>208.2</ele>
        <time>2020-02-09T11:15:41Z</time>
      </trkpt>
      <trkpt lat="56.947414654582" lon="14.795377085829">
        <ele>207.8</ele>
        <time>2020-02-09T11:15:43Z</time>
      </trkpt>
      <trkpt lat="56.947339971853" lon="14.795428383057">
        <ele>206.6</ele>
        <time>2020-02-09T11:15:46Z</time>
      </trkpt>
      <trkpt lat="56.946917188817" lon="14.795594009401">
        <ele>207.8</ele>
        <time>2020-02-09T11:15:54Z</time>
      </trkpt>
      <trkpt lat="56.946359708648" lon="14.795883017313">
        <ele>207.6</ele>
        <time>2020-02-09T11:16:10Z</time>
      </trkpt>
      <trkpt lat="56.946158123953" lon="14.796020564292">
        <ele>207.6</ele>
        <time>2020-02-09T11:16:16Z</time>
      </trkpt>
      <trkpt lat="56.945893339732" lon="14.796417531076">
        <ele>208.6</ele>
        <time>2020-02-09T11:16:26Z</time>
      </trkpt>
      <trkpt lat="56.945753697278" lon="14.796503110275">
        <ele>208.8</ele>
        <time>2020-02-09T11:16:30Z</time>
      </trkpt>
      <trkpt lat="56.945256650608" lon="14.796614924821">
        <ele>207.8</ele>
        <time>2020-02-09T11:16:44Z</time>
      </trkpt>
      <trkpt lat="56.945077277948" lon="14.796734199258">
        <ele>209</ele>
        <time>2020-02-09T11:16:52Z</time>
      </trkpt>
      <trkpt lat="56.944998571907" lon="14.796890186417">
        <ele>209.8</ele>
        <time>2020-02-09T11:16:56Z</time>
      </trkpt>
      <trkpt lat="56.944901425686" lon="14.796970233562">
        <ele>208.8</ele>
        <time>2020-02-09T11:17:00Z</time>
      </trkpt>
      <trkpt lat="56.944597581811" lon="14.797219595087">
        <ele>208.4</ele>
        <time>2020-02-09T11:17:09Z</time>
      </trkpt>
      <trkpt lat="56.944530191335" lon="14.797310622521">
        <ele>208.6</ele>
        <time>2020-02-09T11:17:12Z</time>
      </trkpt>
      <trkpt lat="56.944482917419" lon="14.797348592528">
        <ele>208.8</ele>
        <time>2020-02-09T11:17:14Z</time>
      </trkpt>
      <trkpt lat="56.944443187213" lon="14.797409277484">
        <ele>208.8</ele>
        <time>2020-02-09T11:17:16Z</time>
      </trkpt>
      <trkpt lat="56.944342269137" lon="14.797614047301">
        <ele>210.2</ele>
        <time>2020-02-09T11:17:20Z</time>
      </trkpt>
      <trkpt lat="56.94432441569" lon="14.797645479426">
        <ele>210.4</ele>
        <time>2020-02-09T11:17:21Z</time>
      </trkpt>
      <trkpt lat="56.944091231232" lon="14.798191308754">
        <ele>209.4</ele>
        <time>2020-02-09T11:17:35Z</time>
      </trkpt>
      <trkpt lat="56.943906494156" lon="14.798476125716">
        <ele>209.4</ele>
        <time>2020-02-09T11:17:44Z</time>
      </trkpt>
      <trkpt lat="56.943801301311" lon="14.798718278807">
        <ele>209</ele>
        <time>2020-02-09T11:17:49Z</time>
      </trkpt>
      <trkpt lat="56.943734162292" lon="14.798910727231">
        <ele>208.4</ele>
        <time>2020-02-09T11:17:55Z</time>
      </trkpt>
      <trkpt lat="56.943557304202" lon="14.799255558597">
        <ele>209.2</ele>
        <time>2020-02-09T11:18:05Z</time>
      </trkpt>
      <trkpt lat="56.943459487429" lon="14.799584380534">
        <ele>209.4</ele>
        <time>2020-02-09T11:18:16Z</time>
      </trkpt>
      <trkpt lat="56.94342084687" lon="14.799762915004">
        <ele>209.2</ele>
        <time>2020-02-09T11:18:22Z</time>
      </trkpt>
      <trkpt lat="56.943341889372" lon="14.799924015122">
        <ele>209.2</ele>
        <time>2020-02-09T11:18:26Z</time>
      </trkpt>
      <trkpt lat="56.943288161393" lon="14.800072039476">
        <ele>209</ele>
        <time>2020-02-09T11:18:31Z</time>
      </trkpt>
      <trkpt lat="56.9432506943" lon="14.800147476576">
        <ele>209</ele>
        <time>2020-02-09T11:18:33Z</time>
      </trkpt>
      <trkpt lat="56.943218172528" lon="14.800188715524">
        <ele>209</ele>
        <time>2020-02-09T11:18:35Z</time>
      </trkpt>
      <trkpt lat="56.94318615367" lon="14.800252417964">
        <ele>208.6</ele>
        <time>2020-02-09T11:18:37Z</time>
      </trkpt>
      <trkpt lat="56.94292631477" lon="14.800602446108">
        <ele>208.8</ele>
        <time>2020-02-09T11:18:48Z</time>
      </trkpt>
      <trkpt lat="56.94290619821" lon="14.800690036963">
        <ele>209.2</ele>
        <time>2020-02-09T11:18:51Z</time>
      </trkpt>
      <trkpt lat="56.942850290937" lon="14.800759606733">
        <ele>208.8</ele>
        <time>2020-02-09T11:18:54Z</time>
      </trkpt>
      <trkpt lat="56.942817098613" lon="14.800839234783">
        <ele>208.8</ele>
        <time>2020-02-09T11:18:56Z</time>
      </trkpt>
      <trkpt lat="56.942812907663" lon="14.800891370201">
        <ele>208.6</ele>
        <time>2020-02-09T11:18:58Z</time>
      </trkpt>
      <trkpt lat="56.942738057296" lon="14.801122626822">
        <ele>209</ele>
        <time>2020-02-09T11:19:21Z</time>
      </trkpt>
      <trkpt lat="56.942719449478" lon="14.801216755559">
        <ele>209.2</ele>
        <time>2020-02-09T11:19:25Z</time>
      </trkpt>
      <trkpt lat="56.942710229388" lon="14.801267382235">
        <ele>209.2</ele>
        <time>2020-02-09T11:19:27Z</time>
      </trkpt>
      <trkpt lat="56.942693800864" lon="14.801384142102">
        <ele>209</ele>
        <time>2020-02-09T11:19:32Z</time>
      </trkpt>
      <trkpt lat="56.942680389824" lon="14.801552869749">
        <ele>209</ele>
        <time>2020-02-09T11:19:39Z</time>
      </trkpt>
      <trkpt lat="56.942700506384" lon="14.801610369583">
        <ele>209.2</ele>
        <time>2020-02-09T11:19:41Z</time>
      </trkpt>
      <trkpt lat="56.942700506384" lon="14.80169276366">
        <ele>209.2</ele>
        <time>2020-02-09T11:19:44Z</time>
      </trkpt>
      <trkpt lat="56.942636887763" lon="14.80198026283">
        <ele>210</ele>
        <time>2020-02-09T11:19:53Z</time>
      </trkpt>
      <trkpt lat="56.942626075112" lon="14.802081600001">
        <ele>210.4</ele>
        <time>2020-02-09T11:19:56Z</time>
      </trkpt>
      <trkpt lat="56.942121568551" lon="14.802435986733">
        <ele>211</ele>
        <time>2020-02-09T11:20:12Z</time>
      </trkpt>
      <trkpt lat="56.942088795322" lon="14.802429281213">
        <ele>211.4</ele>
        <time>2020-02-09T11:20:13Z</time>
      </trkpt>
      <trkpt lat="56.94178972913" lon="14.802048323858">
        <ele>211.4</ele>
        <time>2020-02-09T11:20:23Z</time>
      </trkpt>
      <trkpt lat="56.941677327851" lon="14.801858138547">
        <ele>210.2</ele>
        <time>2020-02-09T11:20:26Z</time>
      </trkpt>
      <trkpt lat="56.941428217783" lon="14.801451197302">
        <ele>211.2</ele>
        <time>2020-02-09T11:20:36Z</time>
      </trkpt>
      <trkpt lat="56.941237278101" lon="14.800992288277">
        <ele>210</ele>
        <time>2020-02-09T11:20:44Z</time>
      </trkpt>
      <trkpt lat="56.940911641286" lon="14.800636141346">
        <ele>209.2</ele>
        <time>2020-02-09T11:20:53Z</time>
      </trkpt>
      <trkpt lat="56.940786248062" lon="14.800605547411">
        <ele>209</ele>
        <time>2020-02-09T11:20:56Z</time>
      </trkpt>
      <trkpt lat="56.94046287436" lon="14.800456852505">
        <ele>210</ele>
        <time>2020-02-09T11:21:05Z</time>
      </trkpt>
      <trkpt lat="56.940299762586" lon="14.800382169776">
        <ele>210.4</ele>
        <time>2020-02-09T11:21:08Z</time>
      </trkpt>
      <trkpt lat="56.940117037166" lon="14.800168179869">
        <ele>209</ele>
        <time>2020-02-09T11:21:12Z</time>
      </trkpt>
      <trkpt lat="56.939899778318" lon="14.799841872502">
        <ele>210.6</ele>
        <time>2020-02-09T11:21:18Z</time>
      </trkpt>
      <trkpt lat="56.939832890756" lon="14.799741708797">
        <ele>211.8</ele>
        <time>2020-02-09T11:21:20Z</time>
      </trkpt>
      <trkpt lat="56.939778156949" lon="14.799646825689">
        <ele>212.8</ele>
        <time>2020-02-09T11:21:22Z</time>
      </trkpt>
      <trkpt lat="56.939686123687" lon="14.799468626495">
        <ele>213.8</ele>
        <time>2020-02-09T11:21:26Z</time>
      </trkpt>
      <trkpt lat="56.939614123166" lon="14.799350693162">
        <ele>215.2</ele>
        <time>2020-02-09T11:21:29Z</time>
      </trkpt>
      <trkpt lat="56.939096540841" lon="14.799070150969">
        <ele>216</ele>
        <time>2020-02-09T11:21:43Z</time>
      </trkpt>
      <trkpt lat="56.939054212246" lon="14.799049866771">
        <ele>216.2</ele>
        <time>2020-02-09T11:21:44Z</time>
      </trkpt>
      <trkpt lat="56.93892898666" lon="14.798945512116">
        <ele>216.4</ele>
        <time>2020-02-09T11:21:47Z</time>
      </trkpt>
      <trkpt lat="56.938713823287" lon="14.798683074827">
        <ele>215.6</ele>
        <time>2020-02-09T11:21:52Z</time>
      </trkpt>
      <trkpt lat="56.938623634043" lon="14.798547958599">
        <ele>215</ele>
        <time>2020-02-09T11:21:54Z</time>
      </trkpt>
      <trkpt lat="56.938494552783" lon="14.7983450328">
        <ele>213.8</ele>
        <time>2020-02-09T11:21:57Z</time>
      </trkpt>
      <trkpt lat="56.938410230869" lon="14.798226512734">
        <ele>212.4</ele>
        <time>2020-02-09T11:21:59Z</time>
      </trkpt>
      <trkpt lat="56.938287938948" lon="14.798071615222">
        <ele>211.4</ele>
        <time>2020-02-09T11:22:02Z</time>
      </trkpt>
      <trkpt lat="56.938250136579" lon="14.798034986319">
        <ele>211.6</ele>
        <time>2020-02-09T11:22:03Z</time>
      </trkpt>
      <trkpt lat="56.938115020351" lon="14.798020485632">
        <ele>212.2</ele>
        <time>2020-02-09T11:22:06Z</time>
      </trkpt>
      <trkpt lat="56.938008570221" lon="14.797959130124">
        <ele>212.2</ele>
        <time>2020-02-09T11:22:08Z</time>
      </trkpt>
      <trkpt lat="56.937653345299" lon="14.797766094967">
        <ele>211.6</ele>
        <time>2020-02-09T11:22:15Z</time>
      </trkpt>
      <trkpt lat="56.937555109431" lon="14.797680515768">
        <ele>211.4</ele>
        <time>2020-02-09T11:22:17Z</time>
      </trkpt>
      <trkpt lat="56.937406749801" lon="14.797551518327">
        <ele>211.4</ele>
        <time>2020-02-09T11:22:20Z</time>
      </trkpt>
      <trkpt lat="56.936854047315" lon="14.797195119939">
        <ele>212.4</ele>
        <time>2020-02-09T11:22:31Z</time>
      </trkpt>
      <trkpt lat="56.936801073707" lon="14.797178356139">
        <ele>212.6</ele>
        <time>2020-02-09T11:22:32Z</time>
      </trkpt>
      <trkpt lat="56.936626981644" lon="14.797107948179">
        <ele>213.2</ele>
        <time>2020-02-09T11:22:35Z</time>
      </trkpt>
      <trkpt lat="56.936084756533" lon="14.796841487578">
        <ele>211.8</ele>
        <time>2020-02-09T11:22:45Z</time>
      </trkpt>
      <trkpt lat="56.935977971127" lon="14.796782814278">
        <ele>211.4</ele>
        <time>2020-02-09T11:22:47Z</time>
      </trkpt>
      <trkpt lat="56.935546722372" lon="14.796679716908">
        <ele>210.4</ele>
        <time>2020-02-09T11:22:56Z</time>
      </trkpt>
      <trkpt lat="56.935480505362" lon="14.796667730791">
        <ele>210.4</ele>
        <time>2020-02-09T11:22:57Z</time>
      </trkpt>
      <trkpt lat="56.935391238127" lon="14.796552479666">
        <ele>211</ele>
        <time>2020-02-09T11:22:59Z</time>
      </trkpt>
      <trkpt lat="56.935323009461" lon="14.796446951545">
        <ele>211.2</ele>
        <time>2020-02-09T11:23:01Z</time>
      </trkpt>
      <trkpt lat="56.935277579563" lon="14.796394816127">
        <ele>211.6</ele>
        <time>2020-02-09T11:23:02Z</time>
      </trkpt>
      <trkpt lat="56.935110612115" lon="14.796249809257">
        <ele>212.2</ele>
        <time>2020-02-09T11:23:05Z</time>
      </trkpt>
      <trkpt lat="56.935013968808" lon="14.796152160122">
        <ele>212.2</ele>
        <time>2020-02-09T11:23:07Z</time>
      </trkpt>
      <trkpt lat="56.934881702426" lon="14.796142520937">
        <ele>211.6</ele>
        <time>2020-02-09T11:23:10Z</time>
      </trkpt>
      <trkpt lat="56.934777850685" lon="14.796044704164">
        <ele>211</ele>
        <time>2020-02-09T11:23:12Z</time>
      </trkpt>
      <trkpt lat="56.934668299252" lon="14.795830630438">
        <ele>210.8</ele>
        <time>2020-02-09T11:23:15Z</time>
      </trkpt>
      <trkpt lat="56.934591521048" lon="14.79570808706">
        <ele>211</ele>
        <time>2020-02-09T11:23:17Z</time>
      </trkpt>
      <trkpt lat="56.934475515552" lon="14.795560481801">
        <ele>212.6</ele>
        <time>2020-02-09T11:23:20Z</time>
      </trkpt>
      <trkpt lat="56.934292706313" lon="14.795337690899">
        <ele>213.8</ele>
        <time>2020-02-09T11:23:25Z</time>
      </trkpt>
      <trkpt lat="56.934083913184" lon="14.795078354913">
        <ele>215.2</ele>
        <time>2020-02-09T11:23:31Z</time>
      </trkpt>
      <trkpt lat="56.933935134459" lon="14.794895126579">
        <ele>216.4</ele>
        <time>2020-02-09T11:23:35Z</time>
      </trkpt>
      <trkpt lat="56.933822565542" lon="14.794733523547">
        <ele>216.4</ele>
        <time>2020-02-09T11:23:38Z</time>
      </trkpt>
      <trkpt lat="56.933605558151" lon="14.794490448447">
        <ele>215.8</ele>
        <time>2020-02-09T11:23:43Z</time>
      </trkpt>
      <trkpt lat="56.933330883288" lon="14.794126171073">
        <ele>216</ele>
        <time>2020-02-09T11:23:49Z</time>
      </trkpt>
      <trkpt lat="56.933197024345" lon="14.79397219557">
        <ele>214.8</ele>
        <time>2020-02-09T11:23:52Z</time>
      </trkpt>
      <trkpt lat="56.933109852585" lon="14.793900614144">
        <ele>213.4</ele>
        <time>2020-02-09T11:23:54Z</time>
      </trkpt>
      <trkpt lat="56.933072301673" lon="14.793867170363">
        <ele>213.2</ele>
        <time>2020-02-09T11:23:55Z</time>
      </trkpt>
      <trkpt lat="56.932590174785" lon="14.793411614098">
        <ele>214</ele>
        <time>2020-02-09T11:24:07Z</time>
      </trkpt>
      <trkpt lat="56.932506523423" lon="14.793366519476">
        <ele>214.8</ele>
        <time>2020-02-09T11:24:09Z</time>
      </trkpt>
      <trkpt lat="56.932464781561" lon="14.793352102608">
        <ele>215</ele>
        <time>2020-02-09T11:24:10Z</time>
      </trkpt>
      <trkpt lat="56.93237853181" lon="14.793334416799">
        <ele>215</ele>
        <time>2020-02-09T11:24:12Z</time>
      </trkpt>
      <trkpt lat="56.932000675758" lon="14.793381858353">
        <ele>215.2</ele>
        <time>2020-02-09T11:24:21Z</time>
      </trkpt>
      <trkpt lat="56.931915934749" lon="14.793404908578">
        <ele>216</ele>
        <time>2020-02-09T11:24:23Z</time>
      </trkpt>
      <trkpt lat="56.93167026126" lon="14.79351957297">
        <ele>216.8</ele>
        <time>2020-02-09T11:24:29Z</time>
      </trkpt>
      <trkpt lat="56.931626004828" lon="14.793536923503">
        <ele>217</ele>
        <time>2020-02-09T11:24:30Z</time>
      </trkpt>
      <trkpt lat="56.931068776116" lon="14.793828278347">
        <ele>217.4</ele>
        <time>2020-02-09T11:24:43Z</time>
      </trkpt>
      <trkpt lat="56.930974647379" lon="14.793885778181">
        <ele>218</ele>
        <time>2020-02-09T11:24:45Z</time>
      </trkpt>
      <trkpt lat="56.930593690024" lon="14.793992144492">
        <ele>217.2</ele>
        <time>2020-02-09T11:24:53Z</time>
      </trkpt>
      <trkpt lat="56.930344412318" lon="14.794055092561">
        <ele>217</ele>
        <time>2020-02-09T11:24:58Z</time>
      </trkpt>
      <trkpt lat="56.930099241743" lon="14.79404092715">
        <ele>216.4</ele>
        <time>2020-02-09T11:25:04Z</time>
      </trkpt>
      <trkpt lat="56.929948367543" lon="14.794042184435">
        <ele>217.8</ele>
        <time>2020-02-09T11:25:07Z</time>
      </trkpt>
      <trkpt lat="56.929901428903" lon="14.794047381213">
        <ele>218.2</ele>
        <time>2020-02-09T11:25:08Z</time>
      </trkpt>
      <trkpt lat="56.929853819711" lon="14.794065989031">
        <ele>218.4</ele>
        <time>2020-02-09T11:25:09Z</time>
      </trkpt>
      <trkpt lat="56.929705711538" lon="14.794143856882">
        <ele>219.2</ele>
        <time>2020-02-09T11:25:12Z</time>
      </trkpt>
      <trkpt lat="56.929353839376" lon="14.794221054181">
        <ele>220.4</ele>
        <time>2020-02-09T11:25:19Z</time>
      </trkpt>
      <trkpt lat="56.928789486049" lon="14.794391961122">
        <ele>221.2</ele>
        <time>2020-02-09T11:25:31Z</time>
      </trkpt>
      <trkpt lat="56.928694602941" lon="14.79442984731">
        <ele>221.6</ele>
        <time>2020-02-09T11:25:33Z</time>
      </trkpt>
      <trkpt lat="56.92830492841" lon="14.794565214995">
        <ele>222.8</ele>
        <time>2020-02-09T11:25:42Z</time>
      </trkpt>
      <trkpt lat="56.928032851936" lon="14.794643082846">
        <ele>223.8</ele>
        <time>2020-02-09T11:25:49Z</time>
      </trkpt>
      <trkpt lat="56.927686930923" lon="14.794717514118">
        <ele>225.2</ele>
        <time>2020-02-09T11:25:59Z</time>
      </trkpt>
      <trkpt lat="56.927283426257" lon="14.794852630346">
        <ele>226.2</ele>
        <time>2020-02-09T11:26:10Z</time>
      </trkpt>
      <trkpt lat="56.927220562007" lon="14.794683567423">
        <ele>227.6</ele>
        <time>2020-02-09T11:26:14Z</time>
      </trkpt>
      <trkpt lat="56.92721360503" lon="14.794617350413">
        <ele>227.8</ele>
        <time>2020-02-09T11:26:15Z</time>
      </trkpt>
      <trkpt lat="56.927216538695" lon="14.794353488201">
        <ele>228.2</ele>
        <time>2020-02-09T11:26:18Z</time>
      </trkpt>
      <trkpt lat="56.927220478188" lon="14.793281275553">
        <ele>226.4</ele>
        <time>2020-02-09T11:26:29Z</time>
      </trkpt>
      <trkpt lat="56.927213772668" lon="14.792803507253">
        <ele>225</ele>
        <time>2020-02-09T11:26:33Z</time>
      </trkpt>
      <trkpt lat="56.927206396596" lon="14.792422885174">
        <ele>223.8</ele>
        <time>2020-02-09T11:26:36Z</time>
      </trkpt>
      <trkpt lat="56.927173874824" lon="14.792038658878">
        <ele>222.8</ele>
        <time>2020-02-09T11:26:39Z</time>
      </trkpt>
      <trkpt lat="56.927134312256" lon="14.791667508346">
        <ele>221.6</ele>
        <time>2020-02-09T11:26:42Z</time>
      </trkpt>
      <trkpt lat="56.927091061652" lon="14.791457877027">
        <ele>221.2</ele>
        <time>2020-02-09T11:26:44Z</time>
      </trkpt>
      <trkpt lat="56.927013529077" lon="14.791228296786">
        <ele>220.4</ele>
        <time>2020-02-09T11:26:47Z</time>
      </trkpt>
      <trkpt lat="56.92677858442" lon="14.790751282857">
        <ele>221.8</ele>
        <time>2020-02-09T11:26:55Z</time>
      </trkpt>
      <trkpt lat="56.926751846159" lon="14.790715073049">
        <ele>222.2</ele>
        <time>2020-02-09T11:26:56Z</time>
      </trkpt>
      <trkpt lat="56.926689149547" lon="14.790650951514">
        <ele>222.6</ele>
        <time>2020-02-09T11:26:58Z</time>
      </trkpt>
      <trkpt lat="56.926664674399" lon="14.79063787575">
        <ele>222.8</ele>
        <time>2020-02-09T11:26:59Z</time>
      </trkpt>
      <trkpt lat="56.926260666819" lon="14.790729825193">
        <ele>223.8</ele>
        <time>2020-02-09T11:27:13Z</time>
      </trkpt>
      <trkpt lat="56.926163017684" lon="14.790755892902">
        <ele>225.4</ele>
        <time>2020-02-09T11:27:17Z</time>
      </trkpt>
      <trkpt lat="56.926100237253" lon="14.790768298114">
        <ele>226.2</ele>
        <time>2020-02-09T11:27:19Z</time>
      </trkpt>
      <trkpt lat="56.926028823465" lon="14.790862929765">
        <ele>226.2</ele>
        <time>2020-02-09T11:27:22Z</time>
      </trkpt>
      <trkpt lat="56.925949446872" lon="14.790842813205">
        <ele>226</ele>
        <time>2020-02-09T11:27:25Z</time>
      </trkpt>
      <trkpt lat="56.925772924058" lon="14.790856140426">
        <ele>226</ele>
        <time>2020-02-09T11:27:30Z</time>
      </trkpt>
      <trkpt lat="56.925693463646" lon="14.79075438416">
        <ele>226.4</ele>
        <time>2020-02-09T11:27:33Z</time>
      </trkpt>
      <trkpt lat="56.925689691791" lon="14.790702332561">
        <ele>226.6</ele>
        <time>2020-02-09T11:27:34Z</time>
      </trkpt>
      <trkpt lat="56.925629006835" lon="14.790415252486">
        <ele>227.6</ele>
        <time>2020-02-09T11:27:39Z</time>
      </trkpt>
      <trkpt lat="56.925626995179" lon="14.789644033867">
        <ele>227.8</ele>
        <time>2020-02-09T11:27:52Z</time>
      </trkpt>
      <trkpt lat="56.925876105247" lon="14.789501793024">
        <ele>226.6</ele>
        <time>2020-02-09T11:28:00Z</time>
      </trkpt>
      <trkpt lat="56.9259923622" lon="14.789419482766">
        <ele>225.4</ele>
        <time>2020-02-09T11:28:05Z</time>
      </trkpt>
      <trkpt lat="56.926233258006" lon="14.789365000416">
        <ele>224</ele>
        <time>2020-02-09T11:28:10Z</time>
      </trkpt>
      <trkpt lat="56.926445152438" lon="14.78928755166">
        <ele>222.8</ele>
        <time>2020-02-09T11:28:14Z</time>
      </trkpt>
      <trkpt lat="56.92662519565" lon="14.789184538109">
        <ele>221.6</ele>
        <time>2020-02-09T11:28:17Z</time>
      </trkpt>
      <trkpt lat="56.926752851987" lon="14.788887232116">
        <ele>221.4</ele>
        <time>2020-02-09T11:28:21Z</time>
      </trkpt>
      <trkpt lat="56.926807585794" lon="14.788526978054">
        <ele>220.8</ele>
        <time>2020-02-09T11:28:26Z</time>
      </trkpt>
      <trkpt lat="56.92684480143" lon="14.788422036666">
        <ele>220.6</ele>
        <time>2020-02-09T11:28:29Z</time>
      </trkpt>
      <trkpt lat="56.926860559402" lon="14.788337463295">
        <ele>220.6</ele>
        <time>2020-02-09T11:28:30Z</time>
      </trkpt>
      <trkpt lat="56.926896098658" lon="14.787480246382">
        <ele>220</ele>
        <time>2020-02-09T11:28:41Z</time>
      </trkpt>
      <trkpt lat="56.926831306571" lon="14.787320655006">
        <ele>220.4</ele>
        <time>2020-02-09T11:28:45Z</time>
      </trkpt>
      <trkpt lat="56.92670230913" lon="14.787210349202">
        <ele>221.6</ele>
        <time>2020-02-09T11:28:49Z</time>
      </trkpt>
      <trkpt lat="56.926349598778" lon="14.787382429609">
        <ele>222.8</ele>
        <time>2020-02-09T11:29:00Z</time>
      </trkpt>
      <trkpt lat="56.926229318513" lon="14.787358205918">
        <ele>224</ele>
        <time>2020-02-09T11:29:04Z</time>
      </trkpt>
      <trkpt lat="56.925964031378" lon="14.78738653674">
        <ele>224.4</ele>
        <time>2020-02-09T11:29:13Z</time>
      </trkpt>
      <trkpt lat="56.925895299798" lon="14.787475887794">
        <ele>225</ele>
        <time>2020-02-09T11:29:16Z</time>
      </trkpt>
      <trkpt lat="56.925774768076" lon="14.787694320108">
        <ele>226</ele>
        <time>2020-02-09T11:29:22Z</time>
      </trkpt>
      <trkpt lat="56.925706287953" lon="14.787762548774">
        <ele>226.4</ele>
        <time>2020-02-09T11:29:24Z</time>
      </trkpt>
      <trkpt lat="56.925617775089" lon="14.787829268698">
        <ele>227.2</ele>
        <time>2020-02-09T11:29:28Z</time>
      </trkpt>
      <trkpt lat="56.925563125101" lon="14.787976957776">
        <ele>228.4</ele>
        <time>2020-02-09T11:29:31Z</time>
      </trkpt>
      <trkpt lat="56.925553569735" lon="14.788624794827">
        <ele>228</ele>
        <time>2020-02-09T11:29:43Z</time>
      </trkpt>
      <trkpt lat="56.925581313824" lon="14.789163164264">
        <ele>229.6</ele>
        <time>2020-02-09T11:29:52Z</time>
      </trkpt>
      <trkpt lat="56.925621295487" lon="14.789302890537">
        <ele>229.4</ele>
        <time>2020-02-09T11:29:54Z</time>
      </trkpt>
      <trkpt lat="56.925454914772" lon="14.790269239788">
        <ele>229.8</ele>
        <time>2020-02-09T11:30:13Z</time>
      </trkpt>
      <trkpt lat="56.925439492076" lon="14.790378455945">
        <ele>229.4</ele>
        <time>2020-02-09T11:30:15Z</time>
      </trkpt>
      <trkpt lat="56.925305716952" lon="14.790484403161">
        <ele>228.8</ele>
        <time>2020-02-09T11:30:20Z</time>
      </trkpt>
      <trkpt lat="56.92528492984" lon="14.790450288828">
        <ele>228.8</ele>
        <time>2020-02-09T11:30:22Z</time>
      </trkpt>
      <trkpt lat="56.925243690892" lon="14.790193132136">
        <ele>230.6</ele>
        <time>2020-02-09T11:30:30Z</time>
      </trkpt>
      <trkpt lat="56.92521703645" lon="14.790150719722">
        <ele>230.8</ele>
        <time>2020-02-09T11:30:32Z</time>
      </trkpt>
      <trkpt lat="56.925169511077" lon="14.790020884091">
        <ele>229.8</ele>
        <time>2020-02-09T11:30:35Z</time>
      </trkpt>
      <trkpt lat="56.92514495211" lon="14.789908147536">
        <ele>229.6</ele>
        <time>2020-02-09T11:30:37Z</time>
      </trkpt>
      <trkpt lat="56.925128104491" lon="14.78934035763">
        <ele>230.8</ele>
        <time>2020-02-09T11:30:46Z</time>
      </trkpt>
      <trkpt lat="56.925107065922" lon="14.788922017001">
        <ele>230.8</ele>
        <time>2020-02-09T11:30:52Z</time>
      </trkpt>
      <trkpt lat="56.925069850286" lon="14.7886807021">
        <ele>230.6</ele>
        <time>2020-02-09T11:30:55Z</time>
      </trkpt>
      <trkpt lat="56.924942613044" lon="14.788370320343">
        <ele>229.6</ele>
        <time>2020-02-09T11:31:00Z</time>
      </trkpt>
      <trkpt lat="56.924908750168" lon="14.788217266849">
        <ele>228.6</ele>
        <time>2020-02-09T11:31:02Z</time>
      </trkpt>
      <trkpt lat="56.924892573101" lon="14.788122383741">
        <ele>228.4</ele>
        <time>2020-02-09T11:31:03Z</time>
      </trkpt>
      <trkpt lat="56.92487673131" lon="14.788046024632">
        <ele>228</ele>
        <time>2020-02-09T11:31:04Z</time>
      </trkpt>
      <trkpt lat="56.924823422426" lon="14.787693817194">
        <ele>227.4</ele>
        <time>2020-02-09T11:31:09Z</time>
      </trkpt>
      <trkpt lat="56.924809843748" lon="14.787197776352">
        <ele>226</ele>
        <time>2020-02-09T11:31:15Z</time>
      </trkpt>
      <trkpt lat="56.924783608401" lon="14.787097277371">
        <ele>225.4</ele>
        <time>2020-02-09T11:31:16Z</time>
      </trkpt>
      <trkpt lat="56.924757121597" lon="14.787019493339">
        <ele>224.6</ele>
        <time>2020-02-09T11:31:17Z</time>
      </trkpt>
      <trkpt lat="56.924732227354" lon="14.786904409852">
        <ele>223.8</ele>
        <time>2020-02-09T11:31:18Z</time>
      </trkpt>
      <trkpt lat="56.924722588169" lon="14.786818160101">
        <ele>223.4</ele>
        <time>2020-02-09T11:31:19Z</time>
      </trkpt>
      <trkpt lat="56.924698951211" lon="14.786643565124">
        <ele>223</ele>
        <time>2020-02-09T11:31:21Z</time>
      </trkpt>
      <trkpt lat="56.924669530742" lon="14.786365034587">
        <ele>223.2</ele>
        <time>2020-02-09T11:31:23Z</time>
      </trkpt>
      <trkpt lat="56.924681516859" lon="14.785482755793">
        <ele>223</ele>
        <time>2020-02-09T11:31:31Z</time>
      </trkpt>
      <trkpt lat="56.924837504018" lon="14.785422825208">
        <ele>222.4</ele>
        <time>2020-02-09T11:31:38Z</time>
      </trkpt>
      <trkpt lat="56.924949486202" lon="14.785213445346">
        <ele>221.2</ele>
        <time>2020-02-09T11:31:45Z</time>
      </trkpt>
      <trkpt lat="56.925008913873" lon="14.785044550061">
        <ele>220.4</ele>
        <time>2020-02-09T11:31:54Z</time>
      </trkpt>
      <trkpt lat="56.925001286344" lon="14.784963497088">
        <ele>220.2</ele>
        <time>2020-02-09T11:31:56Z</time>
      </trkpt>
      <trkpt lat="56.925053673219" lon="14.784736934331">
        <ele>220</ele>
        <time>2020-02-09T11:32:00Z</time>
      </trkpt>
      <trkpt lat="56.92561350032" lon="14.784855454397">
        <ele>219.6</ele>
        <time>2020-02-09T11:32:16Z</time>
      </trkpt>
      <trkpt lat="56.925929162674" lon="14.784836595122">
        <ele>219</ele>
        <time>2020-02-09T11:32:28Z</time>
      </trkpt>
      <trkpt lat="56.925988003612" lon="14.784736012322">
        <ele>218.6</ele>
        <time>2020-02-09T11:32:31Z</time>
      </trkpt>
      <trkpt lat="56.925958331686" lon="14.784523614976">
        <ele>218.8</ele>
        <time>2020-02-09T11:32:36Z</time>
      </trkpt>
      <trkpt lat="56.925997978073" lon="14.784283892636">
        <ele>218.6</ele>
        <time>2020-02-09T11:32:41Z</time>
      </trkpt>
      <trkpt lat="56.926179613846" lon="14.784029753428">
        <ele>218.2</ele>
        <time>2020-02-09T11:32:59Z</time>
      </trkpt>
      <trkpt lat="56.926191935239" lon="14.783935373234">
        <ele>218.2</ele>
        <time>2020-02-09T11:33:01Z</time>
      </trkpt>
      <trkpt lat="56.926319675395" lon="14.783851638053">
        <ele>217.8</ele>
        <time>2020-02-09T11:33:08Z</time>
      </trkpt>
      <trkpt lat="56.926383880749" lon="14.783786259233">
        <ele>217.6</ele>
        <time>2020-02-09T11:33:11Z</time>
      </trkpt>
      <trkpt lat="56.92641229539" lon="14.783316621376">
        <ele>216.8</ele>
        <time>2020-02-09T11:33:19Z</time>
      </trkpt>
      <trkpt lat="56.926196126189" lon="14.782780263595">
        <ele>215.8</ele>
        <time>2020-02-09T11:33:29Z</time>
      </trkpt>
      <trkpt lat="56.926061261418" lon="14.782544983662">
        <ele>215</ele>
        <time>2020-02-09T11:33:33Z</time>
      </trkpt>
      <trkpt lat="56.925982890653" lon="14.782402742819">
        <ele>214.8</ele>
        <time>2020-02-09T11:33:35Z</time>
      </trkpt>
      <trkpt lat="56.925855066678" lon="14.78220568435">
        <ele>214.8</ele>
        <time>2020-02-09T11:33:38Z</time>
      </trkpt>
      <trkpt lat="56.925812905721" lon="14.782152291647">
        <ele>214.6</ele>
        <time>2020-02-09T11:33:39Z</time>
      </trkpt>
      <trkpt lat="56.925691535809" lon="14.781952886246">
        <ele>214.6</ele>
        <time>2020-02-09T11:33:42Z</time>
      </trkpt>
      <trkpt lat="56.925486514535" lon="14.781456174852">
        <ele>215.2</ele>
        <time>2020-02-09T11:33:49Z</time>
      </trkpt>
      <trkpt lat="56.925352655592" lon="14.78101461636">
        <ele>215.8</ele>
        <time>2020-02-09T11:33:54Z</time>
      </trkpt>
      <trkpt lat="56.925199099184" lon="14.780528801436">
        <ele>216.6</ele>
        <time>2020-02-09T11:34:00Z</time>
      </trkpt>
      <trkpt lat="56.925117124202" lon="14.780434421242">
        <ele>216.8</ele>
        <time>2020-02-09T11:34:02Z</time>
      </trkpt>
      <trkpt lat="56.924670117475" lon="14.779772837875">
        <ele>216.2</ele>
        <time>2020-02-09T11:34:11Z</time>
      </trkpt>
      <trkpt lat="56.924338864787" lon="14.779098094925">
        <ele>215.8</ele>
        <time>2020-02-09T11:34:19Z</time>
      </trkpt>
      <trkpt lat="56.92425060338" lon="14.778994159365">
        <ele>215.6</ele>
        <time>2020-02-09T11:34:21Z</time>
      </trkpt>
      <trkpt lat="56.924143063603" lon="14.778964235982">
        <ele>215.6</ele>
        <time>2020-02-09T11:34:23Z</time>
      </trkpt>
      <trkpt lat="56.924062597363" lon="14.779026848775">
        <ele>215.2</ele>
        <time>2020-02-09T11:34:25Z</time>
      </trkpt>
      <trkpt lat="56.923981376752" lon="14.779206305254">
        <ele>215</ele>
        <time>2020-02-09T11:34:29Z</time>
      </trkpt>
      <trkpt lat="56.923662445457" lon="14.779631351403">
        <ele>216.6</ele>
        <time>2020-02-09T11:34:38Z</time>
      </trkpt>
      <trkpt lat="56.923623553441" lon="14.779629423566">
        <ele>217.4</ele>
        <time>2020-02-09T11:34:39Z</time>
      </trkpt>
      <trkpt lat="56.923573848774" lon="14.77963495562">
        <ele>218</ele>
        <time>2020-02-09T11:34:40Z</time>
      </trkpt>
      <trkpt lat="56.92347695401" lon="14.779582652564">
        <ele>218.4</ele>
        <time>2020-02-09T11:34:42Z</time>
      </trkpt>
      <trkpt lat="56.923435212148" lon="14.779553399733">
        <ele>218.6</ele>
        <time>2020-02-09T11:34:43Z</time>
      </trkpt>
      <trkpt lat="56.923330606036" lon="14.779561865452">
        <ele>218.4</ele>
        <time>2020-02-09T11:34:45Z</time>
      </trkpt>
      <trkpt lat="56.923216109282" lon="14.779608636454">
        <ele>218.2</ele>
        <time>2020-02-09T11:34:47Z</time>
      </trkpt>
      <trkpt lat="56.923119717432" lon="14.779420546618">
        <ele>218.4</ele>
        <time>2020-02-09T11:34:50Z</time>
      </trkpt>
      <trkpt lat="56.922995916769" lon="14.778574309994">
        <ele>218.2</ele>
        <time>2020-02-09T11:34:59Z</time>
      </trkpt>
      <trkpt lat="56.922940344772" lon="14.778419915396">
        <ele>218.4</ele>
        <time>2020-02-09T11:35:01Z</time>
      </trkpt>
      <trkpt lat="56.922821657068" lon="14.778210535534">
        <ele>218.4</ele>
        <time>2020-02-09T11:35:04Z</time>
      </trkpt>
      <trkpt lat="56.922649157566" lon="14.777766211015">
        <ele>217.6</ele>
        <time>2020-02-09T11:35:09Z</time>
      </trkpt>
      <trkpt lat="56.922576067398" lon="14.777345104359">
        <ele>217.6</ele>
        <time>2020-02-09T11:35:13Z</time>
      </trkpt>
      <trkpt lat="56.922539941409" lon="14.777247036129">
        <ele>217.2</ele>
        <time>2020-02-09T11:35:14Z</time>
      </trkpt>
      <trkpt lat="56.922487135439" lon="14.777169252097">
        <ele>216.8</ele>
        <time>2020-02-09T11:35:15Z</time>
      </trkpt>
      <trkpt lat="56.922430557614" lon="14.777105801114">
        <ele>216</ele>
        <time>2020-02-09T11:35:16Z</time>
      </trkpt>
      <trkpt lat="56.922318156335" lon="14.777001781735">
        <ele>214.6</ele>
        <time>2020-02-09T11:35:18Z</time>
      </trkpt>
      <trkpt lat="56.921984724353" lon="14.776691986711">
        <ele>215.8</ele>
        <time>2020-02-09T11:35:24Z</time>
      </trkpt>
      <trkpt lat="56.921880956431" lon="14.776602551838">
        <ele>216.8</ele>
        <time>2020-02-09T11:35:26Z</time>
      </trkpt>
      <trkpt lat="56.921674510234" lon="14.776415551649">
        <ele>217.2</ele>
        <time>2020-02-09T11:35:30Z</time>
      </trkpt>
      <trkpt lat="56.921433530609" lon="14.77614724703">
        <ele>216.4</ele>
        <time>2020-02-09T11:35:35Z</time>
      </trkpt>
      <trkpt lat="56.921413078773" lon="14.775948009267">
        <ele>216.4</ele>
        <time>2020-02-09T11:35:37Z</time>
      </trkpt>
      <trkpt lat="56.921484995475" lon="14.775417937911">
        <ele>216.2</ele>
        <time>2020-02-09T11:35:43Z</time>
      </trkpt>
      <trkpt lat="56.92149379647" lon="14.775218113415">
        <ele>215.8</ele>
        <time>2020-02-09T11:35:45Z</time>
      </trkpt>
      <trkpt lat="56.921366307771" lon="14.774891051677">
        <ele>215.2</ele>
        <time>2020-02-09T11:35:49Z</time>
      </trkpt>
      <trkpt lat="56.921281818219" lon="14.774786361746">
        <ele>214.6</ele>
        <time>2020-02-09T11:35:51Z</time>
      </trkpt>
      <trkpt lat="56.92114343305" lon="14.774651664613">
        <ele>214</ele>
        <time>2020-02-09T11:35:54Z</time>
      </trkpt>
      <trkpt lat="56.920696342504" lon="14.774212033958">
        <ele>214</ele>
        <time>2020-02-09T11:36:03Z</time>
      </trkpt>
      <trkpt lat="56.920610511848" lon="14.774131651537">
        <ele>214.2</ele>
        <time>2020-02-09T11:36:05Z</time>
      </trkpt>
      <trkpt lat="56.920376824476" lon="14.773912800128">
        <ele>213.6</ele>
        <time>2020-02-09T11:36:10Z</time>
      </trkpt>
      <trkpt lat="56.920143388561" lon="14.773690009226">
        <ele>214</ele>
        <time>2020-02-09T11:36:15Z</time>
      </trkpt>
      <trkpt lat="56.919956472191" lon="14.773475851681">
        <ele>214.6</ele>
        <time>2020-02-09T11:36:19Z</time>
      </trkpt>
      <trkpt lat="56.919842645989" lon="14.773369820646">
        <ele>215</ele>
        <time>2020-02-09T11:36:21Z</time>
      </trkpt>
      <trkpt lat="56.919603594201" lon="14.773145772459">
        <ele>215.8</ele>
        <time>2020-02-09T11:36:25Z</time>
      </trkpt>
      <trkpt lat="56.919503179039" lon="14.773038903234">
        <ele>215.8</ele>
        <time>2020-02-09T11:36:27Z</time>
      </trkpt>
      <trkpt lat="56.91929606229" lon="14.772867744836">
        <ele>215</ele>
        <time>2020-02-09T11:36:31Z</time>
      </trkpt>
      <trkpt lat="56.919049047697" lon="14.772633051636">
        <ele>215</ele>
        <time>2020-02-09T11:36:36Z</time>
      </trkpt>
      <trkpt lat="56.918996157908" lon="14.772591142136">
        <ele>214.6</ele>
        <time>2020-02-09T11:36:37Z</time>
      </trkpt>
      <trkpt lat="56.91894402249" lon="14.77254303003">
        <ele>214.6</ele>
        <time>2020-02-09T11:36:38Z</time>
      </trkpt>
      <trkpt lat="56.918705305978" lon="14.772264834769">
        <ele>214</ele>
        <time>2020-02-09T11:36:43Z</time>
      </trkpt>
      <trkpt lat="56.918563400411" lon="14.772199288311">
        <ele>215</ele>
        <time>2020-02-09T11:36:46Z</time>
      </trkpt>
      <trkpt lat="56.918472289158" lon="14.772210687695">
        <ele>215.4</ele>
        <time>2020-02-09T11:36:48Z</time>
      </trkpt>
      <trkpt lat="56.918392325832" lon="14.772192415153">
        <ele>215.8</ele>
        <time>2020-02-09T11:36:50Z</time>
      </trkpt>
      <trkpt lat="56.918300795484" lon="14.772148074902">
        <ele>216</ele>
        <time>2020-02-09T11:36:52Z</time>
      </trkpt>
      <trkpt lat="56.918206582928" lon="14.772108177058">
        <ele>216.4</ele>
        <time>2020-02-09T11:36:54Z</time>
      </trkpt>
      <trkpt lat="56.918118824435" lon="14.772051683052">
        <ele>216.8</ele>
        <time>2020-02-09T11:36:56Z</time>
      </trkpt>
      <trkpt lat="56.917602247938" lon="14.77155899497">
        <ele>217.4</ele>
        <time>2020-02-09T11:37:07Z</time>
      </trkpt>
      <trkpt lat="56.917280382978" lon="14.771259174407">
        <ele>218</ele>
        <time>2020-02-09T11:37:14Z</time>
      </trkpt>
      <trkpt lat="56.917239563125" lon="14.771220450029">
        <ele>218.4</ele>
        <time>2020-02-09T11:37:15Z</time>
      </trkpt>
      <trkpt lat="56.917081815767" lon="14.77101584785">
        <ele>219.2</ele>
        <time>2020-02-09T11:37:19Z</time>
      </trkpt>
      <trkpt lat="56.916909316265" lon="14.770789452731">
        <ele>219.2</ele>
        <time>2020-02-09T11:37:23Z</time>
      </trkpt>
      <trkpt lat="56.916758693522" lon="14.770649391182">
        <ele>219</ele>
        <time>2020-02-09T11:37:26Z</time>
      </trkpt>
      <trkpt lat="56.916650650831" lon="14.770602536361">
        <ele>218.8</ele>
        <time>2020-02-09T11:37:28Z</time>
      </trkpt>
      <trkpt lat="56.916455352561" lon="14.770603039275">
        <ele>218.4</ele>
        <time>2020-02-09T11:37:32Z</time>
      </trkpt>
      <trkpt lat="56.916358373978" lon="14.770601195257">
        <ele>218.4</ele>
        <time>2020-02-09T11:37:34Z</time>
      </trkpt>
      <trkpt lat="56.916253013495" lon="14.770602284904">
        <ele>218.2</ele>
        <time>2020-02-09T11:37:36Z</time>
      </trkpt>
      <trkpt lat="56.916011028042" lon="14.770554340436">
        <ele>219</ele>
        <time>2020-02-09T11:37:41Z</time>
      </trkpt>
      <trkpt lat="56.915707016529" lon="14.770358120157">
        <ele>219.6</ele>
        <time>2020-02-09T11:37:47Z</time>
      </trkpt>
      <trkpt lat="56.915378446049" lon="14.770234570951">
        <ele>219.4</ele>
        <time>2020-02-09T11:37:53Z</time>
      </trkpt>
      <trkpt lat="56.915152470025" lon="14.770166174647">
        <ele>219.6</ele>
        <time>2020-02-09T11:37:57Z</time>
      </trkpt>
      <trkpt lat="56.914967481492" lon="14.770075314851">
        <ele>220</ele>
        <time>2020-02-09T11:38:01Z</time>
      </trkpt>
      <trkpt lat="56.914877795162" lon="14.769933576922">
        <ele>220</ele>
        <time>2020-02-09T11:38:03Z</time>
      </trkpt>
      <trkpt lat="56.914803280071" lon="14.769765436008">
        <ele>220</ele>
        <time>2020-02-09T11:38:05Z</time>
      </trkpt>
      <trkpt lat="56.914728178247" lon="14.769579609285">
        <ele>220.2</ele>
        <time>2020-02-09T11:38:07Z</time>
      </trkpt>
      <trkpt lat="56.914692303715" lon="14.769482211607">
        <ele>220.4</ele>
        <time>2020-02-09T11:38:08Z</time>
      </trkpt>
      <trkpt lat="56.914608484715" lon="14.769314070693">
        <ele>220.6</ele>
        <time>2020-02-09T11:38:10Z</time>
      </trkpt>
      <trkpt lat="56.91450413006" lon="14.769199071025">
        <ele>220.8</ele>
        <time>2020-02-09T11:38:12Z</time>
      </trkpt>
      <trkpt lat="56.914168099689" lon="14.769043419142">
        <ele>220</ele>
        <time>2020-02-09T11:38:18Z</time>
      </trkpt>
      <trkpt lat="56.914062906844" lon="14.768975274295">
        <ele>219.2</ele>
        <time>2020-02-09T11:38:20Z</time>
      </trkpt>
      <trkpt lat="56.914005574648" lon="14.768929257664">
        <ele>219</ele>
        <time>2020-02-09T11:38:21Z</time>
      </trkpt>
      <trkpt lat="56.913632663917" lon="14.768797578015">
        <ele>218.2</ele>
        <time>2020-02-09T11:38:27Z</time>
      </trkpt>
      <trkpt lat="56.913524202131" lon="14.768736390145">
        <ele>217.8</ele>
        <time>2020-02-09T11:38:29Z</time>
      </trkpt>
      <trkpt lat="56.913359833072" lon="14.768654247525">
        <ele>216.6</ele>
        <time>2020-02-09T11:38:32Z</time>
      </trkpt>
      <trkpt lat="56.913258160625" lon="14.768598759347">
        <ele>216.4</ele>
        <time>2020-02-09T11:38:34Z</time>
      </trkpt>
      <trkpt lat="56.913158164558" lon="14.768569674154">
        <ele>217</ele>
        <time>2020-02-09T11:38:36Z</time>
      </trkpt>
      <trkpt lat="56.913031933144" lon="14.768551150155">
        <ele>218.4</ele>
        <time>2020-02-09T11:38:38Z</time>
      </trkpt>
      <trkpt lat="56.912782236343" lon="14.768462972567">
        <ele>219</ele>
        <time>2020-02-09T11:38:42Z</time>
      </trkpt>
      <trkpt lat="56.912345706991" lon="14.768296424214">
        <ele>218.4</ele>
        <time>2020-02-09T11:38:50Z</time>
      </trkpt>
      <trkpt lat="56.912200448664" lon="14.768276559111">
        <ele>218.8</ele>
        <time>2020-02-09T11:38:53Z</time>
      </trkpt>
      <trkpt lat="56.912112941628" lon="14.768262561338">
        <ele>218.6</ele>
        <time>2020-02-09T11:38:55Z</time>
      </trkpt>
      <trkpt lat="56.911964498179" lon="14.768282845536">
        <ele>218.2</ele>
        <time>2020-02-09T11:38:58Z</time>
      </trkpt>
      <trkpt lat="56.911812534332" lon="14.768335651506">
        <ele>217.8</ele>
        <time>2020-02-09T11:39:01Z</time>
      </trkpt>
      <trkpt lat="56.911647075626" lon="14.768386613458">
        <ele>219.6</ele>
        <time>2020-02-09T11:39:05Z</time>
      </trkpt>
      <trkpt lat="56.911381620853" lon="14.768356690075">
        <ele>219.8</ele>
        <time>2020-02-09T11:39:11Z</time>
      </trkpt>
      <trkpt lat="56.910799497898" lon="14.768292233264">
        <ele>220.4</ele>
        <time>2020-02-09T11:39:22Z</time>
      </trkpt>
      <trkpt lat="56.910708051369" lon="14.768286198296">
        <ele>220.8</ele>
        <time>2020-02-09T11:39:24Z</time>
      </trkpt>
      <trkpt lat="56.91031066549" lon="14.768266333193">
        <ele>222</ele>
        <time>2020-02-09T11:39:32Z</time>
      </trkpt>
      <trkpt lat="56.91015392396" lon="14.768222328218">
        <ele>223.2</ele>
        <time>2020-02-09T11:39:35Z</time>
      </trkpt>
      <trkpt lat="56.909867765894" lon="14.768127361291">
        <ele>223.8</ele>
        <time>2020-02-09T11:39:40Z</time>
      </trkpt>
      <trkpt lat="56.909467362531" lon="14.768115626631">
        <ele>222.4</ele>
        <time>2020-02-09T11:39:47Z</time>
      </trkpt>
      <trkpt lat="56.909335934339" lon="14.768070280552">
        <ele>222.8</ele>
        <time>2020-02-09T11:39:50Z</time>
      </trkpt>
      <trkpt lat="56.909094200343" lon="14.768038345513">
        <ele>224.4</ele>
        <time>2020-02-09T11:39:55Z</time>
      </trkpt>
      <trkpt lat="56.909049692454" lon="14.768053852028">
        <ele>224.6</ele>
        <time>2020-02-09T11:39:56Z</time>
      </trkpt>
      <trkpt lat="56.908768228252" lon="14.768064916136">
        <ele>225</ele>
        <time>2020-02-09T11:40:02Z</time>
      </trkpt>
      <trkpt lat="56.908459774332" lon="14.768170695714">
        <ele>224.2</ele>
        <time>2020-02-09T11:40:08Z</time>
      </trkpt>
      <trkpt lat="56.908261626216" lon="14.768243869701">
        <ele>224.8</ele>
        <time>2020-02-09T11:40:12Z</time>
      </trkpt>
      <trkpt lat="56.908102621573" lon="14.768280582423">
        <ele>225.4</ele>
        <time>2020-02-09T11:40:15Z</time>
      </trkpt>
      <trkpt lat="56.90805006706" lon="14.768302794458">
        <ele>225.6</ele>
        <time>2020-02-09T11:40:16Z</time>
      </trkpt>
      <trkpt lat="56.90794780788" lon="14.768347637623">
        <ele>226</ele>
        <time>2020-02-09T11:40:18Z</time>
      </trkpt>
      <trkpt lat="56.907577244081" lon="14.768524160437">
        <ele>226.2</ele>
        <time>2020-02-09T11:40:25Z</time>
      </trkpt>
      <trkpt lat="56.907409857538" lon="14.768646368539">
        <ele>227</ele>
        <time>2020-02-09T11:40:28Z</time>
      </trkpt>
      <trkpt lat="56.907317489" lon="14.768685428193">
        <ele>227.6</ele>
        <time>2020-02-09T11:40:30Z</time>
      </trkpt>
      <trkpt lat="56.907218414942" lon="14.768709316608">
        <ele>227.8</ele>
        <time>2020-02-09T11:40:32Z</time>
      </trkpt>
      <trkpt lat="56.907090590967" lon="14.768753656859">
        <ele>227.2</ele>
        <time>2020-02-09T11:40:35Z</time>
      </trkpt>
      <trkpt lat="56.906883138942" lon="14.7688407448">
        <ele>227.6</ele>
        <time>2020-02-09T11:40:39Z</time>
      </trkpt>
      <trkpt lat="56.906830668248" lon="14.768858849704">
        <ele>228</ele>
        <time>2020-02-09T11:40:40Z</time>
      </trkpt>
      <trkpt lat="56.906647859009" lon="14.768965048377">
        <ele>229</ele>
        <time>2020-02-09T11:40:43Z</time>
      </trkpt>
      <trkpt lat="56.906569739701" lon="14.769012657569">
        <ele>229.4</ele>
        <time>2020-02-09T11:40:45Z</time>
      </trkpt>
      <trkpt lat="56.906248042379" lon="14.769193455152">
        <ele>228.2</ele>
        <time>2020-02-09T11:40:52Z</time>
      </trkpt>
      <trkpt lat="56.906147459579" lon="14.769407193602">
        <ele>228.4</ele>
        <time>2020-02-09T11:40:54Z</time>
      </trkpt>
      <trkpt lat="56.905972948421" lon="14.76997984501">
        <ele>230.4</ele>
        <time>2020-02-09T11:41:00Z</time>
      </trkpt>
      <trkpt lat="56.905955849345" lon="14.770248904">
        <ele>231.6</ele>
        <time>2020-02-09T11:41:03Z</time>
      </trkpt>
      <trkpt lat="56.90593363731" lon="14.770679230746">
        <ele>232.8</ele>
        <time>2020-02-09T11:41:08Z</time>
      </trkpt>
      <trkpt lat="56.905918046976" lon="14.770760451357">
        <ele>233.2</ele>
        <time>2020-02-09T11:41:09Z</time>
      </trkpt>
      <trkpt lat="56.905888207412" lon="14.77095130722">
        <ele>233.4</ele>
        <time>2020-02-09T11:41:11Z</time>
      </trkpt>
      <trkpt lat="56.905994406085" lon="14.77200491205">
        <ele>233.6</ele>
        <time>2020-02-09T11:41:21Z</time>
      </trkpt>
      <trkpt lat="56.906049475168" lon="14.772690383832">
        <ele>233</ele>
        <time>2020-02-09T11:41:27Z</time>
      </trkpt>
      <trkpt lat="56.906037321413" lon="14.772916443675">
        <ele>232.2</ele>
        <time>2020-02-09T11:41:29Z</time>
      </trkpt>
      <trkpt lat="56.906016785758" lon="14.773134708351">
        <ele>231.6</ele>
        <time>2020-02-09T11:41:31Z</time>
      </trkpt>
      <trkpt lat="56.905973954249" lon="14.773332772648">
        <ele>231.6</ele>
        <time>2020-02-09T11:41:33Z</time>
      </trkpt>
      <trkpt lat="56.905887872136" lon="14.773509714557">
        <ele>231.6</ele>
        <time>2020-02-09T11:41:35Z</time>
      </trkpt>
      <trkpt lat="56.905592829256" lon="14.773777097167">
        <ele>230.6</ele>
        <time>2020-02-09T11:41:40Z</time>
      </trkpt>
      <trkpt lat="56.905193766997" lon="14.774085718725">
        <ele>230</ele>
        <time>2020-02-09T11:41:47Z</time>
      </trkpt>
      <trkpt lat="56.905142302131" lon="14.774141709817">
        <ele>229.6</ele>
        <time>2020-02-09T11:41:48Z</time>
      </trkpt>
      <trkpt lat="56.905098967708" lon="14.774204154972">
        <ele>229.2</ele>
        <time>2020-02-09T11:41:49Z</time>
      </trkpt>
      <trkpt lat="56.904725218787" lon="14.774989119907">
        <ele>230.4</ele>
        <time>2020-02-09T11:41:59Z</time>
      </trkpt>
      <trkpt lat="56.904626480005" lon="14.775191961887">
        <ele>230.8</ele>
        <time>2020-02-09T11:42:01Z</time>
      </trkpt>
      <trkpt lat="56.90435784011" lon="14.775733684084">
        <ele>231.8</ele>
        <time>2020-02-09T11:42:06Z</time>
      </trkpt>
      <trkpt lat="56.904004291568" lon="14.776477912985">
        <ele>231.8</ele>
        <time>2020-02-09T11:42:13Z</time>
      </trkpt>
      <trkpt lat="56.903619143263" lon="14.777278132978">
        <ele>231.2</ele>
        <time>2020-02-09T11:42:21Z</time>
      </trkpt>
      <trkpt lat="56.903255201165" lon="14.778036359652">
        <ele>232.2</ele>
        <time>2020-02-09T11:42:29Z</time>
      </trkpt>
      <trkpt lat="56.902883128624" lon="14.778771536101">
        <ele>232</ele>
        <time>2020-02-09T11:42:37Z</time>
      </trkpt>
      <trkpt lat="56.902662600835" lon="14.779181662468">
        <ele>233</ele>
        <time>2020-02-09T11:42:42Z</time>
      </trkpt>
      <trkpt lat="56.902407455799" lon="14.779644510986">
        <ele>233.4</ele>
        <time>2020-02-09T11:42:48Z</time>
      </trkpt>
      <trkpt lat="56.902180390128" lon="14.779892866683">
        <ele>232.4</ele>
        <time>2020-02-09T11:42:52Z</time>
      </trkpt>
      <trkpt lat="56.901983666935" lon="14.780131080281">
        <ele>231.8</ele>
        <time>2020-02-09T11:42:55Z</time>
      </trkpt>
      <trkpt lat="56.901921976151" lon="14.780184892079">
        <ele>231.6</ele>
        <time>2020-02-09T11:42:56Z</time>
      </trkpt>
      <trkpt lat="56.901784261534" lon="14.780202074974">
        <ele>230.4</ele>
        <time>2020-02-09T11:42:58Z</time>
      </trkpt>
      <trkpt lat="56.901708070063" lon="14.780183886251">
        <ele>229.4</ele>
        <time>2020-02-09T11:42:59Z</time>
      </trkpt>
      <trkpt lat="56.901632800601" lon="14.780165948985">
        <ele>228.2</ele>
        <time>2020-02-09T11:43:00Z</time>
      </trkpt>
      <trkpt lat="56.901482345496" lon="14.780139294543">
        <ele>227.2</ele>
        <time>2020-02-09T11:43:02Z</time>
      </trkpt>
      <trkpt lat="56.901150422256" lon="14.78012781134">
        <ele>226.2</ele>
        <time>2020-02-09T11:43:06Z</time>
      </trkpt>
      <trkpt lat="56.900738703328" lon="14.780086907668">
        <ele>227</ele>
        <time>2020-02-09T11:43:12Z</time>
      </trkpt>
      <trkpt lat="56.90064298203" lon="14.780012811672">
        <ele>227</ele>
        <time>2020-02-09T11:43:14Z</time>
      </trkpt>
      <trkpt lat="56.900618506882" lon="14.779851879192">
        <ele>226.6</ele>
        <time>2020-02-09T11:43:16Z</time>
      </trkpt>
      <trkpt lat="56.900591265707" lon="14.779436975142">
        <ele>226.2</ele>
        <time>2020-02-09T11:43:20Z</time>
      </trkpt>
      <trkpt lat="56.900587074757" lon="14.779098346382">
        <ele>225.8</ele>
        <time>2020-02-09T11:43:23Z</time>
      </trkpt>
      <trkpt lat="56.900559330668" lon="14.778892738375">
        <ele>225</ele>
        <time>2020-02-09T11:43:25Z</time>
      </trkpt>
      <trkpt lat="56.900486911052" lon="14.778705235272">
        <ele>223.8</ele>
        <time>2020-02-09T11:43:27Z</time>
      </trkpt>
      <trkpt lat="56.900411557771" lon="14.778558300565">
        <ele>223.2</ele>
        <time>2020-02-09T11:43:29Z</time>
      </trkpt>
      <trkpt lat="56.900361936923" lon="14.778407594003">
        <ele>223</ele>
        <time>2020-02-09T11:43:31Z</time>
      </trkpt>
      <trkpt lat="56.900327487314" lon="14.778109533639">
        <ele>223.6</ele>
        <time>2020-02-09T11:43:34Z</time>
      </trkpt>
      <trkpt lat="56.900258169001" lon="14.777973914497">
        <ele>223.8</ele>
        <time>2020-02-09T11:43:36Z</time>
      </trkpt>
      <trkpt lat="56.90017191925" lon="14.777859501562">
        <ele>222.6</ele>
        <time>2020-02-09T11:43:38Z</time>
      </trkpt>
      <trkpt lat="56.90015599364" lon="14.777633022624">
        <ele>221.6</ele>
        <time>2020-02-09T11:43:40Z</time>
      </trkpt>
      <trkpt lat="56.90012833337" lon="14.776518900476">
        <ele>220.2</ele>
        <time>2020-02-09T11:43:47Z</time>
      </trkpt>
      <trkpt lat="56.90010821681" lon="14.776354782874">
        <ele>219.6</ele>
        <time>2020-02-09T11:43:48Z</time>
      </trkpt>
      <trkpt lat="56.900044849646" lon="14.776060829641">
        <ele>219</ele>
        <time>2020-02-09T11:43:50Z</time>
      </trkpt>
      <trkpt lat="56.899964383406" lon="14.775824376242">
        <ele>218.4</ele>
        <time>2020-02-09T11:43:52Z</time>
      </trkpt>
      <trkpt lat="56.899931777815" lon="14.775719099578">
        <ele>217.8</ele>
        <time>2020-02-09T11:43:53Z</time>
      </trkpt>
      <trkpt lat="56.899803367107" lon="14.775280223294">
        <ele>216.8</ele>
        <time>2020-02-09T11:43:57Z</time>
      </trkpt>
      <trkpt lat="56.899606141" lon="14.774788205764">
        <ele>216.8</ele>
        <time>2020-02-09T11:44:03Z</time>
      </trkpt>
      <trkpt lat="56.899563896224" lon="14.774639594677">
        <ele>217</ele>
        <time>2020-02-09T11:44:05Z</time>
      </trkpt>
      <trkpt lat="56.899475886274" lon="14.774398950328">
        <ele>217.8</ele>
        <time>2020-02-09T11:44:08Z</time>
      </trkpt>
      <trkpt lat="56.899205737637" lon="14.773631419745">
        <ele>218</ele>
        <time>2020-02-09T11:44:14Z</time>
      </trkpt>
      <trkpt lat="56.899119655524" lon="14.7733166794">
        <ele>218</ele>
        <time>2020-02-09T11:44:16Z</time>
      </trkpt>
      <trkpt lat="56.899074141807" lon="14.773195058031">
        <ele>218</ele>
        <time>2020-02-09T11:44:17Z</time>
      </trkpt>
      <trkpt lat="56.899028544271" lon="14.773102018941">
        <ele>218</ele>
        <time>2020-02-09T11:44:18Z</time>
      </trkpt>
      <trkpt lat="56.898933577344" lon="14.772953156397">
        <ele>219.2</ele>
        <time>2020-02-09T11:44:20Z</time>
      </trkpt>
      <trkpt lat="56.898861660642" lon="14.772794570849">
        <ele>220.8</ele>
        <time>2020-02-09T11:44:22Z</time>
      </trkpt>
      <trkpt lat="56.898790079216" lon="14.772666327779">
        <ele>221.6</ele>
        <time>2020-02-09T11:44:24Z</time>
      </trkpt>
      <trkpt lat="56.89876459824" lon="14.772591477412">
        <ele>222</ele>
        <time>2020-02-09T11:44:25Z</time>
      </trkpt>
      <trkpt lat="56.89870341037" lon="14.772389222165">
        <ele>223.4</ele>
        <time>2020-02-09T11:44:27Z</time>
      </trkpt>
      <trkpt lat="56.898623614682" lon="14.77216668272">
        <ele>224.2</ele>
        <time>2020-02-09T11:44:29Z</time>
      </trkpt>
      <trkpt lat="56.898565779572" lon="14.771905251259">
        <ele>224.6</ele>
        <time>2020-02-09T11:44:31Z</time>
      </trkpt>
      <trkpt lat="56.8985081121" lon="14.771550193975">
        <ele>225.2</ele>
        <time>2020-02-09T11:44:34Z</time>
      </trkpt>
      <trkpt lat="56.898434099923" lon="14.771142246902">
        <ele>225.4</ele>
        <time>2020-02-09T11:44:38Z</time>
      </trkpt>
      <trkpt lat="56.898373498786" lon="14.77100914233">
        <ele>225.6</ele>
        <time>2020-02-09T11:44:40Z</time>
      </trkpt>
      <trkpt lat="56.898309125794" lon="14.770873690826">
        <ele>225.8</ele>
        <time>2020-02-09T11:44:42Z</time>
      </trkpt>
      <trkpt lat="56.898202340388" lon="14.770494661308">
        <ele>226.8</ele>
        <time>2020-02-09T11:44:47Z</time>
      </trkpt>
      <trkpt lat="56.898177110869" lon="14.770250161285">
        <ele>227.2</ele>
        <time>2020-02-09T11:44:50Z</time>
      </trkpt>
      <trkpt lat="56.898132435342" lon="14.770177406393">
        <ele>226.8</ele>
        <time>2020-02-09T11:44:52Z</time>
      </trkpt>
      <trkpt lat="56.898036881682" lon="14.770131138305">
        <ele>225.6</ele>
        <time>2020-02-09T11:44:55Z</time>
      </trkpt>
      <trkpt lat="56.897928336077" lon="14.770033153894">
        <ele>224.6</ele>
        <time>2020-02-09T11:44:58Z</time>
      </trkpt>
      <trkpt lat="56.897857006108" lon="14.769849757922">
        <ele>223.4</ele>
        <time>2020-02-09T11:45:00Z</time>
      </trkpt>
      <trkpt lat="56.897821466852" lon="14.769738613928">
        <ele>222.2</ele>
        <time>2020-02-09T11:45:01Z</time>
      </trkpt>
      <trkpt lat="56.897788442166" lon="14.769637192938">
        <ele>220.8</ele>
        <time>2020-02-09T11:45:02Z</time>
      </trkpt>
      <trkpt lat="56.897710909591" lon="14.769381042074">
        <ele>219</ele>
        <time>2020-02-09T11:45:04Z</time>
      </trkpt>
      <trkpt lat="56.89765148192" lon="14.769266629139">
        <ele>218.2</ele>
        <time>2020-02-09T11:45:05Z</time>
      </trkpt>
      <trkpt lat="56.897591383697" lon="14.769149282539">
        <ele>217.8</ele>
        <time>2020-02-09T11:45:06Z</time>
      </trkpt>
      <trkpt lat="56.89749557858" lon="14.768924228524">
        <ele>217</ele>
        <time>2020-02-09T11:45:08Z</time>
      </trkpt>
      <trkpt lat="56.897438749298" lon="14.768828591045">
        <ele>216.4</ele>
        <time>2020-02-09T11:45:09Z</time>
      </trkpt>
      <trkpt lat="56.897327856761" lon="14.768666736556">
        <ele>216</ele>
        <time>2020-02-09T11:45:11Z</time>
      </trkpt>
      <trkpt lat="56.897190645058" lon="14.768180334899">
        <ele>216.4</ele>
        <time>2020-02-09T11:45:16Z</time>
      </trkpt>
      <trkpt lat="56.897091403362" lon="14.767900127982">
        <ele>216.6</ele>
        <time>2020-02-09T11:45:19Z</time>
      </trkpt>
      <trkpt lat="56.89701026657" lon="14.76758178342">
        <ele>217.8</ele>
        <time>2020-02-09T11:45:22Z</time>
      </trkpt>
      <trkpt lat="56.896952934374" lon="14.767345330021">
        <ele>219.6</ele>
        <time>2020-02-09T11:45:24Z</time>
      </trkpt>
      <trkpt lat="56.896921921344" lon="14.76721549439">
        <ele>221</ele>
        <time>2020-02-09T11:45:26Z</time>
      </trkpt>
      <trkpt lat="56.89688453807" lon="14.767054310453">
        <ele>222</ele>
        <time>2020-02-09T11:45:28Z</time>
      </trkpt>
      <trkpt lat="56.896843382941" lon="14.766594227962">
        <ele>222</ele>
        <time>2020-02-09T11:45:32Z</time>
      </trkpt>
      <trkpt lat="56.89685184866" lon="14.766449304911">
        <ele>221</ele>
        <time>2020-02-09T11:45:33Z</time>
      </trkpt>
      <trkpt lat="56.896838605258" lon="14.766317206167">
        <ele>219.6</ele>
        <time>2020-02-09T11:45:34Z</time>
      </trkpt>
      <trkpt lat="56.896903062069" lon="14.766139845163">
        <ele>218.2</ele>
        <time>2020-02-09T11:45:36Z</time>
      </trkpt>
      <trkpt lat="56.897151333947" lon="14.766119393327">
        <ele>218</ele>
        <time>2020-02-09T11:45:40Z</time>
      </trkpt>
      <trkpt lat="56.897320145413" lon="14.765966339833">
        <ele>218.2</ele>
        <time>2020-02-09T11:45:43Z</time>
      </trkpt>
      <trkpt lat="56.897335987204" lon="14.765762324387">
        <ele>218.2</ele>
        <time>2020-02-09T11:45:45Z</time>
      </trkpt>
      <trkpt lat="56.897207744134" lon="14.76552821792">
        <ele>217.2</ele>
        <time>2020-02-09T11:45:48Z</time>
      </trkpt>
      <trkpt lat="56.897062737264" lon="14.76534633069">
        <ele>215.8</ele>
        <time>2020-02-09T11:45:51Z</time>
      </trkpt>
      <trkpt lat="56.896951341813" lon="14.765217081792">
        <ele>215.6</ele>
        <time>2020-02-09T11:45:53Z</time>
      </trkpt>
      <trkpt lat="56.896823266381" lon="14.765065201764">
        <ele>215.8</ele>
        <time>2020-02-09T11:45:56Z</time>
      </trkpt>
      <trkpt lat="56.896667698317" lon="14.764954728322">
        <ele>216.2</ele>
        <time>2020-02-09T11:45:59Z</time>
      </trkpt>
      <trkpt lat="56.896576000331" lon="14.764900497429">
        <ele>216.4</ele>
        <time>2020-02-09T11:46:01Z</time>
      </trkpt>
      <trkpt lat="56.896443147216" lon="14.764865880182">
        <ele>216.4</ele>
        <time>2020-02-09T11:46:04Z</time>
      </trkpt>
      <trkpt lat="56.896356897465" lon="14.764801674828">
        <ele>216.4</ele>
        <time>2020-02-09T11:46:06Z</time>
      </trkpt>
      <trkpt lat="56.896246507842" lon="14.764641329081">
        <ele>217</ele>
        <time>2020-02-09T11:46:09Z</time>
      </trkpt>
      <trkpt lat="56.895980298698" lon="14.764263640667">
        <ele>217</ele>
        <time>2020-02-09T11:46:15Z</time>
      </trkpt>
      <trkpt lat="56.895843757547" lon="14.764112263553">
        <ele>216.6</ele>
        <time>2020-02-09T11:46:18Z</time>
      </trkpt>
      <trkpt lat="56.895499512914" lon="14.763696856589">
        <ele>217.4</ele>
        <time>2020-02-09T11:46:25Z</time>
      </trkpt>
      <trkpt lat="56.895405216539" lon="14.7635685297">
        <ele>218.4</ele>
        <time>2020-02-09T11:46:27Z</time>
      </trkpt>
      <trkpt lat="56.895331791095" lon="14.763465097054">
        <ele>219</ele>
        <time>2020-02-09T11:46:29Z</time>
      </trkpt>
      <trkpt lat="56.895251492493" lon="14.763349007739">
        <ele>219.2</ele>
        <time>2020-02-09T11:46:31Z</time>
      </trkpt>
      <trkpt lat="56.895205056767" lon="14.763285640575">
        <ele>219.4</ele>
        <time>2020-02-09T11:46:32Z</time>
      </trkpt>
      <trkpt lat="56.895145210001" lon="14.763224955619">
        <ele>219.4</ele>
        <time>2020-02-09T11:46:33Z</time>
      </trkpt>
      <trkpt lat="56.895031970532" lon="14.763115990919">
        <ele>219.2</ele>
        <time>2020-02-09T11:46:35Z</time>
      </trkpt>
      <trkpt lat="56.894929543714" lon="14.763010881893">
        <ele>218.8</ele>
        <time>2020-02-09T11:46:37Z</time>
      </trkpt>
      <trkpt lat="56.894769197967" lon="14.762821534772">
        <ele>218.4</ele>
        <time>2020-02-09T11:46:40Z</time>
      </trkpt>
      <trkpt lat="56.894614216636" lon="14.762652136573">
        <ele>218.4</ele>
        <time>2020-02-09T11:46:43Z</time>
      </trkpt>
      <trkpt lat="56.894523105383" lon="14.762526575711">
        <ele>218.4</ele>
        <time>2020-02-09T11:46:45Z</time>
      </trkpt>
      <trkpt lat="56.894320598679" lon="14.762264222241">
        <ele>217.4</ele>
        <time>2020-02-09T11:46:49Z</time>
      </trkpt>
      <trkpt lat="56.894127982617" lon="14.762028690851">
        <ele>216.2</ele>
        <time>2020-02-09T11:46:52Z</time>
      </trkpt>
      <trkpt lat="56.894070650421" lon="14.761962138565">
        <ele>215.8</ele>
        <time>2020-02-09T11:46:53Z</time>
      </trkpt>
      <trkpt lat="56.893884572241" lon="14.761667598599">
        <ele>215.8</ele>
        <time>2020-02-09T11:46:57Z</time>
      </trkpt>
      <trkpt lat="56.893708719979" lon="14.761440449109">
        <ele>217.2</ele>
        <time>2020-02-09T11:47:01Z</time>
      </trkpt>
      <trkpt lat="56.893616099984" lon="14.761331652047">
        <ele>217.8</ele>
        <time>2020-02-09T11:47:03Z</time>
      </trkpt>
      <trkpt lat="56.893480061747" lon="14.761182286589">
        <ele>218.4</ele>
        <time>2020-02-09T11:47:06Z</time>
      </trkpt>
      <trkpt lat="56.893394231091" lon="14.76108916368">
        <ele>218.2</ele>
        <time>2020-02-09T11:47:08Z</time>
      </trkpt>
      <trkpt lat="56.893314854498" lon="14.76092152568">
        <ele>217.8</ele>
        <time>2020-02-09T11:47:10Z</time>
      </trkpt>
      <trkpt lat="56.893227347462" lon="14.760815578464">
        <ele>217.4</ele>
        <time>2020-02-09T11:47:12Z</time>
      </trkpt>
      <trkpt lat="56.893180911736" lon="14.760777943733">
        <ele>217.4</ele>
        <time>2020-02-09T11:47:13Z</time>
      </trkpt>
      <trkpt lat="56.89313196144" lon="14.760731005093">
        <ele>217.4</ele>
        <time>2020-02-09T11:47:14Z</time>
      </trkpt>
      <trkpt lat="56.892936746989" lon="14.760547860578">
        <ele>217.8</ele>
        <time>2020-02-09T11:47:18Z</time>
      </trkpt>
      <trkpt lat="56.892830632135" lon="14.760405033002">
        <ele>217.8</ele>
        <time>2020-02-09T11:47:20Z</time>
      </trkpt>
      <trkpt lat="56.892649331638" lon="14.76020403504">
        <ele>217.4</ele>
        <time>2020-02-09T11:47:24Z</time>
      </trkpt>
      <trkpt lat="56.892553191245" lon="14.760092304313">
        <ele>217.2</ele>
        <time>2020-02-09T11:47:26Z</time>
      </trkpt>
      <trkpt lat="56.892383290132" lon="14.759786364963">
        <ele>216.8</ele>
        <time>2020-02-09T11:47:30Z</time>
      </trkpt>
      <trkpt lat="56.892220765091" lon="14.759589306494">
        <ele>216.2</ele>
        <time>2020-02-09T11:47:33Z</time>
      </trkpt>
      <trkpt lat="56.892020689138" lon="14.759348159231">
        <ele>215.6</ele>
        <time>2020-02-09T11:47:36Z</time>
      </trkpt>
      <trkpt lat="56.891895128276" lon="14.759249001354">
        <ele>215.4</ele>
        <time>2020-02-09T11:47:38Z</time>
      </trkpt>
      <trkpt lat="56.891838718089" lon="14.759171804055">
        <ele>215.2</ele>
        <time>2020-02-09T11:47:39Z</time>
      </trkpt>
      <trkpt lat="56.891740901316" lon="14.75908924234">
        <ele>215.4</ele>
        <time>2020-02-09T11:47:41Z</time>
      </trkpt>
      <trkpt lat="56.891678372342" lon="14.758773160891">
        <ele>216</ele>
        <time>2020-02-09T11:47:44Z</time>
      </trkpt>
      <trkpt lat="56.891647275493" lon="14.758566966151">
        <ele>216.2</ele>
        <time>2020-02-09T11:47:46Z</time>
      </trkpt>
      <trkpt lat="56.891544178123" lon="14.758267480864">
        <ele>215.6</ele>
        <time>2020-02-09T11:47:49Z</time>
      </trkpt>
      <trkpt lat="56.89150419646" lon="14.758044689962">
        <ele>215.4</ele>
        <time>2020-02-09T11:47:51Z</time>
      </trkpt>
      <trkpt lat="56.891509812333" lon="14.757573878639">
        <ele>216.6</ele>
        <time>2020-02-09T11:47:55Z</time>
      </trkpt>
      <trkpt lat="56.891547698521" lon="14.757396014721">
        <ele>217</ele>
        <time>2020-02-09T11:47:57Z</time>
      </trkpt>
      <trkpt lat="56.891603773432" lon="14.756481884707">
        <ele>216.2</ele>
        <time>2020-02-09T11:48:06Z</time>
      </trkpt>
      <trkpt lat="56.891540490087" lon="14.755628439649">
        <ele>216.2</ele>
        <time>2020-02-09T11:48:15Z</time>
      </trkpt>
      <trkpt lat="56.89155867881" lon="14.755079173742">
        <ele>216.6</ele>
        <time>2020-02-09T11:48:18Z</time>
      </trkpt>
      <trkpt lat="56.89157376623" lon="14.75417744894">
        <ele>216</ele>
        <time>2020-02-09T11:48:25Z</time>
      </trkpt>
      <trkpt lat="56.891546860331" lon="14.753541178911">
        <ele>217.6</ele>
        <time>2020-02-09T11:48:32Z</time>
      </trkpt>
      <trkpt lat="56.891548285254" lon="14.753434477324">
        <ele>217.8</ele>
        <time>2020-02-09T11:48:33Z</time>
      </trkpt>
      <trkpt lat="56.891557756801" lon="14.753317298362">
        <ele>217.8</ele>
        <time>2020-02-09T11:48:34Z</time>
      </trkpt>
      <trkpt lat="56.891573430954" lon="14.753027200803">
        <ele>216.8</ele>
        <time>2020-02-09T11:48:36Z</time>
      </trkpt>
      <trkpt lat="56.891572508945" lon="14.752814300543">
        <ele>216.6</ele>
        <time>2020-02-09T11:48:37Z</time>
      </trkpt>
      <trkpt lat="56.891611987694" lon="14.752069820185">
        <ele>217.8</ele>
        <time>2020-02-09T11:48:43Z</time>
      </trkpt>
      <trkpt lat="56.891681641283" lon="14.751712164512">
        <ele>219</ele>
        <time>2020-02-09T11:48:47Z</time>
      </trkpt>
      <trkpt lat="56.891728328466" lon="14.751453415259">
        <ele>218.6</ele>
        <time>2020-02-09T11:48:50Z</time>
      </trkpt>
      <trkpt lat="56.891725897715" lon="14.751260044826">
        <ele>218</ele>
        <time>2020-02-09T11:48:52Z</time>
      </trkpt>
      <trkpt lat="56.89173302233" lon="14.751158791474">
        <ele>217.8</ele>
        <time>2020-02-09T11:48:53Z</time>
      </trkpt>
      <trkpt lat="56.891777949314" lon="14.750946477947">
        <ele>218</ele>
        <time>2020-02-09T11:48:55Z</time>
      </trkpt>
      <trkpt lat="56.891878364476" lon="14.750437361341">
        <ele>219</ele>
        <time>2020-02-09T11:48:59Z</time>
      </trkpt>
      <trkpt lat="56.891997722732" lon="14.749989935519">
        <ele>219.2</ele>
        <time>2020-02-09T11:49:03Z</time>
      </trkpt>
      <trkpt lat="56.892084894492" lon="14.749820285863">
        <ele>218.8</ele>
        <time>2020-02-09T11:49:05Z</time>
      </trkpt>
      <trkpt lat="56.892221016548" lon="14.749587855776">
        <ele>218</ele>
        <time>2020-02-09T11:49:08Z</time>
      </trkpt>
      <trkpt lat="56.892298968218" lon="14.7494031187">
        <ele>217.6</ele>
        <time>2020-02-09T11:49:10Z</time>
      </trkpt>
      <trkpt lat="56.892368789445" lon="14.749098771911">
        <ele>217.6</ele>
        <time>2020-02-09T11:49:13Z</time>
      </trkpt>
      <trkpt lat="56.892413464972" lon="14.748749246681">
        <ele>217.8</ele>
        <time>2020-02-09T11:49:17Z</time>
      </trkpt>
      <trkpt lat="56.892449423323" lon="14.748662829292">
        <ele>218</ele>
        <time>2020-02-09T11:49:19Z</time>
      </trkpt>
      <trkpt lat="56.892668274732" lon="14.748023625598">
        <ele>217.2</ele>
        <time>2020-02-09T11:49:26Z</time>
      </trkpt>
      <trkpt lat="56.892691827871" lon="14.747890521026">
        <ele>217</ele>
        <time>2020-02-09T11:49:27Z</time>
      </trkpt>
      <trkpt lat="56.892799535286" lon="14.747419625884">
        <ele>216.8</ele>
        <time>2020-02-09T11:49:31Z</time>
      </trkpt>
      <trkpt lat="56.892878660422" lon="14.747256095015">
        <ele>217.2</ele>
        <time>2020-02-09T11:49:33Z</time>
      </trkpt>
      <trkpt lat="56.892961054499" lon="14.747116871656">
        <ele>217.6</ele>
        <time>2020-02-09T11:49:35Z</time>
      </trkpt>
      <trkpt lat="56.893078987832" lon="14.746997178124">
        <ele>218</ele>
        <time>2020-02-09T11:49:38Z</time>
      </trkpt>
      <trkpt lat="56.893121484065" lon="14.746981503971">
        <ele>218.2</ele>
        <time>2020-02-09T11:49:39Z</time>
      </trkpt>
      <trkpt lat="56.893288535332" lon="14.746780254552">
        <ele>218.8</ele>
        <time>2020-02-09T11:49:44Z</time>
      </trkpt>
      <trkpt lat="56.89334821446" lon="14.746633906578">
        <ele>219</ele>
        <time>2020-02-09T11:49:46Z</time>
      </trkpt>
      <trkpt lat="56.893380149499" lon="14.746400303025">
        <ele>219</ele>
        <time>2020-02-09T11:49:48Z</time>
      </trkpt>
      <trkpt lat="56.893397751489" lon="14.746229479903">
        <ele>219</ele>
        <time>2020-02-09T11:49:50Z</time>
      </trkpt>
      <trkpt lat="56.893386268286" lon="14.74609897372">
        <ele>219.4</ele>
        <time>2020-02-09T11:49:52Z</time>
      </trkpt>
      <trkpt lat="56.893357015455" lon="14.745985315156">
        <ele>220.8</ele>
        <time>2020-02-09T11:49:54Z</time>
      </trkpt>
      <trkpt lat="56.893277890319" lon="14.745855563344">
        <ele>222</ele>
        <time>2020-02-09T11:49:57Z</time>
      </trkpt>
      <trkpt lat="56.893171104913" lon="14.745740647495">
        <ele>223.2</ele>
        <time>2020-02-09T11:50:00Z</time>
      </trkpt>
      <trkpt lat="56.893033222658" lon="14.745609303122">
        <ele>224.2</ele>
        <time>2020-02-09T11:50:03Z</time>
      </trkpt>
      <trkpt lat="56.89251924455" lon="14.745134719944">
        <ele>223</ele>
        <time>2020-02-09T11:50:13Z</time>
      </trkpt>
      <trkpt lat="56.892377758078" lon="14.745009159082">
        <ele>221.4</ele>
        <time>2020-02-09T11:50:15Z</time>
      </trkpt>
      <trkpt lat="56.892314558552" lon="14.744953587085">
        <ele>220</ele>
        <time>2020-02-09T11:50:16Z</time>
      </trkpt>
      <trkpt lat="56.89225437651" lon="14.744915114164">
        <ele>219</ele>
        <time>2020-02-09T11:50:17Z</time>
      </trkpt>
      <trkpt lat="56.892162007972" lon="14.74493137505">
        <ele>217.6</ele>
        <time>2020-02-09T11:50:19Z</time>
      </trkpt>
      <trkpt lat="56.892097299704" lon="14.745079231766">
        <ele>217.2</ele>
        <time>2020-02-09T11:50:21Z</time>
      </trkpt>
      <trkpt lat="56.891914155189" lon="14.746054214374">
        <ele>217.6</ele>
        <time>2020-02-09T11:50:30Z</time>
      </trkpt>
      <trkpt lat="56.891702344576" lon="14.746963818162">
        <ele>218.2</ele>
        <time>2020-02-09T11:50:39Z</time>
      </trkpt>
      <trkpt lat="56.891670325718" lon="14.747060712926">
        <ele>218.8</ele>
        <time>2020-02-09T11:50:40Z</time>
      </trkpt>
      <trkpt lat="56.891606707097" lon="14.747239247396">
        <ele>218.4</ele>
        <time>2020-02-09T11:50:42Z</time>
      </trkpt>
      <trkpt lat="56.891482068244" lon="14.747456170968">
        <ele>218.6</ele>
        <time>2020-02-09T11:50:45Z</time>
      </trkpt>
      <trkpt lat="56.891188366468" lon="14.747778538842">
        <ele>219.8</ele>
        <time>2020-02-09T11:50:52Z</time>
      </trkpt>
      <trkpt lat="56.890912601958" lon="14.748050782954">
        <ele>220.4</ele>
        <time>2020-02-09T11:50:58Z</time>
      </trkpt>
      <trkpt lat="56.890479676823" lon="14.748347166938">
        <ele>219.8</ele>
        <time>2020-02-09T11:51:06Z</time>
      </trkpt>
      <trkpt lat="56.890312038823" lon="14.748364098376">
        <ele>219.8</ele>
        <time>2020-02-09T11:51:09Z</time>
      </trkpt>
      <trkpt lat="56.890156806035" lon="14.748300731212">
        <ele>218.8</ele>
        <time>2020-02-09T11:51:12Z</time>
      </trkpt>
      <trkpt lat="56.890096288717" lon="14.748282877765">
        <ele>218.4</ele>
        <time>2020-02-09T11:51:13Z</time>
      </trkpt>
      <trkpt lat="56.890033340648" lon="14.74827323858">
        <ele>217.8</ele>
        <time>2020-02-09T11:51:14Z</time>
      </trkpt>
      <trkpt lat="56.889967458914" lon="14.748264269947">
        <ele>217.2</ele>
        <time>2020-02-09T11:51:15Z</time>
      </trkpt>
      <trkpt lat="56.889829409021" lon="14.748228730691">
        <ele>216.6</ele>
        <time>2020-02-09T11:51:17Z</time>
      </trkpt>
      <trkpt lat="56.889251057921" lon="14.748041646683">
        <ele>217.4</ele>
        <time>2020-02-09T11:51:26Z</time>
      </trkpt>
      <trkpt lat="56.888904298718" lon="14.7479446681">
        <ele>218.2</ele>
        <time>2020-02-09T11:51:32Z</time>
      </trkpt>
      <trkpt lat="56.888629791493" lon="14.74783486521">
        <ele>219</ele>
        <time>2020-02-09T11:51:37Z</time>
      </trkpt>
      <trkpt lat="56.888328881283" lon="14.747935783286">
        <ele>218.8</ele>
        <time>2020-02-09T11:51:43Z</time>
      </trkpt>
      <trkpt lat="56.888222263515" lon="14.747997725527">
        <ele>219</ele>
        <time>2020-02-09T11:51:45Z</time>
      </trkpt>
      <trkpt lat="56.887923197323" lon="14.748031336946">
        <ele>219.2</ele>
        <time>2020-02-09T11:51:51Z</time>
      </trkpt>
      <trkpt lat="56.887849268965" lon="14.748102415458">
        <ele>220.4</ele>
        <time>2020-02-09T11:51:53Z</time>
      </trkpt>
      <trkpt lat="56.887781459394" lon="14.748217331307">
        <ele>221.8</ele>
        <time>2020-02-09T11:51:55Z</time>
      </trkpt>
      <trkpt lat="56.887594207748" lon="14.748472811619">
        <ele>223</ele>
        <time>2020-02-09T11:52:00Z</time>
      </trkpt>
      <trkpt lat="56.887454565294" lon="14.748671714106">
        <ele>224</ele>
        <time>2020-02-09T11:52:04Z</time>
      </trkpt>
      <trkpt lat="56.887378541461" lon="14.748792664923">
        <ele>225.2</ele>
        <time>2020-02-09T11:52:06Z</time>
      </trkpt>
      <trkpt lat="56.887267397467" lon="14.748977485818">
        <ele>226.4</ele>
        <time>2020-02-09T11:52:09Z</time>
      </trkpt>
      <trkpt lat="56.887107554634" lon="14.749276049096">
        <ele>225</ele>
        <time>2020-02-09T11:52:13Z</time>
      </trkpt>
      <trkpt lat="56.887060699813" lon="14.749366741254">
        <ele>223.8</ele>
        <time>2020-02-09T11:52:14Z</time>
      </trkpt>
      <trkpt lat="56.887012587707" lon="14.74947268847">
        <ele>222.2</ele>
        <time>2020-02-09T11:52:15Z</time>
      </trkpt>
      <trkpt lat="56.886965816705" lon="14.74958416774">
        <ele>220.6</ele>
        <time>2020-02-09T11:52:16Z</time>
      </trkpt>
      <trkpt lat="56.886924829214" lon="14.749700173236">
        <ele>219.2</ele>
        <time>2020-02-09T11:52:17Z</time>
      </trkpt>
      <trkpt lat="56.886884763732" lon="14.74981969913">
        <ele>218.2</ele>
        <time>2020-02-09T11:52:18Z</time>
      </trkpt>
      <trkpt lat="56.8868488892" lon="14.749943332155">
        <ele>217.6</ele>
        <time>2020-02-09T11:52:19Z</time>
      </trkpt>
      <trkpt lat="56.886816283609" lon="14.750068976836">
        <ele>217</ele>
        <time>2020-02-09T11:52:20Z</time>
      </trkpt>
      <trkpt lat="56.886695165154" lon="14.750537022132">
        <ele>216.2</ele>
        <time>2020-02-09T11:52:24Z</time>
      </trkpt>
      <trkpt lat="56.886678904268" lon="14.750767859658">
        <ele>216.8</ele>
        <time>2020-02-09T11:52:26Z</time>
      </trkpt>
      <trkpt lat="56.886689549281" lon="14.751208999055">
        <ele>218.4</ele>
        <time>2020-02-09T11:52:30Z</time>
      </trkpt>
      <trkpt lat="56.886681754114" lon="14.751323663447">
        <ele>218.6</ele>
        <time>2020-02-09T11:52:31Z</time>
      </trkpt>
      <trkpt lat="56.886648813247" lon="14.751561793226">
        <ele>218.6</ele>
        <time>2020-02-09T11:52:33Z</time>
      </trkpt>
      <trkpt lat="56.88654965537" lon="14.752048697797">
        <ele>217.4</ele>
        <time>2020-02-09T11:52:37Z</time>
      </trkpt>
      <trkpt lat="56.886467931845" lon="14.752492267945">
        <ele>217.2</ele>
        <time>2020-02-09T11:52:41Z</time>
      </trkpt>
      <trkpt lat="56.886349747055" lon="14.753130130535">
        <ele>216.8</ele>
        <time>2020-02-09T11:52:48Z</time>
      </trkpt>
      <trkpt lat="56.886180348856" lon="14.754105448419">
        <ele>218</ele>
        <time>2020-02-09T11:52:56Z</time>
      </trkpt>
      <trkpt lat="56.886121088823" lon="14.754530997482">
        <ele>218.6</ele>
        <time>2020-02-09T11:53:00Z</time>
      </trkpt>
      <trkpt lat="56.886083034997" lon="14.754700311862">
        <ele>219.4</ele>
        <time>2020-02-09T11:53:02Z</time>
      </trkpt>
      <trkpt lat="56.886060571505" lon="14.75477088746">
        <ele>220</ele>
        <time>2020-02-09T11:53:03Z</time>
      </trkpt>
      <trkpt lat="56.88602243386" lon="14.754980267322">
        <ele>221.2</ele>
        <time>2020-02-09T11:53:06Z</time>
      </trkpt>
      <trkpt lat="56.886008436087" lon="14.755229125933">
        <ele>222.6</ele>
        <time>2020-02-09T11:53:09Z</time>
      </trkpt>
      <trkpt lat="56.885994019219" lon="14.755468596816">
        <ele>223.6</ele>
        <time>2020-02-09T11:53:12Z</time>
      </trkpt>
      <trkpt lat="56.885970717537" lon="14.75583957971">
        <ele>223.6</ele>
        <time>2020-02-09T11:53:16Z</time>
      </trkpt>
      <trkpt lat="56.885929143313" lon="14.756068573218">
        <ele>223.2</ele>
        <time>2020-02-09T11:53:19Z</time>
      </trkpt>
      <trkpt lat="56.88578103514" lon="14.756244593118">
        <ele>223.8</ele>
        <time>2020-02-09T11:53:23Z</time>
      </trkpt>
      <trkpt lat="56.885697048502" lon="14.756331178145">
        <ele>224.2</ele>
        <time>2020-02-09T11:53:25Z</time>
      </trkpt>
      <trkpt lat="56.885613900054" lon="14.756422792312">
        <ele>224.4</ele>
        <time>2020-02-09T11:53:27Z</time>
      </trkpt>
      <trkpt lat="56.885304188849" lon="14.756777849596">
        <ele>222.4</ele>
        <time>2020-02-09T11:53:33Z</time>
      </trkpt>
      <trkpt lat="56.885129007139" lon="14.756899387146">
        <ele>221.4</ele>
        <time>2020-02-09T11:53:36Z</time>
      </trkpt>
      <trkpt lat="56.884590470064" lon="14.757132320147">
        <ele>222.2</ele>
        <time>2020-02-09T11:53:45Z</time>
      </trkpt>
      <trkpt lat="56.884538502284" lon="14.757142378427">
        <ele>222.8</ele>
        <time>2020-02-09T11:53:46Z</time>
      </trkpt>
      <trkpt lat="56.884421407141" lon="14.75715302344">
        <ele>223.2</ele>
        <time>2020-02-09T11:53:48Z</time>
      </trkpt>
      <trkpt lat="56.884257457177" lon="14.757103318773">
        <ele>223.4</ele>
        <time>2020-02-09T11:53:51Z</time>
      </trkpt>
      <trkpt lat="56.88414488826" lon="14.757083621308">
        <ele>223.2</ele>
        <time>2020-02-09T11:53:53Z</time>
      </trkpt>
      <trkpt lat="56.883897035477" lon="14.757002819792">
        <ele>223.6</ele>
        <time>2020-02-09T11:53:58Z</time>
      </trkpt>
      <trkpt lat="56.883861412402" lon="14.756941296646">
        <ele>223.8</ele>
        <time>2020-02-09T11:53:59Z</time>
      </trkpt>
      <trkpt lat="56.88383894891" lon="14.756867871202">
        <ele>224</ele>
        <time>2020-02-09T11:54:00Z</time>
      </trkpt>
      <trkpt lat="56.88374926258" lon="14.756354060732">
        <ele>223.6</ele>
        <time>2020-02-09T11:54:05Z</time>
      </trkpt>
      <trkpt lat="56.883678267887" lon="14.756176615909">
        <ele>222.2</ele>
        <time>2020-02-09T11:54:07Z</time>
      </trkpt>
      <trkpt lat="56.883582211313" lon="14.756000847466">
        <ele>220.6</ele>
        <time>2020-02-09T11:54:09Z</time>
      </trkpt>
      <trkpt lat="56.883468971844" lon="14.755794149812">
        <ele>219.2</ele>
        <time>2020-02-09T11:54:11Z</time>
      </trkpt>
      <trkpt lat="56.88324718677" lon="14.755402212168">
        <ele>218.2</ele>
        <time>2020-02-09T11:54:15Z</time>
      </trkpt>
      <trkpt lat="56.883180550665" lon="14.755355441166">
        <ele>218.2</ele>
        <time>2020-02-09T11:54:16Z</time>
      </trkpt>
      <trkpt lat="56.882911659313" lon="14.755190569193">
        <ele>218</ele>
        <time>2020-02-09T11:54:20Z</time>
      </trkpt>
      <trkpt lat="56.882783583881" lon="14.755136757395">
        <ele>218</ele>
        <time>2020-02-09T11:54:22Z</time>
      </trkpt>
      <trkpt lat="56.882531540148" lon="14.755013375827">
        <ele>218.4</ele>
        <time>2020-02-09T11:54:26Z</time>
      </trkpt>
      <trkpt lat="56.882410924607" lon="14.754929221551">
        <ele>219</ele>
        <time>2020-02-09T11:54:28Z</time>
      </trkpt>
      <trkpt lat="56.882288045953" lon="14.754901142186">
        <ele>219</ele>
        <time>2020-02-09T11:54:30Z</time>
      </trkpt>
      <trkpt lat="56.882184278031" lon="14.754936178528">
        <ele>218.8</ele>
        <time>2020-02-09T11:54:32Z</time>
      </trkpt>
      <trkpt lat="56.881947740813" lon="14.75516735133">
        <ele>219.4</ele>
        <time>2020-02-09T11:54:38Z</time>
      </trkpt>
      <trkpt lat="56.881850594592" lon="14.755233233064">
        <ele>220.6</ele>
        <time>2020-02-09T11:54:40Z</time>
      </trkpt>
      <trkpt lat="56.881669964647" lon="14.755427106411">
        <ele>221.2</ele>
        <time>2020-02-09T11:54:44Z</time>
      </trkpt>
      <trkpt lat="56.881515737687" lon="14.75544898317">
        <ele>220.8</ele>
        <time>2020-02-09T11:54:47Z</time>
      </trkpt>
      <trkpt lat="56.881405934797" lon="14.755341527212">
        <ele>219</ele>
        <time>2020-02-09T11:54:50Z</time>
      </trkpt>
      <trkpt lat="56.881333515181" lon="14.755147402408">
        <ele>217.6</ele>
        <time>2020-02-09T11:54:52Z</time>
      </trkpt>
      <trkpt lat="56.881202422265" lon="14.754767031786">
        <ele>218.6</ele>
        <time>2020-02-09T11:54:58Z</time>
      </trkpt>
      <trkpt lat="56.881123883862" lon="14.754712381798">
        <ele>218.8</ele>
        <time>2020-02-09T11:55:00Z</time>
      </trkpt>
      <trkpt lat="56.88088768192" lon="14.754764517216">
        <ele>217.8</ele>
        <time>2020-02-09T11:55:05Z</time>
      </trkpt>
      <trkpt lat="56.880798666142" lon="14.754857891582">
        <ele>217.6</ele>
        <time>2020-02-09T11:55:07Z</time>
      </trkpt>
      <trkpt lat="56.880639074766" lon="14.754999797149">
        <ele>217.6</ele>
        <time>2020-02-09T11:55:11Z</time>
      </trkpt>
      <trkpt lat="56.880386947214" lon="14.755217055997">
        <ele>218.2</ele>
        <time>2020-02-09T11:55:17Z</time>
      </trkpt>
      <trkpt lat="56.880292399382" lon="14.755296600228">
        <ele>218.2</ele>
        <time>2020-02-09T11:55:19Z</time>
      </trkpt>
      <trkpt lat="56.880199025016" lon="14.755410594068">
        <ele>218.2</ele>
        <time>2020-02-09T11:55:21Z</time>
      </trkpt>
      <trkpt lat="56.880056448897" lon="14.755617626998">
        <ele>218.4</ele>
        <time>2020-02-09T11:55:25Z</time>
      </trkpt>
      <trkpt lat="56.880019149442" lon="14.755705385491">
        <ele>218.6</ele>
        <time>2020-02-09T11:55:26Z</time>
      </trkpt>
      <trkpt lat="56.879912950769" lon="14.755952232446">
        <ele>219</ele>
        <time>2020-02-09T11:55:28Z</time>
      </trkpt>
      <trkpt lat="56.879777499265" lon="14.756462522518">
        <ele>219.2</ele>
        <time>2020-02-09T11:55:34Z</time>
      </trkpt>
      <trkpt lat="56.879754197583" lon="14.756612558528">
        <ele>219</ele>
        <time>2020-02-09T11:55:36Z</time>
      </trkpt>
      <trkpt lat="56.879625703056" lon="14.757381765491">
        <ele>219.8</ele>
        <time>2020-02-09T11:55:44Z</time>
      </trkpt>
      <trkpt lat="56.879598042786" lon="14.757418645851">
        <ele>220.2</ele>
        <time>2020-02-09T11:55:45Z</time>
      </trkpt>
      <trkpt lat="56.879410958778" lon="14.757668258833">
        <ele>220.4</ele>
        <time>2020-02-09T11:55:50Z</time>
      </trkpt>
      <trkpt lat="56.879219767639" lon="14.757987693042">
        <ele>221.2</ele>
        <time>2020-02-09T11:55:54Z</time>
      </trkpt>
      <trkpt lat="56.879152880077" lon="14.7581202947">
        <ele>223</ele>
        <time>2020-02-09T11:55:56Z</time>
      </trkpt>
      <trkpt lat="56.879060260082" lon="14.758364543266">
        <ele>224</ele>
        <time>2020-02-09T11:56:00Z</time>
      </trkpt>
      <trkpt lat="56.879000413316" lon="14.758471161034">
        <ele>224</ele>
        <time>2020-02-09T11:56:02Z</time>
      </trkpt>
      <trkpt lat="56.878916845773" lon="14.758592950041">
        <ele>223.8</ele>
        <time>2020-02-09T11:56:04Z</time>
      </trkpt>
      <trkpt lat="56.878785417581" lon="14.758796378754">
        <ele>223.8</ele>
        <time>2020-02-09T11:56:08Z</time>
      </trkpt>
      <trkpt lat="56.87854494087" lon="14.759187478208">
        <ele>224</ele>
        <time>2020-02-09T11:56:15Z</time>
      </trkpt>
      <trkpt lat="56.878386606779" lon="14.759377076786">
        <ele>224.2</ele>
        <time>2020-02-09T11:56:19Z</time>
      </trkpt>
      <trkpt lat="56.878274792233" lon="14.759608668683">
        <ele>224.4</ele>
        <time>2020-02-09T11:56:23Z</time>
      </trkpt>
      <trkpt lat="56.878199187495" lon="14.759921145915">
        <ele>223.6</ele>
        <time>2020-02-09T11:56:26Z</time>
      </trkpt>
      <trkpt lat="56.878101789817" lon="14.760317861242">
        <ele>223.2</ele>
        <time>2020-02-09T11:56:29Z</time>
      </trkpt>
      <trkpt lat="56.877993579488" lon="14.760786241814">
        <ele>223.2</ele>
        <time>2020-02-09T11:56:33Z</time>
      </trkpt>
      <trkpt lat="56.877866593703" lon="14.761252526911">
        <ele>222.6</ele>
        <time>2020-02-09T11:56:37Z</time>
      </trkpt>
      <trkpt lat="56.877705828861" lon="14.761642955813">
        <ele>221.6</ele>
        <time>2020-02-09T11:56:41Z</time>
      </trkpt>
      <trkpt lat="56.877604156414" lon="14.761768349037">
        <ele>221.6</ele>
        <time>2020-02-09T11:56:43Z</time>
      </trkpt>
      <trkpt lat="56.877436937509" lon="14.761944033661">
        <ele>221.4</ele>
        <time>2020-02-09T11:56:46Z</time>
      </trkpt>
      <trkpt lat="56.877350687758" lon="14.762091722739">
        <ele>221.4</ele>
        <time>2020-02-09T11:56:48Z</time>
      </trkpt>
      <trkpt lat="56.877241723058" lon="14.762313926908">
        <ele>221.8</ele>
        <time>2020-02-09T11:56:51Z</time>
      </trkpt>
      <trkpt lat="56.877086993184" lon="14.762696895919">
        <ele>222.8</ele>
        <time>2020-02-09T11:56:55Z</time>
      </trkpt>
      <trkpt lat="56.876924803419" lon="14.763113811625">
        <ele>223.8</ele>
        <time>2020-02-09T11:56:59Z</time>
      </trkpt>
      <trkpt lat="56.876854982192" lon="14.763293435742">
        <ele>223.8</ele>
        <time>2020-02-09T11:57:01Z</time>
      </trkpt>
      <trkpt lat="56.876696815739" lon="14.763644888809">
        <ele>223.4</ele>
        <time>2020-02-09T11:57:05Z</time>
      </trkpt>
      <trkpt lat="56.87661375111" lon="14.763781178503">
        <ele>223.4</ele>
        <time>2020-02-09T11:57:07Z</time>
      </trkpt>
      <trkpt lat="56.876523394228" lon="14.763888215366">
        <ele>223.2</ele>
        <time>2020-02-09T11:57:09Z</time>
      </trkpt>
      <trkpt lat="56.876431360966" lon="14.763991396555">
        <ele>223.2</ele>
        <time>2020-02-09T11:57:11Z</time>
      </trkpt>
      <trkpt lat="56.876318875868" lon="14.764222820814">
        <ele>222.8</ele>
        <time>2020-02-09T11:57:14Z</time>
      </trkpt>
      <trkpt lat="56.876214437394" lon="14.764471344149">
        <ele>222.4</ele>
        <time>2020-02-09T11:57:17Z</time>
      </trkpt>
      <trkpt lat="56.876124080512" lon="14.764583745428">
        <ele>222.2</ele>
        <time>2020-02-09T11:57:19Z</time>
      </trkpt>
      <trkpt lat="56.875855608255" lon="14.764772086721">
        <ele>222</ele>
        <time>2020-02-09T11:57:24Z</time>
      </trkpt>
      <trkpt lat="56.875746308279" lon="14.764776110033">
        <ele>221.8</ele>
        <time>2020-02-09T11:57:26Z</time>
      </trkpt>
      <trkpt lat="56.875692496481" lon="14.764757334577">
        <ele>221.8</ele>
        <time>2020-02-09T11:57:27Z</time>
      </trkpt>
      <trkpt lat="56.875506418301" lon="14.764714083973">
        <ele>221</ele>
        <time>2020-02-09T11:57:30Z</time>
      </trkpt>
      <trkpt lat="56.875329727849" lon="14.764693632137">
        <ele>220.4</ele>
        <time>2020-02-09T11:57:33Z</time>
      </trkpt>
      <trkpt lat="56.875278346802" lon="14.76470343896">
        <ele>220.2</ele>
        <time>2020-02-09T11:57:34Z</time>
      </trkpt>
      <trkpt lat="56.875136608873" lon="14.764735457818">
        <ele>219.4</ele>
        <time>2020-02-09T11:57:37Z</time>
      </trkpt>
      <trkpt lat="56.875084641093" lon="14.764723136425">
        <ele>219</ele>
        <time>2020-02-09T11:57:38Z</time>
      </trkpt>
      <trkpt lat="56.875031416028" lon="14.764711904679">
        <ele>218.8</ele>
        <time>2020-02-09T11:57:39Z</time>
      </trkpt>
      <trkpt lat="56.874938293119" lon="14.764717352914">
        <ele>218.8</ele>
        <time>2020-02-09T11:57:41Z</time>
      </trkpt>
      <trkpt lat="56.874696391485" lon="14.76492723569">
        <ele>219</ele>
        <time>2020-02-09T11:57:46Z</time>
      </trkpt>
      <trkpt lat="56.874563203094" lon="14.764984735524">
        <ele>218.8</ele>
        <time>2020-02-09T11:57:48Z</time>
      </trkpt>
      <trkpt lat="56.874439234793" lon="14.764987753008">
        <ele>219</ele>
        <time>2020-02-09T11:57:50Z</time>
      </trkpt>
      <trkpt lat="56.874281990349" lon="14.76493058845">
        <ele>219.4</ele>
        <time>2020-02-09T11:57:53Z</time>
      </trkpt>
      <trkpt lat="56.874175540219" lon="14.764961769118">
        <ele>219.4</ele>
        <time>2020-02-09T11:57:55Z</time>
      </trkpt>
      <trkpt lat="56.874106221906" lon="14.765060926995">
        <ele>219.6</ele>
        <time>2020-02-09T11:57:57Z</time>
      </trkpt>
      <trkpt lat="56.873785949507" lon="14.765638439905">
        <ele>220.2</ele>
        <time>2020-02-09T11:58:04Z</time>
      </trkpt>
      <trkpt lat="56.873677655359" lon="14.76582242261">
        <ele>220.6</ele>
        <time>2020-02-09T11:58:06Z</time>
      </trkpt>
      <trkpt lat="56.873595764196" lon="14.766154513488">
        <ele>221.4</ele>
        <time>2020-02-09T11:58:10Z</time>
      </trkpt>
      <trkpt lat="56.873570367039" lon="14.76640747923">
        <ele>222.6</ele>
        <time>2020-02-09T11:58:13Z</time>
      </trkpt>
      <trkpt lat="56.873573803618" lon="14.766670922347">
        <ele>224</ele>
        <time>2020-02-09T11:58:16Z</time>
      </trkpt>
      <trkpt lat="56.873588974857" lon="14.766860269468">
        <ele>224.2</ele>
        <time>2020-02-09T11:58:18Z</time>
      </trkpt>
      <trkpt lat="56.873589058676" lon="14.767091190813">
        <ele>224</ele>
        <time>2020-02-09T11:58:20Z</time>
      </trkpt>
      <trkpt lat="56.87359961987" lon="14.767471393797">
        <ele>223.4</ele>
        <time>2020-02-09T11:58:23Z</time>
      </trkpt>
      <trkpt lat="56.873570450858" lon="14.767846400003">
        <ele>222.8</ele>
        <time>2020-02-09T11:58:26Z</time>
      </trkpt>
      <trkpt lat="56.873544215511" lon="14.768248563565">
        <ele>221.4</ele>
        <time>2020-02-09T11:58:29Z</time>
      </trkpt>
      <trkpt lat="56.873528625177" lon="14.768529608672">
        <ele>220.4</ele>
        <time>2020-02-09T11:58:31Z</time>
      </trkpt>
      <trkpt lat="56.873543042045" lon="14.768773773419">
        <ele>219.6</ele>
        <time>2020-02-09T11:58:33Z</time>
      </trkpt>
      <trkpt lat="56.873481351261" lon="14.768908219095">
        <ele>219.6</ele>
        <time>2020-02-09T11:58:35Z</time>
      </trkpt>
      <trkpt lat="56.87336576486" lon="14.769057333096">
        <ele>220.4</ele>
        <time>2020-02-09T11:58:38Z</time>
      </trkpt>
      <trkpt lat="56.873297452375" lon="14.769212314427">
        <ele>220.8</ele>
        <time>2020-02-09T11:58:40Z</time>
      </trkpt>
      <trkpt lat="56.873200473792" lon="14.76956577915">
        <ele>220.8</ele>
        <time>2020-02-09T11:58:44Z</time>
      </trkpt>
      <trkpt lat="56.872870310751" lon="14.770261057755">
        <ele>221.4</ele>
        <time>2020-02-09T11:58:59Z</time>
      </trkpt>
      <trkpt lat="56.87253595676" lon="14.770681745316">
        <ele>222.4</ele>
        <time>2020-02-09T11:59:05Z</time>
      </trkpt>
      <trkpt lat="56.872235717102" lon="14.771017188954">
        <ele>223.6</ele>
        <time>2020-02-09T11:59:12Z</time>
      </trkpt>
      <trkpt lat="56.872117616131" lon="14.771185497506">
        <ele>224.8</ele>
        <time>2020-02-09T11:59:15Z</time>
      </trkpt>
      <trkpt lat="56.872038574814" lon="14.771281973175">
        <ele>226</ele>
        <time>2020-02-09T11:59:17Z</time>
      </trkpt>
      <trkpt lat="56.87194838557" lon="14.771360930673">
        <ele>227.2</ele>
        <time>2020-02-09T11:59:19Z</time>
      </trkpt>
      <trkpt lat="56.871868338425" lon="14.771426980045">
        <ele>228.4</ele>
        <time>2020-02-09T11:59:21Z</time>
      </trkpt>
      <trkpt lat="56.871730707627" lon="14.771544913378">
        <ele>229.8</ele>
        <time>2020-02-09T11:59:25Z</time>
      </trkpt>
      <trkpt lat="56.871329214617" lon="14.772208508401">
        <ele>228.8</ele>
        <time>2020-02-09T11:59:36Z</time>
      </trkpt>
      <trkpt lat="56.870900480432" lon="14.772804042396">
        <ele>229.2</ele>
        <time>2020-02-09T11:59:45Z</time>
      </trkpt>
      <trkpt lat="56.870838873467" lon="14.773006800557">
        <ele>229.6</ele>
        <time>2020-02-09T11:59:47Z</time>
      </trkpt>
      <trkpt lat="56.870839208743" lon="14.773212157107">
        <ele>229.6</ele>
        <time>2020-02-09T11:59:49Z</time>
      </trkpt>
      <trkpt lat="56.871050767899" lon="14.774171968476">
        <ele>228.4</ele>
        <time>2020-02-09T11:59:59Z</time>
      </trkpt>
      <trkpt lat="56.871299123596" lon="14.775109064896">
        <ele>228.2</ele>
        <time>2020-02-09T12:00:09Z</time>
      </trkpt>
      <trkpt lat="56.871532727149" lon="14.77601062206">
        <ele>228.4</ele>
        <time>2020-02-09T12:00:18Z</time>
      </trkpt>
      <trkpt lat="56.871701287158" lon="14.776695255652">
        <ele>230.2</ele>
        <time>2020-02-09T12:00:25Z</time>
      </trkpt>
      <trkpt lat="56.871756859155" lon="14.776880830918">
        <ele>231.6</ele>
        <time>2020-02-09T12:00:27Z</time>
      </trkpt>
      <trkpt lat="56.871811173867" lon="14.777072273514">
        <ele>232.8</ele>
        <time>2020-02-09T12:00:29Z</time>
      </trkpt>
      <trkpt lat="56.871890634279" lon="14.777359018313">
        <ele>233.8</ele>
        <time>2020-02-09T12:00:32Z</time>
      </trkpt>
      <trkpt lat="56.872124656927" lon="14.778180528332">
        <ele>232.6</ele>
        <time>2020-02-09T12:00:40Z</time>
      </trkpt>
      <trkpt lat="56.872215013809" lon="14.778521168748">
        <ele>231.4</ele>
        <time>2020-02-09T12:00:43Z</time>
      </trkpt>
      <trkpt lat="56.872466051714" lon="14.779395987651">
        <ele>231.4</ele>
        <time>2020-02-09T12:00:51Z</time>
      </trkpt>
      <trkpt lat="56.872724465691" lon="14.780261754102">
        <ele>232.6</ele>
        <time>2020-02-09T12:00:59Z</time>
      </trkpt>
      <trkpt lat="56.872777606937" lon="14.780536093689">
        <ele>232.6</ele>
        <time>2020-02-09T12:01:01Z</time>
      </trkpt>
      <trkpt lat="56.872877016271" lon="14.780980837303">
        <ele>231.2</ele>
        <time>2020-02-09T12:01:04Z</time>
      </trkpt>
      <trkpt lat="56.872918422857" lon="14.781123748698">
        <ele>230.2</ele>
        <time>2020-02-09T12:01:05Z</time>
      </trkpt>
      <trkpt lat="56.872968965714" lon="14.781264732256">
        <ele>229</ele>
        <time>2020-02-09T12:01:06Z</time>
      </trkpt>
      <trkpt lat="56.873016574906" lon="14.781409822945">
        <ele>227.6</ele>
        <time>2020-02-09T12:01:07Z</time>
      </trkpt>
      <trkpt lat="56.873061166614" lon="14.781562457344">
        <ele>226</ele>
        <time>2020-02-09T12:01:08Z</time>
      </trkpt>
      <trkpt lat="56.87310341139" lon="14.781719366512">
        <ele>224.6</ele>
        <time>2020-02-09T12:01:09Z</time>
      </trkpt>
      <trkpt lat="56.873144147424" lon="14.781877281508">
        <ele>223.6</ele>
        <time>2020-02-09T12:01:10Z</time>
      </trkpt>
      <trkpt lat="56.873227128234" lon="14.782186489799">
        <ele>222.4</ele>
        <time>2020-02-09T12:01:12Z</time>
      </trkpt>
      <trkpt lat="56.873386551972" lon="14.782774982998">
        <ele>221</ele>
        <time>2020-02-09T12:01:16Z</time>
      </trkpt>
      <trkpt lat="56.873494929939" lon="14.783213104911">
        <ele>219.8</ele>
        <time>2020-02-09T12:01:19Z</time>
      </trkpt>
      <trkpt lat="56.873641277913" lon="14.784086415072">
        <ele>218.8</ele>
        <time>2020-02-09T12:01:25Z</time>
      </trkpt>
      <trkpt lat="56.873671871848" lon="14.784352540397">
        <ele>218.8</ele>
        <time>2020-02-09T12:01:27Z</time>
      </trkpt>
      <trkpt lat="56.873679164101" lon="14.784596369868">
        <ele>218.8</ele>
        <time>2020-02-09T12:01:29Z</time>
      </trkpt>
      <trkpt lat="56.873638679524" lon="14.784773227958">
        <ele>219.8</ele>
        <time>2020-02-09T12:01:31Z</time>
      </trkpt>
      <trkpt lat="56.873622921552" lon="14.784868949256">
        <ele>220.4</ele>
        <time>2020-02-09T12:01:32Z</time>
      </trkpt>
      <trkpt lat="56.873610935435" lon="14.784981266716">
        <ele>221</ele>
        <time>2020-02-09T12:01:33Z</time>
      </trkpt>
      <trkpt lat="56.87361051634" lon="14.785102888085">
        <ele>221.4</ele>
        <time>2020-02-09T12:01:34Z</time>
      </trkpt>
      <trkpt lat="56.873688048915" lon="14.785750054584">
        <ele>219.2</ele>
        <time>2020-02-09T12:01:39Z</time>
      </trkpt>
      <trkpt lat="56.873708752208" lon="14.785876705093">
        <ele>217.8</ele>
        <time>2020-02-09T12:01:40Z</time>
      </trkpt>
      <trkpt lat="56.873773376657" lon="14.786109470456">
        <ele>216.8</ele>
        <time>2020-02-09T12:01:42Z</time>
      </trkpt>
      <trkpt lat="56.873877144579" lon="14.786643146029">
        <ele>217.4</ele>
        <time>2020-02-09T12:01:47Z</time>
      </trkpt>
      <trkpt lat="56.873917126242" lon="14.786797875903">
        <ele>217.8</ele>
        <time>2020-02-09T12:01:49Z</time>
      </trkpt>
      <trkpt lat="56.873967752918" lon="14.787004992652">
        <ele>219</ele>
        <time>2020-02-09T12:01:52Z</time>
      </trkpt>
      <trkpt lat="56.874002705441" lon="14.787147149676">
        <ele>220.2</ele>
        <time>2020-02-09T12:01:54Z</time>
      </trkpt>
      <trkpt lat="56.874045117855" lon="14.787290228709">
        <ele>221.6</ele>
        <time>2020-02-09T12:01:56Z</time>
      </trkpt>
      <trkpt lat="56.874063055121" lon="14.787369186207">
        <ele>222</ele>
        <time>2020-02-09T12:01:57Z</time>
      </trkpt>
      <trkpt lat="56.874194148037" lon="14.788271330104">
        <ele>222.2</ele>
        <time>2020-02-09T12:02:08Z</time>
      </trkpt>
      <trkpt lat="56.874216108615" lon="14.788445673624">
        <ele>222</ele>
        <time>2020-02-09T12:02:10Z</time>
      </trkpt>
      <trkpt lat="56.87414779613" lon="14.788565450975">
        <ele>221.6</ele>
        <time>2020-02-09T12:02:12Z</time>
      </trkpt>
      <trkpt lat="56.874058864171" lon="14.789291072058">
        <ele>221.8</ele>
        <time>2020-02-09T12:02:19Z</time>
      </trkpt>
      <trkpt lat="56.874039334344" lon="14.789986853577">
        <ele>222.6</ele>
        <time>2020-02-09T12:02:26Z</time>
      </trkpt>
      <trkpt lat="56.874044028208" lon="14.790095734458">
        <ele>222.6</ele>
        <time>2020-02-09T12:02:27Z</time>
      </trkpt>
      <trkpt lat="56.87402542039" lon="14.790434027942">
        <ele>222.4</ele>
        <time>2020-02-09T12:02:30Z</time>
      </trkpt>
      <trkpt lat="56.873981666872" lon="14.790593870775">
        <ele>221.8</ele>
        <time>2020-02-09T12:02:32Z</time>
      </trkpt>
      <trkpt lat="56.873935482603" lon="14.790629242393">
        <ele>221.4</ele>
        <time>2020-02-09T12:02:33Z</time>
      </trkpt>
      <trkpt lat="56.873881670805" lon="14.790649442772">
        <ele>221.2</ele>
        <time>2020-02-09T12:02:34Z</time>
      </trkpt>
      <trkpt lat="56.873655610962" lon="14.790677438318">
        <ele>220.6</ele>
        <time>2020-02-09T12:02:38Z</time>
      </trkpt>
      <trkpt lat="56.873583945717" lon="14.790785481009">
        <ele>221</ele>
        <time>2020-02-09T12:02:40Z</time>
      </trkpt>
      <trkpt lat="56.873532061756" lon="14.791012043766">
        <ele>221.4</ele>
        <time>2020-02-09T12:02:42Z</time>
      </trkpt>
      <trkpt lat="56.873541700941" lon="14.791624760656">
        <ele>222.4</ele>
        <time>2020-02-09T12:02:48Z</time>
      </trkpt>
      <trkpt lat="56.873599200775" lon="14.792078975817">
        <ele>223.8</ele>
        <time>2020-02-09T12:02:53Z</time>
      </trkpt>
      <trkpt lat="56.87363650023" lon="14.792350884653">
        <ele>225</ele>
        <time>2020-02-09T12:02:56Z</time>
      </trkpt>
      <trkpt lat="56.873663909043" lon="14.792534783539">
        <ele>225.8</ele>
        <time>2020-02-09T12:02:58Z</time>
      </trkpt>
      <trkpt lat="56.873686204897" lon="14.792712144543">
        <ele>226.2</ele>
        <time>2020-02-09T12:03:00Z</time>
      </trkpt>
      <trkpt lat="56.873687378363" lon="14.792797807561">
        <ele>226.6</ele>
        <time>2020-02-09T12:03:01Z</time>
      </trkpt>
      <trkpt lat="56.87364404394" lon="14.792934181074">
        <ele>226.8</ele>
        <time>2020-02-09T12:03:03Z</time>
      </trkpt>
      <trkpt lat="56.873373727665" lon="14.792848518056">
        <ele>225.2</ele>
        <time>2020-02-09T12:03:10Z</time>
      </trkpt>
      <trkpt lat="56.873300888954" lon="14.792769225282">
        <ele>225.4</ele>
        <time>2020-02-09T12:03:12Z</time>
      </trkpt>
      <trkpt lat="56.873274905064" lon="14.792662439876">
        <ele>225.8</ele>
        <time>2020-02-09T12:03:14Z</time>
      </trkpt>
      <trkpt lat="56.873292507054" lon="14.792555067737">
        <ele>226.2</ele>
        <time>2020-02-09T12:03:16Z</time>
      </trkpt>
      <trkpt lat="56.873335170925" lon="14.792383574063">
        <ele>227.6</ele>
        <time>2020-02-09T12:03:23Z</time>
      </trkpt>
      <trkpt lat="56.873336176753" lon="14.792384915167">
        <ele>228</ele>
        <time>2020-02-09T12:03:25Z</time>
      </trkpt>
    </trkseg>
  </trk>
</gpx>